{
  "fields": [{"id":"_id","type":"int"},{"id":"data_ora","type":"text"},{"id":"id_station","type":"text"},{"id":"denominazione","type":"text"},{"id":"temperatura","type":"text"},{"id":"cod_validazione_temperatura","type":"text"},{"id":"umidita","type":"text"},{"id":"cod_validazione_umidita_rel","type":"text"},{"id":"precipitazione","type":"text"},{"id":"cod_validazione_precipitazione","type":"text"},{"id":"velocita_vento","type":"text"},{"id":"cod_validazione_velocita_vento","type":"text"},{"id":"direzione_vento","type":"text"},{"id":"cod_validazione_direzione_vento","type":"text"},{"id":"rad_solare_globale","type":"text"},{"id":"cod_validazione_rad_solare_globale","type":"text"},{"id":"pressione_atmosferica","type":"text"},{"id":"cod_validazione_pressione_atmosferica","type":"text"},{"id":"Latitude","type":"text"},{"id":"Longitude","type":"text"}],
  "records": [
    [1,"2024-01-01 00:00:00","13","galatina","11.37","1","92.83","1","0.0","1","null","6","null","6","null","6","1012.62","1","40.167168","18.174857"],
    [2,"2024-01-01 01:00:00","13","galatina","10.89","1","94.1","1","0.0","1","null","6","null","6","null","6","1012.35","1","40.167168","18.174857"],
    [3,"2024-01-01 02:00:00","13","galatina","11.09","1","94.73","1","0.0","1","null","6","null","6","null","6","1012.26","1","40.167168","18.174857"],
    [4,"2024-01-01 03:00:00","13","galatina","10.96","1","95.98","1","0.0","1","null","6","null","6","null","6","1012.0","1","40.167168","18.174857"],
    [5,"2024-01-01 04:00:00","13","galatina","11.37","1","96.59","1","0.0","1","null","6","null","6","null","6","1011.66","1","40.167168","18.174857"],
    [6,"2024-01-01 05:00:00","13","galatina","11.1","1","97.4","1","0.2","1","null","6","null","6","null","6","1011.28","1","40.167168","18.174857"],
    [7,"2024-01-01 06:00:00","13","galatina","10.48","1","97.82","1","0.0","1","null","6","null","6","null","6","1011.14","1","40.167168","18.174857"],
    [8,"2024-01-01 07:00:00","13","galatina","10.06","1","98.56","1","0.0","1","null","6","null","6","null","6","1011.21","1","40.167168","18.174857"],
    [9,"2024-01-01 08:00:00","13","galatina","10.19","1","98.76","1","0.0","1","null","6","null","6","null","6","1011.33","1","40.167168","18.174857"],
    [10,"2024-01-01 09:00:00","13","galatina","13.14","1","98.76","1","0.0","1","null","6","null","6","null","6","1011.36","1","40.167168","18.174857"],
    [11,"2024-01-01 10:00:00","13","galatina","15.07","1","90.55","1","0.0","1","null","6","null","6","null","6","1011.32","1","40.167168","18.174857"],
    [12,"2024-01-01 11:00:00","13","galatina","17.71","1","68.52","1","0.0","1","null","6","null","6","null","6","1011.12","1","40.167168","18.174857"],
    [13,"2024-01-01 12:00:00","13","galatina","18.77","1","59.43","1","0.0","1","null","6","null","6","null","6","1010.74","1","40.167168","18.174857"],
    [14,"2024-01-01 13:00:00","13","galatina","18.72","1","55.85","1","0.0","1","null","6","null","6","null","6","1010.51","1","40.167168","18.174857"],
    [15,"2024-01-01 14:00:00","13","galatina","18.48","1","57.19","1","0.0","1","null","6","null","6","null","6","1010.22","1","40.167168","18.174857"],
    [16,"2024-01-01 15:00:00","13","galatina","18.68","1","56.31","1","0.0","1","null","6","null","6","null","6","1010.05","1","40.167168","18.174857"],
    [17,"2024-01-01 16:00:00","13","galatina","17.13","1","61.94","1","0.0","1","null","6","null","6","null","6","1010.18","1","40.167168","18.174857"],
    [18,"2024-01-01 17:00:00","13","galatina","15.06","1","79.13","1","0.0","1","null","6","null","6","null","6","1010.21","1","40.167168","18.174857"],
    [19,"2024-01-01 18:00:00","13","galatina","13.53","1","87.55","1","0.0","1","null","6","null","6","null","6","1010.23","1","40.167168","18.174857"],
    [20,"2024-01-01 19:00:00","13","galatina","13.02","1","91.03","1","0.0","1","null","6","null","6","null","6","1010.46","1","40.167168","18.174857"],
    [21,"2024-01-01 20:00:00","13","galatina","12.1","1","92.98","1","0.0","1","null","6","null","6","null","6","1010.58","1","40.167168","18.174857"],
    [22,"2024-01-01 21:00:00","13","galatina","11.59","1","94.41","1","0.0","1","null","6","null","6","null","6","1010.67","1","40.167168","18.174857"],
    [23,"2024-01-01 22:00:00","13","galatina","11.49","1","94.49","1","0.0","1","null","6","null","6","null","6","1010.64","1","40.167168","18.174857"],
    [24,"2024-01-01 23:00:00","13","galatina","11.72","1","92.0","1","0.0","1","null","6","null","6","null","6","1010.53","1","40.167168","18.174857"],
    [25,"2024-01-02 00:00:00","13","galatina","11.46","1","89.93","1","0.0","1","null","6","null","6","null","6","1010.48","1","40.167168","18.174857"],
    [26,"2024-01-02 01:00:00","13","galatina","11.39","1","90.58","1","0.0","1","null","6","null","6","null","6","1010.27","1","40.167168","18.174857"],
    [27,"2024-01-02 02:00:00","13","galatina","11.36","1","91.25","1","0.0","1","null","6","null","6","null","6","1010.32","1","40.167168","18.174857"],
    [28,"2024-01-02 03:00:00","13","galatina","11.61","1","91.44","1","0.2","1","null","6","null","6","null","6","1010.44","1","40.167168","18.174857"],
    [29,"2024-01-02 04:00:00","13","galatina","11.59","1","92.86","1","0.0","1","null","6","null","6","null","6","1010.27","1","40.167168","18.174857"],
    [30,"2024-01-02 05:00:00","13","galatina","11.41","1","94.11","1","0.0","1","null","6","null","6","null","6","1010.07","1","40.167168","18.174857"],
    [31,"2024-01-02 06:00:00","13","galatina","11.06","1","92.6","1","0.0","1","null","6","null","6","null","6","1010.18","1","40.167168","18.174857"],
    [32,"2024-01-02 07:00:00","13","galatina","11.08","1","92.28","1","0.0","1","null","6","null","6","null","6","1010.61","1","40.167168","18.174857"],
    [33,"2024-01-02 08:00:00","13","galatina","11.44","1","93.51","1","0.2","1","null","6","null","6","null","6","1011.22","1","40.167168","18.174857"],
    [34,"2024-01-02 09:00:00","13","galatina","12.43","1","80.75","1","0.0","1","null","6","null","6","null","6","1011.63","1","40.167168","18.174857"],
    [35,"2024-01-02 10:00:00","13","galatina","13.8","1","64.37","1","0.0","1","null","6","null","6","null","6","1011.89","1","40.167168","18.174857"],
    [36,"2024-01-02 11:00:00","13","galatina","15.48","1","60.43","1","0.0","1","null","6","null","6","null","6","1012.12","1","40.167168","18.174857"],
    [37,"2024-01-02 12:00:00","13","galatina","16.55","1","59.28","1","0.0","1","null","6","null","6","null","6","1011.88","1","40.167168","18.174857"],
    [38,"2024-01-02 13:00:00","13","galatina","16.14","1","59.82","1","0.0","1","null","6","null","6","null","6","1011.67","1","40.167168","18.174857"],
    [39,"2024-01-02 14:00:00","13","galatina","17.9","1","54.66","1","0.0","1","null","6","null","6","null","6","1011.3","1","40.167168","18.174857"],
    [40,"2024-01-02 15:00:00","13","galatina","16.44","1","56.65","1","0.0","1","null","6","null","6","null","6","1011.31","1","40.167168","18.174857"],
    [41,"2024-01-02 16:00:00","13","galatina","14.7","1","61.81","1","0.0","1","null","6","null","6","null","6","1011.57","1","40.167168","18.174857"],
    [42,"2024-01-02 17:00:00","13","galatina","13.5","1","71.3","1","0.0","1","null","6","null","6","null","6","1011.99","1","40.167168","18.174857"],
    [43,"2024-01-02 18:00:00","13","galatina","11.16","1","82.76","1","0.0","1","null","6","null","6","null","6","1012.19","1","40.167168","18.174857"],
    [44,"2024-01-02 19:00:00","13","galatina","9.71","1","88.97","1","0.0","1","null","6","null","6","null","6","1012.36","1","40.167168","18.174857"],
    [45,"2024-01-02 20:00:00","13","galatina","8.63","1","92.16","1","0.0","1","null","6","null","6","null","6","1012.72","1","40.167168","18.174857"],
    [46,"2024-01-02 21:00:00","13","galatina","7.61","1","94.34","1","0.0","1","null","6","null","6","null","6","1012.87","1","40.167168","18.174857"],
    [47,"2024-01-02 22:00:00","13","galatina","7.46","1","95.79","1","0.0","1","null","6","null","6","null","6","1012.86","1","40.167168","18.174857"],
    [48,"2024-01-02 23:00:00","13","galatina","7.23","1","96.59","1","0.0","1","null","6","null","6","null","6","1012.79","1","40.167168","18.174857"],
    [49,"2024-01-03 00:00:00","13","galatina","7.4","1","97.09","1","0.0","1","null","6","null","6","null","6","1012.5","1","40.167168","18.174857"],
    [50,"2024-01-03 01:00:00","13","galatina","6.96","1","97.56","1","0.0","1","null","6","null","6","null","6","1011.93","1","40.167168","18.174857"],
    [51,"2024-01-03 02:00:00","13","galatina","7.13","1","97.83","1","0.0","1","null","6","null","6","null","6","1011.7","1","40.167168","18.174857"],
    [52,"2024-01-03 03:00:00","13","galatina","6.85","1","97.96","1","0.0","1","null","6","null","6","null","6","1011.7","1","40.167168","18.174857"],
    [53,"2024-01-03 04:00:00","13","galatina","6.53","1","98.05","1","0.0","1","null","6","null","6","null","6","1011.52","1","40.167168","18.174857"],
    [54,"2024-01-03 05:00:00","13","galatina","6.55","1","98.24","1","0.0","1","null","6","null","6","null","6","1011.11","1","40.167168","18.174857"],
    [55,"2024-01-03 06:00:00","13","galatina","6.27","1","98.08","1","0.0","1","null","6","null","6","null","6","1010.87","1","40.167168","18.174857"],
    [56,"2024-01-03 07:00:00","13","galatina","6.61","1","98.1","1","0.2","1","null","6","null","6","null","6","1010.85","1","40.167168","18.174857"],
    [57,"2024-01-03 08:00:00","13","galatina","7.33","1","97.74","1","0.0","1","null","6","null","6","null","6","1011.1","1","40.167168","18.174857"],
    [58,"2024-01-03 09:00:00","13","galatina","8.57","1","96.64","1","0.0","1","null","6","null","6","null","6","1010.8","1","40.167168","18.174857"],
    [59,"2024-01-03 10:00:00","13","galatina","11.52","1","88.75","1","0.0","1","null","6","null","6","null","6","1010.8","1","40.167168","18.174857"],
    [60,"2024-01-03 11:00:00","13","galatina","14.63","1","74.85","1","0.0","1","null","6","null","6","null","6","1010.53","1","40.167168","18.174857"],
    [61,"2024-01-03 12:00:00","13","galatina","16.3","1","62.89","1","0.0","1","null","6","null","6","null","6","1009.99","1","40.167168","18.174857"],
    [62,"2024-01-03 13:00:00","13","galatina","16.31","1","61.36","1","0.0","1","null","6","null","6","null","6","1009.38","1","40.167168","18.174857"],
    [63,"2024-01-03 14:00:00","13","galatina","16.73","1","59.58","1","0.0","1","null","6","null","6","null","6","1009.03","1","40.167168","18.174857"],
    [64,"2024-01-03 15:00:00","13","galatina","17.39","1","57.87","1","0.0","1","null","6","null","6","null","6","1008.95","1","40.167168","18.174857"],
    [65,"2024-01-03 16:00:00","13","galatina","16.17","1","60.48","1","0.0","1","null","6","null","6","null","6","1008.91","1","40.167168","18.174857"],
    [66,"2024-01-03 17:00:00","13","galatina","14.44","1","65.64","1","0.0","1","null","6","null","6","null","6","1009.04","1","40.167168","18.174857"],
    [67,"2024-01-03 18:00:00","13","galatina","12.19","1","74.1","1","0.0","1","null","6","null","6","null","6","1009.13","1","40.167168","18.174857"],
    [68,"2024-01-03 19:00:00","13","galatina","11.05","1","80.35","1","0.0","1","null","6","null","6","null","6","1009.15","1","40.167168","18.174857"],
    [69,"2024-01-03 20:00:00","13","galatina","10.15","1","87.07","1","0.0","1","null","6","null","6","null","6","1009.28","1","40.167168","18.174857"],
    [70,"2024-01-03 21:00:00","13","galatina","9.56","1","91.12","1","0.0","1","null","6","null","6","null","6","1009.25","1","40.167168","18.174857"],
    [71,"2024-01-03 22:00:00","13","galatina","9.39","1","93.56","1","0.0","1","null","6","null","6","null","6","1008.96","1","40.167168","18.174857"],
    [72,"2024-01-03 23:00:00","13","galatina","9.29","1","94.18","1","0.0","1","null","6","null","6","null","6","1009.02","1","40.167168","18.174857"],
    [73,"2024-01-04 00:00:00","13","galatina","10.67","1","92.28","1","0.0","1","null","6","null","6","null","6","1008.75","1","40.167168","18.174857"],
    [74,"2024-01-04 01:00:00","13","galatina","10.82","1","89.82","1","0.0","1","null","6","null","6","null","6","1008.57","1","40.167168","18.174857"],
    [75,"2024-01-04 02:00:00","13","galatina","10.44","1","88.85","1","0.0","1","null","6","null","6","null","6","1008.37","1","40.167168","18.174857"],
    [76,"2024-01-04 03:00:00","13","galatina","11.82","1","88.53","1","0.0","1","null","6","null","6","null","6","1008.14","1","40.167168","18.174857"],
    [77,"2024-01-04 04:00:00","13","galatina","12.71","1","89.87","1","0.0","1","null","6","null","6","null","6","1007.87","1","40.167168","18.174857"],
    [78,"2024-01-04 05:00:00","13","galatina","11.24","1","90.79","1","0.0","1","null","6","null","6","null","6","1007.43","1","40.167168","18.174857"],
    [79,"2024-01-04 06:00:00","13","galatina","10.07","1","92.24","1","0.0","1","null","6","null","6","null","6","1007.47","1","40.167168","18.174857"],
    [80,"2024-01-04 07:00:00","13","galatina","9.26","1","92.33","1","0.0","1","null","6","null","6","null","6","1007.7","1","40.167168","18.174857"],
    [81,"2024-01-04 08:00:00","13","galatina","9.36","1","93.22","1","0.0","1","null","6","null","6","null","6","1007.8","1","40.167168","18.174857"],
    [82,"2024-01-04 09:00:00","13","galatina","11.43","1","89.91","1","0.0","1","null","6","null","6","null","6","1008.04","1","40.167168","18.174857"],
    [83,"2024-01-04 10:00:00","13","galatina","15.79","1","76.35","1","0.0","1","null","6","null","6","null","6","1008.07","1","40.167168","18.174857"],
    [84,"2024-01-04 11:00:00","13","galatina","18.87","1","63.74","1","0.0","1","null","6","null","6","null","6","1008.06","1","40.167168","18.174857"],
    [85,"2024-01-04 12:00:00","13","galatina","19.2","1","61.69","1","0.0","1","null","6","null","6","null","6","1007.71","1","40.167168","18.174857"],
    [86,"2024-01-04 13:00:00","13","galatina","19.33","1","59.34","1","0.0","1","null","6","null","6","null","6","1007.33","1","40.167168","18.174857"],
    [87,"2024-01-04 14:00:00","13","galatina","19.92","1","57.92","1","0.0","1","null","6","null","6","null","6","1006.97","1","40.167168","18.174857"],
    [88,"2024-01-04 15:00:00","13","galatina","19.72","1","55.44","1","0.0","1","null","6","null","6","null","6","1007.0","1","40.167168","18.174857"],
    [89,"2024-01-04 16:00:00","13","galatina","17.83","1","62.35","1","0.0","1","null","6","null","6","null","6","1007.4","1","40.167168","18.174857"],
    [90,"2024-01-04 17:00:00","13","galatina","16.52","1","65.35","1","0.0","1","null","6","null","6","null","6","1008.09","1","40.167168","18.174857"],
    [91,"2024-01-04 18:00:00","13","galatina","13.79","1","71.61","1","0.0","1","null","6","null","6","null","6","1008.6","1","40.167168","18.174857"],
    [92,"2024-01-04 19:00:00","13","galatina","12.71","1","81.58","1","0.0","1","null","6","null","6","null","6","1009.18","1","40.167168","18.174857"],
    [93,"2024-01-04 20:00:00","13","galatina","11.79","1","84.81","1","0.0","1","null","6","null","6","null","6","1009.67","1","40.167168","18.174857"],
    [94,"2024-01-04 21:00:00","13","galatina","10.34","1","88.8","1","0.0","1","null","6","null","6","null","6","1010.04","1","40.167168","18.174857"],
    [95,"2024-01-04 22:00:00","13","galatina","9.22","1","92.29","1","0.0","1","null","6","null","6","null","6","1010.24","1","40.167168","18.174857"],
    [96,"2024-01-04 23:00:00","13","galatina","8.61","1","94.51","1","0.0","1","null","6","null","6","null","6","1010.37","1","40.167168","18.174857"],
    [97,"2024-01-05 00:00:00","13","galatina","8.18","1","94.47","1","0.0","1","null","6","null","6","null","6","1010.41","1","40.167168","18.174857"],
    [98,"2024-01-05 01:00:00","13","galatina","6.94","1","94.4","1","0.0","1","null","6","null","6","null","6","1010.45","1","40.167168","18.174857"],
    [99,"2024-01-05 02:00:00","13","galatina","6.91","1","95.29","1","0.0","1","null","6","null","6","null","6","1010.55","1","40.167168","18.174857"],
    [100,"2024-01-05 03:00:00","13","galatina","6.6","1","95.4","1","0.0","1","null","6","null","6","null","6","1010.65","1","40.167168","18.174857"],
    [101,"2024-01-05 04:00:00","13","galatina","7.03","1","94.63","1","0.0","1","null","6","null","6","null","6","1010.39","1","40.167168","18.174857"],
    [102,"2024-01-05 05:00:00","13","galatina","7.02","1","93.45","1","0.0","1","null","6","null","6","null","6","1010.09","1","40.167168","18.174857"],
    [103,"2024-01-05 06:00:00","13","galatina","6.86","1","93.68","1","0.0","1","null","6","null","6","null","6","1010.03","1","40.167168","18.174857"],
    [104,"2024-01-05 07:00:00","13","galatina","7.03","1","93.12","1","0.0","1","null","6","null","6","null","6","1010.13","1","40.167168","18.174857"],
    [105,"2024-01-05 08:00:00","13","galatina","7.26","1","94.03","1","0.0","1","null","6","null","6","null","6","1010.17","1","40.167168","18.174857"],
    [106,"2024-01-05 09:00:00","13","galatina","10.02","1","94.17","1","0.0","1","null","6","null","6","null","6","1010.2","1","40.167168","18.174857"],
    [107,"2024-01-05 10:00:00","13","galatina","13.15","1","92.91","1","0.0","1","null","6","null","6","null","6","1010.25","1","40.167168","18.174857"],
    [108,"2024-01-05 11:00:00","13","galatina","17.38","1","71.15","1","0.2","1","null","6","null","6","null","6","1010.03","1","40.167168","18.174857"],
    [109,"2024-01-05 12:00:00","13","galatina","17.37","1","70.07","1","0.0","1","null","6","null","6","null","6","1009.49","1","40.167168","18.174857"],
    [110,"2024-01-05 13:00:00","13","galatina","18.33","1","66.46","1","0.0","1","null","6","null","6","null","6","1008.84","1","40.167168","18.174857"],
    [111,"2024-01-05 14:00:00","13","galatina","17.44","1","73.73","1","0.0","1","null","6","null","6","null","6","1008.38","1","40.167168","18.174857"],
    [112,"2024-01-05 15:00:00","13","galatina","16.91","1","77.14","1","0.0","1","null","6","null","6","null","6","1008.13","1","40.167168","18.174857"],
    [113,"2024-01-05 16:00:00","13","galatina","16.42","1","81.78","1","0.0","1","null","6","null","6","null","6","1008.19","1","40.167168","18.174857"],
    [114,"2024-01-05 17:00:00","13","galatina","16.09","1","83.34","1","0.0","1","null","6","null","6","null","6","1007.95","1","40.167168","18.174857"],
    [115,"2024-01-05 18:00:00","13","galatina","15.84","1","84.65","1","0.0","1","null","6","null","6","null","6","1007.86","1","40.167168","18.174857"],
    [116,"2024-01-05 19:00:00","13","galatina","15.64","1","85.02","1","0.0","1","null","6","null","6","null","6","1007.86","1","40.167168","18.174857"],
    [117,"2024-01-05 20:00:00","13","galatina","15.77","1","84.48","1","0.0","1","null","6","null","6","null","6","1007.87","1","40.167168","18.174857"],
    [118,"2024-01-05 21:00:00","13","galatina","15.76","1","84.27","1","0.0","1","null","6","null","6","null","6","1007.48","1","40.167168","18.174857"],
    [119,"2024-01-05 22:00:00","13","galatina","15.57","1","85.09","1","0.0","1","null","6","null","6","null","6","1007.32","1","40.167168","18.174857"],
    [120,"2024-01-05 23:00:00","13","galatina","15.53","1","84.62","1","0.0","1","null","6","null","6","null","6","1007.11","1","40.167168","18.174857"],
    [121,"2024-01-06 00:00:00","13","galatina","15.49","1","82.73","1","0.0","1","null","6","null","6","null","6","1006.86","1","40.167168","18.174857"],
    [122,"2024-01-06 01:00:00","13","galatina","15.51","1","82.93","1","0.0","1","null","6","null","6","null","6","1006.53","1","40.167168","18.174857"],
    [123,"2024-01-06 02:00:00","13","galatina","15.63","1","84.28","1","0.0","1","null","6","null","6","null","6","1006.23","1","40.167168","18.174857"],
    [124,"2024-01-06 03:00:00","13","galatina","15.46","1","84.3","1","0.0","1","null","6","null","6","null","6","1005.99","1","40.167168","18.174857"],
    [125,"2024-01-06 04:00:00","13","galatina","15.24","1","85.51","1","0.0","1","null","6","null","6","null","6","1005.53","1","40.167168","18.174857"],
    [126,"2024-01-06 05:00:00","13","galatina","15.35","1","84.2","1","0.0","1","null","6","null","6","null","6","1005.04","1","40.167168","18.174857"],
    [127,"2024-01-06 06:00:00","13","galatina","15.57","1","84.11","1","0.0","1","null","6","null","6","null","6","1004.85","1","40.167168","18.174857"],
    [128,"2024-01-06 07:00:00","13","galatina","15.75","1","83.88","1","0.0","1","null","6","null","6","null","6","1004.74","1","40.167168","18.174857"],
    [129,"2024-01-06 08:00:00","13","galatina","15.82","1","84.33","1","0.0","1","null","6","null","6","null","6","1004.35","1","40.167168","18.174857"],
    [130,"2024-01-06 09:00:00","13","galatina","15.94","1","84.82","1","0.0","1","null","6","null","6","null","6","1004.02","1","40.167168","18.174857"],
    [131,"2024-01-06 10:00:00","13","galatina","16.63","1","81.46","1","0.0","1","null","6","null","6","null","6","1003.63","1","40.167168","18.174857"],
    [132,"2024-01-06 11:00:00","13","galatina","17.48","1","78.06","1","0.0","1","null","6","null","6","null","6","1002.96","1","40.167168","18.174857"],
    [133,"2024-01-06 12:00:00","13","galatina","17.6","1","77.75","1","0.0","1","null","6","null","6","null","6","1001.86","1","40.167168","18.174857"],
    [134,"2024-01-06 13:00:00","13","galatina","17.45","1","77.93","1","0.0","1","null","6","null","6","null","6","1000.72","1","40.167168","18.174857"],
    [135,"2024-01-06 14:00:00","13","galatina","17.17","1","77.89","1","0.0","1","null","6","null","6","null","6","999.48","1","40.167168","18.174857"],
    [136,"2024-01-06 15:00:00","13","galatina","17.11","1","79.31","1","0.0","1","null","6","null","6","null","6","998.07","1","40.167168","18.174857"],
    [137,"2024-01-06 16:00:00","13","galatina","16.93","1","80.56","1","0.0","1","null","6","null","6","null","6","997.29","1","40.167168","18.174857"],
    [138,"2024-01-06 17:00:00","13","galatina","16.23","1","80.75","1","0.0","1","null","6","null","6","null","6","996.45","1","40.167168","18.174857"],
    [139,"2024-01-06 18:00:00","13","galatina","13.65","1","85.51","1","3.2","1","null","6","null","6","null","6","996.16","1","40.167168","18.174857"],
    [140,"2024-01-06 19:00:00","13","galatina","12.97","1","85.8","1","1.6","1","null","6","null","6","null","6","996.23","1","40.167168","18.174857"],
    [141,"2024-01-06 20:00:00","13","galatina","12.03","1","80.67","1","0.0","1","null","6","null","6","null","6","995.92","1","40.167168","18.174857"],
    [142,"2024-01-06 21:00:00","13","galatina","11.35","1","84.67","1","0.0","1","null","6","null","6","null","6","995.57","1","40.167168","18.174857"],
    [143,"2024-01-06 22:00:00","13","galatina","11.01","1","83.26","1","0.0","1","null","6","null","6","null","6","995.55","1","40.167168","18.174857"],
    [144,"2024-01-06 23:00:00","13","galatina","11.04","1","82.01","1","0.0","1","null","6","null","6","null","6","995.3","1","40.167168","18.174857"],
    [145,"2024-01-07 00:00:00","13","galatina","11.13","1","82.05","1","0.0","1","null","6","null","6","null","6","994.8","1","40.167168","18.174857"],
    [146,"2024-01-07 01:00:00","13","galatina","10.86","1","81.46","1","0.0","1","null","6","null","6","null","6","994.84","1","40.167168","18.174857"],
    [147,"2024-01-07 02:00:00","13","galatina","10.39","1","86.57","1","0.2","1","null","6","null","6","null","6","994.58","1","40.167168","18.174857"],
    [148,"2024-01-07 03:00:00","13","galatina","9.61","1","91.43","1","0.2","1","null","6","null","6","null","6","994.35","1","40.167168","18.174857"],
    [149,"2024-01-07 04:00:00","13","galatina","9.72","1","91.45","1","0.0","1","null","6","null","6","null","6","994.09","1","40.167168","18.174857"],
    [150,"2024-01-07 05:00:00","13","galatina","9.27","1","93.21","1","0.0","1","null","6","null","6","null","6","994.0","1","40.167168","18.174857"],
    [151,"2024-01-07 06:00:00","13","galatina","8.98","1","95.03","1","0.0","1","null","6","null","6","null","6","994.26","1","40.167168","18.174857"],
    [152,"2024-01-07 07:00:00","13","galatina","8.85","1","95.3","1","0.0","1","null","6","null","6","null","6","994.53","1","40.167168","18.174857"],
    [153,"2024-01-07 08:00:00","13","galatina","8.84","1","95.64","1","0.0","1","null","6","null","6","null","6","994.73","1","40.167168","18.174857"],
    [154,"2024-01-07 09:00:00","13","galatina","9.77","1","95.1","1","0.0","1","null","6","null","6","null","6","994.98","1","40.167168","18.174857"],
    [155,"2024-01-07 10:00:00","13","galatina","11.15","1","93.39","1","0.0","1","null","6","null","6","null","6","995.36","1","40.167168","18.174857"],
    [156,"2024-01-07 11:00:00","13","galatina","13.2","1","86.43","1","0.0","1","null","6","null","6","null","6","995.76","1","40.167168","18.174857"],
    [157,"2024-01-07 12:00:00","13","galatina","14.03","1","78.73","1","1.6","1","null","6","null","6","null","6","995.79","1","40.167168","18.174857"],
    [158,"2024-01-07 13:00:00","13","galatina","12.52","1","88.16","1","0.2","1","null","6","null","6","null","6","995.88","1","40.167168","18.174857"],
    [159,"2024-01-07 14:00:00","13","galatina","12.73","1","79.62","1","0.0","1","null","6","null","6","null","6","996.09","1","40.167168","18.174857"],
    [160,"2024-01-07 15:00:00","13","galatina","12.98","1","72.44","1","0.0","1","null","6","null","6","null","6","996.49","1","40.167168","18.174857"],
    [161,"2024-01-07 16:00:00","13","galatina","12.86","1","71.79","1","0.0","1","null","6","null","6","null","6","996.95","1","40.167168","18.174857"],
    [162,"2024-01-07 17:00:00","13","galatina","12.43","1","72.09","1","0.0","1","null","6","null","6","null","6","997.46","1","40.167168","18.174857"],
    [163,"2024-01-07 18:00:00","13","galatina","11.96","1","76.91","1","0.4","1","null","6","null","6","null","6","998.08","1","40.167168","18.174857"],
    [164,"2024-01-07 19:00:00","13","galatina","11.03","1","82.54","1","0.2","1","null","6","null","6","null","6","998.75","1","40.167168","18.174857"],
    [165,"2024-01-07 20:00:00","13","galatina","10.64","1","86.83","1","0.2","1","null","6","null","6","null","6","999.18","1","40.167168","18.174857"],
    [166,"2024-01-07 21:00:00","13","galatina","11.4","1","74.49","1","0.0","1","null","6","null","6","null","6","999.41","1","40.167168","18.174857"],
    [167,"2024-01-07 22:00:00","13","galatina","12.06","1","62.72","1","0.0","1","null","6","null","6","null","6","999.63","1","40.167168","18.174857"],
    [168,"2024-01-07 23:00:00","13","galatina","11.89","1","64.66","1","0.0","1","null","6","null","6","null","6","999.97","1","40.167168","18.174857"],
    [169,"2024-01-08 00:00:00","13","galatina","11.4","1","66.82","1","0.0","1","null","6","null","6","null","6","1000.23","1","40.167168","18.174857"],
    [170,"2024-01-08 01:00:00","13","galatina","11.03","1","71.7","1","0.0","1","null","6","null","6","null","6","1000.4","1","40.167168","18.174857"],
    [171,"2024-01-08 02:00:00","13","galatina","10.68","1","73.0","1","0.0","1","null","6","null","6","null","6","1000.6","1","40.167168","18.174857"],
    [172,"2024-01-08 03:00:00","13","galatina","10.88","1","70.27","1","0.0","1","null","6","null","6","null","6","1000.63","1","40.167168","18.174857"],
    [173,"2024-01-08 04:00:00","13","galatina","10.03","1","72.99","1","0.0","1","null","6","null","6","null","6","1000.66","1","40.167168","18.174857"],
    [174,"2024-01-08 05:00:00","13","galatina","8.14","1","82.98","1","0.0","1","null","6","null","6","null","6","1000.85","1","40.167168","18.174857"],
    [175,"2024-01-08 06:00:00","13","galatina","8.49","1","85.96","1","0.0","1","null","6","null","6","null","6","1001.19","1","40.167168","18.174857"],
    [176,"2024-01-08 07:00:00","13","galatina","9.0","1","85.77","1","0.0","1","null","6","null","6","null","6","1001.56","1","40.167168","18.174857"],
    [177,"2024-01-08 08:00:00","13","galatina","8.59","1","86.26","1","0.0","1","null","6","null","6","null","6","1001.82","1","40.167168","18.174857"],
    [178,"2024-01-08 09:00:00","13","galatina","9.81","1","86.25","1","0.0","1","null","6","null","6","null","6","1002.09","1","40.167168","18.174857"],
    [179,"2024-01-08 10:00:00","13","galatina","12.71","1","77.84","1","0.0","1","null","6","null","6","null","6","1002.45","1","40.167168","18.174857"],
    [180,"2024-01-08 11:00:00","13","galatina","14.45","1","70.01","1","0.0","1","null","6","null","6","null","6","1002.49","1","40.167168","18.174857"],
    [181,"2024-01-08 12:00:00","13","galatina","14.14","1","69.44","1","0.0","1","null","6","null","6","null","6","1002.29","1","40.167168","18.174857"],
    [182,"2024-01-08 13:00:00","13","galatina","13.0","1","72.65","1","1.0","1","null","6","null","6","null","6","1002.03","1","40.167168","18.174857"],
    [183,"2024-01-08 14:00:00","13","galatina","12.7","1","74.0","1","0.0","1","null","6","null","6","null","6","1001.92","1","40.167168","18.174857"],
    [184,"2024-01-08 15:00:00","13","galatina","14.89","1","63.85","1","0.0","1","null","6","null","6","null","6","1002.04","1","40.167168","18.174857"],
    [185,"2024-01-08 16:00:00","13","galatina","13.19","1","72.09","1","0.0","1","null","6","null","6","null","6","1002.34","1","40.167168","18.174857"],
    [186,"2024-01-08 17:00:00","13","galatina","11.41","1","78.93","1","0.0","1","null","6","null","6","null","6","1002.6","1","40.167168","18.174857"],
    [187,"2024-01-08 18:00:00","13","galatina","10.29","1","82.42","1","0.0","1","null","6","null","6","null","6","1002.83","1","40.167168","18.174857"],
    [188,"2024-01-08 19:00:00","13","galatina","9.69","1","86.07","1","0.0","1","null","6","null","6","null","6","1003.0","1","40.167168","18.174857"],
    [189,"2024-01-08 20:00:00","13","galatina","9.37","1","86.36","1","0.0","1","null","6","null","6","null","6","1003.37","1","40.167168","18.174857"],
    [190,"2024-01-08 21:00:00","13","galatina","9.22","1","85.96","1","0.0","1","null","6","null","6","null","6","1003.74","1","40.167168","18.174857"],
    [191,"2024-01-08 22:00:00","13","galatina","9.4","1","86.77","1","0.0","1","null","6","null","6","null","6","1004.06","1","40.167168","18.174857"],
    [192,"2024-01-08 23:00:00","13","galatina","10.23","1","82.11","1","0.0","1","null","6","null","6","null","6","1004.65","1","40.167168","18.174857"],
    [193,"2024-01-09 00:00:00","13","galatina","9.59","1","86.48","1","0.2","1","null","6","null","6","null","6","1004.95","1","40.167168","18.174857"],
    [194,"2024-01-09 01:00:00","13","galatina","9.14","1","84.88","1","0.2","1","null","6","null","6","null","6","1005.04","1","40.167168","18.174857"],
    [195,"2024-01-09 02:00:00","13","galatina","8.07","1","86.75","1","0.0","1","null","6","null","6","null","6","1005.08","1","40.167168","18.174857"],
    [196,"2024-01-09 03:00:00","13","galatina","7.54","1","90.45","1","0.0","1","null","6","null","6","null","6","1005.45","1","40.167168","18.174857"],
    [197,"2024-01-09 04:00:00","13","galatina","7.64","1","91.49","1","0.2","1","null","6","null","6","null","6","1005.78","1","40.167168","18.174857"],
    [198,"2024-01-09 05:00:00","13","galatina","7.85","1","91.23","1","0.0","1","null","6","null","6","null","6","1005.99","1","40.167168","18.174857"],
    [199,"2024-01-09 06:00:00","13","galatina","8.25","1","90.7","1","0.0","1","null","6","null","6","null","6","1006.34","1","40.167168","18.174857"],
    [200,"2024-01-09 07:00:00","13","galatina","7.98","1","90.75","1","0.0","1","null","6","null","6","null","6","1006.73","1","40.167168","18.174857"],
    [201,"2024-01-09 08:00:00","13","galatina","7.72","1","92.11","1","0.0","1","null","6","null","6","null","6","1007.22","1","40.167168","18.174857"],
    [202,"2024-01-09 09:00:00","13","galatina","9.29","1","88.19","1","0.0","1","null","6","null","6","null","6","1007.9","1","40.167168","18.174857"],
    [203,"2024-01-09 10:00:00","13","galatina","11.18","1","78.86","1","0.0","1","null","6","null","6","null","6","1008.61","1","40.167168","18.174857"],
    [204,"2024-01-09 11:00:00","13","galatina","13.05","1","64.65","1","0.0","1","null","6","null","6","null","6","1009.19","1","40.167168","18.174857"],
    [205,"2024-01-09 12:00:00","13","galatina","13.84","1","57.49","1","0.0","1","null","6","null","6","null","6","1009.42","1","40.167168","18.174857"],
    [206,"2024-01-09 13:00:00","13","galatina","13.52","1","56.95","1","0.0","1","null","6","null","6","null","6","1009.54","1","40.167168","18.174857"],
    [207,"2024-01-09 14:00:00","13","galatina","13.89","1","53.82","1","0.0","1","null","6","null","6","null","6","1009.72","1","40.167168","18.174857"],
    [208,"2024-01-09 15:00:00","13","galatina","13.3","1","55.04","1","0.0","1","null","6","null","6","null","6","1010.18","1","40.167168","18.174857"],
    [209,"2024-01-09 16:00:00","13","galatina","11.42","1","59.76","1","0.0","1","null","6","null","6","null","6","1010.8","1","40.167168","18.174857"],
    [210,"2024-01-09 17:00:00","13","galatina","10.3","1","63.85","1","0.0","1","null","6","null","6","null","6","1011.27","1","40.167168","18.174857"],
    [211,"2024-01-09 18:00:00","13","galatina","9.52","1","66.24","1","0.0","1","null","6","null","6","null","6","1011.85","1","40.167168","18.174857"],
    [212,"2024-01-09 19:00:00","13","galatina","8.73","1","70.55","1","0.0","1","null","6","null","6","null","6","1012.31","1","40.167168","18.174857"],
    [213,"2024-01-09 20:00:00","13","galatina","8.03","1","75.36","1","0.0","1","null","6","null","6","null","6","1012.7","1","40.167168","18.174857"],
    [214,"2024-01-09 21:00:00","13","galatina","8.35","1","75.7","1","0.0","1","null","6","null","6","null","6","1013.24","1","40.167168","18.174857"],
    [215,"2024-01-09 22:00:00","13","galatina","8.31","1","74.26","1","0.0","1","null","6","null","6","null","6","1013.68","1","40.167168","18.174857"],
    [216,"2024-01-09 23:00:00","13","galatina","7.68","1","78.83","1","0.0","1","null","6","null","6","null","6","1014.03","1","40.167168","18.174857"],
    [217,"2024-01-10 00:00:00","13","galatina","7.59","1","82.99","1","0.0","1","null","6","null","6","null","6","1014.32","1","40.167168","18.174857"],
    [218,"2024-01-10 01:00:00","13","galatina","7.6","1","84.78","1","0.0","1","null","6","null","6","null","6","1014.41","1","40.167168","18.174857"],
    [219,"2024-01-10 02:00:00","13","galatina","7.52","1","85.45","1","0.0","1","null","6","null","6","null","6","1014.59","1","40.167168","18.174857"],
    [220,"2024-01-10 03:00:00","13","galatina","6.79","1","87.89","1","0.0","1","null","6","null","6","null","6","1015.02","1","40.167168","18.174857"],
    [221,"2024-01-10 04:00:00","13","galatina","6.33","1","89.55","1","0.0","1","null","6","null","6","null","6","1015.26","1","40.167168","18.174857"],
    [222,"2024-01-10 05:00:00","13","galatina","6.29","1","89.46","1","0.0","1","null","6","null","6","null","6","1015.25","1","40.167168","18.174857"],
    [223,"2024-01-10 06:00:00","13","galatina","6.65","1","86.48","1","0.0","1","null","6","null","6","null","6","1015.47","1","40.167168","18.174857"],
    [224,"2024-01-10 07:00:00","13","galatina","6.74","1","85.5","1","0.0","1","null","6","null","6","null","6","1015.87","1","40.167168","18.174857"],
    [225,"2024-01-10 08:00:00","13","galatina","6.88","1","88.01","1","0.0","1","null","6","null","6","null","6","1016.23","1","40.167168","18.174857"],
    [226,"2024-01-10 09:00:00","13","galatina","7.96","1","85.07","1","0.0","1","null","6","null","6","null","6","1016.63","1","40.167168","18.174857"],
    [227,"2024-01-10 10:00:00","13","galatina","9.4","1","79.91","1","0.0","1","null","6","null","6","null","6","1017.03","1","40.167168","18.174857"],
    [228,"2024-01-10 11:00:00","13","galatina","12.29","1","67.39","1","0.0","1","null","6","null","6","null","6","1017.07","1","40.167168","18.174857"],
    [229,"2024-01-10 12:00:00","13","galatina","13.47","1","60.54","1","0.0","1","null","6","null","6","null","6","1016.85","1","40.167168","18.174857"],
    [230,"2024-01-10 13:00:00","13","galatina","12.79","1","60.43","1","0.0","1","null","6","null","6","null","6","1016.52","1","40.167168","18.174857"],
    [231,"2024-01-10 14:00:00","13","galatina","12.27","1","61.64","1","0.0","1","null","6","null","6","null","6","1016.34","1","40.167168","18.174857"],
    [232,"2024-01-10 15:00:00","13","galatina","11.81","1","64.04","1","0.0","1","null","6","null","6","null","6","1016.3","1","40.167168","18.174857"],
    [233,"2024-01-10 16:00:00","13","galatina","11.01","1","68.39","1","0.0","1","null","6","null","6","null","6","1016.5","1","40.167168","18.174857"],
    [234,"2024-01-10 17:00:00","13","galatina","10.45","1","70.71","1","0.0","1","null","6","null","6","null","6","1016.56","1","40.167168","18.174857"],
    [235,"2024-01-10 18:00:00","13","galatina","9.83","1","73.39","1","0.0","1","null","6","null","6","null","6","1016.85","1","40.167168","18.174857"],
    [236,"2024-01-10 19:00:00","13","galatina","9.71","1","77.61","1","0.0","1","null","6","null","6","null","6","1016.97","1","40.167168","18.174857"],
    [237,"2024-01-10 20:00:00","13","galatina","9.13","1","85.47","1","0.0","1","null","6","null","6","null","6","1016.77","1","40.167168","18.174857"],
    [238,"2024-01-10 21:00:00","13","galatina","8.29","1","87.76","1","0.0","1","null","6","null","6","null","6","1016.67","1","40.167168","18.174857"],
    [239,"2024-01-10 22:00:00","13","galatina","8.47","1","85.78","1","0.0","1","null","6","null","6","null","6","1016.83","1","40.167168","18.174857"],
    [240,"2024-01-10 23:00:00","13","galatina","8.52","1","84.63","1","0.0","1","null","6","null","6","null","6","1016.72","1","40.167168","18.174857"],
    [241,"2024-01-11 00:00:00","13","galatina","7.23","1","88.24","1","0.0","1","null","6","null","6","null","6","1016.5","1","40.167168","18.174857"],
    [242,"2024-01-11 01:00:00","13","galatina","6.53","1","90.98","1","0.0","1","null","6","null","6","null","6","1016.21","1","40.167168","18.174857"],
    [243,"2024-01-11 02:00:00","13","galatina","6.62","1","92.61","1","0.0","1","null","6","null","6","null","6","1015.86","1","40.167168","18.174857"],
    [244,"2024-01-11 03:00:00","13","galatina","6.49","1","92.94","1","0.0","1","null","6","null","6","null","6","1015.67","1","40.167168","18.174857"],
    [245,"2024-01-11 04:00:00","13","galatina","6.89","1","90.35","1","0.0","1","null","6","null","6","null","6","1015.45","1","40.167168","18.174857"],
    [246,"2024-01-11 05:00:00","13","galatina","6.89","1","86.23","1","0.0","1","null","6","null","6","null","6","1015.19","1","40.167168","18.174857"],
    [247,"2024-01-11 06:00:00","13","galatina","6.59","1","87.38","1","0.0","1","null","6","null","6","null","6","1014.97","1","40.167168","18.174857"],
    [248,"2024-01-11 07:00:00","13","galatina","5.98","1","89.59","1","0.0","1","null","6","null","6","null","6","1015.0","1","40.167168","18.174857"],
    [249,"2024-01-11 08:00:00","13","galatina","5.95","1","90.2","1","0.0","1","null","6","null","6","null","6","1015.05","1","40.167168","18.174857"],
    [250,"2024-01-11 09:00:00","13","galatina","7.24","1","86.75","1","0.0","1","null","6","null","6","null","6","1015.07","1","40.167168","18.174857"],
    [251,"2024-01-11 10:00:00","13","galatina","10.42","1","75.36","1","0.0","1","null","6","null","6","null","6","1014.94","1","40.167168","18.174857"],
    [252,"2024-01-11 11:00:00","13","galatina","12.13","1","65.48","1","0.0","1","null","6","null","6","null","6","1014.44","1","40.167168","18.174857"],
    [253,"2024-01-11 12:00:00","13","galatina","12.85","1","57.06","1","0.0","1","null","6","null","6","null","6","1013.73","1","40.167168","18.174857"],
    [254,"2024-01-11 13:00:00","13","galatina","12.9","1","55.45","1","0.0","1","null","6","null","6","null","6","1013.19","1","40.167168","18.174857"],
    [255,"2024-01-11 14:00:00","13","galatina","12.69","1","56.2","1","0.0","1","null","6","null","6","null","6","1012.82","1","40.167168","18.174857"],
    [256,"2024-01-11 15:00:00","13","galatina","12.13","1","61.06","1","0.0","1","null","6","null","6","null","6","1012.4","1","40.167168","18.174857"],
    [257,"2024-01-11 16:00:00","13","galatina","11.41","1","64.7","1","0.0","1","null","6","null","6","null","6","1012.28","1","40.167168","18.174857"],
    [258,"2024-01-11 17:00:00","13","galatina","10.8","1","67.2","1","0.0","1","null","6","null","6","null","6","1012.26","1","40.167168","18.174857"],
    [259,"2024-01-11 18:00:00","13","galatina","10.28","1","69.21","1","0.0","1","null","6","null","6","null","6","1012.27","1","40.167168","18.174857"],
    [260,"2024-01-11 19:00:00","13","galatina","9.87","1","70.08","1","0.0","1","null","6","null","6","null","6","1012.08","1","40.167168","18.174857"],
    [261,"2024-01-11 20:00:00","13","galatina","9.51","1","70.14","1","0.0","1","null","6","null","6","null","6","1011.77","1","40.167168","18.174857"],
    [262,"2024-01-11 21:00:00","13","galatina","9.33","1","68.17","1","0.0","1","null","6","null","6","null","6","1011.63","1","40.167168","18.174857"],
    [263,"2024-01-11 22:00:00","13","galatina","8.63","1","71.82","1","0.0","1","null","6","null","6","null","6","1011.6","1","40.167168","18.174857"],
    [264,"2024-01-11 23:00:00","13","galatina","7.87","1","75.76","1","0.0","1","null","6","null","6","null","6","1011.59","1","40.167168","18.174857"],
    [265,"2024-01-12 00:00:00","13","galatina","7.51","1","78.67","1","0.0","1","null","6","null","6","null","6","1011.44","1","40.167168","18.174857"],
    [266,"2024-01-12 01:00:00","13","galatina","6.77","1","82.99","1","0.0","1","null","6","null","6","null","6","1011.08","1","40.167168","18.174857"],
    [267,"2024-01-12 02:00:00","13","galatina","6.4","1","85.08","1","0.0","1","null","6","null","6","null","6","1010.66","1","40.167168","18.174857"],
    [268,"2024-01-12 03:00:00","13","galatina","6.48","1","85.37","1","0.0","1","null","6","null","6","null","6","1010.41","1","40.167168","18.174857"],
    [269,"2024-01-12 04:00:00","13","galatina","6.54","1","85.57","1","0.0","1","null","6","null","6","null","6","1010.07","1","40.167168","18.174857"],
    [270,"2024-01-12 05:00:00","13","galatina","6.44","1","90.09","1","0.0","1","null","6","null","6","null","6","1009.83","1","40.167168","18.174857"],
    [271,"2024-01-12 06:00:00","13","galatina","7.07","1","89.02","1","0.0","1","null","6","null","6","null","6","1009.64","1","40.167168","18.174857"],
    [272,"2024-01-12 07:00:00","13","galatina","7.41","1","90.82","1","0.0","1","null","6","null","6","null","6","1009.77","1","40.167168","18.174857"],
    [273,"2024-01-12 08:00:00","13","galatina","7.72","1","88.87","1","0.0","1","null","6","null","6","null","6","1009.77","1","40.167168","18.174857"],
    [274,"2024-01-12 09:00:00","13","galatina","8.78","1","83.48","1","0.0","1","null","6","null","6","null","6","1009.82","1","40.167168","18.174857"],
    [275,"2024-01-12 10:00:00","13","galatina","10.25","1","74.97","1","0.0","1","null","6","null","6","null","6","1010.0","1","40.167168","18.174857"],
    [276,"2024-01-12 11:00:00","13","galatina","10.41","1","73.96","1","0.0","1","null","6","null","6","null","6","1010.15","1","40.167168","18.174857"],
    [277,"2024-01-12 12:00:00","13","galatina","12.09","1","55.31","1","0.0","1","null","6","null","6","null","6","1009.94","1","40.167168","18.174857"],
    [278,"2024-01-12 13:00:00","13","galatina","13.13","1","49.54","1","0.0","1","null","6","null","6","null","6","1009.67","1","40.167168","18.174857"],
    [279,"2024-01-12 14:00:00","13","galatina","13.31","1","43.47","1","0.0","1","null","6","null","6","null","6","1009.38","1","40.167168","18.174857"],
    [280,"2024-01-12 15:00:00","13","galatina","13.02","1","37.48","1","0.0","1","null","6","null","6","null","6","1009.44","1","40.167168","18.174857"],
    [281,"2024-01-12 16:00:00","13","galatina","11.28","1","42.56","1","0.0","1","null","6","null","6","null","6","1009.75","1","40.167168","18.174857"],
    [282,"2024-01-12 17:00:00","13","galatina","9.78","1","48.12","1","0.0","1","null","6","null","6","null","6","1010.16","1","40.167168","18.174857"],
    [283,"2024-01-12 18:00:00","13","galatina","8.74","1","55.69","1","0.0","1","null","6","null","6","null","6","1010.59","1","40.167168","18.174857"],
    [284,"2024-01-12 19:00:00","13","galatina","7.75","1","61.85","1","0.0","1","null","6","null","6","null","6","1010.87","1","40.167168","18.174857"],
    [285,"2024-01-12 20:00:00","13","galatina","6.93","1","67.58","1","0.0","1","null","6","null","6","null","6","1011.07","1","40.167168","18.174857"],
    [286,"2024-01-12 21:00:00","13","galatina","6.82","1","70.46","1","0.0","1","null","6","null","6","null","6","1011.33","1","40.167168","18.174857"],
    [287,"2024-01-12 22:00:00","13","galatina","7.17","1","69.34","1","0.0","1","null","6","null","6","null","6","1011.67","1","40.167168","18.174857"],
    [288,"2024-01-12 23:00:00","13","galatina","6.94","1","66.39","1","0.0","1","null","6","null","6","null","6","1011.89","1","40.167168","18.174857"],
    [289,"2024-01-13 00:00:00","13","galatina","6.35","1","67.18","1","0.0","1","null","6","null","6","null","6","1011.87","1","40.167168","18.174857"],
    [290,"2024-01-13 01:00:00","13","galatina","5.13","1","73.55","1","0.0","1","null","6","null","6","null","6","1011.91","1","40.167168","18.174857"],
    [291,"2024-01-13 02:00:00","13","galatina","5.11","1","75.46","1","0.0","1","null","6","null","6","null","6","1012.08","1","40.167168","18.174857"],
    [292,"2024-01-13 03:00:00","13","galatina","4.73","1","78.52","1","0.0","1","null","6","null","6","null","6","1012.2","1","40.167168","18.174857"],
    [293,"2024-01-13 04:00:00","13","galatina","4.37","1","78.69","1","0.0","1","null","6","null","6","null","6","1012.06","1","40.167168","18.174857"],
    [294,"2024-01-13 05:00:00","13","galatina","4.64","1","76.32","1","0.0","1","null","6","null","6","null","6","1012.12","1","40.167168","18.174857"],
    [295,"2024-01-13 06:00:00","13","galatina","4.7","1","78.53","1","0.0","1","null","6","null","6","null","6","1012.4","1","40.167168","18.174857"],
    [296,"2024-01-13 07:00:00","13","galatina","4.32","1","79.86","1","0.0","1","null","6","null","6","null","6","1012.73","1","40.167168","18.174857"],
    [297,"2024-01-13 08:00:00","13","galatina","4.97","1","74.97","1","0.0","1","null","6","null","6","null","6","1012.93","1","40.167168","18.174857"],
    [298,"2024-01-13 09:00:00","13","galatina","6.35","1","71.0","1","0.0","1","null","6","null","6","null","6","1013.44","1","40.167168","18.174857"],
    [299,"2024-01-13 10:00:00","13","galatina","7.32","1","70.98","1","0.0","1","null","6","null","6","null","6","1013.91","1","40.167168","18.174857"],
    [300,"2024-01-13 11:00:00","13","galatina","9.87","1","59.2","1","0.0","1","null","6","null","6","null","6","1013.97","1","40.167168","18.174857"],
    [301,"2024-01-13 12:00:00","13","galatina","10.23","1","53.5","1","0.0","1","null","6","null","6","null","6","1013.79","1","40.167168","18.174857"],
    [302,"2024-01-13 13:00:00","13","galatina","10.9","1","52.41","1","0.0","1","null","6","null","6","null","6","1013.5","1","40.167168","18.174857"],
    [303,"2024-01-13 14:00:00","13","galatina","9.98","1","57.5","1","0.0","1","null","6","null","6","null","6","1013.25","1","40.167168","18.174857"],
    [304,"2024-01-13 15:00:00","13","galatina","10.25","1","53.05","1","0.0","1","null","6","null","6","null","6","1013.2","1","40.167168","18.174857"],
    [305,"2024-01-13 16:00:00","13","galatina","9.41","1","51.19","1","0.0","1","null","6","null","6","null","6","1013.29","1","40.167168","18.174857"],
    [306,"2024-01-13 17:00:00","13","galatina","8.69","1","57.04","1","0.0","1","null","6","null","6","null","6","1013.42","1","40.167168","18.174857"],
    [307,"2024-01-13 18:00:00","13","galatina","8.28","1","59.67","1","0.0","1","null","6","null","6","null","6","1013.57","1","40.167168","18.174857"],
    [308,"2024-01-13 19:00:00","13","galatina","7.12","1","62.99","1","0.0","1","null","6","null","6","null","6","1013.63","1","40.167168","18.174857"],
    [309,"2024-01-13 20:00:00","13","galatina","6.69","1","65.52","1","0.0","1","null","6","null","6","null","6","1013.68","1","40.167168","18.174857"],
    [310,"2024-01-13 21:00:00","13","galatina","6.38","1","69.93","1","0.0","1","null","6","null","6","null","6","1013.64","1","40.167168","18.174857"],
    [311,"2024-01-13 22:00:00","13","galatina","5.74","1","72.48","1","0.0","1","null","6","null","6","null","6","1013.58","1","40.167168","18.174857"],
    [312,"2024-01-13 23:00:00","13","galatina","6.12","1","74.45","1","0.0","1","null","6","null","6","null","6","1013.52","1","40.167168","18.174857"],
    [313,"2024-01-14 00:00:00","13","galatina","5.78","1","76.3","1","0.0","1","null","6","null","6","null","6","1013.48","1","40.167168","18.174857"],
    [314,"2024-01-14 01:00:00","13","galatina","4.8","1","80.31","1","0.0","1","null","6","null","6","null","6","1013.32","1","40.167168","18.174857"],
    [315,"2024-01-14 02:00:00","13","galatina","4.44","1","80.81","1","0.0","1","null","6","null","6","null","6","1013.06","1","40.167168","18.174857"],
    [316,"2024-01-14 03:00:00","13","galatina","3.93","1","80.87","1","0.0","1","null","6","null","6","null","6","1012.85","1","40.167168","18.174857"],
    [317,"2024-01-14 04:00:00","13","galatina","2.08","1","86.94","1","0.0","1","null","6","null","6","null","6","1012.48","1","40.167168","18.174857"],
    [318,"2024-01-14 05:00:00","13","galatina","0.99","1","91.13","1","0.0","1","null","6","null","6","null","6","1012.21","1","40.167168","18.174857"],
    [319,"2024-01-14 06:00:00","13","galatina","0.47","1","93.28","1","0.0","1","null","6","null","6","null","6","1012.27","1","40.167168","18.174857"],
    [320,"2024-01-14 07:00:00","13","galatina","-0.11","1","94.57","1","0.0","1","null","6","null","6","null","6","1012.32","1","40.167168","18.174857"],
    [321,"2024-01-14 08:00:00","13","galatina","-0.13","1","95.27","1","0.0","1","null","6","null","6","null","6","1012.33","1","40.167168","18.174857"],
    [322,"2024-01-14 09:00:00","13","galatina","3.26","1","91.5","1","0.0","1","null","6","null","6","null","6","1012.46","1","40.167168","18.174857"],
    [323,"2024-01-14 10:00:00","13","galatina","6.92","1","77.76","1","0.0","1","null","6","null","6","null","6","1012.45","1","40.167168","18.174857"],
    [324,"2024-01-14 11:00:00","13","galatina","11.93","1","57.02","1","0.0","1","null","6","null","6","null","6","1012.39","1","40.167168","18.174857"],
    [325,"2024-01-14 12:00:00","13","galatina","13.35","1","47.85","1","0.0","1","null","6","null","6","null","6","1011.92","1","40.167168","18.174857"],
    [326,"2024-01-14 13:00:00","13","galatina","13.41","1","46.93","1","0.0","1","null","6","null","6","null","6","1011.44","1","40.167168","18.174857"],
    [327,"2024-01-14 14:00:00","13","galatina","13.11","1","51.88","1","0.0","1","null","6","null","6","null","6","1010.9","1","40.167168","18.174857"],
    [328,"2024-01-14 15:00:00","13","galatina","12.23","1","58.62","1","0.0","1","null","6","null","6","null","6","1010.53","1","40.167168","18.174857"],
    [329,"2024-01-14 16:00:00","13","galatina","11.29","1","64.12","1","0.0","1","null","6","null","6","null","6","1010.49","1","40.167168","18.174857"],
    [330,"2024-01-14 17:00:00","13","galatina","10.55","1","66.67","1","0.0","1","null","6","null","6","null","6","1010.36","1","40.167168","18.174857"],
    [331,"2024-01-14 18:00:00","13","galatina","9.62","1","72.49","1","0.0","1","null","6","null","6","null","6","1010.01","1","40.167168","18.174857"],
    [332,"2024-01-14 19:00:00","13","galatina","9.64","1","66.97","1","0.0","1","null","6","null","6","null","6","1009.82","1","40.167168","18.174857"],
    [333,"2024-01-14 20:00:00","13","galatina","9.23","1","67.31","1","0.0","1","null","6","null","6","null","6","1009.59","1","40.167168","18.174857"],
    [334,"2024-01-14 21:00:00","13","galatina","8.27","1","73.96","1","0.0","1","null","6","null","6","null","6","1009.41","1","40.167168","18.174857"],
    [335,"2024-01-14 22:00:00","13","galatina","8.29","1","77.77","1","0.0","1","null","6","null","6","null","6","1009.17","1","40.167168","18.174857"],
    [336,"2024-01-14 23:00:00","13","galatina","8.1","1","81.44","1","0.0","1","null","6","null","6","null","6","1008.86","1","40.167168","18.174857"],
    [337,"2024-01-15 00:00:00","13","galatina","8.53","1","85.97","1","0.0","1","null","6","null","6","null","6","1008.31","1","40.167168","18.174857"],
    [338,"2024-01-15 01:00:00","13","galatina","7.95","1","88.57","1","0.0","1","null","6","null","6","null","6","1008.01","1","40.167168","18.174857"],
    [339,"2024-01-15 02:00:00","13","galatina","7.94","1","91.32","1","0.0","1","null","6","null","6","null","6","1007.57","1","40.167168","18.174857"],
    [340,"2024-01-15 03:00:00","13","galatina","8.17","1","91.8","1","0.0","1","null","6","null","6","null","6","1007.1","1","40.167168","18.174857"],
    [341,"2024-01-15 04:00:00","13","galatina","8.96","1","92.76","1","0.0","1","null","6","null","6","null","6","1006.49","1","40.167168","18.174857"],
    [342,"2024-01-15 05:00:00","13","galatina","9.84","1","91.98","1","0.0","1","null","6","null","6","null","6","1005.78","1","40.167168","18.174857"],
    [343,"2024-01-15 06:00:00","13","galatina","10.58","1","88.65","1","0.0","1","null","6","null","6","null","6","1005.27","1","40.167168","18.174857"],
    [344,"2024-01-15 07:00:00","13","galatina","11.42","1","85.74","1","0.0","1","null","6","null","6","null","6","1005.0","1","40.167168","18.174857"],
    [345,"2024-01-15 08:00:00","13","galatina","11.69","1","82.6","1","0.0","1","null","6","null","6","null","6","1004.6","1","40.167168","18.174857"],
    [346,"2024-01-15 09:00:00","13","galatina","12.3","1","79.97","1","0.0","1","null","6","null","6","null","6","1004.35","1","40.167168","18.174857"],
    [347,"2024-01-15 10:00:00","13","galatina","13.18","1","80.33","1","0.0","1","null","6","null","6","null","6","1004.18","1","40.167168","18.174857"],
    [348,"2024-01-15 11:00:00","13","galatina","14.04","1","77.94","1","0.0","1","null","6","null","6","null","6","1003.76","1","40.167168","18.174857"],
    [349,"2024-01-15 12:00:00","13","galatina","14.82","1","73.28","1","0.0","1","null","6","null","6","null","6","1002.94","1","40.167168","18.174857"],
    [350,"2024-01-15 13:00:00","13","galatina","15.09","1","68.55","1","0.0","1","null","6","null","6","null","6","1002.4","1","40.167168","18.174857"],
    [351,"2024-01-15 14:00:00","13","galatina","14.41","1","71.84","1","0.0","1","null","6","null","6","null","6","1001.81","1","40.167168","18.174857"],
    [352,"2024-01-15 15:00:00","13","galatina","13.31","1","79.0","1","0.0","1","null","6","null","6","null","6","1001.44","1","40.167168","18.174857"],
    [353,"2024-01-15 16:00:00","13","galatina","13.01","1","80.75","1","0.0","1","null","6","null","6","null","6","1001.3","1","40.167168","18.174857"],
    [354,"2024-01-15 17:00:00","13","galatina","12.8","1","83.84","1","0.0","1","null","6","null","6","null","6","1001.26","1","40.167168","18.174857"],
    [355,"2024-01-15 18:00:00","13","galatina","12.0","1","87.56","1","0.0","1","null","6","null","6","null","6","1001.4","1","40.167168","18.174857"],
    [356,"2024-01-15 19:00:00","13","galatina","12.32","1","86.33","1","0.0","1","null","6","null","6","null","6","1001.3","1","40.167168","18.174857"],
    [357,"2024-01-15 20:00:00","13","galatina","12.02","1","86.66","1","0.0","1","null","6","null","6","null","6","1001.63","1","40.167168","18.174857"],
    [358,"2024-01-15 21:00:00","13","galatina","11.22","1","89.23","1","0.0","1","null","6","null","6","null","6","1001.71","1","40.167168","18.174857"],
    [359,"2024-01-15 22:00:00","13","galatina","11.89","1","86.16","1","0.0","1","null","6","null","6","null","6","1001.77","1","40.167168","18.174857"],
    [360,"2024-01-15 23:00:00","13","galatina","13.19","1","79.9","1","0.0","1","null","6","null","6","null","6","1001.86","1","40.167168","18.174857"],
    [361,"2024-01-16 00:00:00","13","galatina","11.36","1","87.43","1","0.0","1","null","6","null","6","null","6","1001.93","1","40.167168","18.174857"],
    [362,"2024-01-16 01:00:00","13","galatina","11.02","1","90.16","1","0.0","1","null","6","null","6","null","6","1002.02","1","40.167168","18.174857"],
    [363,"2024-01-16 02:00:00","13","galatina","11.69","1","86.05","1","0.0","1","null","6","null","6","null","6","1002.33","1","40.167168","18.174857"],
    [364,"2024-01-16 03:00:00","13","galatina","12.23","1","86.92","1","0.0","1","null","6","null","6","null","6","1002.73","1","40.167168","18.174857"],
    [365,"2024-01-16 04:00:00","13","galatina","10.97","1","91.06","1","0.0","1","null","6","null","6","null","6","1002.84","1","40.167168","18.174857"],
    [366,"2024-01-16 05:00:00","13","galatina","10.88","1","94.17","1","0.0","1","null","6","null","6","null","6","1002.96","1","40.167168","18.174857"],
    [367,"2024-01-16 06:00:00","13","galatina","10.42","1","94.33","1","0.0","1","null","6","null","6","null","6","1003.47","1","40.167168","18.174857"],
    [368,"2024-01-16 07:00:00","13","galatina","9.71","1","94.53","1","0.2","1","null","6","null","6","null","6","1004.0","1","40.167168","18.174857"],
    [369,"2024-01-16 08:00:00","13","galatina","9.15","1","95.54","1","0.0","1","null","6","null","6","null","6","1004.53","1","40.167168","18.174857"],
    [370,"2024-01-16 09:00:00","13","galatina","11.74","1","93.38","1","0.0","1","null","6","null","6","null","6","1005.16","1","40.167168","18.174857"],
    [371,"2024-01-16 10:00:00","13","galatina","13.94","1","78.53","1","0.0","1","null","6","null","6","null","6","1005.78","1","40.167168","18.174857"],
    [372,"2024-01-16 11:00:00","13","galatina","16.7","1","62.16","1","0.0","1","null","6","null","6","null","6","1006.32","1","40.167168","18.174857"],
    [373,"2024-01-16 12:00:00","13","galatina","18.16","1","53.99","1","0.0","1","null","6","null","6","null","6","1006.29","1","40.167168","18.174857"],
    [374,"2024-01-16 13:00:00","13","galatina","18.2","1","49.71","1","0.0","1","null","6","null","6","null","6","1006.11","1","40.167168","18.174857"],
    [375,"2024-01-16 14:00:00","13","galatina","19.43","1","45.4","1","0.0","1","null","6","null","6","null","6","1006.03","1","40.167168","18.174857"],
    [376,"2024-01-16 15:00:00","13","galatina","19.65","1","44.22","1","0.0","1","null","6","null","6","null","6","1006.18","1","40.167168","18.174857"],
    [377,"2024-01-16 16:00:00","13","galatina","17.65","1","51.97","1","0.0","1","null","6","null","6","null","6","1006.58","1","40.167168","18.174857"],
    [378,"2024-01-16 17:00:00","13","galatina","14.35","1","70.6","1","0.0","1","null","6","null","6","null","6","1007.35","1","40.167168","18.174857"],
    [379,"2024-01-16 18:00:00","13","galatina","12.51","1","77.9","1","0.0","1","null","6","null","6","null","6","1007.76","1","40.167168","18.174857"],
    [380,"2024-01-16 19:00:00","13","galatina","12.31","1","79.12","1","0.0","1","null","6","null","6","null","6","1008.19","1","40.167168","18.174857"],
    [381,"2024-01-16 20:00:00","13","galatina","11.38","1","83.51","1","0.0","1","null","6","null","6","null","6","1008.47","1","40.167168","18.174857"],
    [382,"2024-01-16 21:00:00","13","galatina","10.58","1","87.87","1","0.0","1","null","6","null","6","null","6","1008.38","1","40.167168","18.174857"],
    [383,"2024-01-16 22:00:00","13","galatina","9.54","1","91.65","1","0.0","1","null","6","null","6","null","6","1008.81","1","40.167168","18.174857"],
    [384,"2024-01-16 23:00:00","13","galatina","8.88","1","93.8","1","0.0","1","null","6","null","6","null","6","1009.16","1","40.167168","18.174857"],
    [385,"2024-01-17 00:00:00","13","galatina","8.2","1","94.58","1","0.0","1","null","6","null","6","null","6","1009.11","1","40.167168","18.174857"],
    [386,"2024-01-17 01:00:00","13","galatina","7.76","1","94.48","1","0.0","1","null","6","null","6","null","6","1008.82","1","40.167168","18.174857"],
    [387,"2024-01-17 02:00:00","13","galatina","7.47","1","94.7","1","0.0","1","null","6","null","6","null","6","1008.7","1","40.167168","18.174857"],
    [388,"2024-01-17 03:00:00","13","galatina","7.71","1","94.81","1","0.0","1","null","6","null","6","null","6","1009.0","1","40.167168","18.174857"],
    [389,"2024-01-17 04:00:00","13","galatina","7.81","1","95.28","1","0.0","1","null","6","null","6","null","6","1009.06","1","40.167168","18.174857"],
    [390,"2024-01-17 05:00:00","13","galatina","7.94","1","96.02","1","0.0","1","null","6","null","6","null","6","1009.03","1","40.167168","18.174857"],
    [391,"2024-01-17 06:00:00","13","galatina","7.98","1","96.65","1","0.0","1","null","6","null","6","null","6","1009.08","1","40.167168","18.174857"],
    [392,"2024-01-17 07:00:00","13","galatina","7.94","1","97.32","1","0.0","1","null","6","null","6","null","6","1009.12","1","40.167168","18.174857"],
    [393,"2024-01-17 08:00:00","13","galatina","8.24","1","97.5","1","0.0","1","null","6","null","6","null","6","1009.44","1","40.167168","18.174857"],
    [394,"2024-01-17 09:00:00","13","galatina","10.58","1","95.67","1","0.0","1","null","6","null","6","null","6","1009.73","1","40.167168","18.174857"],
    [395,"2024-01-17 10:00:00","13","galatina","14.06","1","85.59","1","0.0","1","null","6","null","6","null","6","1009.79","1","40.167168","18.174857"],
    [396,"2024-01-17 11:00:00","13","galatina","17.64","1","60.09","1","0.0","1","null","6","null","6","null","6","1009.72","1","40.167168","18.174857"],
    [397,"2024-01-17 12:00:00","13","galatina","19.1","1","52.98","1","0.0","1","null","6","null","6","null","6","1009.21","1","40.167168","18.174857"],
    [398,"2024-01-17 13:00:00","13","galatina","18.91","1","49.36","1","0.0","1","null","6","null","6","null","6","1008.67","1","40.167168","18.174857"],
    [399,"2024-01-17 14:00:00","13","galatina","17.74","1","59.3","1","0.0","1","null","6","null","6","null","6","1008.17","1","40.167168","18.174857"],
    [400,"2024-01-17 15:00:00","13","galatina","17.2","1","66.17","1","0.2","1","null","6","null","6","null","6","1008.05","1","40.167168","18.174857"],
    [401,"2024-01-17 16:00:00","13","galatina","15.92","1","75.7","1","0.0","1","null","6","null","6","null","6","1007.97","1","40.167168","18.174857"],
    [402,"2024-01-17 17:00:00","13","galatina","15.35","1","79.33","1","0.0","1","null","6","null","6","null","6","1008.06","1","40.167168","18.174857"],
    [403,"2024-01-17 18:00:00","13","galatina","14.75","1","87.41","1","0.0","1","null","6","null","6","null","6","1008.15","1","40.167168","18.174857"],
    [404,"2024-01-17 19:00:00","13","galatina","14.67","1","89.88","1","0.0","1","null","6","null","6","null","6","1008.32","1","40.167168","18.174857"],
    [405,"2024-01-17 20:00:00","13","galatina","14.42","1","91.62","1","0.4","1","null","6","null","6","null","6","1008.36","1","40.167168","18.174857"],
    [406,"2024-01-17 21:00:00","13","galatina","14.17","1","93.48","1","0.2","1","null","6","null","6","null","6","1008.02","1","40.167168","18.174857"],
    [407,"2024-01-17 22:00:00","13","galatina","14.19","1","93.71","1","0.0","1","null","6","null","6","null","6","1007.71","1","40.167168","18.174857"],
    [408,"2024-01-17 23:00:00","13","galatina","14.36","1","91.98","1","0.0","1","null","6","null","6","null","6","1007.66","1","40.167168","18.174857"],
    [409,"2024-01-18 00:00:00","13","galatina","14.6","1","91.59","1","0.0","1","null","6","null","6","null","6","1007.14","1","40.167168","18.174857"],
    [410,"2024-01-18 01:00:00","13","galatina","14.73","1","91.07","1","0.0","1","null","6","null","6","null","6","1006.61","1","40.167168","18.174857"],
    [411,"2024-01-18 02:00:00","13","galatina","14.55","1","88.39","1","0.0","1","null","6","null","6","null","6","1006.08","1","40.167168","18.174857"],
    [412,"2024-01-18 03:00:00","13","galatina","14.26","1","90.1","1","0.0","1","null","6","null","6","null","6","1005.71","1","40.167168","18.174857"],
    [413,"2024-01-18 04:00:00","13","galatina","14.51","1","89.44","1","0.0","1","null","6","null","6","null","6","1005.47","1","40.167168","18.174857"],
    [414,"2024-01-18 05:00:00","13","galatina","14.51","1","89.48","1","0.0","1","null","6","null","6","null","6","1004.73","1","40.167168","18.174857"],
    [415,"2024-01-18 06:00:00","13","galatina","14.4","1","88.39","1","0.0","1","null","6","null","6","null","6","1004.83","1","40.167168","18.174857"],
    [416,"2024-01-18 07:00:00","13","galatina","13.92","1","89.96","1","0.0","1","null","6","null","6","null","6","1004.54","1","40.167168","18.174857"],
    [417,"2024-01-18 08:00:00","13","galatina","13.59","1","92.04","1","0.0","1","null","6","null","6","null","6","1004.2","1","40.167168","18.174857"],
    [418,"2024-01-18 09:00:00","13","galatina","14.98","1","87.39","1","0.0","1","null","6","null","6","null","6","1004.52","1","40.167168","18.174857"],
    [419,"2024-01-18 10:00:00","13","galatina","17.7","1","67.6","1","0.0","1","null","6","null","6","null","6","1004.42","1","40.167168","18.174857"],
    [420,"2024-01-18 11:00:00","13","galatina","20.43","1","53.27","1","0.0","1","null","6","null","6","null","6","1004.29","1","40.167168","18.174857"],
    [421,"2024-01-18 12:00:00","13","galatina","21.39","1","50.66","1","0.0","1","null","6","null","6","null","6","1004.02","1","40.167168","18.174857"],
    [422,"2024-01-18 13:00:00","13","galatina","21.52","1","51.04","1","0.0","1","null","6","null","6","null","6","1003.66","1","40.167168","18.174857"],
    [423,"2024-01-18 14:00:00","13","galatina","22.4","1","45.23","1","0.0","1","null","6","null","6","null","6","1002.8","1","40.167168","18.174857"],
    [424,"2024-01-18 15:00:00","13","galatina","21.23","1","48.9","1","0.0","1","null","6","null","6","null","6","1002.78","1","40.167168","18.174857"],
    [425,"2024-01-18 16:00:00","13","galatina","18.77","1","59.61","1","0.0","1","null","6","null","6","null","6","1002.75","1","40.167168","18.174857"],
    [426,"2024-01-18 17:00:00","13","galatina","16.88","1","68.64","1","0.0","1","null","6","null","6","null","6","1003.41","1","40.167168","18.174857"],
    [427,"2024-01-18 18:00:00","13","galatina","16.14","1","72.12","1","0.0","1","null","6","null","6","null","6","1003.9","1","40.167168","18.174857"],
    [428,"2024-01-18 19:00:00","13","galatina","16.03","1","70.97","1","0.0","1","null","6","null","6","null","6","1004.26","1","40.167168","18.174857"],
    [429,"2024-01-18 20:00:00","13","galatina","15.86","1","70.58","1","0.0","1","null","6","null","6","null","6","1004.41","1","40.167168","18.174857"],
    [430,"2024-01-18 21:00:00","13","galatina","15.6","1","71.65","1","0.0","1","null","6","null","6","null","6","1004.52","1","40.167168","18.174857"],
    [431,"2024-01-18 22:00:00","13","galatina","15.45","1","73.64","1","0.0","1","null","6","null","6","null","6","1004.89","1","40.167168","18.174857"],
    [432,"2024-01-18 23:00:00","13","galatina","15.4","1","73.03","1","0.0","1","null","6","null","6","null","6","1005.2","1","40.167168","18.174857"],
    [433,"2024-01-19 00:00:00","13","galatina","14.68","1","75.9","1","0.0","1","null","6","null","6","null","6","1005.27","1","40.167168","18.174857"],
    [434,"2024-01-19 01:00:00","13","galatina","14.35","1","77.37","1","0.0","1","null","6","null","6","null","6","1005.29","1","40.167168","18.174857"],
    [435,"2024-01-19 02:00:00","13","galatina","14.35","1","77.28","1","0.0","1","null","6","null","6","null","6","1005.37","1","40.167168","18.174857"],
    [436,"2024-01-19 03:00:00","13","galatina","13.9","1","78.91","1","0.0","1","null","6","null","6","null","6","1005.47","1","40.167168","18.174857"],
    [437,"2024-01-19 04:00:00","13","galatina","13.99","1","79.43","1","0.0","1","null","6","null","6","null","6","1005.44","1","40.167168","18.174857"],
    [438,"2024-01-19 05:00:00","13","galatina","14.4","1","79.03","1","0.0","1","null","6","null","6","null","6","1005.46","1","40.167168","18.174857"],
    [439,"2024-01-19 06:00:00","13","galatina","13.62","1","82.36","1","0.0","1","null","6","null","6","null","6","1005.73","1","40.167168","18.174857"],
    [440,"2024-01-19 07:00:00","13","galatina","12.63","1","84.39","1","0.0","1","null","6","null","6","null","6","1006.03","1","40.167168","18.174857"],
    [441,"2024-01-19 08:00:00","13","galatina","12.61","1","83.07","1","0.0","1","null","6","null","6","null","6","1006.42","1","40.167168","18.174857"],
    [442,"2024-01-19 09:00:00","13","galatina","15.13","1","74.92","1","0.0","1","null","6","null","6","null","6","1006.54","1","40.167168","18.174857"],
    [443,"2024-01-19 10:00:00","13","galatina","17.58","1","61.53","1","0.0","1","null","6","null","6","null","6","1006.48","1","40.167168","18.174857"],
    [444,"2024-01-19 11:00:00","13","galatina","19.23","1","55.98","1","0.0","1","null","6","null","6","null","6","1006.61","1","40.167168","18.174857"],
    [445,"2024-01-19 12:00:00","13","galatina","20.92","1","49.44","1","0.0","1","null","6","null","6","null","6","1006.59","1","40.167168","18.174857"],
    [446,"2024-01-19 13:00:00","13","galatina","20.39","1","48.47","1","0.0","1","null","6","null","6","null","6","1006.33","1","40.167168","18.174857"],
    [447,"2024-01-19 14:00:00","13","galatina","19.55","1","50.11","1","0.0","1","null","6","null","6","null","6","1005.94","1","40.167168","18.174857"],
    [448,"2024-01-19 15:00:00","13","galatina","20.86","1","45.33","1","0.0","1","null","6","null","6","null","6","1005.59","1","40.167168","18.174857"],
    [449,"2024-01-19 16:00:00","13","galatina","19.09","1","50.53","1","0.0","1","null","6","null","6","null","6","1005.98","1","40.167168","18.174857"],
    [450,"2024-01-19 17:00:00","13","galatina","16.78","1","61.72","1","0.0","1","null","6","null","6","null","6","1006.2","1","40.167168","18.174857"],
    [451,"2024-01-19 18:00:00","13","galatina","15.06","1","69.59","1","0.0","1","null","6","null","6","null","6","1006.42","1","40.167168","18.174857"],
    [452,"2024-01-19 19:00:00","13","galatina","14.04","1","72.76","1","0.0","1","null","6","null","6","null","6","1006.73","1","40.167168","18.174857"],
    [453,"2024-01-19 20:00:00","13","galatina","12.65","1","80.51","1","0.0","1","null","6","null","6","null","6","1006.98","1","40.167168","18.174857"],
    [454,"2024-01-19 21:00:00","13","galatina","12.43","1","80.41","1","0.0","1","null","6","null","6","null","6","1006.94","1","40.167168","18.174857"],
    [455,"2024-01-19 22:00:00","13","galatina","12.82","1","76.76","1","0.0","1","null","6","null","6","null","6","1007.0","1","40.167168","18.174857"],
    [456,"2024-01-19 23:00:00","13","galatina","12.47","1","80.57","1","0.0","1","null","6","null","6","null","6","1007.05","1","40.167168","18.174857"],
    [457,"2024-01-20 00:00:00","13","galatina","12.24","1","82.51","1","0.0","1","null","6","null","6","null","6","1007.26","1","40.167168","18.174857"],
    [458,"2024-01-20 01:00:00","13","galatina","12.03","1","84.44","1","0.0","1","null","6","null","6","null","6","1007.22","1","40.167168","18.174857"],
    [459,"2024-01-20 02:00:00","13","galatina","12.04","1","86.75","1","0.0","1","null","6","null","6","null","6","1007.27","1","40.167168","18.174857"],
    [460,"2024-01-20 03:00:00","13","galatina","12.47","1","87.9","1","0.0","1","null","6","null","6","null","6","1007.1","1","40.167168","18.174857"],
    [461,"2024-01-20 04:00:00","13","galatina","12.63","1","89.39","1","0.8","1","null","6","null","6","null","6","1007.16","1","40.167168","18.174857"],
    [462,"2024-01-20 05:00:00","13","galatina","12.56","1","93.24","1","0.6","1","null","6","null","6","null","6","1007.38","1","40.167168","18.174857"],
    [463,"2024-01-20 06:00:00","13","galatina","11.52","1","94.06","1","0.2","1","null","6","null","6","null","6","1007.68","1","40.167168","18.174857"],
    [464,"2024-01-20 07:00:00","13","galatina","10.87","1","94.25","1","0.4","1","null","6","null","6","null","6","1008.3","1","40.167168","18.174857"],
    [465,"2024-01-20 08:00:00","13","galatina","9.95","1","93.05","1","0.0","1","null","6","null","6","null","6","1008.74","1","40.167168","18.174857"],
    [466,"2024-01-20 09:00:00","13","galatina","9.47","1","92.63","1","1.0","1","null","6","null","6","null","6","1009.51","1","40.167168","18.174857"],
    [467,"2024-01-20 10:00:00","13","galatina","9.07","1","92.36","1","1.0","1","null","6","null","6","null","6","1010.03","1","40.167168","18.174857"],
    [468,"2024-01-20 11:00:00","13","galatina","9.12","1","94.47","1","0.2","1","null","6","null","6","null","6","1010.22","1","40.167168","18.174857"],
    [469,"2024-01-20 12:00:00","13","galatina","9.05","1","92.33","1","0.0","1","null","6","null","6","null","6","1010.08","1","40.167168","18.174857"],
    [470,"2024-01-20 13:00:00","13","galatina","8.75","1","86.7","1","0.0","1","null","6","null","6","null","6","1010.37","1","40.167168","18.174857"],
    [471,"2024-01-20 14:00:00","13","galatina","8.6","1","83.72","1","0.0","1","null","6","null","6","null","6","1010.22","1","40.167168","18.174857"],
    [472,"2024-01-20 15:00:00","13","galatina","8.61","1","80.97","1","0.0","1","null","6","null","6","null","6","1010.42","1","40.167168","18.174857"],
    [473,"2024-01-20 16:00:00","13","galatina","8.26","1","78.48","1","0.0","1","null","6","null","6","null","6","1010.89","1","40.167168","18.174857"],
    [474,"2024-01-20 17:00:00","13","galatina","7.98","1","75.98","1","0.0","1","null","6","null","6","null","6","1010.97","1","40.167168","18.174857"],
    [475,"2024-01-20 18:00:00","13","galatina","7.65","1","75.16","1","0.2","1","null","6","null","6","null","6","1011.44","1","40.167168","18.174857"],
    [476,"2024-01-20 19:00:00","13","galatina","7.41","1","73.0","1","0.0","1","null","6","null","6","null","6","1011.89","1","40.167168","18.174857"],
    [477,"2024-01-20 20:00:00","13","galatina","7.34","1","65.27","1","0.0","1","null","6","null","6","null","6","1011.94","1","40.167168","18.174857"],
    [478,"2024-01-20 21:00:00","13","galatina","7.38","1","60.37","1","0.0","1","null","6","null","6","null","6","1011.96","1","40.167168","18.174857"],
    [479,"2024-01-20 22:00:00","13","galatina","7.37","1","62.45","1","0.0","1","null","6","null","6","null","6","1011.84","1","40.167168","18.174857"],
    [480,"2024-01-20 23:00:00","13","galatina","7.44","1","62.71","1","0.0","1","null","6","null","6","null","6","1011.97","1","40.167168","18.174857"],
    [481,"2024-01-21 00:00:00","13","galatina","7.66","1","63.76","1","0.0","1","null","6","null","6","null","6","1012.19","1","40.167168","18.174857"],
    [482,"2024-01-21 01:00:00","13","galatina","7.55","1","62.66","1","0.0","1","null","6","null","6","null","6","1012.44","1","40.167168","18.174857"],
    [483,"2024-01-21 02:00:00","13","galatina","7.18","1","61.04","1","0.0","1","null","6","null","6","null","6","1012.72","1","40.167168","18.174857"],
    [484,"2024-01-21 03:00:00","13","galatina","7.03","1","64.37","1","0.0","1","null","6","null","6","null","6","1012.94","1","40.167168","18.174857"],
    [485,"2024-01-21 04:00:00","13","galatina","6.95","1","62.13","1","0.0","1","null","6","null","6","null","6","1013.15","1","40.167168","18.174857"],
    [486,"2024-01-21 05:00:00","13","galatina","6.83","1","63.27","1","0.0","1","null","6","null","6","null","6","1013.27","1","40.167168","18.174857"],
    [487,"2024-01-21 06:00:00","13","galatina","7.03","1","64.36","1","0.0","1","null","6","null","6","null","6","1013.68","1","40.167168","18.174857"],
    [488,"2024-01-21 07:00:00","13","galatina","7.17","1","64.6","1","0.0","1","null","6","null","6","null","6","1014.01","1","40.167168","18.174857"],
    [489,"2024-01-21 08:00:00","13","galatina","7.41","1","65.83","1","0.0","1","null","6","null","6","null","6","1014.46","1","40.167168","18.174857"],
    [490,"2024-01-21 09:00:00","13","galatina","8.79","1","64.66","1","0.0","1","null","6","null","6","null","6","1014.83","1","40.167168","18.174857"],
    [491,"2024-01-21 10:00:00","13","galatina","9.8","1","59.11","1","0.0","1","null","6","null","6","null","6","1015.37","1","40.167168","18.174857"],
    [492,"2024-01-21 11:00:00","13","galatina","10.91","1","56.72","1","0.0","1","null","6","null","6","null","6","1015.7","1","40.167168","18.174857"],
    [493,"2024-01-21 12:00:00","13","galatina","11.7","1","53.75","1","0.0","1","null","6","null","6","null","6","1015.94","1","40.167168","18.174857"],
    [494,"2024-01-21 13:00:00","13","galatina","11.66","1","52.11","1","0.0","1","null","6","null","6","null","6","1016.01","1","40.167168","18.174857"],
    [495,"2024-01-21 14:00:00","13","galatina","11.86","1","51.81","1","0.0","1","null","6","null","6","null","6","1016.08","1","40.167168","18.174857"],
    [496,"2024-01-21 15:00:00","13","galatina","11.7","1","52.69","1","0.0","1","null","6","null","6","null","6","1016.17","1","40.167168","18.174857"],
    [497,"2024-01-21 16:00:00","13","galatina","11.16","1","54.23","1","0.0","1","null","6","null","6","null","6","1016.49","1","40.167168","18.174857"],
    [498,"2024-01-21 17:00:00","13","galatina","9.92","1","56.9","1","0.0","1","null","6","null","6","null","6","1016.99","1","40.167168","18.174857"],
    [499,"2024-01-21 18:00:00","13","galatina","8.79","1","60.21","1","0.0","1","null","6","null","6","null","6","1017.61","1","40.167168","18.174857"],
    [500,"2024-01-21 19:00:00","13","galatina","8.24","1","60.59","1","0.0","1","null","6","null","6","null","6","1018.23","1","40.167168","18.174857"],
    [501,"2024-01-21 20:00:00","13","galatina","8.5","1","56.17","1","0.0","1","null","6","null","6","null","6","1018.52","1","40.167168","18.174857"],
    [502,"2024-01-21 21:00:00","13","galatina","8.18","1","61.08","1","0.0","1","null","6","null","6","null","6","1018.78","1","40.167168","18.174857"],
    [503,"2024-01-21 22:00:00","13","galatina","7.69","1","62.1","1","0.0","1","null","6","null","6","null","6","1018.85","1","40.167168","18.174857"],
    [504,"2024-01-21 23:00:00","13","galatina","7.45","1","57.32","1","0.0","1","null","6","null","6","null","6","1019.23","1","40.167168","18.174857"],
    [505,"2024-01-22 00:00:00","13","galatina","7.05","1","58.9","1","0.0","1","null","6","null","6","null","6","1019.46","1","40.167168","18.174857"],
    [506,"2024-01-22 01:00:00","13","galatina","6.91","1","59.98","1","0.0","1","null","6","null","6","null","6","1019.36","1","40.167168","18.174857"],
    [507,"2024-01-22 02:00:00","13","galatina","6.24","1","62.01","1","0.0","1","null","6","null","6","null","6","1019.49","1","40.167168","18.174857"],
    [508,"2024-01-22 03:00:00","13","galatina","5.64","1","63.18","1","0.0","1","null","6","null","6","null","6","1019.78","1","40.167168","18.174857"],
    [509,"2024-01-22 04:00:00","13","galatina","4.64","1","65.55","1","0.0","1","null","6","null","6","null","6","1019.89","1","40.167168","18.174857"],
    [510,"2024-01-22 05:00:00","13","galatina","3.29","1","70.96","1","0.0","1","null","6","null","6","null","6","1019.94","1","40.167168","18.174857"],
    [511,"2024-01-22 06:00:00","13","galatina","4.0","1","64.7","1","0.0","1","null","6","null","6","null","6","1020.16","1","40.167168","18.174857"],
    [512,"2024-01-22 07:00:00","13","galatina","3.31","1","65.21","1","0.0","1","null","6","null","6","null","6","1020.4","1","40.167168","18.174857"],
    [513,"2024-01-22 08:00:00","13","galatina","4.19","1","63.06","1","0.0","1","null","6","null","6","null","6","1020.74","1","40.167168","18.174857"],
    [514,"2024-01-22 09:00:00","13","galatina","7.96","1","53.59","1","0.0","1","null","6","null","6","null","6","1020.93","1","40.167168","18.174857"],
    [515,"2024-01-22 10:00:00","13","galatina","10.19","1","47.89","1","0.0","1","null","6","null","6","null","6","1021.16","1","40.167168","18.174857"],
    [516,"2024-01-22 11:00:00","13","galatina","12.33","1","37.25","1","0.0","1","null","6","null","6","null","6","1021.48","1","40.167168","18.174857"],
    [517,"2024-01-22 12:00:00","13","galatina","13.83","1","31.41","1","0.0","1","null","6","null","6","null","6","1021.28","1","40.167168","18.174857"],
    [518,"2024-01-22 13:00:00","13","galatina","13.64","1","34.64","1","0.0","1","null","6","null","6","null","6","1021.13","1","40.167168","18.174857"],
    [519,"2024-01-22 14:00:00","13","galatina","14.01","1","39.33","1","0.0","1","null","6","null","6","null","6","1020.77","1","40.167168","18.174857"],
    [520,"2024-01-22 15:00:00","13","galatina","14.04","1","46.15","1","0.0","1","null","6","null","6","null","6","1020.49","1","40.167168","18.174857"],
    [521,"2024-01-22 16:00:00","13","galatina","13.23","1","51.47","1","0.0","1","null","6","null","6","null","6","1020.31","1","40.167168","18.174857"],
    [522,"2024-01-22 17:00:00","13","galatina","11.27","1","54.38","1","0.0","1","null","6","null","6","null","6","1020.28","1","40.167168","18.174857"],
    [523,"2024-01-22 18:00:00","13","galatina","9.88","1","58.73","1","0.0","1","null","6","null","6","null","6","1020.29","1","40.167168","18.174857"],
    [524,"2024-01-22 19:00:00","13","galatina","9.09","1","68.26","1","0.0","1","null","6","null","6","null","6","1020.25","1","40.167168","18.174857"],
    [525,"2024-01-22 20:00:00","13","galatina","8.31","1","75.01","1","0.0","1","null","6","null","6","null","6","1020.22","1","40.167168","18.174857"],
    [526,"2024-01-22 21:00:00","13","galatina","7.81","1","78.43","1","0.0","1","null","6","null","6","null","6","1020.24","1","40.167168","18.174857"],
    [527,"2024-01-22 22:00:00","13","galatina","7.97","1","75.07","1","0.0","1","null","6","null","6","null","6","1020.11","1","40.167168","18.174857"],
    [528,"2024-01-22 23:00:00","13","galatina","6.57","1","79.36","1","0.0","1","null","6","null","6","null","6","1019.97","1","40.167168","18.174857"],
    [529,"2024-01-23 00:00:00","13","galatina","3.3","1","88.93","1","0.0","1","null","6","null","6","null","6","1019.85","1","40.167168","18.174857"],
    [530,"2024-01-23 01:00:00","13","galatina","2.55","1","92.47","1","0.0","1","null","6","null","6","null","6","1019.56","1","40.167168","18.174857"],
    [531,"2024-01-23 02:00:00","13","galatina","1.68","1","93.95","1","0.0","1","null","6","null","6","null","6","1019.3","1","40.167168","18.174857"],
    [532,"2024-01-23 03:00:00","13","galatina","1.01","1","94.86","1","0.0","1","null","6","null","6","null","6","1018.84","1","40.167168","18.174857"],
    [533,"2024-01-23 04:00:00","13","galatina","0.9","1","95.35","1","0.0","1","null","6","null","6","null","6","1018.31","1","40.167168","18.174857"],
    [534,"2024-01-23 05:00:00","13","galatina","0.67","1","95.69","1","0.0","1","null","6","null","6","null","6","1018.06","1","40.167168","18.174857"],
    [535,"2024-01-23 06:00:00","13","galatina","1.04","1","96.1","1","0.0","1","null","6","null","6","null","6","1018.01","1","40.167168","18.174857"],
    [536,"2024-01-23 07:00:00","13","galatina","1.15","1","95.94","1","0.0","1","null","6","null","6","null","6","1018.09","1","40.167168","18.174857"],
    [537,"2024-01-23 08:00:00","13","galatina","2.22","1","95.67","1","0.0","1","null","6","null","6","null","6","1018.03","1","40.167168","18.174857"],
    [538,"2024-01-23 09:00:00","13","galatina","3.75","1","94.13","1","0.0","1","null","6","null","6","null","6","1017.96","1","40.167168","18.174857"],
    [539,"2024-01-23 10:00:00","13","galatina","8.31","1","72.25","1","0.0","1","null","6","null","6","null","6","1017.87","1","40.167168","18.174857"],
    [540,"2024-01-23 11:00:00","13","galatina","10.26","1","57.37","1","0.0","1","null","6","null","6","null","6","1017.84","1","40.167168","18.174857"],
    [541,"2024-01-23 12:00:00","13","galatina","12.07","1","55.05","1","0.0","1","null","6","null","6","null","6","1017.43","1","40.167168","18.174857"],
    [542,"2024-01-23 13:00:00","13","galatina","13.31","1","57.2","1","0.0","1","null","6","null","6","null","6","1016.89","1","40.167168","18.174857"],
    [543,"2024-01-23 14:00:00","13","galatina","13.43","1","55.5","1","0.0","1","null","6","null","6","null","6","1016.56","1","40.167168","18.174857"],
    [544,"2024-01-23 15:00:00","13","galatina","11.95","1","66.5","1","0.0","1","null","6","null","6","null","6","1016.67","1","40.167168","18.174857"],
    [545,"2024-01-23 16:00:00","13","galatina","10.57","1","80.42","1","0.0","1","null","6","null","6","null","6","1016.95","1","40.167168","18.174857"],
    [546,"2024-01-23 17:00:00","13","galatina","9.89","1","84.86","1","0.0","1","null","6","null","6","null","6","1016.92","1","40.167168","18.174857"],
    [547,"2024-01-23 18:00:00","13","galatina","9.38","1","89.96","1","0.4","1","null","6","null","6","null","6","1017.13","1","40.167168","18.174857"],
    [548,"2024-01-23 19:00:00","13","galatina","9.27","1","91.59","1","0.4","1","null","6","null","6","null","6","1017.53","1","40.167168","18.174857"],
    [549,"2024-01-23 20:00:00","13","galatina","8.9","1","88.61","1","0.0","1","null","6","null","6","null","6","1017.81","1","40.167168","18.174857"],
    [550,"2024-01-23 21:00:00","13","galatina","8.65","1","85.65","1","0.0","1","null","6","null","6","null","6","1017.95","1","40.167168","18.174857"],
    [551,"2024-01-23 22:00:00","13","galatina","8.1","1","85.05","1","0.0","1","null","6","null","6","null","6","1018.01","1","40.167168","18.174857"],
    [552,"2024-01-23 23:00:00","13","galatina","9.22","1","71.95","1","0.0","1","null","6","null","6","null","6","1017.84","1","40.167168","18.174857"],
    [553,"2024-01-24 00:00:00","13","galatina","9.44","1","69.96","1","0.0","1","null","6","null","6","null","6","1017.9","1","40.167168","18.174857"],
    [554,"2024-01-24 01:00:00","13","galatina","9.21","1","64.97","1","0.0","1","null","6","null","6","null","6","1017.98","1","40.167168","18.174857"],
    [555,"2024-01-24 02:00:00","13","galatina","9.06","1","63.1","1","0.0","1","null","6","null","6","null","6","1018.11","1","40.167168","18.174857"],
    [556,"2024-01-24 03:00:00","13","galatina","8.22","1","68.39","1","0.0","1","null","6","null","6","null","6","1018.15","1","40.167168","18.174857"],
    [557,"2024-01-24 04:00:00","13","galatina","8.64","1","61.08","1","0.0","1","null","6","null","6","null","6","1018.06","1","40.167168","18.174857"],
    [558,"2024-01-24 05:00:00","13","galatina","8.61","1","59.41","1","0.0","1","null","6","null","6","null","6","1018.23","1","40.167168","18.174857"],
    [559,"2024-01-24 06:00:00","13","galatina","8.27","1","60.35","1","0.0","1","null","6","null","6","null","6","1018.47","1","40.167168","18.174857"],
    [560,"2024-01-24 07:00:00","13","galatina","7.89","1","60.97","1","0.0","1","null","6","null","6","null","6","1018.96","1","40.167168","18.174857"],
    [561,"2024-01-24 08:00:00","13","galatina","7.98","1","61.7","1","0.0","1","null","6","null","6","null","6","1019.12","1","40.167168","18.174857"],
    [562,"2024-01-24 09:00:00","13","galatina","9.43","1","60.07","1","0.0","1","null","6","null","6","null","6","1019.26","1","40.167168","18.174857"],
    [563,"2024-01-24 10:00:00","13","galatina","10.57","1","57.51","1","0.0","1","null","6","null","6","null","6","1019.63","1","40.167168","18.174857"],
    [564,"2024-01-24 11:00:00","13","galatina","12.99","1","46.11","1","0.0","1","null","6","null","6","null","6","1019.96","1","40.167168","18.174857"],
    [565,"2024-01-24 12:00:00","13","galatina","14.16","1","43.82","1","0.0","1","null","6","null","6","null","6","1019.77","1","40.167168","18.174857"],
    [566,"2024-01-24 13:00:00","13","galatina","14.53","1","41.79","1","0.0","1","null","6","null","6","null","6","1019.34","1","40.167168","18.174857"],
    [567,"2024-01-24 14:00:00","13","galatina","14.8","1","43.48","1","0.0","1","null","6","null","6","null","6","1018.87","1","40.167168","18.174857"],
    [568,"2024-01-24 15:00:00","13","galatina","14.58","1","43.09","1","0.0","1","null","6","null","6","null","6","1018.79","1","40.167168","18.174857"],
    [569,"2024-01-24 16:00:00","13","galatina","13.8","1","48.19","1","0.0","1","null","6","null","6","null","6","1018.59","1","40.167168","18.174857"],
    [570,"2024-01-24 17:00:00","13","galatina","11.47","1","55.07","1","0.0","1","null","6","null","6","null","6","1018.54","1","40.167168","18.174857"],
    [571,"2024-01-24 18:00:00","13","galatina","10.49","1","61.82","1","0.0","1","null","6","null","6","null","6","1018.62","1","40.167168","18.174857"],
    [572,"2024-01-24 19:00:00","13","galatina","10.2","1","68.58","1","0.0","1","null","6","null","6","null","6","1018.54","1","40.167168","18.174857"],
    [573,"2024-01-24 20:00:00","13","galatina","9.83","1","74.55","1","0.0","1","null","6","null","6","null","6","1018.43","1","40.167168","18.174857"],
    [574,"2024-01-24 21:00:00","13","galatina","9.06","1","73.76","1","0.0","1","null","6","null","6","null","6","1018.54","1","40.167168","18.174857"],
    [575,"2024-01-24 22:00:00","13","galatina","9.72","1","65.88","1","0.0","1","null","6","null","6","null","6","1018.45","1","40.167168","18.174857"],
    [576,"2024-01-24 23:00:00","13","galatina","9.38","1","70.74","1","0.0","1","null","6","null","6","null","6","1018.04","1","40.167168","18.174857"],
    [577,"2024-01-25 00:00:00","13","galatina","7.96","1","75.77","1","0.0","1","null","6","null","6","null","6","1017.84","1","40.167168","18.174857"],
    [578,"2024-01-25 01:00:00","13","galatina","5.96","1","83.77","1","0.0","1","null","6","null","6","null","6","1017.27","1","40.167168","18.174857"],
    [579,"2024-01-25 02:00:00","13","galatina","5.05","1","86.83","1","0.0","1","null","6","null","6","null","6","1017.01","1","40.167168","18.174857"],
    [580,"2024-01-25 03:00:00","13","galatina","4.73","1","88.36","1","0.0","1","null","6","null","6","null","6","1016.71","1","40.167168","18.174857"],
    [581,"2024-01-25 04:00:00","13","galatina","4.23","1","89.22","1","0.0","1","null","6","null","6","null","6","1016.51","1","40.167168","18.174857"],
    [582,"2024-01-25 05:00:00","13","galatina","3.53","1","91.27","1","0.0","1","null","6","null","6","null","6","1016.22","1","40.167168","18.174857"],
    [583,"2024-01-25 06:00:00","13","galatina","3.38","1","92.53","1","0.0","1","null","6","null","6","null","6","1016.12","1","40.167168","18.174857"],
    [584,"2024-01-25 07:00:00","13","galatina","3.02","1","93.21","1","0.0","1","null","6","null","6","null","6","1016.23","1","40.167168","18.174857"],
    [585,"2024-01-25 08:00:00","13","galatina","3.59","1","93.43","1","0.0","1","null","6","null","6","null","6","1016.23","1","40.167168","18.174857"],
    [586,"2024-01-25 09:00:00","13","galatina","6.97","1","84.77","1","0.0","1","null","6","null","6","null","6","1016.06","1","40.167168","18.174857"],
    [587,"2024-01-25 10:00:00","13","galatina","12.38","1","74.46","1","0.0","1","null","6","null","6","null","6","1015.74","1","40.167168","18.174857"],
    [588,"2024-01-25 11:00:00","13","galatina","15.52","1","56.94","1","0.0","1","null","6","null","6","null","6","1015.75","1","40.167168","18.174857"],
    [589,"2024-01-25 12:00:00","13","galatina","17.38","1","42.59","1","0.0","1","null","6","null","6","null","6","1015.32","1","40.167168","18.174857"],
    [590,"2024-01-25 13:00:00","13","galatina","17.38","1","43.14","1","0.0","1","null","6","null","6","null","6","1015.03","1","40.167168","18.174857"],
    [591,"2024-01-25 14:00:00","13","galatina","17.43","1","46.75","1","0.0","1","null","6","null","6","null","6","1014.96","1","40.167168","18.174857"],
    [592,"2024-01-25 15:00:00","13","galatina","16.72","1","56.88","1","0.0","1","null","6","null","6","null","6","1015.08","1","40.167168","18.174857"],
    [593,"2024-01-25 16:00:00","13","galatina","15.65","1","53.27","1","0.0","1","null","6","null","6","null","6","1015.18","1","40.167168","18.174857"],
    [594,"2024-01-25 17:00:00","13","galatina","13.09","1","60.83","1","0.0","1","null","6","null","6","null","6","1015.45","1","40.167168","18.174857"],
    [595,"2024-01-25 18:00:00","13","galatina","11.68","1","76.07","1","0.0","1","null","6","null","6","null","6","1015.63","1","40.167168","18.174857"],
    [596,"2024-01-25 19:00:00","13","galatina","11.15","1","78.32","1","0.0","1","null","6","null","6","null","6","1015.75","1","40.167168","18.174857"],
    [597,"2024-01-25 20:00:00","13","galatina","10.38","1","81.62","1","0.0","1","null","6","null","6","null","6","1016.17","1","40.167168","18.174857"],
    [598,"2024-01-25 21:00:00","13","galatina","9.06","1","86.87","1","0.0","1","null","6","null","6","null","6","1016.26","1","40.167168","18.174857"],
    [599,"2024-01-25 22:00:00","13","galatina","9.14","1","86.32","1","0.0","1","null","6","null","6","null","6","1016.33","1","40.167168","18.174857"],
    [600,"2024-01-25 23:00:00","13","galatina","8.77","1","89.16","1","0.0","1","null","6","null","6","null","6","1016.46","1","40.167168","18.174857"],
    [601,"2024-01-26 00:00:00","13","galatina","8.5","1","92.35","1","0.0","1","null","6","null","6","null","6","1016.49","1","40.167168","18.174857"],
    [602,"2024-01-26 01:00:00","13","galatina","8.65","1","94.2","1","0.0","1","null","6","null","6","null","6","1016.39","1","40.167168","18.174857"],
    [603,"2024-01-26 02:00:00","13","galatina","8.11","1","95.24","1","0.0","1","null","6","null","6","null","6","1016.47","1","40.167168","18.174857"],
    [604,"2024-01-26 03:00:00","13","galatina","7.98","1","95.62","1","0.0","1","null","6","null","6","null","6","1016.61","1","40.167168","18.174857"],
    [605,"2024-01-26 04:00:00","13","galatina","7.95","1","95.21","1","0.0","1","null","6","null","6","null","6","1016.71","1","40.167168","18.174857"],
    [606,"2024-01-26 05:00:00","13","galatina","7.75","1","95.16","1","0.0","1","null","6","null","6","null","6","1016.72","1","40.167168","18.174857"],
    [607,"2024-01-26 06:00:00","13","galatina","7.89","1","96.03","1","0.0","1","null","6","null","6","null","6","1016.78","1","40.167168","18.174857"],
    [608,"2024-01-26 07:00:00","13","galatina","8.48","1","96.46","1","0.2","1","null","6","null","6","null","6","1016.95","1","40.167168","18.174857"],
    [609,"2024-01-26 08:00:00","13","galatina","9.46","1","95.95","1","0.0","1","null","6","null","6","null","6","1017.05","1","40.167168","18.174857"],
    [610,"2024-01-26 09:00:00","13","galatina","10.43","1","92.61","1","0.0","1","null","6","null","6","null","6","1017.36","1","40.167168","18.174857"],
    [611,"2024-01-26 10:00:00","13","galatina","11.98","1","86.92","1","0.0","1","null","6","null","6","null","6","1017.6","1","40.167168","18.174857"],
    [612,"2024-01-26 11:00:00","13","galatina","14.13","1","78.35","1","0.0","1","null","6","null","6","null","6","1017.69","1","40.167168","18.174857"],
    [613,"2024-01-26 12:00:00","13","galatina","15.6","1","67.25","1","0.0","1","null","6","null","6","null","6","1017.45","1","40.167168","18.174857"],
    [614,"2024-01-26 13:00:00","13","galatina","16.71","1","54.63","1","0.0","1","null","6","null","6","null","6","1017.05","1","40.167168","18.174857"],
    [615,"2024-01-26 14:00:00","13","galatina","17.59","1","43.11","1","0.0","1","null","6","null","6","null","6","1016.63","1","40.167168","18.174857"],
    [616,"2024-01-26 15:00:00","13","galatina","17.43","1","44.24","1","0.0","1","null","6","null","6","null","6","1016.55","1","40.167168","18.174857"],
    [617,"2024-01-26 16:00:00","13","galatina","17.2","1","51.68","1","0.0","1","null","6","null","6","null","6","1016.54","1","40.167168","18.174857"],
    [618,"2024-01-26 17:00:00","13","galatina","14.4","1","61.05","1","0.0","1","null","6","null","6","null","6","1016.56","1","40.167168","18.174857"],
    [619,"2024-01-26 18:00:00","13","galatina","12.08","1","77.01","1","0.0","1","null","6","null","6","null","6","1016.85","1","40.167168","18.174857"],
    [620,"2024-01-26 19:00:00","13","galatina","11.02","1","84.31","1","0.0","1","null","6","null","6","null","6","1017.0","1","40.167168","18.174857"],
    [621,"2024-01-26 20:00:00","13","galatina","9.33","1","90.06","1","0.0","1","null","6","null","6","null","6","1017.07","1","40.167168","18.174857"],
    [622,"2024-01-26 21:00:00","13","galatina","8.09","1","92.57","1","0.0","1","null","6","null","6","null","6","1017.04","1","40.167168","18.174857"],
    [623,"2024-01-26 22:00:00","13","galatina","6.9","1","93.81","1","0.0","1","null","6","null","6","null","6","1017.03","1","40.167168","18.174857"],
    [624,"2024-01-26 23:00:00","13","galatina","6.15","1","95.21","1","0.2","1","null","6","null","6","null","6","1017.1","1","40.167168","18.174857"],
    [625,"2024-01-27 00:00:00","13","galatina","6.01","1","95.96","1","0.0","1","null","6","null","6","null","6","1017.15","1","40.167168","18.174857"],
    [626,"2024-01-27 01:00:00","13","galatina","5.0","1","96.38","1","0.0","1","null","6","null","6","null","6","1016.98","1","40.167168","18.174857"],
    [627,"2024-01-27 02:00:00","13","galatina","5.14","1","96.36","1","0.0","1","null","6","null","6","null","6","1016.84","1","40.167168","18.174857"],
    [628,"2024-01-27 03:00:00","13","galatina","4.32","1","96.63","1","0.0","1","null","6","null","6","null","6","1016.97","1","40.167168","18.174857"],
    [629,"2024-01-27 04:00:00","13","galatina","4.16","1","96.4","1","0.0","1","null","6","null","6","null","6","1016.92","1","40.167168","18.174857"],
    [630,"2024-01-27 05:00:00","13","galatina","6.76","1","83.53","1","0.0","1","null","6","null","6","null","6","1016.83","1","40.167168","18.174857"],
    [631,"2024-01-27 06:00:00","13","galatina","8.29","1","84.34","1","0.0","1","null","6","null","6","null","6","1016.82","1","40.167168","18.174857"],
    [632,"2024-01-27 07:00:00","13","galatina","8.49","1","90.05","1","0.0","1","null","6","null","6","null","6","1017.23","1","40.167168","18.174857"],
    [633,"2024-01-27 08:00:00","13","galatina","8.73","1","93.96","1","0.0","1","null","6","null","6","null","6","1017.43","1","40.167168","18.174857"],
    [634,"2024-01-27 09:00:00","13","galatina","9.79","1","94.37","1","0.0","1","null","6","null","6","null","6","1017.58","1","40.167168","18.174857"],
    [635,"2024-01-27 10:00:00","13","galatina","11.5","1","92.71","1","0.0","1","null","6","null","6","null","6","1017.66","1","40.167168","18.174857"],
    [636,"2024-01-27 11:00:00","13","galatina","14.1","1","80.31","1","0.0","1","null","6","null","6","null","6","1017.95","1","40.167168","18.174857"],
    [637,"2024-01-27 12:00:00","13","galatina","15.22","1","72.82","1","0.0","1","null","6","null","6","null","6","1018.1","1","40.167168","18.174857"],
    [638,"2024-01-27 13:00:00","13","galatina","15.18","1","70.99","1","0.0","1","null","6","null","6","null","6","1017.87","1","40.167168","18.174857"],
    [639,"2024-01-27 14:00:00","13","galatina","15.41","1","70.18","1","0.0","1","null","6","null","6","null","6","1017.65","1","40.167168","18.174857"],
    [640,"2024-01-27 15:00:00","13","galatina","15.27","1","69.18","1","0.0","1","null","6","null","6","null","6","1017.54","1","40.167168","18.174857"],
    [641,"2024-01-27 16:00:00","13","galatina","15.16","1","69.92","1","0.0","1","null","6","null","6","null","6","1017.58","1","40.167168","18.174857"],
    [642,"2024-01-27 17:00:00","13","galatina","13.46","1","75.36","1","0.0","1","null","6","null","6","null","6","1017.72","1","40.167168","18.174857"],
    [643,"2024-01-27 18:00:00","13","galatina","12.13","1","68.6","1","0.0","1","null","6","null","6","null","6","1018.09","1","40.167168","18.174857"],
    [644,"2024-01-27 19:00:00","13","galatina","11.45","1","61.12","1","0.0","1","null","6","null","6","null","6","1018.41","1","40.167168","18.174857"],
    [645,"2024-01-27 20:00:00","13","galatina","10.97","1","63.38","1","0.0","1","null","6","null","6","null","6","1018.84","1","40.167168","18.174857"],
    [646,"2024-01-27 21:00:00","13","galatina","10.19","1","61.59","1","0.0","1","null","6","null","6","null","6","1019.1","1","40.167168","18.174857"],
    [647,"2024-01-27 22:00:00","13","galatina","9.64","1","60.52","1","0.0","1","null","6","null","6","null","6","1019.35","1","40.167168","18.174857"],
    [648,"2024-01-27 23:00:00","13","galatina","9.1","1","65.17","1","0.0","1","null","6","null","6","null","6","1019.33","1","40.167168","18.174857"],
    [649,"2024-01-28 00:00:00","13","galatina","7.92","1","68.38","1","0.0","1","null","6","null","6","null","6","1019.53","1","40.167168","18.174857"],
    [650,"2024-01-28 01:00:00","13","galatina","8.16","1","60.18","1","0.0","1","null","6","null","6","null","6","1019.68","1","40.167168","18.174857"],
    [651,"2024-01-28 02:00:00","13","galatina","7.28","1","64.13","1","0.0","1","null","6","null","6","null","6","1019.77","1","40.167168","18.174857"],
    [652,"2024-01-28 03:00:00","13","galatina","7.5","1","53.94","1","0.0","1","null","6","null","6","null","6","1019.88","1","40.167168","18.174857"],
    [653,"2024-01-28 04:00:00","13","galatina","6.72","1","55.26","1","0.0","1","null","6","null","6","null","6","1019.9","1","40.167168","18.174857"],
    [654,"2024-01-28 05:00:00","13","galatina","6.92","1","52.56","1","0.0","1","null","6","null","6","null","6","1020.14","1","40.167168","18.174857"],
    [655,"2024-01-28 06:00:00","13","galatina","7.2","1","49.71","1","0.0","1","null","6","null","6","null","6","1020.26","1","40.167168","18.174857"],
    [656,"2024-01-28 07:00:00","13","galatina","7.37","1","50.72","1","0.0","1","null","6","null","6","null","6","1020.7","1","40.167168","18.174857"],
    [657,"2024-01-28 08:00:00","13","galatina","8.4","1","50.08","1","0.0","1","null","6","null","6","null","6","1021.05","1","40.167168","18.174857"],
    [658,"2024-01-28 09:00:00","13","galatina","10.25","1","45.26","1","0.0","1","null","6","null","6","null","6","1021.26","1","40.167168","18.174857"],
    [659,"2024-01-28 10:00:00","13","galatina","10.68","1","42.43","1","0.0","1","null","6","null","6","null","6","1021.49","1","40.167168","18.174857"],
    [660,"2024-01-28 11:00:00","13","galatina","11.68","1","42.86","1","0.0","1","null","6","null","6","null","6","1021.88","1","40.167168","18.174857"],
    [661,"2024-01-28 12:00:00","13","galatina","12.53","1","41.65","1","0.0","1","null","6","null","6","null","6","1021.98","1","40.167168","18.174857"],
    [662,"2024-01-28 13:00:00","13","galatina","12.42","1","41.23","1","0.0","1","null","6","null","6","null","6","1021.85","1","40.167168","18.174857"],
    [663,"2024-01-28 14:00:00","13","galatina","12.65","1","41.49","1","0.0","1","null","6","null","6","null","6","1021.52","1","40.167168","18.174857"],
    [664,"2024-01-28 15:00:00","13","galatina","11.74","1","45.0","1","0.0","1","null","6","null","6","null","6","1021.54","1","40.167168","18.174857"],
    [665,"2024-01-28 16:00:00","13","galatina","11.47","1","45.21","1","0.0","1","null","6","null","6","null","6","1021.6","1","40.167168","18.174857"],
    [666,"2024-01-28 17:00:00","13","galatina","9.66","1","47.93","1","0.0","1","null","6","null","6","null","6","1021.71","1","40.167168","18.174857"],
    [667,"2024-01-28 18:00:00","13","galatina","8.47","1","50.58","1","0.0","1","null","6","null","6","null","6","1022.03","1","40.167168","18.174857"],
    [668,"2024-01-28 19:00:00","13","galatina","8.15","1","51.36","1","0.0","1","null","6","null","6","null","6","1022.22","1","40.167168","18.174857"],
    [669,"2024-01-28 20:00:00","13","galatina","8.06","1","53.45","1","0.0","1","null","6","null","6","null","6","1022.35","1","40.167168","18.174857"],
    [670,"2024-01-28 21:00:00","13","galatina","7.93","1","56.39","1","0.0","1","null","6","null","6","null","6","1022.43","1","40.167168","18.174857"],
    [671,"2024-01-28 22:00:00","13","galatina","7.35","1","58.43","1","0.0","1","null","6","null","6","null","6","1022.44","1","40.167168","18.174857"],
    [672,"2024-01-28 23:00:00","13","galatina","7.32","1","57.76","1","0.0","1","null","6","null","6","null","6","1022.49","1","40.167168","18.174857"],
    [673,"2024-01-29 00:00:00","13","galatina","7.08","1","59.81","1","0.0","1","null","6","null","6","null","6","1022.56","1","40.167168","18.174857"],
    [674,"2024-01-29 01:00:00","13","galatina","7.15","1","59.76","1","0.0","1","null","6","null","6","null","6","1022.46","1","40.167168","18.174857"],
    [675,"2024-01-29 02:00:00","13","galatina","6.77","1","60.86","1","0.0","1","null","6","null","6","null","6","1022.49","1","40.167168","18.174857"],
    [676,"2024-01-29 03:00:00","13","galatina","6.67","1","59.1","1","0.0","1","null","6","null","6","null","6","1022.47","1","40.167168","18.174857"],
    [677,"2024-01-29 04:00:00","13","galatina","6.38","1","58.77","1","0.0","1","null","6","null","6","null","6","1022.31","1","40.167168","18.174857"],
    [678,"2024-01-29 05:00:00","13","galatina","6.17","1","61.38","1","0.0","1","null","6","null","6","null","6","1022.34","1","40.167168","18.174857"],
    [679,"2024-01-29 06:00:00","13","galatina","5.16","1","64.99","1","0.0","1","null","6","null","6","null","6","1022.45","1","40.167168","18.174857"],
    [680,"2024-01-29 07:00:00","13","galatina","4.48","1","66.74","1","0.0","1","null","6","null","6","null","6","1022.8","1","40.167168","18.174857"],
    [681,"2024-01-29 08:00:00","13","galatina","5.0","1","65.14","1","0.0","1","null","6","null","6","null","6","1023.08","1","40.167168","18.174857"],
    [682,"2024-01-29 09:00:00","13","galatina","7.81","1","56.6","1","0.0","1","null","6","null","6","null","6","1023.11","1","40.167168","18.174857"],
    [683,"2024-01-29 10:00:00","13","galatina","9.55","1","49.4","1","0.0","1","null","6","null","6","null","6","1023.25","1","40.167168","18.174857"],
    [684,"2024-01-29 11:00:00","13","galatina","11.64","1","39.8","1","0.0","1","null","6","null","6","null","6","1023.45","1","40.167168","18.174857"],
    [685,"2024-01-29 12:00:00","13","galatina","12.38","1","37.91","1","0.0","1","null","6","null","6","null","6","1023.25","1","40.167168","18.174857"],
    [686,"2024-01-29 13:00:00","13","galatina","12.16","1","38.59","1","0.0","1","null","6","null","6","null","6","1023.05","1","40.167168","18.174857"],
    [687,"2024-01-29 14:00:00","13","galatina","12.79","1","38.08","1","0.0","1","null","6","null","6","null","6","1022.74","1","40.167168","18.174857"],
    [688,"2024-01-29 15:00:00","13","galatina","12.53","1","38.07","1","0.0","1","null","6","null","6","null","6","1022.64","1","40.167168","18.174857"],
    [689,"2024-01-29 16:00:00","13","galatina","11.81","1","41.77","1","0.0","1","null","6","null","6","null","6","1022.6","1","40.167168","18.174857"],
    [690,"2024-01-29 17:00:00","13","galatina","9.64","1","48.96","1","0.0","1","null","6","null","6","null","6","1022.63","1","40.167168","18.174857"],
    [691,"2024-01-29 18:00:00","13","galatina","8.13","1","55.85","1","0.0","1","null","6","null","6","null","6","1022.75","1","40.167168","18.174857"],
    [692,"2024-01-29 19:00:00","13","galatina","7.47","1","59.59","1","0.0","1","null","6","null","6","null","6","1022.92","1","40.167168","18.174857"],
    [693,"2024-01-29 20:00:00","13","galatina","7.0","1","61.4","1","0.0","1","null","6","null","6","null","6","1023.04","1","40.167168","18.174857"],
    [694,"2024-01-29 21:00:00","13","galatina","6.49","1","61.86","1","0.0","1","null","6","null","6","null","6","1023.2","1","40.167168","18.174857"],
    [695,"2024-01-29 22:00:00","13","galatina","6.57","1","60.54","1","0.0","1","null","6","null","6","null","6","1023.16","1","40.167168","18.174857"],
    [696,"2024-01-29 23:00:00","13","galatina","6.54","1","59.58","1","0.0","1","null","6","null","6","null","6","1023.17","1","40.167168","18.174857"],
    [697,"2024-01-30 00:00:00","13","galatina","6.14","1","59.47","1","0.0","1","null","6","null","6","null","6","1023.47","1","40.167168","18.174857"],
    [698,"2024-01-30 01:00:00","13","galatina","5.14","1","61.35","1","0.0","1","null","6","null","6","null","6","1023.42","1","40.167168","18.174857"],
    [699,"2024-01-30 02:00:00","13","galatina","5.51","1","57.69","1","0.0","1","null","6","null","6","null","6","1023.37","1","40.167168","18.174857"],
    [700,"2024-01-30 03:00:00","13","galatina","5.43","1","57.56","1","0.0","1","null","6","null","6","null","6","1023.24","1","40.167168","18.174857"],
    [701,"2024-01-30 04:00:00","13","galatina","5.41","1","56.64","1","0.0","1","null","6","null","6","null","6","1023.2","1","40.167168","18.174857"],
    [702,"2024-01-30 05:00:00","13","galatina","4.68","1","59.59","1","0.0","1","null","6","null","6","null","6","1023.08","1","40.167168","18.174857"],
    [703,"2024-01-30 06:00:00","13","galatina","4.2","1","59.55","1","0.0","1","null","6","null","6","null","6","1023.08","1","40.167168","18.174857"],
    [704,"2024-01-30 07:00:00","13","galatina","4.17","1","57.21","1","0.0","1","null","6","null","6","null","6","1023.27","1","40.167168","18.174857"],
    [705,"2024-01-30 08:00:00","13","galatina","4.99","1","54.78","1","0.0","1","null","6","null","6","null","6","1023.62","1","40.167168","18.174857"],
    [706,"2024-01-30 09:00:00","13","galatina","7.8","1","49.89","1","0.0","1","null","6","null","6","null","6","1023.74","1","40.167168","18.174857"],
    [707,"2024-01-30 10:00:00","13","galatina","9.25","1","43.86","1","0.0","1","null","6","null","6","null","6","1023.77","1","40.167168","18.174857"],
    [708,"2024-01-30 11:00:00","13","galatina","10.39","1","41.24","1","0.0","1","null","6","null","6","null","6","1023.98","1","40.167168","18.174857"],
    [709,"2024-01-30 12:00:00","13","galatina","11.18","1","39.95","1","0.0","1","null","6","null","6","null","6","1023.77","1","40.167168","18.174857"],
    [710,"2024-01-30 13:00:00","13","galatina","11.56","1","36.62","1","0.0","1","null","6","null","6","null","6","1023.35","1","40.167168","18.174857"],
    [711,"2024-01-30 14:00:00","13","galatina","12.2","1","33.63","1","0.0","1","null","6","null","6","null","6","1023.0","1","40.167168","18.174857"],
    [712,"2024-01-30 15:00:00","13","galatina","12.01","1","37.96","1","0.0","1","null","6","null","6","null","6","1022.45","1","40.167168","18.174857"],
    [713,"2024-01-30 16:00:00","13","galatina","11.66","1","41.76","1","0.0","1","null","6","null","6","null","6","1022.7","1","40.167168","18.174857"],
    [714,"2024-01-30 17:00:00","13","galatina","9.43","1","52.15","1","0.0","1","null","6","null","6","null","6","1022.98","1","40.167168","18.174857"],
    [715,"2024-01-30 18:00:00","13","galatina","8.07","1","57.83","1","0.0","1","null","6","null","6","null","6","1023.17","1","40.167168","18.174857"],
    [716,"2024-01-30 19:00:00","13","galatina","7.28","1","58.3","1","0.0","1","null","6","null","6","null","6","1023.32","1","40.167168","18.174857"],
    [717,"2024-01-30 20:00:00","13","galatina","7.38","1","59.56","1","0.0","1","null","6","null","6","null","6","1023.38","1","40.167168","18.174857"],
    [718,"2024-01-30 21:00:00","13","galatina","7.11","1","63.53","1","0.0","1","null","6","null","6","null","6","1023.52","1","40.167168","18.174857"],
    [719,"2024-01-30 22:00:00","13","galatina","7.05","1","66.38","1","0.0","1","null","6","null","6","null","6","1023.49","1","40.167168","18.174857"],
    [720,"2024-01-30 23:00:00","13","galatina","7.08","1","69.66","1","0.0","1","null","6","null","6","null","6","1023.32","1","40.167168","18.174857"],
    [721,"2024-01-31 00:00:00","13","galatina","7.1","1","72.47","1","0.0","1","null","6","null","6","null","6","1023.26","1","40.167168","18.174857"],
    [722,"2024-01-31 01:00:00","13","galatina","6.8","1","70.19","1","0.0","1","null","6","null","6","null","6","1023.15","1","40.167168","18.174857"],
    [723,"2024-01-31 02:00:00","13","galatina","6.88","1","61.05","1","0.0","1","null","6","null","6","null","6","1023.07","1","40.167168","18.174857"],
    [724,"2024-01-31 03:00:00","13","galatina","6.45","1","61.24","1","0.0","1","null","6","null","6","null","6","1022.97","1","40.167168","18.174857"],
    [725,"2024-01-31 04:00:00","13","galatina","6.66","1","58.02","1","0.0","1","null","6","null","6","null","6","1022.62","1","40.167168","18.174857"],
    [726,"2024-01-31 05:00:00","13","galatina","6.65","1","58.73","1","0.0","1","null","6","null","6","null","6","1022.21","1","40.167168","18.174857"],
    [727,"2024-01-31 06:00:00","13","galatina","6.73","1","59.09","1","0.0","1","null","6","null","6","null","6","1022.21","1","40.167168","18.174857"],
    [728,"2024-01-31 07:00:00","13","galatina","6.65","1","57.17","1","0.0","1","null","6","null","6","null","6","1022.18","1","40.167168","18.174857"],
    [729,"2024-01-31 08:00:00","13","galatina","6.68","1","63.77","1","0.0","1","null","6","null","6","null","6","1022.56","1","40.167168","18.174857"],
    [730,"2024-01-31 09:00:00","13","galatina","8.36","1","77.71","1","0.0","1","null","6","null","6","null","6","1022.69","1","40.167168","18.174857"],
    [731,"2024-01-31 10:00:00","13","galatina","9.94","1","77.19","1","0.0","1","null","6","null","6","null","6","1022.52","1","40.167168","18.174857"],
    [732,"2024-01-31 11:00:00","13","galatina","12.31","1","69.36","1","0.0","1","null","6","null","6","null","6","1022.35","1","40.167168","18.174857"],
    [733,"2024-01-31 12:00:00","13","galatina","14.12","1","55.26","1","0.0","1","null","6","null","6","null","6","1022.01","1","40.167168","18.174857"],
    [734,"2024-01-31 13:00:00","13","galatina","14.61","1","49.88","1","0.0","1","null","6","null","6","null","6","1021.59","1","40.167168","18.174857"],
    [735,"2024-01-31 14:00:00","13","galatina","15.11","1","50.02","1","0.0","1","null","6","null","6","null","6","1021.26","1","40.167168","18.174857"],
    [736,"2024-01-31 15:00:00","13","galatina","14.7","1","52.34","1","0.0","1","null","6","null","6","null","6","1021.11","1","40.167168","18.174857"],
    [737,"2024-01-31 16:00:00","13","galatina","14.19","1","55.01","1","0.0","1","null","6","null","6","null","6","1021.06","1","40.167168","18.174857"],
    [738,"2024-01-31 17:00:00","13","galatina","12.19","1","62.02","1","0.0","1","null","6","null","6","null","6","1021.14","1","40.167168","18.174857"],
    [739,"2024-01-31 18:00:00","13","galatina","10.65","1","71.43","1","0.0","1","null","6","null","6","null","6","1021.28","1","40.167168","18.174857"],
    [740,"2024-01-31 19:00:00","13","galatina","9.79","1","82.87","1","0.0","1","null","6","null","6","null","6","1021.39","1","40.167168","18.174857"],
    [741,"2024-01-31 20:00:00","13","galatina","8.75","1","87.51","1","0.0","1","null","6","null","6","null","6","1021.39","1","40.167168","18.174857"],
    [742,"2024-01-31 21:00:00","13","galatina","8.25","1","90.13","1","0.0","1","null","6","null","6","null","6","1021.24","1","40.167168","18.174857"],
    [743,"2024-01-31 22:00:00","13","galatina","7.91","1","91.25","1","0.0","1","null","6","null","6","null","6","1021.16","1","40.167168","18.174857"],
    [744,"2024-01-31 23:00:00","13","galatina","7.39","1","91.75","1","0.0","1","null","6","null","6","null","6","1021.11","1","40.167168","18.174857"],
    [745,"2024-02-01 00:00:00","13","galatina","6.69","1","93.61","1","0.0","1","null","6","null","6","null","6","1020.96","1","40.167168","18.174857"],
    [746,"2024-02-01 01:00:00","13","galatina","6.0","1","93.8","1","0.0","1","null","6","null","6","null","6","1020.82","1","40.167168","18.174857"],
    [747,"2024-02-01 02:00:00","13","galatina","6.0","1","95.02","1","0.0","1","null","6","null","6","null","6","1020.72","1","40.167168","18.174857"],
    [748,"2024-02-01 03:00:00","13","galatina","6.41","1","94.4","1","0.0","1","null","6","null","6","null","6","1020.51","1","40.167168","18.174857"],
    [749,"2024-02-01 04:00:00","13","galatina","6.94","1","92.42","1","0.0","1","null","6","null","6","null","6","1020.19","1","40.167168","18.174857"],
    [750,"2024-02-01 05:00:00","13","galatina","6.37","1","92.33","1","0.0","1","null","6","null","6","null","6","1019.88","1","40.167168","18.174857"],
    [751,"2024-02-01 06:00:00","13","galatina","6.61","1","92.43","1","0.0","1","null","6","null","6","null","6","1019.74","1","40.167168","18.174857"],
    [752,"2024-02-01 07:00:00","13","galatina","6.48","1","92.32","1","0.0","1","null","6","null","6","null","6","1019.77","1","40.167168","18.174857"],
    [753,"2024-02-01 08:00:00","13","galatina","6.01","1","92.82","1","0.0","1","null","6","null","6","null","6","1019.8","1","40.167168","18.174857"],
    [754,"2024-02-01 09:00:00","13","galatina","8.5","1","88.79","1","0.0","1","null","6","null","6","null","6","1019.7","1","40.167168","18.174857"],
    [755,"2024-02-01 10:00:00","13","galatina","9.98","1","82.32","1","0.0","1","null","6","null","6","null","6","1019.7","1","40.167168","18.174857"],
    [756,"2024-02-01 11:00:00","13","galatina","12.24","1","73.06","1","0.0","1","null","6","null","6","null","6","1019.77","1","40.167168","18.174857"],
    [757,"2024-02-01 12:00:00","13","galatina","14.02","1","62.55","1","0.0","1","null","6","null","6","null","6","1019.39","1","40.167168","18.174857"],
    [758,"2024-02-01 13:00:00","13","galatina","14.6","1","53.97","1","0.0","1","null","6","null","6","null","6","1018.73","1","40.167168","18.174857"],
    [759,"2024-02-01 14:00:00","13","galatina","14.72","1","51.58","1","0.0","1","null","6","null","6","null","6","1018.08","1","40.167168","18.174857"],
    [760,"2024-02-01 15:00:00","13","galatina","14.35","1","51.9","1","0.0","1","null","6","null","6","null","6","1017.77","1","40.167168","18.174857"],
    [761,"2024-02-01 16:00:00","13","galatina","14.16","1","53.26","1","0.0","1","null","6","null","6","null","6","1017.54","1","40.167168","18.174857"],
    [762,"2024-02-01 17:00:00","13","galatina","13.23","1","58.64","1","0.0","1","null","6","null","6","null","6","1017.36","1","40.167168","18.174857"],
    [763,"2024-02-01 18:00:00","13","galatina","10.86","1","72.17","1","0.0","1","null","6","null","6","null","6","1017.55","1","40.167168","18.174857"],
    [764,"2024-02-01 19:00:00","13","galatina","9.71","1","78.02","1","0.0","1","null","6","null","6","null","6","1017.63","1","40.167168","18.174857"],
    [765,"2024-02-01 20:00:00","13","galatina","8.74","1","82.36","1","0.0","1","null","6","null","6","null","6","1017.65","1","40.167168","18.174857"],
    [766,"2024-02-01 21:00:00","13","galatina","6.83","1","87.63","1","0.0","1","null","6","null","6","null","6","1017.62","1","40.167168","18.174857"],
    [767,"2024-02-01 22:00:00","13","galatina","4.77","1","91.91","1","0.0","1","null","6","null","6","null","6","1017.52","1","40.167168","18.174857"],
    [768,"2024-02-01 23:00:00","13","galatina","4.13","1","93.78","1","0.0","1","null","6","null","6","null","6","1017.34","1","40.167168","18.174857"],
    [769,"2024-02-02 00:00:00","13","galatina","3.8","1","94.24","1","0.0","1","null","6","null","6","null","6","1017.23","1","40.167168","18.174857"],
    [770,"2024-02-02 01:00:00","13","galatina","2.97","1","94.81","1","0.0","1","null","6","null","6","null","6","1017.11","1","40.167168","18.174857"],
    [771,"2024-02-02 02:00:00","13","galatina","2.3","1","95.08","1","0.0","1","null","6","null","6","null","6","1016.96","1","40.167168","18.174857"],
    [772,"2024-02-02 03:00:00","13","galatina","1.54","1","95.34","1","0.0","1","null","6","null","6","null","6","1016.71","1","40.167168","18.174857"],
    [773,"2024-02-02 04:00:00","13","galatina","1.19","1","95.66","1","0.0","1","null","6","null","6","null","6","1016.36","1","40.167168","18.174857"],
    [774,"2024-02-02 05:00:00","13","galatina","2.25","1","96.61","1","0.0","1","null","6","null","6","null","6","1016.31","1","40.167168","18.174857"],
    [775,"2024-02-02 06:00:00","13","galatina","5.22","1","95.38","1","0.0","1","null","6","null","6","null","6","1016.34","1","40.167168","18.174857"],
    [776,"2024-02-02 07:00:00","13","galatina","5.97","1","89.89","1","0.0","1","null","6","null","6","null","6","1016.47","1","40.167168","18.174857"],
    [777,"2024-02-02 08:00:00","13","galatina","6.46","1","90.1","1","0.0","1","null","6","null","6","null","6","1016.76","1","40.167168","18.174857"],
    [778,"2024-02-02 09:00:00","13","galatina","7.56","1","88.8","1","0.0","1","null","6","null","6","null","6","1016.92","1","40.167168","18.174857"],
    [779,"2024-02-02 10:00:00","13","galatina","9.31","1","85.61","1","0.0","1","null","6","null","6","null","6","1016.9","1","40.167168","18.174857"],
    [780,"2024-02-02 11:00:00","13","galatina","11.65","1","77.27","1","0.0","1","null","6","null","6","null","6","1017.01","1","40.167168","18.174857"],
    [781,"2024-02-02 12:00:00","13","galatina","13.74","1","60.95","1","0.0","1","null","6","null","6","null","6","1016.85","1","40.167168","18.174857"],
    [782,"2024-02-02 13:00:00","13","galatina","13.6","1","59.29","1","0.0","1","null","6","null","6","null","6","1016.55","1","40.167168","18.174857"],
    [783,"2024-02-02 14:00:00","13","galatina","13.91","1","51.65","1","0.0","1","null","6","null","6","null","6","1016.12","1","40.167168","18.174857"],
    [784,"2024-02-02 15:00:00","13","galatina","14.4","1","47.47","1","0.0","1","null","6","null","6","null","6","1016.04","1","40.167168","18.174857"],
    [785,"2024-02-02 16:00:00","13","galatina","14.43","1","43.74","1","0.0","1","null","6","null","6","null","6","1016.25","1","40.167168","18.174857"],
    [786,"2024-02-02 17:00:00","13","galatina","12.48","1","51.53","1","0.0","1","null","6","null","6","null","6","1016.38","1","40.167168","18.174857"],
    [787,"2024-02-02 18:00:00","13","galatina","10.94","1","60.65","1","0.0","1","null","6","null","6","null","6","1016.61","1","40.167168","18.174857"],
    [788,"2024-02-02 19:00:00","13","galatina","9.74","1","61.86","1","0.0","1","null","6","null","6","null","6","1016.81","1","40.167168","18.174857"],
    [789,"2024-02-02 20:00:00","13","galatina","8.8","1","64.23","1","0.0","1","null","6","null","6","null","6","1016.95","1","40.167168","18.174857"],
    [790,"2024-02-02 21:00:00","13","galatina","8.28","1","65.32","1","0.0","1","null","6","null","6","null","6","1017.14","1","40.167168","18.174857"],
    [791,"2024-02-02 22:00:00","13","galatina","7.63","1","67.11","1","0.0","1","null","6","null","6","null","6","1017.14","1","40.167168","18.174857"],
    [792,"2024-02-02 23:00:00","13","galatina","8.11","1","61.79","1","0.0","1","null","6","null","6","null","6","1017.21","1","40.167168","18.174857"],
    [793,"2024-02-03 00:00:00","13","galatina","7.13","1","65.89","1","0.0","1","null","6","null","6","null","6","1017.24","1","40.167168","18.174857"],
    [794,"2024-02-03 01:00:00","13","galatina","6.8","1","65.44","1","0.0","1","null","6","null","6","null","6","1017.24","1","40.167168","18.174857"],
    [795,"2024-02-03 02:00:00","13","galatina","5.91","1","69.21","1","0.0","1","null","6","null","6","null","6","1017.19","1","40.167168","18.174857"],
    [796,"2024-02-03 03:00:00","13","galatina","6.49","1","67.59","1","0.0","1","null","6","null","6","null","6","1017.26","1","40.167168","18.174857"],
    [797,"2024-02-03 04:00:00","13","galatina","5.76","1","70.01","1","0.0","1","null","6","null","6","null","6","1017.19","1","40.167168","18.174857"],
    [798,"2024-02-03 05:00:00","13","galatina","5.33","1","72.38","1","0.0","1","null","6","null","6","null","6","1017.41","1","40.167168","18.174857"],
    [799,"2024-02-03 06:00:00","13","galatina","4.15","1","76.24","1","0.0","1","null","6","null","6","null","6","1017.5","1","40.167168","18.174857"],
    [800,"2024-02-03 07:00:00","13","galatina","3.23","1","80.7","1","0.0","1","null","6","null","6","null","6","1017.7","1","40.167168","18.174857"],
    [801,"2024-02-03 08:00:00","13","galatina","4.83","1","76.74","1","0.0","1","null","6","null","6","null","6","1018.11","1","40.167168","18.174857"],
    [802,"2024-02-03 09:00:00","13","galatina","8.92","1","60.36","1","0.0","1","null","6","null","6","null","6","1018.13","1","40.167168","18.174857"],
    [803,"2024-02-03 10:00:00","13","galatina","10.52","1","59.42","1","0.0","1","null","6","null","6","null","6","1018.15","1","40.167168","18.174857"],
    [804,"2024-02-03 11:00:00","13","galatina","13.43","1","50.56","1","0.0","1","null","6","null","6","null","6","1018.29","1","40.167168","18.174857"],
    [805,"2024-02-03 12:00:00","13","galatina","15.57","1","40.57","1","0.0","1","null","6","null","6","null","6","1018.31","1","40.167168","18.174857"],
    [806,"2024-02-03 13:00:00","13","galatina","15.9","1","36.37","1","0.0","1","null","6","null","6","null","6","1017.92","1","40.167168","18.174857"],
    [807,"2024-02-03 14:00:00","13","galatina","16.52","1","37.54","1","0.0","1","null","6","null","6","null","6","1017.67","1","40.167168","18.174857"],
    [808,"2024-02-03 15:00:00","13","galatina","16.58","1","45.97","1","0.0","1","null","6","null","6","null","6","1017.37","1","40.167168","18.174857"],
    [809,"2024-02-03 16:00:00","13","galatina","15.6","1","55.94","1","0.0","1","null","6","null","6","null","6","1017.42","1","40.167168","18.174857"],
    [810,"2024-02-03 17:00:00","13","galatina","14.06","1","63.58","1","0.0","1","null","6","null","6","null","6","1017.37","1","40.167168","18.174857"],
    [811,"2024-02-03 18:00:00","13","galatina","12.09","1","72.62","1","0.0","1","null","6","null","6","null","6","1017.24","1","40.167168","18.174857"],
    [812,"2024-02-03 19:00:00","13","galatina","10.43","1","79.18","1","0.0","1","null","6","null","6","null","6","1017.45","1","40.167168","18.174857"],
    [813,"2024-02-03 20:00:00","13","galatina","9.03","1","85.17","1","0.0","1","null","6","null","6","null","6","1017.82","1","40.167168","18.174857"],
    [814,"2024-02-03 21:00:00","13","galatina","7.59","1","87.51","1","0.0","1","null","6","null","6","null","6","1018.02","1","40.167168","18.174857"],
    [815,"2024-02-03 22:00:00","13","galatina","6.87","1","91.84","1","0.0","1","null","6","null","6","null","6","1017.99","1","40.167168","18.174857"],
    [816,"2024-02-03 23:00:00","13","galatina","6.07","1","92.98","1","0.0","1","null","6","null","6","null","6","1017.76","1","40.167168","18.174857"],
    [817,"2024-02-04 00:00:00","13","galatina","4.99","1","94.26","1","0.0","1","null","6","null","6","null","6","1017.73","1","40.167168","18.174857"],
    [818,"2024-02-04 01:00:00","13","galatina","4.12","1","95.41","1","0.0","1","null","6","null","6","null","6","1017.48","1","40.167168","18.174857"],
    [819,"2024-02-04 02:00:00","13","galatina","4.16","1","96.15","1","0.0","1","null","6","null","6","null","6","1017.35","1","40.167168","18.174857"],
    [820,"2024-02-04 03:00:00","13","galatina","3.41","1","96.46","1","0.0","1","null","6","null","6","null","6","1017.29","1","40.167168","18.174857"],
    [821,"2024-02-04 04:00:00","13","galatina","2.9","1","96.64","1","0.0","1","null","6","null","6","null","6","1017.08","1","40.167168","18.174857"],
    [822,"2024-02-04 05:00:00","13","galatina","2.33","1","96.71","1","0.0","1","null","6","null","6","null","6","1016.96","1","40.167168","18.174857"],
    [823,"2024-02-04 06:00:00","13","galatina","2.51","1","97.16","1","0.0","1","null","6","null","6","null","6","1016.8","1","40.167168","18.174857"],
    [824,"2024-02-04 07:00:00","13","galatina","2.3","1","96.88","1","0.0","1","null","6","null","6","null","6","1016.77","1","40.167168","18.174857"],
    [825,"2024-02-04 08:00:00","13","galatina","3.53","1","96.18","1","0.0","1","null","6","null","6","null","6","1016.94","1","40.167168","18.174857"],
    [826,"2024-02-04 09:00:00","13","galatina","7.45","1","89.75","1","0.0","1","null","6","null","6","null","6","1017.11","1","40.167168","18.174857"],
    [827,"2024-02-04 10:00:00","13","galatina","12.15","1","77.04","1","0.0","1","null","6","null","6","null","6","1016.89","1","40.167168","18.174857"],
    [828,"2024-02-04 11:00:00","13","galatina","14.26","1","69.64","1","0.0","1","null","6","null","6","null","6","1017.07","1","40.167168","18.174857"],
    [829,"2024-02-04 12:00:00","13","galatina","16.13","1","55.27","1","0.0","1","null","6","null","6","null","6","1017.14","1","40.167168","18.174857"],
    [830,"2024-02-04 13:00:00","13","galatina","17.55","1","43.34","1","0.0","1","null","6","null","6","null","6","1016.94","1","40.167168","18.174857"],
    [831,"2024-02-04 14:00:00","13","galatina","18.86","1","37.27","1","0.2","1","null","6","null","6","null","6","1016.39","1","40.167168","18.174857"],
    [832,"2024-02-04 15:00:00","13","galatina","19.76","1","35.55","1","0.0","1","null","6","null","6","null","6","1016.03","1","40.167168","18.174857"],
    [833,"2024-02-04 16:00:00","13","galatina","19.33","1","35.29","1","0.0","1","null","6","null","6","null","6","1015.96","1","40.167168","18.174857"],
    [834,"2024-02-04 17:00:00","13","galatina","16.93","1","47.88","1","0.0","1","null","6","null","6","null","6","1015.87","1","40.167168","18.174857"],
    [835,"2024-02-04 18:00:00","13","galatina","13.48","1","63.15","1","0.0","1","null","6","null","6","null","6","1016.35","1","40.167168","18.174857"],
    [836,"2024-02-04 19:00:00","13","galatina","11.45","1","75.49","1","0.0","1","null","6","null","6","null","6","1016.91","1","40.167168","18.174857"],
    [837,"2024-02-04 20:00:00","13","galatina","9.66","1","83.74","1","0.0","1","null","6","null","6","null","6","1017.06","1","40.167168","18.174857"],
    [838,"2024-02-04 21:00:00","13","galatina","8.18","1","89.29","1","0.0","1","null","6","null","6","null","6","1017.17","1","40.167168","18.174857"],
    [839,"2024-02-04 22:00:00","13","galatina","7.26","1","91.79","1","0.0","1","null","6","null","6","null","6","1017.25","1","40.167168","18.174857"],
    [840,"2024-02-04 23:00:00","13","galatina","6.43","1","93.09","1","0.0","1","null","6","null","6","null","6","1017.32","1","40.167168","18.174857"],
    [841,"2024-02-05 00:00:00","13","galatina","5.61","1","94.17","1","0.0","1","null","6","null","6","null","6","1017.31","1","40.167168","18.174857"],
    [842,"2024-02-05 01:00:00","13","galatina","5.48","1","94.02","1","0.0","1","null","6","null","6","null","6","1017.28","1","40.167168","18.174857"],
    [843,"2024-02-05 02:00:00","13","galatina","4.96","1","94.25","1","0.0","1","null","6","null","6","null","6","1017.48","1","40.167168","18.174857"],
    [844,"2024-02-05 03:00:00","13","galatina","4.97","1","93.89","1","0.0","1","null","6","null","6","null","6","1017.27","1","40.167168","18.174857"],
    [845,"2024-02-05 04:00:00","13","galatina","4.77","1","93.0","1","0.0","1","null","6","null","6","null","6","1017.01","1","40.167168","18.174857"],
    [846,"2024-02-05 05:00:00","13","galatina","4.55","1","93.12","1","0.0","1","null","6","null","6","null","6","1017.07","1","40.167168","18.174857"],
    [847,"2024-02-05 06:00:00","13","galatina","4.25","1","93.54","1","0.0","1","null","6","null","6","null","6","1017.12","1","40.167168","18.174857"],
    [848,"2024-02-05 07:00:00","13","galatina","3.57","1","93.86","1","0.0","1","null","6","null","6","null","6","1017.46","1","40.167168","18.174857"],
    [849,"2024-02-05 08:00:00","13","galatina","3.86","1","93.47","1","0.0","1","null","6","null","6","null","6","1017.66","1","40.167168","18.174857"],
    [850,"2024-02-05 09:00:00","13","galatina","8.27","1","91.29","1","0.0","1","null","6","null","6","null","6","1017.53","1","40.167168","18.174857"],
    [851,"2024-02-05 10:00:00","13","galatina","12.7","1","81.21","1","0.0","1","null","6","null","6","null","6","1017.51","1","40.167168","18.174857"],
    [852,"2024-02-05 11:00:00","13","galatina","16.98","1","56.74","1","0.0","1","null","6","null","6","null","6","1017.69","1","40.167168","18.174857"],
    [853,"2024-02-05 12:00:00","13","galatina","18.59","1","48.93","1","0.0","1","null","6","null","6","null","6","1017.47","1","40.167168","18.174857"],
    [854,"2024-02-05 13:00:00","13","galatina","18.8","1","47.19","1","0.0","1","null","6","null","6","null","6","1017.04","1","40.167168","18.174857"],
    [855,"2024-02-05 14:00:00","13","galatina","18.57","1","45.05","1","0.0","1","null","6","null","6","null","6","1016.6","1","40.167168","18.174857"],
    [856,"2024-02-05 15:00:00","13","galatina","19.2","1","44.53","1","0.0","1","null","6","null","6","null","6","1016.29","1","40.167168","18.174857"],
    [857,"2024-02-05 16:00:00","13","galatina","18.96","1","45.81","1","0.0","1","null","6","null","6","null","6","1016.36","1","40.167168","18.174857"],
    [858,"2024-02-05 17:00:00","13","galatina","16.84","1","51.81","1","0.0","1","null","6","null","6","null","6","1016.45","1","40.167168","18.174857"],
    [859,"2024-02-05 18:00:00","13","galatina","13.53","1","67.96","1","0.0","1","null","6","null","6","null","6","1016.74","1","40.167168","18.174857"],
    [860,"2024-02-05 19:00:00","13","galatina","11.12","1","79.41","1","0.0","1","null","6","null","6","null","6","1017.23","1","40.167168","18.174857"],
    [861,"2024-02-05 20:00:00","13","galatina","9.24","1","85.68","1","0.0","1","null","6","null","6","null","6","1017.48","1","40.167168","18.174857"],
    [862,"2024-02-05 21:00:00","13","galatina","8.06","1","88.95","1","0.0","1","null","6","null","6","null","6","1017.56","1","40.167168","18.174857"],
    [863,"2024-02-05 22:00:00","13","galatina","7.28","1","92.59","1","0.0","1","null","6","null","6","null","6","1017.49","1","40.167168","18.174857"],
    [864,"2024-02-05 23:00:00","13","galatina","7.09","1","93.9","1","0.0","1","null","6","null","6","null","6","1017.29","1","40.167168","18.174857"],
    [865,"2024-02-06 00:00:00","13","galatina","6.4","1","94.95","1","0.0","1","null","6","null","6","null","6","1017.38","1","40.167168","18.174857"],
    [866,"2024-02-06 01:00:00","13","galatina","5.8","1","95.88","1","0.0","1","null","6","null","6","null","6","1017.46","1","40.167168","18.174857"],
    [867,"2024-02-06 02:00:00","13","galatina","5.41","1","96.61","1","0.0","1","null","6","null","6","null","6","1017.52","1","40.167168","18.174857"],
    [868,"2024-02-06 03:00:00","13","galatina","4.67","1","97.47","1","0.0","1","null","6","null","6","null","6","1017.34","1","40.167168","18.174857"],
    [869,"2024-02-06 04:00:00","13","galatina","4.42","1","97.81","1","0.2","1","null","6","null","6","null","6","1017.05","1","40.167168","18.174857"],
    [870,"2024-02-06 05:00:00","13","galatina","5.62","1","98.51","1","0.0","1","null","6","null","6","null","6","1016.86","1","40.167168","18.174857"],
    [871,"2024-02-06 06:00:00","13","galatina","6.99","1","98.23","1","0.0","1","null","6","null","6","null","6","1016.77","1","40.167168","18.174857"],
    [872,"2024-02-06 07:00:00","13","galatina","6.88","1","98.3","1","0.0","1","null","6","null","6","null","6","1016.77","1","40.167168","18.174857"],
    [873,"2024-02-06 08:00:00","13","galatina","6.38","1","98.45","1","0.0","1","null","6","null","6","null","6","1016.8","1","40.167168","18.174857"],
    [874,"2024-02-06 09:00:00","13","galatina","8.53","1","97.78","1","0.0","1","null","6","null","6","null","6","1016.84","1","40.167168","18.174857"],
    [875,"2024-02-06 10:00:00","13","galatina","12.22","1","97.95","1","0.0","1","null","6","null","6","null","6","1016.78","1","40.167168","18.174857"],
    [876,"2024-02-06 11:00:00","13","galatina","15.41","1","82.69","1","0.0","1","null","6","null","6","null","6","1016.72","1","40.167168","18.174857"],
    [877,"2024-02-06 12:00:00","13","galatina","18.66","1","57.55","1","0.0","1","null","6","null","6","null","6","1016.43","1","40.167168","18.174857"],
    [878,"2024-02-06 13:00:00","13","galatina","18.32","1","51.66","1","0.0","1","null","6","null","6","null","6","1015.91","1","40.167168","18.174857"],
    [879,"2024-02-06 14:00:00","13","galatina","19.23","1","44.79","1","0.0","1","null","6","null","6","null","6","1015.43","1","40.167168","18.174857"],
    [880,"2024-02-06 15:00:00","13","galatina","19.31","1","43.39","1","0.0","1","null","6","null","6","null","6","1015.14","1","40.167168","18.174857"],
    [881,"2024-02-06 16:00:00","13","galatina","18.71","1","44.38","1","0.0","1","null","6","null","6","null","6","1015.03","1","40.167168","18.174857"],
    [882,"2024-02-06 17:00:00","13","galatina","16.0","1","55.39","1","0.0","1","null","6","null","6","null","6","1014.91","1","40.167168","18.174857"],
    [883,"2024-02-06 18:00:00","13","galatina","13.05","1","67.93","1","0.0","1","null","6","null","6","null","6","1015.14","1","40.167168","18.174857"],
    [884,"2024-02-06 19:00:00","13","galatina","10.74","1","76.66","1","0.0","1","null","6","null","6","null","6","1015.43","1","40.167168","18.174857"],
    [885,"2024-02-06 20:00:00","13","galatina","9.14","1","83.72","1","0.0","1","null","6","null","6","null","6","1015.56","1","40.167168","18.174857"],
    [886,"2024-02-06 21:00:00","13","galatina","7.97","1","87.24","1","0.0","1","null","6","null","6","null","6","1015.58","1","40.167168","18.174857"],
    [887,"2024-02-06 22:00:00","13","galatina","7.51","1","89.18","1","0.0","1","null","6","null","6","null","6","1015.51","1","40.167168","18.174857"],
    [888,"2024-02-06 23:00:00","13","galatina","6.88","1","90.53","1","0.0","1","null","6","null","6","null","6","1015.29","1","40.167168","18.174857"],
    [889,"2024-02-07 00:00:00","13","galatina","6.41","1","91.9","1","0.0","1","null","6","null","6","null","6","1015.14","1","40.167168","18.174857"],
    [890,"2024-02-07 01:00:00","13","galatina","5.95","1","93.28","1","0.0","1","null","6","null","6","null","6","1014.8","1","40.167168","18.174857"],
    [891,"2024-02-07 02:00:00","13","galatina","5.79","1","94.63","1","0.0","1","null","6","null","6","null","6","1014.62","1","40.167168","18.174857"],
    [892,"2024-02-07 03:00:00","13","galatina","5.5","1","95.82","1","0.2","1","null","6","null","6","null","6","1014.24","1","40.167168","18.174857"],
    [893,"2024-02-07 04:00:00","13","galatina","4.84","1","96.44","1","0.0","1","null","6","null","6","null","6","1013.84","1","40.167168","18.174857"],
    [894,"2024-02-07 05:00:00","13","galatina","5.05","1","97.44","1","0.0","1","null","6","null","6","null","6","1013.58","1","40.167168","18.174857"],
    [895,"2024-02-07 06:00:00","13","galatina","5.54","1","97.85","1","0.0","1","null","6","null","6","null","6","1013.29","1","40.167168","18.174857"],
    [896,"2024-02-07 07:00:00","13","galatina","5.86","1","98.3","1","0.0","1","null","6","null","6","null","6","1013.04","1","40.167168","18.174857"],
    [897,"2024-02-07 08:00:00","13","galatina","6.26","1","98.86","1","0.0","1","null","6","null","6","null","6","1013.01","1","40.167168","18.174857"],
    [898,"2024-02-07 09:00:00","13","galatina","8.61","1","99.08","1","0.0","1","null","6","null","6","null","6","1012.93","1","40.167168","18.174857"],
    [899,"2024-02-07 10:00:00","13","galatina","11.88","1","98.74","1","0.0","1","null","6","null","6","null","6","1012.56","1","40.167168","18.174857"],
    [900,"2024-02-07 11:00:00","13","galatina","14.85","1","86.1","1","0.0","1","null","6","null","6","null","6","1012.21","1","40.167168","18.174857"],
    [901,"2024-02-07 12:00:00","13","galatina","16.99","1","67.24","1","0.0","1","null","6","null","6","null","6","1011.74","1","40.167168","18.174857"],
    [902,"2024-02-07 13:00:00","13","galatina","17.53","1","60.09","1","0.0","1","null","6","null","6","null","6","1011.14","1","40.167168","18.174857"],
    [903,"2024-02-07 14:00:00","13","galatina","18.24","1","56.75","1","0.0","1","null","6","null","6","null","6","1010.54","1","40.167168","18.174857"],
    [904,"2024-02-07 15:00:00","13","galatina","17.81","1","58.28","1","0.0","1","null","6","null","6","null","6","1010.13","1","40.167168","18.174857"],
    [905,"2024-02-07 16:00:00","13","galatina","16.71","1","61.59","1","0.0","1","null","6","null","6","null","6","1009.88","1","40.167168","18.174857"],
    [906,"2024-02-07 17:00:00","13","galatina","14.96","1","74.08","1","0.0","1","null","6","null","6","null","6","1009.59","1","40.167168","18.174857"],
    [907,"2024-02-07 18:00:00","13","galatina","13.15","1","84.65","1","0.0","1","null","6","null","6","null","6","1009.6","1","40.167168","18.174857"],
    [908,"2024-02-07 19:00:00","13","galatina","12.43","1","90.44","1","0.0","1","null","6","null","6","null","6","1009.76","1","40.167168","18.174857"],
    [909,"2024-02-07 20:00:00","13","galatina","12.18","1","92.64","1","0.0","1","null","6","null","6","null","6","1009.71","1","40.167168","18.174857"],
    [910,"2024-02-07 21:00:00","13","galatina","11.96","1","93.61","1","0.0","1","null","6","null","6","null","6","1009.5","1","40.167168","18.174857"],
    [911,"2024-02-07 22:00:00","13","galatina","11.93","1","94.91","1","0.0","1","null","6","null","6","null","6","1009.23","1","40.167168","18.174857"],
    [912,"2024-02-07 23:00:00","13","galatina","11.89","1","95.34","1","0.2","1","null","6","null","6","null","6","1009.2","1","40.167168","18.174857"],
    [913,"2024-02-08 00:00:00","13","galatina","11.98","1","95.09","1","0.0","1","null","6","null","6","null","6","1009.12","1","40.167168","18.174857"],
    [914,"2024-02-08 01:00:00","13","galatina","11.71","1","95.5","1","0.0","1","null","6","null","6","null","6","1009.06","1","40.167168","18.174857"],
    [915,"2024-02-08 02:00:00","13","galatina","11.03","1","96.52","1","0.0","1","null","6","null","6","null","6","1008.84","1","40.167168","18.174857"],
    [916,"2024-02-08 03:00:00","13","galatina","10.67","1","97.6","1","0.0","1","null","6","null","6","null","6","1008.6","1","40.167168","18.174857"],
    [917,"2024-02-08 04:00:00","13","galatina","10.21","1","98.0","1","0.0","1","null","6","null","6","null","6","1008.33","1","40.167168","18.174857"],
    [918,"2024-02-08 05:00:00","13","galatina","9.81","1","98.59","1","0.0","1","null","6","null","6","null","6","1008.31","1","40.167168","18.174857"],
    [919,"2024-02-08 06:00:00","13","galatina","9.09","1","98.95","1","0.0","1","null","6","null","6","null","6","1008.37","1","40.167168","18.174857"],
    [920,"2024-02-08 07:00:00","13","galatina","8.39","1","99.15","1","0.2","1","null","6","null","6","null","6","1008.43","1","40.167168","18.174857"],
    [921,"2024-02-08 08:00:00","13","galatina","8.87","1","99.09","1","0.0","1","null","6","null","6","null","6","1008.76","1","40.167168","18.174857"],
    [922,"2024-02-08 09:00:00","13","galatina","11.76","1","96.88","1","0.0","1","null","6","null","6","null","6","1009.03","1","40.167168","18.174857"],
    [923,"2024-02-08 10:00:00","13","galatina","13.57","1","85.7","1","0.0","1","null","6","null","6","null","6","1008.91","1","40.167168","18.174857"],
    [924,"2024-02-08 11:00:00","13","galatina","16.76","1","62.21","1","0.0","1","null","6","null","6","null","6","1009.22","1","40.167168","18.174857"],
    [925,"2024-02-08 12:00:00","13","galatina","19.09","1","46.33","1","0.0","1","null","6","null","6","null","6","1009.19","1","40.167168","18.174857"],
    [926,"2024-02-08 13:00:00","13","galatina","18.88","1","44.14","1","0.0","1","null","6","null","6","null","6","1008.8","1","40.167168","18.174857"],
    [927,"2024-02-08 14:00:00","13","galatina","19.19","1","44.94","1","0.0","1","null","6","null","6","null","6","1008.45","1","40.167168","18.174857"],
    [928,"2024-02-08 15:00:00","13","galatina","18.91","1","47.36","1","0.0","1","null","6","null","6","null","6","1008.23","1","40.167168","18.174857"],
    [929,"2024-02-08 16:00:00","13","galatina","18.77","1","48.11","1","0.0","1","null","6","null","6","null","6","1008.24","1","40.167168","18.174857"],
    [930,"2024-02-08 17:00:00","13","galatina","16.76","1","56.38","1","0.0","1","null","6","null","6","null","6","1008.33","1","40.167168","18.174857"],
    [931,"2024-02-08 18:00:00","13","galatina","13.86","1","68.56","1","0.0","1","null","6","null","6","null","6","1008.34","1","40.167168","18.174857"],
    [932,"2024-02-08 19:00:00","13","galatina","11.85","1","78.83","1","0.0","1","null","6","null","6","null","6","1008.67","1","40.167168","18.174857"],
    [933,"2024-02-08 20:00:00","13","galatina","10.75","1","83.52","1","0.0","1","null","6","null","6","null","6","1008.88","1","40.167168","18.174857"],
    [934,"2024-02-08 21:00:00","13","galatina","10.03","1","87.5","1","0.0","1","null","6","null","6","null","6","1009.07","1","40.167168","18.174857"],
    [935,"2024-02-08 22:00:00","13","galatina","10.48","1","90.57","1","0.0","1","null","6","null","6","null","6","1009.06","1","40.167168","18.174857"],
    [936,"2024-02-08 23:00:00","13","galatina","11.12","1","88.72","1","0.0","1","null","6","null","6","null","6","1009.08","1","40.167168","18.174857"],
    [937,"2024-02-09 00:00:00","13","galatina","10.78","1","89.37","1","0.0","1","null","6","null","6","null","6","1009.22","1","40.167168","18.174857"],
    [938,"2024-02-09 01:00:00","13","galatina","10.69","1","91.51","1","0.0","1","null","6","null","6","null","6","1009.15","1","40.167168","18.174857"],
    [939,"2024-02-09 02:00:00","13","galatina","10.61","1","90.5","1","0.0","1","null","6","null","6","null","6","1009.08","1","40.167168","18.174857"],
    [940,"2024-02-09 03:00:00","13","galatina","10.13","1","92.16","1","0.0","1","null","6","null","6","null","6","1008.84","1","40.167168","18.174857"],
    [941,"2024-02-09 04:00:00","13","galatina","8.66","1","94.18","1","0.0","1","null","6","null","6","null","6","1008.66","1","40.167168","18.174857"],
    [942,"2024-02-09 05:00:00","13","galatina","7.72","1","96.32","1","0.0","1","null","6","null","6","null","6","1008.67","1","40.167168","18.174857"],
    [943,"2024-02-09 06:00:00","13","galatina","7.25","1","97.29","1","0.0","1","null","6","null","6","null","6","1008.7","1","40.167168","18.174857"],
    [944,"2024-02-09 07:00:00","13","galatina","6.63","1","97.85","1","0.0","1","null","6","null","6","null","6","1008.55","1","40.167168","18.174857"],
    [945,"2024-02-09 08:00:00","13","galatina","8.0","1","97.98","1","0.0","1","null","6","null","6","null","6","1008.79","1","40.167168","18.174857"],
    [946,"2024-02-09 09:00:00","13","galatina","11.97","1","92.91","1","0.2","1","null","6","null","6","null","6","1008.66","1","40.167168","18.174857"],
    [947,"2024-02-09 10:00:00","13","galatina","15.28","1","75.59","1","0.0","1","null","6","null","6","null","6","1008.36","1","40.167168","18.174857"],
    [948,"2024-02-09 11:00:00","13","galatina","17.02","1","64.24","1","0.0","1","null","6","null","6","null","6","1008.26","1","40.167168","18.174857"],
    [949,"2024-02-09 12:00:00","13","galatina","17.45","1","61.58","1","0.0","1","null","6","null","6","null","6","1007.96","1","40.167168","18.174857"],
    [950,"2024-02-09 13:00:00","13","galatina","16.44","1","62.24","1","0.0","1","null","6","null","6","null","6","1007.77","1","40.167168","18.174857"],
    [951,"2024-02-09 14:00:00","13","galatina","17.31","1","59.27","1","0.0","1","null","6","null","6","null","6","1007.36","1","40.167168","18.174857"],
    [952,"2024-02-09 15:00:00","13","galatina","16.88","1","60.55","1","0.0","1","null","6","null","6","null","6","1007.17","1","40.167168","18.174857"],
    [953,"2024-02-09 16:00:00","13","galatina","15.83","1","68.85","1","0.0","1","null","6","null","6","null","6","1006.85","1","40.167168","18.174857"],
    [954,"2024-02-09 17:00:00","13","galatina","14.88","1","75.77","1","0.0","1","null","6","null","6","null","6","1006.66","1","40.167168","18.174857"],
    [955,"2024-02-09 18:00:00","13","galatina","13.56","1","84.18","1","0.0","1","null","6","null","6","null","6","1006.46","1","40.167168","18.174857"],
    [956,"2024-02-09 19:00:00","13","galatina","12.78","1","87.91","1","0.0","1","null","6","null","6","null","6","1006.44","1","40.167168","18.174857"],
    [957,"2024-02-09 20:00:00","13","galatina","12.63","1","90.22","1","0.0","1","null","6","null","6","null","6","1006.3","1","40.167168","18.174857"],
    [958,"2024-02-09 21:00:00","13","galatina","12.89","1","90.33","1","0.0","1","null","6","null","6","null","6","1006.32","1","40.167168","18.174857"],
    [959,"2024-02-09 22:00:00","13","galatina","13.37","1","87.74","1","0.0","1","null","6","null","6","null","6","1006.04","1","40.167168","18.174857"],
    [960,"2024-02-09 23:00:00","13","galatina","13.69","1","87.26","1","0.0","1","null","6","null","6","null","6","1005.76","1","40.167168","18.174857"],
    [961,"2024-02-10 00:00:00","13","galatina","13.62","1","88.69","1","0.0","1","null","6","null","6","null","6","1005.83","1","40.167168","18.174857"],
    [962,"2024-02-10 01:00:00","13","galatina","13.55","1","88.92","1","0.0","1","null","6","null","6","null","6","1005.21","1","40.167168","18.174857"],
    [963,"2024-02-10 02:00:00","13","galatina","13.74","1","86.77","1","0.0","1","null","6","null","6","null","6","1004.77","1","40.167168","18.174857"],
    [964,"2024-02-10 03:00:00","13","galatina","14.0","1","85.57","1","0.0","1","null","6","null","6","null","6","1004.74","1","40.167168","18.174857"],
    [965,"2024-02-10 04:00:00","13","galatina","14.0","1","85.66","1","0.0","1","null","6","null","6","null","6","1004.45","1","40.167168","18.174857"],
    [966,"2024-02-10 05:00:00","13","galatina","13.99","1","85.58","1","0.0","1","null","6","null","6","null","6","1004.41","1","40.167168","18.174857"],
    [967,"2024-02-10 06:00:00","13","galatina","14.02","1","84.61","1","0.0","1","null","6","null","6","null","6","1004.27","1","40.167168","18.174857"],
    [968,"2024-02-10 07:00:00","13","galatina","14.04","1","84.7","1","0.0","1","null","6","null","6","null","6","1004.14","1","40.167168","18.174857"],
    [969,"2024-02-10 08:00:00","13","galatina","14.39","1","82.73","1","0.0","1","null","6","null","6","null","6","1004.29","1","40.167168","18.174857"],
    [970,"2024-02-10 09:00:00","13","galatina","15.13","1","79.96","1","0.0","1","null","6","null","6","null","6","1004.57","1","40.167168","18.174857"],
    [971,"2024-02-10 10:00:00","13","galatina","15.72","1","76.71","1","0.0","1","null","6","null","6","null","6","1004.51","1","40.167168","18.174857"],
    [972,"2024-02-10 11:00:00","13","galatina","16.26","1","73.79","1","0.0","1","null","6","null","6","null","6","1004.44","1","40.167168","18.174857"],
    [973,"2024-02-10 12:00:00","13","galatina","16.42","1","75.04","1","0.0","1","null","6","null","6","null","6","1004.17","1","40.167168","18.174857"],
    [974,"2024-02-10 13:00:00","13","galatina","16.49","1","75.86","1","0.0","1","null","6","null","6","null","6","1003.69","1","40.167168","18.174857"],
    [975,"2024-02-10 14:00:00","13","galatina","16.38","1","77.12","1","0.0","1","null","6","null","6","null","6","1003.06","1","40.167168","18.174857"],
    [976,"2024-02-10 15:00:00","13","galatina","16.17","1","77.31","1","0.0","1","null","6","null","6","null","6","1002.48","1","40.167168","18.174857"],
    [977,"2024-02-10 16:00:00","13","galatina","15.8","1","79.73","1","0.0","1","null","6","null","6","null","6","1002.01","1","40.167168","18.174857"],
    [978,"2024-02-10 17:00:00","13","galatina","15.61","1","80.72","1","0.0","1","null","6","null","6","null","6","1001.66","1","40.167168","18.174857"],
    [979,"2024-02-10 18:00:00","13","galatina","15.48","1","81.43","1","0.0","1","null","6","null","6","null","6","1001.22","1","40.167168","18.174857"],
    [980,"2024-02-10 19:00:00","13","galatina","15.23","1","83.4","1","0.0","1","null","6","null","6","null","6","1000.93","1","40.167168","18.174857"],
    [981,"2024-02-10 20:00:00","13","galatina","15.61","1","77.14","1","0.0","1","null","6","null","6","null","6","1000.83","1","40.167168","18.174857"],
    [982,"2024-02-10 21:00:00","13","galatina","15.65","1","78.97","1","0.0","1","null","6","null","6","null","6","1001.2","1","40.167168","18.174857"],
    [983,"2024-02-10 22:00:00","13","galatina","15.15","1","84.65","1","0.0","1","null","6","null","6","null","6","1001.59","1","40.167168","18.174857"],
    [984,"2024-02-10 23:00:00","13","galatina","14.95","1","86.55","1","0.0","1","null","6","null","6","null","6","1001.29","1","40.167168","18.174857"],
    [985,"2024-02-11 00:00:00","13","galatina","14.95","1","85.96","1","0.0","1","null","6","null","6","null","6","1000.87","1","40.167168","18.174857"],
    [986,"2024-02-11 01:00:00","13","galatina","15.17","1","84.48","1","0.2","1","null","6","null","6","null","6","1000.48","1","40.167168","18.174857"],
    [987,"2024-02-11 02:00:00","13","galatina","15.22","1","84.55","1","0.0","1","null","6","null","6","null","6","1000.46","1","40.167168","18.174857"],
    [988,"2024-02-11 03:00:00","13","galatina","15.07","1","84.8","1","0.0","1","null","6","null","6","null","6","1000.03","1","40.167168","18.174857"],
    [989,"2024-02-11 04:00:00","13","galatina","15.02","1","84.06","1","0.0","1","null","6","null","6","null","6","999.62","1","40.167168","18.174857"],
    [990,"2024-02-11 05:00:00","13","galatina","15.03","1","83.2","1","0.0","1","null","6","null","6","null","6","999.14","1","40.167168","18.174857"],
    [991,"2024-02-11 06:00:00","13","galatina","14.82","1","84.77","1","0.0","1","null","6","null","6","null","6","998.61","1","40.167168","18.174857"],
    [992,"2024-02-11 07:00:00","13","galatina","14.67","1","86.26","1","0.0","1","null","6","null","6","null","6","998.6","1","40.167168","18.174857"],
    [993,"2024-02-11 08:00:00","13","galatina","14.88","1","86.15","1","0.0","1","null","6","null","6","null","6","998.89","1","40.167168","18.174857"],
    [994,"2024-02-11 09:00:00","13","galatina","15.3","1","83.14","1","0.0","1","null","6","null","6","null","6","999.17","1","40.167168","18.174857"],
    [995,"2024-02-11 10:00:00","13","galatina","16.05","1","75.42","1","0.0","1","null","6","null","6","null","6","999.41","1","40.167168","18.174857"],
    [996,"2024-02-11 11:00:00","13","galatina","17.26","1","60.0","1","0.0","1","null","6","null","6","null","6","999.68","1","40.167168","18.174857"],
    [997,"2024-02-11 12:00:00","13","galatina","18.53","1","51.7","1","0.0","1","null","6","null","6","null","6","999.68","1","40.167168","18.174857"],
    [998,"2024-02-11 13:00:00","13","galatina","18.67","1","50.35","1","0.0","1","null","6","null","6","null","6","999.27","1","40.167168","18.174857"],
    [999,"2024-02-11 14:00:00","13","galatina","18.39","1","55.07","1","0.0","1","null","6","null","6","null","6","999.08","1","40.167168","18.174857"],
    [1000,"2024-02-11 15:00:00","13","galatina","16.79","1","65.2","1","0.0","1","null","6","null","6","null","6","999.31","1","40.167168","18.174857"],
    [1001,"2024-02-11 16:00:00","13","galatina","15.53","1","73.25","1","0.0","1","null","6","null","6","null","6","999.26","1","40.167168","18.174857"],
    [1002,"2024-02-11 17:00:00","13","galatina","14.49","1","75.73","1","0.0","1","null","6","null","6","null","6","999.11","1","40.167168","18.174857"],
    [1003,"2024-02-11 18:00:00","13","galatina","13.43","1","71.76","1","0.0","1","null","6","null","6","null","6","999.47","1","40.167168","18.174857"],
    [1004,"2024-02-11 19:00:00","13","galatina","12.74","1","77.86","1","0.0","1","null","6","null","6","null","6","1000.15","1","40.167168","18.174857"],
    [1005,"2024-02-11 20:00:00","13","galatina","11.07","1","85.8","1","0.0","1","null","6","null","6","null","6","1000.48","1","40.167168","18.174857"],
    [1006,"2024-02-11 21:00:00","13","galatina","9.9","1","90.37","1","0.0","1","null","6","null","6","null","6","1000.59","1","40.167168","18.174857"],
    [1007,"2024-02-11 22:00:00","13","galatina","9.36","1","92.56","1","0.0","1","null","6","null","6","null","6","1000.54","1","40.167168","18.174857"],
    [1008,"2024-02-11 23:00:00","13","galatina","9.26","1","93.04","1","0.0","1","null","6","null","6","null","6","1000.8","1","40.167168","18.174857"],
    [1009,"2024-02-12 00:00:00","13","galatina","10.22","1","83.16","1","0.0","1","null","6","null","6","null","6","1000.94","1","40.167168","18.174857"],
    [1010,"2024-02-12 01:00:00","13","galatina","10.26","1","79.71","1","0.0","1","null","6","null","6","null","6","1001.15","1","40.167168","18.174857"],
    [1011,"2024-02-12 02:00:00","13","galatina","9.36","1","82.45","1","0.0","1","null","6","null","6","null","6","1001.24","1","40.167168","18.174857"],
    [1012,"2024-02-12 03:00:00","13","galatina","8.53","1","85.05","1","0.0","1","null","6","null","6","null","6","1001.4","1","40.167168","18.174857"],
    [1013,"2024-02-12 04:00:00","13","galatina","8.82","1","85.4","1","0.0","1","null","6","null","6","null","6","1001.35","1","40.167168","18.174857"],
    [1014,"2024-02-12 05:00:00","13","galatina","8.75","1","85.56","1","0.0","1","null","6","null","6","null","6","1001.5","1","40.167168","18.174857"],
    [1015,"2024-02-12 06:00:00","13","galatina","9.27","1","81.63","1","0.0","1","null","6","null","6","null","6","1001.58","1","40.167168","18.174857"],
    [1016,"2024-02-12 07:00:00","13","galatina","8.51","1","85.22","1","0.0","1","null","6","null","6","null","6","1001.76","1","40.167168","18.174857"],
    [1017,"2024-02-12 08:00:00","13","galatina","9.02","1","84.59","1","0.0","1","null","6","null","6","null","6","1002.12","1","40.167168","18.174857"],
    [1018,"2024-02-12 09:00:00","13","galatina","11.56","1","78.58","1","0.0","1","null","6","null","6","null","6","1002.49","1","40.167168","18.174857"],
    [1019,"2024-02-12 10:00:00","13","galatina","13.96","1","66.76","1","0.0","1","null","6","null","6","null","6","1002.73","1","40.167168","18.174857"],
    [1020,"2024-02-12 11:00:00","13","galatina","14.81","1","65.44","1","0.0","1","null","6","null","6","null","6","1002.78","1","40.167168","18.174857"],
    [1021,"2024-02-12 12:00:00","13","galatina","15.1","1","61.41","1","0.0","1","null","6","null","6","null","6","1002.81","1","40.167168","18.174857"],
    [1022,"2024-02-12 13:00:00","13","galatina","14.86","1","60.41","1","0.0","1","null","6","null","6","null","6","1002.44","1","40.167168","18.174857"],
    [1023,"2024-02-12 14:00:00","13","galatina","16.04","1","55.03","1","0.0","1","null","6","null","6","null","6","1002.15","1","40.167168","18.174857"],
    [1024,"2024-02-12 15:00:00","13","galatina","16.68","1","51.7","1","0.0","1","null","6","null","6","null","6","1002.1","1","40.167168","18.174857"],
    [1025,"2024-02-12 16:00:00","13","galatina","16.08","1","55.17","1","0.0","1","null","6","null","6","null","6","1002.15","1","40.167168","18.174857"],
    [1026,"2024-02-12 17:00:00","13","galatina","14.98","1","58.82","1","0.0","1","null","6","null","6","null","6","1002.59","1","40.167168","18.174857"],
    [1027,"2024-02-12 18:00:00","13","galatina","13.5","1","66.29","1","0.0","1","null","6","null","6","null","6","1003.23","1","40.167168","18.174857"],
    [1028,"2024-02-12 19:00:00","13","galatina","12.47","1","68.18","1","0.0","1","null","6","null","6","null","6","1003.83","1","40.167168","18.174857"],
    [1029,"2024-02-12 20:00:00","13","galatina","11.79","1","73.42","1","0.0","1","null","6","null","6","null","6","1004.11","1","40.167168","18.174857"],
    [1030,"2024-02-12 21:00:00","13","galatina","10.53","1","76.95","1","0.0","1","null","6","null","6","null","6","1004.47","1","40.167168","18.174857"],
    [1031,"2024-02-12 22:00:00","13","galatina","9.62","1","81.92","1","0.0","1","null","6","null","6","null","6","1004.81","1","40.167168","18.174857"],
    [1032,"2024-02-12 23:00:00","13","galatina","8.94","1","82.23","1","0.0","1","null","6","null","6","null","6","1005.02","1","40.167168","18.174857"],
    [1033,"2024-02-13 00:00:00","13","galatina","8.02","1","87.29","1","0.0","1","null","6","null","6","null","6","1005.37","1","40.167168","18.174857"],
    [1034,"2024-02-13 01:00:00","13","galatina","7.56","1","89.06","1","0.0","1","null","6","null","6","null","6","1005.55","1","40.167168","18.174857"],
    [1035,"2024-02-13 02:00:00","13","galatina","7.56","1","91.87","1","0.0","1","null","6","null","6","null","6","1005.68","1","40.167168","18.174857"],
    [1036,"2024-02-13 03:00:00","13","galatina","8.99","1","85.38","1","0.0","1","null","6","null","6","null","6","1005.7","1","40.167168","18.174857"],
    [1037,"2024-02-13 04:00:00","13","galatina","8.75","1","83.77","1","0.0","1","null","6","null","6","null","6","1005.87","1","40.167168","18.174857"],
    [1038,"2024-02-13 05:00:00","13","galatina","8.97","1","83.6","1","0.0","1","null","6","null","6","null","6","1006.1","1","40.167168","18.174857"],
    [1039,"2024-02-13 06:00:00","13","galatina","9.2","1","82.91","1","0.0","1","null","6","null","6","null","6","1006.31","1","40.167168","18.174857"],
    [1040,"2024-02-13 07:00:00","13","galatina","8.52","1","83.76","1","0.0","1","null","6","null","6","null","6","1006.72","1","40.167168","18.174857"],
    [1041,"2024-02-13 08:00:00","13","galatina","8.86","1","83.55","1","0.0","1","null","6","null","6","null","6","1007.28","1","40.167168","18.174857"],
    [1042,"2024-02-13 09:00:00","13","galatina","10.61","1","79.9","1","0.0","1","null","6","null","6","null","6","1007.56","1","40.167168","18.174857"],
    [1043,"2024-02-13 10:00:00","13","galatina","12.4","1","76.27","1","0.0","1","null","6","null","6","null","6","1007.76","1","40.167168","18.174857"],
    [1044,"2024-02-13 11:00:00","13","galatina","14.55","1","67.01","1","0.0","1","null","6","null","6","null","6","1007.94","1","40.167168","18.174857"],
    [1045,"2024-02-13 12:00:00","13","galatina","15.33","1","62.97","1","0.0","1","null","6","null","6","null","6","1007.78","1","40.167168","18.174857"],
    [1046,"2024-02-13 13:00:00","13","galatina","14.58","1","65.56","1","0.0","1","null","6","null","6","null","6","1007.53","1","40.167168","18.174857"],
    [1047,"2024-02-13 14:00:00","13","galatina","13.19","1","73.43","1","0.0","1","null","6","null","6","null","6","1007.5","1","40.167168","18.174857"],
    [1048,"2024-02-13 15:00:00","13","galatina","13.01","1","74.65","1","0.0","1","null","6","null","6","null","6","1007.6","1","40.167168","18.174857"],
    [1049,"2024-02-13 16:00:00","13","galatina","11.95","1","81.63","1","0.2","1","null","6","null","6","null","6","1007.95","1","40.167168","18.174857"],
    [1050,"2024-02-13 17:00:00","13","galatina","11.38","1","84.7","1","0.0","1","null","6","null","6","null","6","1008.17","1","40.167168","18.174857"],
    [1051,"2024-02-13 18:00:00","13","galatina","10.9","1","86.41","1","0.0","1","null","6","null","6","null","6","1008.71","1","40.167168","18.174857"],
    [1052,"2024-02-13 19:00:00","13","galatina","10.63","1","89.64","1","0.0","1","null","6","null","6","null","6","1009.19","1","40.167168","18.174857"],
    [1053,"2024-02-13 20:00:00","13","galatina","10.34","1","90.61","1","0.0","1","null","6","null","6","null","6","1009.46","1","40.167168","18.174857"],
    [1054,"2024-02-13 21:00:00","13","galatina","10.17","1","88.08","1","0.2","1","null","6","null","6","null","6","1009.6","1","40.167168","18.174857"],
    [1055,"2024-02-13 22:00:00","13","galatina","9.82","1","86.81","1","0.0","1","null","6","null","6","null","6","1009.8","1","40.167168","18.174857"],
    [1056,"2024-02-13 23:00:00","13","galatina","9.99","1","87.37","1","0.0","1","null","6","null","6","null","6","1009.88","1","40.167168","18.174857"],
    [1057,"2024-02-14 00:00:00","13","galatina","9.83","1","85.39","1","0.0","1","null","6","null","6","null","6","1009.98","1","40.167168","18.174857"],
    [1058,"2024-02-14 01:00:00","13","galatina","9.56","1","83.94","1","0.0","1","null","6","null","6","null","6","1009.93","1","40.167168","18.174857"],
    [1059,"2024-02-14 02:00:00","13","galatina","9.95","1","77.31","1","0.0","1","null","6","null","6","null","6","1010.03","1","40.167168","18.174857"],
    [1060,"2024-02-14 03:00:00","13","galatina","10.0","1","73.31","1","0.0","1","null","6","null","6","null","6","1010.15","1","40.167168","18.174857"],
    [1061,"2024-02-14 04:00:00","13","galatina","9.49","1","73.37","1","0.0","1","null","6","null","6","null","6","1010.27","1","40.167168","18.174857"],
    [1062,"2024-02-14 05:00:00","13","galatina","9.11","1","74.15","1","0.0","1","null","6","null","6","null","6","1010.58","1","40.167168","18.174857"],
    [1063,"2024-02-14 06:00:00","13","galatina","8.52","1","75.67","1","0.0","1","null","6","null","6","null","6","1011.04","1","40.167168","18.174857"],
    [1064,"2024-02-14 07:00:00","13","galatina","8.14","1","77.52","1","0.0","1","null","6","null","6","null","6","1011.44","1","40.167168","18.174857"],
    [1065,"2024-02-14 08:00:00","13","galatina","9.15","1","72.32","1","0.0","1","null","6","null","6","null","6","1011.84","1","40.167168","18.174857"],
    [1066,"2024-02-14 09:00:00","13","galatina","11.2","1","61.46","1","0.0","1","null","6","null","6","null","6","1011.97","1","40.167168","18.174857"],
    [1067,"2024-02-14 10:00:00","13","galatina","12.88","1","51.41","1","0.0","1","null","6","null","6","null","6","1012.02","1","40.167168","18.174857"],
    [1068,"2024-02-14 11:00:00","13","galatina","13.94","1","45.42","1","0.0","1","null","6","null","6","null","6","1012.19","1","40.167168","18.174857"],
    [1069,"2024-02-14 12:00:00","13","galatina","14.93","1","44.39","1","0.0","1","null","6","null","6","null","6","1012.19","1","40.167168","18.174857"],
    [1070,"2024-02-14 13:00:00","13","galatina","14.86","1","42.02","1","0.0","1","null","6","null","6","null","6","1012.08","1","40.167168","18.174857"],
    [1071,"2024-02-14 14:00:00","13","galatina","15.24","1","42.49","1","0.0","1","null","6","null","6","null","6","1011.9","1","40.167168","18.174857"],
    [1072,"2024-02-14 15:00:00","13","galatina","15.04","1","44.8","1","0.0","1","null","6","null","6","null","6","1011.9","1","40.167168","18.174857"],
    [1073,"2024-02-14 16:00:00","13","galatina","14.31","1","46.51","1","0.0","1","null","6","null","6","null","6","1012.18","1","40.167168","18.174857"],
    [1074,"2024-02-14 17:00:00","13","galatina","12.95","1","48.98","1","0.0","1","null","6","null","6","null","6","1012.56","1","40.167168","18.174857"],
    [1075,"2024-02-14 18:00:00","13","galatina","11.4","1","51.23","1","0.0","1","null","6","null","6","null","6","1012.93","1","40.167168","18.174857"],
    [1076,"2024-02-14 19:00:00","13","galatina","10.97","1","55.66","1","0.0","1","null","6","null","6","null","6","1013.27","1","40.167168","18.174857"],
    [1077,"2024-02-14 20:00:00","13","galatina","10.82","1","56.7","1","0.0","1","null","6","null","6","null","6","1013.56","1","40.167168","18.174857"],
    [1078,"2024-02-14 21:00:00","13","galatina","10.69","1","59.59","1","0.0","1","null","6","null","6","null","6","1013.74","1","40.167168","18.174857"],
    [1079,"2024-02-14 22:00:00","13","galatina","10.76","1","61.88","1","0.0","1","null","6","null","6","null","6","1013.71","1","40.167168","18.174857"],
    [1080,"2024-02-14 23:00:00","13","galatina","10.74","1","68.95","1","0.0","1","null","6","null","6","null","6","1013.73","1","40.167168","18.174857"],
    [1081,"2024-02-15 00:00:00","13","galatina","10.27","1","73.71","1","0.0","1","null","6","null","6","null","6","1013.69","1","40.167168","18.174857"],
    [1082,"2024-02-15 01:00:00","13","galatina","9.85","1","78.11","1","0.0","1","null","6","null","6","null","6","1013.79","1","40.167168","18.174857"],
    [1083,"2024-02-15 02:00:00","13","galatina","9.39","1","80.78","1","0.0","1","null","6","null","6","null","6","1013.71","1","40.167168","18.174857"],
    [1084,"2024-02-15 03:00:00","13","galatina","8.9","1","82.07","1","0.0","1","null","6","null","6","null","6","1013.49","1","40.167168","18.174857"],
    [1085,"2024-02-15 04:00:00","13","galatina","8.05","1","85.05","1","0.0","1","null","6","null","6","null","6","1013.55","1","40.167168","18.174857"],
    [1086,"2024-02-15 05:00:00","13","galatina","7.55","1","86.36","1","0.0","1","null","6","null","6","null","6","1013.66","1","40.167168","18.174857"],
    [1087,"2024-02-15 06:00:00","13","galatina","7.06","1","86.59","1","0.0","1","null","6","null","6","null","6","1013.8","1","40.167168","18.174857"],
    [1088,"2024-02-15 07:00:00","13","galatina","6.95","1","84.81","1","0.0","1","null","6","null","6","null","6","1014.17","1","40.167168","18.174857"],
    [1089,"2024-02-15 08:00:00","13","galatina","7.97","1","80.11","1","0.0","1","null","6","null","6","null","6","1014.49","1","40.167168","18.174857"],
    [1090,"2024-02-15 09:00:00","13","galatina","11.18","1","60.58","1","0.0","1","null","6","null","6","null","6","1014.44","1","40.167168","18.174857"],
    [1091,"2024-02-15 10:00:00","13","galatina","13.26","1","43.4","1","0.0","1","null","6","null","6","null","6","1014.48","1","40.167168","18.174857"],
    [1092,"2024-02-15 11:00:00","13","galatina","14.64","1","38.85","1","0.0","1","null","6","null","6","null","6","1014.5","1","40.167168","18.174857"],
    [1093,"2024-02-15 12:00:00","13","galatina","16.26","1","30.78","1","0.0","1","null","6","null","6","null","6","1014.26","1","40.167168","18.174857"],
    [1094,"2024-02-15 13:00:00","13","galatina","16.24","1","26.73","1","0.0","1","null","6","null","6","null","6","1013.99","1","40.167168","18.174857"],
    [1095,"2024-02-15 14:00:00","13","galatina","16.57","1","29.65","1","0.0","1","null","6","null","6","null","6","1013.76","1","40.167168","18.174857"],
    [1096,"2024-02-15 15:00:00","13","galatina","16.2","1","30.89","1","0.0","1","null","6","null","6","null","6","1013.66","1","40.167168","18.174857"],
    [1097,"2024-02-15 16:00:00","13","galatina","15.61","1","38.99","1","0.0","1","null","6","null","6","null","6","1013.48","1","40.167168","18.174857"],
    [1098,"2024-02-15 17:00:00","13","galatina","14.19","1","45.74","1","0.0","1","null","6","null","6","null","6","1013.48","1","40.167168","18.174857"],
    [1099,"2024-02-15 18:00:00","13","galatina","11.85","1","55.29","1","0.0","1","null","6","null","6","null","6","1013.73","1","40.167168","18.174857"],
    [1100,"2024-02-15 19:00:00","13","galatina","10.67","1","62.58","1","0.0","1","null","6","null","6","null","6","1014.08","1","40.167168","18.174857"],
    [1101,"2024-02-15 20:00:00","13","galatina","9.96","1","66.15","1","0.0","1","null","6","null","6","null","6","1014.15","1","40.167168","18.174857"],
    [1102,"2024-02-15 21:00:00","13","galatina","9.41","1","67.59","1","0.0","1","null","6","null","6","null","6","1014.29","1","40.167168","18.174857"],
    [1103,"2024-02-15 22:00:00","13","galatina","9.13","1","69.21","1","0.0","1","null","6","null","6","null","6","1014.4","1","40.167168","18.174857"],
    [1104,"2024-02-15 23:00:00","13","galatina","8.72","1","74.17","1","0.0","1","null","6","null","6","null","6","1014.31","1","40.167168","18.174857"],
    [1105,"2024-02-16 00:00:00","13","galatina","8.43","1","83.1","1","0.0","1","null","6","null","6","null","6","1014.23","1","40.167168","18.174857"],
    [1106,"2024-02-16 01:00:00","13","galatina","8.17","1","91.14","1","0.0","1","null","6","null","6","null","6","1014.15","1","40.167168","18.174857"],
    [1107,"2024-02-16 02:00:00","13","galatina","8.3","1","94.98","1","0.0","1","null","6","null","6","null","6","1014.06","1","40.167168","18.174857"],
    [1108,"2024-02-16 03:00:00","13","galatina","8.29","1","96.63","1","0.0","1","null","6","null","6","null","6","1013.95","1","40.167168","18.174857"],
    [1109,"2024-02-16 04:00:00","13","galatina","7.84","1","97.54","1","0.0","1","null","6","null","6","null","6","1013.75","1","40.167168","18.174857"],
    [1110,"2024-02-16 05:00:00","13","galatina","7.73","1","98.23","1","0.0","1","null","6","null","6","null","6","1013.74","1","40.167168","18.174857"],
    [1111,"2024-02-16 06:00:00","13","galatina","7.68","1","98.59","1","0.0","1","null","6","null","6","null","6","1013.92","1","40.167168","18.174857"],
    [1112,"2024-02-16 07:00:00","13","galatina","7.94","1","98.82","1","0.0","1","null","6","null","6","null","6","1013.87","1","40.167168","18.174857"],
    [1113,"2024-02-16 08:00:00","13","galatina","6.99","1","97.73","1","0.0","1","null","6","null","6","null","6","1014.15","1","40.167168","18.174857"],
    [1114,"2024-02-16 09:00:00","13","galatina","10.25","1","93.31","1","0.0","1","null","6","null","6","null","6","1014.24","1","40.167168","18.174857"],
    [1115,"2024-02-16 10:00:00","13","galatina","12.4","1","79.74","1","0.0","1","null","6","null","6","null","6","1014.25","1","40.167168","18.174857"],
    [1116,"2024-02-16 11:00:00","13","galatina","15.31","1","59.05","1","0.0","1","null","6","null","6","null","6","1014.41","1","40.167168","18.174857"],
    [1117,"2024-02-16 12:00:00","13","galatina","17.93","1","33.8","1","0.0","1","null","6","null","6","null","6","1014.39","1","40.167168","18.174857"],
    [1118,"2024-02-16 13:00:00","13","galatina","18.36","1","28.74","1","0.0","1","null","6","null","6","null","6","1013.94","1","40.167168","18.174857"],
    [1119,"2024-02-16 14:00:00","13","galatina","19.63","1","24.92","1","0.0","1","null","6","null","6","null","6","1013.62","1","40.167168","18.174857"],
    [1120,"2024-02-16 15:00:00","13","galatina","19.72","1","28.54","1","0.0","1","null","6","null","6","null","6","1013.42","1","40.167168","18.174857"],
    [1121,"2024-02-16 16:00:00","13","galatina","18.99","1","31.77","1","0.0","1","null","6","null","6","null","6","1013.42","1","40.167168","18.174857"],
    [1122,"2024-02-16 17:00:00","13","galatina","17.0","1","45.07","1","0.0","1","null","6","null","6","null","6","1013.65","1","40.167168","18.174857"],
    [1123,"2024-02-16 18:00:00","13","galatina","13.35","1","63.1","1","0.0","1","null","6","null","6","null","6","1014.06","1","40.167168","18.174857"],
    [1124,"2024-02-16 19:00:00","13","galatina","10.92","1","67.89","1","0.0","1","null","6","null","6","null","6","1014.62","1","40.167168","18.174857"],
    [1125,"2024-02-16 20:00:00","13","galatina","9.81","1","73.11","1","0.0","1","null","6","null","6","null","6","1014.91","1","40.167168","18.174857"],
    [1126,"2024-02-16 21:00:00","13","galatina","8.09","1","79.49","1","0.0","1","null","6","null","6","null","6","1015.17","1","40.167168","18.174857"],
    [1127,"2024-02-16 22:00:00","13","galatina","6.61","1","84.59","1","0.0","1","null","6","null","6","null","6","1015.44","1","40.167168","18.174857"],
    [1128,"2024-02-16 23:00:00","13","galatina","5.82","1","88.82","1","0.0","1","null","6","null","6","null","6","1015.62","1","40.167168","18.174857"],
    [1129,"2024-02-17 00:00:00","13","galatina","5.19","1","91.13","1","0.0","1","null","6","null","6","null","6","1015.84","1","40.167168","18.174857"],
    [1130,"2024-02-17 01:00:00","13","galatina","4.91","1","93.24","1","0.0","1","null","6","null","6","null","6","1015.89","1","40.167168","18.174857"],
    [1131,"2024-02-17 02:00:00","13","galatina","4.38","1","94.15","1","0.0","1","null","6","null","6","null","6","1015.93","1","40.167168","18.174857"],
    [1132,"2024-02-17 03:00:00","13","galatina","4.06","1","94.95","1","0.0","1","null","6","null","6","null","6","1015.93","1","40.167168","18.174857"],
    [1133,"2024-02-17 04:00:00","13","galatina","3.09","1","95.79","1","0.0","1","null","6","null","6","null","6","1015.96","1","40.167168","18.174857"],
    [1134,"2024-02-17 05:00:00","13","galatina","2.5","1","96.69","1","0.0","1","null","6","null","6","null","6","1016.03","1","40.167168","18.174857"],
    [1135,"2024-02-17 06:00:00","13","galatina","2.31","1","97.27","1","0.0","1","null","6","null","6","null","6","1016.33","1","40.167168","18.174857"],
    [1136,"2024-02-17 07:00:00","13","galatina","1.99","1","97.63","1","0.0","1","null","6","null","6","null","6","1016.59","1","40.167168","18.174857"],
    [1137,"2024-02-17 08:00:00","13","galatina","2.57","1","97.75","1","0.0","1","null","6","null","6","null","6","1016.98","1","40.167168","18.174857"],
    [1138,"2024-02-17 09:00:00","13","galatina","6.27","1","97.04","1","0.0","1","null","6","null","6","null","6","1017.33","1","40.167168","18.174857"],
    [1139,"2024-02-17 10:00:00","13","galatina","10.9","1","95.17","1","0.2","1","null","6","null","6","null","6","1017.45","1","40.167168","18.174857"],
    [1140,"2024-02-17 11:00:00","13","galatina","14.86","1","67.68","1","0.0","1","null","6","null","6","null","6","1017.6","1","40.167168","18.174857"],
    [1141,"2024-02-17 12:00:00","13","galatina","17.86","1","55.19","1","0.0","1","null","6","null","6","null","6","1017.62","1","40.167168","18.174857"],
    [1142,"2024-02-17 13:00:00","13","galatina","18.15","1","42.87","1","0.0","1","null","6","null","6","null","6","1017.44","1","40.167168","18.174857"],
    [1143,"2024-02-17 14:00:00","13","galatina","19.2","1","33.66","1","0.0","1","null","6","null","6","null","6","1017.26","1","40.167168","18.174857"],
    [1144,"2024-02-17 15:00:00","13","galatina","19.56","1","41.86","1","0.0","1","null","6","null","6","null","6","1017.21","1","40.167168","18.174857"],
    [1145,"2024-02-17 16:00:00","13","galatina","17.87","1","56.18","1","0.0","1","null","6","null","6","null","6","1017.45","1","40.167168","18.174857"],
    [1146,"2024-02-17 17:00:00","13","galatina","16.12","1","59.88","1","0.0","1","null","6","null","6","null","6","1017.76","1","40.167168","18.174857"],
    [1147,"2024-02-17 18:00:00","13","galatina","13.01","1","66.78","1","0.0","1","null","6","null","6","null","6","1018.24","1","40.167168","18.174857"],
    [1148,"2024-02-17 19:00:00","13","galatina","11.13","1","75.59","1","0.0","1","null","6","null","6","null","6","1018.8","1","40.167168","18.174857"],
    [1149,"2024-02-17 20:00:00","13","galatina","9.62","1","84.62","1","0.0","1","null","6","null","6","null","6","1019.11","1","40.167168","18.174857"],
    [1150,"2024-02-17 21:00:00","13","galatina","8.48","1","89.44","1","0.0","1","null","6","null","6","null","6","1019.52","1","40.167168","18.174857"],
    [1151,"2024-02-17 22:00:00","13","galatina","8.36","1","90.6","1","0.0","1","null","6","null","6","null","6","1019.81","1","40.167168","18.174857"],
    [1152,"2024-02-17 23:00:00","13","galatina","8.22","1","91.8","1","0.0","1","null","6","null","6","null","6","1019.92","1","40.167168","18.174857"],
    [1153,"2024-02-18 00:00:00","13","galatina","9.13","1","92.64","1","0.0","1","null","6","null","6","null","6","1020.17","1","40.167168","18.174857"],
    [1154,"2024-02-18 01:00:00","13","galatina","9.14","1","94.07","1","0.0","1","null","6","null","6","null","6","1020.28","1","40.167168","18.174857"],
    [1155,"2024-02-18 02:00:00","13","galatina","8.56","1","95.37","1","0.0","1","null","6","null","6","null","6","1020.23","1","40.167168","18.174857"],
    [1156,"2024-02-18 03:00:00","13","galatina","7.77","1","96.31","1","0.0","1","null","6","null","6","null","6","1020.15","1","40.167168","18.174857"],
    [1157,"2024-02-18 04:00:00","13","galatina","7.65","1","97.2","1","0.0","1","null","6","null","6","null","6","1020.09","1","40.167168","18.174857"],
    [1158,"2024-02-18 05:00:00","13","galatina","8.06","1","97.4","1","0.2","1","null","6","null","6","null","6","1020.01","1","40.167168","18.174857"],
    [1159,"2024-02-18 06:00:00","13","galatina","8.29","1","97.31","1","0.0","1","null","6","null","6","null","6","1020.09","1","40.167168","18.174857"],
    [1160,"2024-02-18 07:00:00","13","galatina","7.99","1","97.27","1","0.0","1","null","6","null","6","null","6","1020.25","1","40.167168","18.174857"],
    [1161,"2024-02-18 08:00:00","13","galatina","7.88","1","97.76","1","0.0","1","null","6","null","6","null","6","1020.65","1","40.167168","18.174857"],
    [1162,"2024-02-18 09:00:00","13","galatina","9.9","1","96.02","1","0.0","1","null","6","null","6","null","6","1020.75","1","40.167168","18.174857"],
    [1163,"2024-02-18 10:00:00","13","galatina","12.28","1","85.97","1","0.0","1","null","6","null","6","null","6","1020.68","1","40.167168","18.174857"],
    [1164,"2024-02-18 11:00:00","13","galatina","14.62","1","74.28","1","0.0","1","null","6","null","6","null","6","1020.61","1","40.167168","18.174857"],
    [1165,"2024-02-18 12:00:00","13","galatina","17.09","1","62.07","1","0.0","1","null","6","null","6","null","6","1020.34","1","40.167168","18.174857"],
    [1166,"2024-02-18 13:00:00","13","galatina","17.21","1","60.09","1","0.0","1","null","6","null","6","null","6","1019.97","1","40.167168","18.174857"],
    [1167,"2024-02-18 14:00:00","13","galatina","17.43","1","58.41","1","0.0","1","null","6","null","6","null","6","1019.53","1","40.167168","18.174857"],
    [1168,"2024-02-18 15:00:00","13","galatina","17.83","1","57.94","1","0.0","1","null","6","null","6","null","6","1019.17","1","40.167168","18.174857"],
    [1169,"2024-02-18 16:00:00","13","galatina","17.55","1","59.34","1","0.0","1","null","6","null","6","null","6","1018.97","1","40.167168","18.174857"],
    [1170,"2024-02-18 17:00:00","13","galatina","15.9","1","66.15","1","0.0","1","null","6","null","6","null","6","1018.91","1","40.167168","18.174857"],
    [1171,"2024-02-18 18:00:00","13","galatina","13.08","1","77.77","1","0.0","1","null","6","null","6","null","6","1018.82","1","40.167168","18.174857"],
    [1172,"2024-02-18 19:00:00","13","galatina","11.7","1","85.37","1","0.0","1","null","6","null","6","null","6","1018.85","1","40.167168","18.174857"],
    [1173,"2024-02-18 20:00:00","13","galatina","11.15","1","89.01","1","0.0","1","null","6","null","6","null","6","1018.82","1","40.167168","18.174857"],
    [1174,"2024-02-18 21:00:00","13","galatina","10.79","1","91.02","1","0.0","1","null","6","null","6","null","6","1018.71","1","40.167168","18.174857"],
    [1175,"2024-02-18 22:00:00","13","galatina","10.9","1","92.03","1","0.0","1","null","6","null","6","null","6","1018.61","1","40.167168","18.174857"],
    [1176,"2024-02-18 23:00:00","13","galatina","10.5","1","94.13","1","0.0","1","null","6","null","6","null","6","1018.45","1","40.167168","18.174857"],
    [1177,"2024-02-19 00:00:00","13","galatina","9.43","1","95.24","1","0.0","1","null","6","null","6","null","6","1018.27","1","40.167168","18.174857"],
    [1178,"2024-02-19 01:00:00","13","galatina","8.54","1","95.64","1","0.0","1","null","6","null","6","null","6","1018.05","1","40.167168","18.174857"],
    [1179,"2024-02-19 02:00:00","13","galatina","7.72","1","95.98","1","0.0","1","null","6","null","6","null","6","1017.82","1","40.167168","18.174857"],
    [1180,"2024-02-19 03:00:00","13","galatina","7.86","1","96.47","1","0.0","1","null","6","null","6","null","6","1017.35","1","40.167168","18.174857"],
    [1181,"2024-02-19 04:00:00","13","galatina","7.98","1","96.41","1","0.0","1","null","6","null","6","null","6","1017.03","1","40.167168","18.174857"],
    [1182,"2024-02-19 05:00:00","13","galatina","7.09","1","96.72","1","0.0","1","null","6","null","6","null","6","1016.89","1","40.167168","18.174857"],
    [1183,"2024-02-19 06:00:00","13","galatina","6.53","1","97.37","1","0.0","1","null","6","null","6","null","6","1016.7","1","40.167168","18.174857"],
    [1184,"2024-02-19 07:00:00","13","galatina","6.22","1","97.51","1","0.0","1","null","6","null","6","null","6","1016.68","1","40.167168","18.174857"],
    [1185,"2024-02-19 08:00:00","13","galatina","8.31","1","97.85","1","0.0","1","null","6","null","6","null","6","1016.66","1","40.167168","18.174857"],
    [1186,"2024-02-19 09:00:00","13","galatina","11.73","1","93.41","1","0.0","1","null","6","null","6","null","6","1016.58","1","40.167168","18.174857"],
    [1187,"2024-02-19 10:00:00","13","galatina","13.87","1","79.32","1","0.0","1","null","6","null","6","null","6","1016.49","1","40.167168","18.174857"],
    [1188,"2024-02-19 11:00:00","13","galatina","16.12","1","64.86","1","0.0","1","null","6","null","6","null","6","1016.26","1","40.167168","18.174857"],
    [1189,"2024-02-19 12:00:00","13","galatina","17.27","1","55.0","1","0.0","1","null","6","null","6","null","6","1016.05","1","40.167168","18.174857"],
    [1190,"2024-02-19 13:00:00","13","galatina","16.7","1","55.83","1","0.0","1","null","6","null","6","null","6","1015.46","1","40.167168","18.174857"],
    [1191,"2024-02-19 14:00:00","13","galatina","17.83","1","51.36","1","0.0","1","null","6","null","6","null","6","1014.98","1","40.167168","18.174857"],
    [1192,"2024-02-19 15:00:00","13","galatina","17.7","1","62.05","1","0.0","1","null","6","null","6","null","6","1014.63","1","40.167168","18.174857"],
    [1193,"2024-02-19 16:00:00","13","galatina","16.32","1","69.46","1","0.0","1","null","6","null","6","null","6","1014.55","1","40.167168","18.174857"],
    [1194,"2024-02-19 17:00:00","13","galatina","16.48","1","68.23","1","0.0","1","null","6","null","6","null","6","1014.51","1","40.167168","18.174857"],
    [1195,"2024-02-19 18:00:00","13","galatina","14.57","1","74.47","1","0.0","1","null","6","null","6","null","6","1014.57","1","40.167168","18.174857"],
    [1196,"2024-02-19 19:00:00","13","galatina","13.54","1","78.74","1","0.0","1","null","6","null","6","null","6","1014.76","1","40.167168","18.174857"],
    [1197,"2024-02-19 20:00:00","13","galatina","12.57","1","81.19","1","0.0","1","null","6","null","6","null","6","1014.81","1","40.167168","18.174857"],
    [1198,"2024-02-19 21:00:00","13","galatina","12.05","1","82.82","1","0.0","1","null","6","null","6","null","6","1014.87","1","40.167168","18.174857"],
    [1199,"2024-02-19 22:00:00","13","galatina","11.47","1","85.67","1","0.0","1","null","6","null","6","null","6","1014.89","1","40.167168","18.174857"],
    [1200,"2024-02-19 23:00:00","13","galatina","10.83","1","87.3","1","0.0","1","null","6","null","6","null","6","1014.89","1","40.167168","18.174857"],
    [1201,"2024-02-20 00:00:00","13","galatina","10.22","1","88.65","1","0.0","1","null","6","null","6","null","6","1014.67","1","40.167168","18.174857"],
    [1202,"2024-02-20 01:00:00","13","galatina","10.07","1","89.75","1","0.0","1","null","6","null","6","null","6","1014.51","1","40.167168","18.174857"],
    [1203,"2024-02-20 02:00:00","13","galatina","9.6","1","91.1","1","0.0","1","null","6","null","6","null","6","1014.28","1","40.167168","18.174857"],
    [1204,"2024-02-20 03:00:00","13","galatina","8.98","1","92.64","1","0.0","1","null","6","null","6","null","6","1014.06","1","40.167168","18.174857"],
    [1205,"2024-02-20 04:00:00","13","galatina","7.98","1","93.95","1","0.0","1","null","6","null","6","null","6","1013.86","1","40.167168","18.174857"],
    [1206,"2024-02-20 05:00:00","13","galatina","7.45","1","95.71","1","0.0","1","null","6","null","6","null","6","1013.92","1","40.167168","18.174857"],
    [1207,"2024-02-20 06:00:00","13","galatina","7.21","1","96.24","1","0.0","1","null","6","null","6","null","6","1013.98","1","40.167168","18.174857"],
    [1208,"2024-02-20 07:00:00","13","galatina","6.78","1","96.68","1","0.0","1","null","6","null","6","null","6","1013.91","1","40.167168","18.174857"],
    [1209,"2024-02-20 08:00:00","13","galatina","7.28","1","97.68","1","0.0","1","null","6","null","6","null","6","1014.11","1","40.167168","18.174857"],
    [1210,"2024-02-20 09:00:00","13","galatina","10.69","1","97.17","1","0.0","1","null","6","null","6","null","6","1014.4","1","40.167168","18.174857"],
    [1211,"2024-02-20 10:00:00","13","galatina","12.9","1","92.57","1","0.0","1","null","6","null","6","null","6","1014.37","1","40.167168","18.174857"],
    [1212,"2024-02-20 11:00:00","13","galatina","14.74","1","80.76","1","0.0","1","null","6","null","6","null","6","1014.39","1","40.167168","18.174857"],
    [1213,"2024-02-20 12:00:00","13","galatina","14.58","1","73.77","1","6.0","1","null","6","null","6","null","6","1014.26","1","40.167168","18.174857"],
    [1214,"2024-02-20 13:00:00","13","galatina","11.09","1","86.19","1","0.4","1","null","6","null","6","null","6","1013.94","1","40.167168","18.174857"],
    [1215,"2024-02-20 14:00:00","13","galatina","12.13","1","85.73","1","0.0","1","null","6","null","6","null","6","1013.7","1","40.167168","18.174857"],
    [1216,"2024-02-20 15:00:00","13","galatina","12.23","1","88.33","1","0.6","1","null","6","null","6","null","6","1013.49","1","40.167168","18.174857"],
    [1217,"2024-02-20 16:00:00","13","galatina","12.97","1","83.4","1","0.0","1","null","6","null","6","null","6","1013.3","1","40.167168","18.174857"],
    [1218,"2024-02-20 17:00:00","13","galatina","13.2","1","81.62","1","0.0","1","null","6","null","6","null","6","1013.26","1","40.167168","18.174857"],
    [1219,"2024-02-20 18:00:00","13","galatina","11.95","1","86.92","1","0.0","1","null","6","null","6","null","6","1013.69","1","40.167168","18.174857"],
    [1220,"2024-02-20 19:00:00","13","galatina","10.81","1","91.6","1","0.0","1","null","6","null","6","null","6","1014.13","1","40.167168","18.174857"],
    [1221,"2024-02-20 20:00:00","13","galatina","10.16","1","94.02","1","0.0","1","null","6","null","6","null","6","1014.31","1","40.167168","18.174857"],
    [1222,"2024-02-20 21:00:00","13","galatina","9.47","1","95.2","1","0.0","1","null","6","null","6","null","6","1014.49","1","40.167168","18.174857"],
    [1223,"2024-02-20 22:00:00","13","galatina","9.14","1","96.41","1","0.0","1","null","6","null","6","null","6","1014.86","1","40.167168","18.174857"],
    [1224,"2024-02-20 23:00:00","13","galatina","9.26","1","96.9","1","0.0","1","null","6","null","6","null","6","1014.92","1","40.167168","18.174857"],
    [1225,"2024-02-21 00:00:00","13","galatina","8.93","1","97.0","1","0.0","1","null","6","null","6","null","6","1014.96","1","40.167168","18.174857"],
    [1226,"2024-02-21 01:00:00","13","galatina","8.79","1","97.34","1","0.0","1","null","6","null","6","null","6","1014.98","1","40.167168","18.174857"],
    [1227,"2024-02-21 02:00:00","13","galatina","8.09","1","97.16","1","0.0","1","null","6","null","6","null","6","1014.76","1","40.167168","18.174857"],
    [1228,"2024-02-21 03:00:00","13","galatina","6.31","1","97.57","1","0.0","1","null","6","null","6","null","6","1014.52","1","40.167168","18.174857"],
    [1229,"2024-02-21 04:00:00","13","galatina","4.97","1","98.29","1","0.0","1","null","6","null","6","null","6","1014.25","1","40.167168","18.174857"],
    [1230,"2024-02-21 05:00:00","13","galatina","4.41","1","98.31","1","0.0","1","null","6","null","6","null","6","1014.15","1","40.167168","18.174857"],
    [1231,"2024-02-21 06:00:00","13","galatina","3.75","1","98.83","1","0.0","1","null","6","null","6","null","6","1014.23","1","40.167168","18.174857"],
    [1232,"2024-02-21 07:00:00","13","galatina","3.36","1","98.93","1","0.2","1","null","6","null","6","null","6","1014.48","1","40.167168","18.174857"],
    [1233,"2024-02-21 08:00:00","13","galatina","6.09","1","99.05","1","0.0","1","null","6","null","6","null","6","1015.1","1","40.167168","18.174857"],
    [1234,"2024-02-21 09:00:00","13","galatina","10.91","1","96.26","1","0.0","1","null","6","null","6","null","6","1015.33","1","40.167168","18.174857"],
    [1235,"2024-02-21 10:00:00","13","galatina","12.28","1","89.53","1","0.0","1","null","6","null","6","null","6","1015.49","1","40.167168","18.174857"],
    [1236,"2024-02-21 11:00:00","13","galatina","15.18","1","72.7","1","0.0","1","null","6","null","6","null","6","1015.9","1","40.167168","18.174857"],
    [1237,"2024-02-21 12:00:00","13","galatina","17.08","1","57.35","1","0.0","1","null","6","null","6","null","6","1015.78","1","40.167168","18.174857"],
    [1238,"2024-02-21 13:00:00","13","galatina","17.48","1","50.11","1","0.0","1","null","6","null","6","null","6","1015.41","1","40.167168","18.174857"],
    [1239,"2024-02-21 14:00:00","13","galatina","17.45","1","46.38","1","0.0","1","null","6","null","6","null","6","1015.13","1","40.167168","18.174857"],
    [1240,"2024-02-21 15:00:00","13","galatina","18.1","1","40.82","1","0.0","1","null","6","null","6","null","6","1014.81","1","40.167168","18.174857"],
    [1241,"2024-02-21 16:00:00","13","galatina","17.63","1","42.49","1","0.0","1","null","6","null","6","null","6","1014.7","1","40.167168","18.174857"],
    [1242,"2024-02-21 17:00:00","13","galatina","15.96","1","48.21","1","0.0","1","null","6","null","6","null","6","1014.91","1","40.167168","18.174857"],
    [1243,"2024-02-21 18:00:00","13","galatina","12.9","1","56.45","1","0.0","1","null","6","null","6","null","6","1015.22","1","40.167168","18.174857"],
    [1244,"2024-02-21 19:00:00","13","galatina","11.03","1","67.09","1","0.0","1","null","6","null","6","null","6","1015.68","1","40.167168","18.174857"],
    [1245,"2024-02-21 20:00:00","13","galatina","9.4","1","76.14","1","0.0","1","null","6","null","6","null","6","1015.88","1","40.167168","18.174857"],
    [1246,"2024-02-21 21:00:00","13","galatina","7.66","1","83.8","1","0.0","1","null","6","null","6","null","6","1015.91","1","40.167168","18.174857"],
    [1247,"2024-02-21 22:00:00","13","galatina","6.68","1","88.24","1","0.0","1","null","6","null","6","null","6","1015.9","1","40.167168","18.174857"],
    [1248,"2024-02-21 23:00:00","13","galatina","6.03","1","90.75","1","0.0","1","null","6","null","6","null","6","1015.73","1","40.167168","18.174857"],
    [1249,"2024-02-22 00:00:00","13","galatina","5.0","1","92.26","1","0.0","1","null","6","null","6","null","6","1015.7","1","40.167168","18.174857"],
    [1250,"2024-02-22 01:00:00","13","galatina","4.62","1","93.56","1","0.0","1","null","6","null","6","null","6","1015.67","1","40.167168","18.174857"],
    [1251,"2024-02-22 02:00:00","13","galatina","4.05","1","93.97","1","0.0","1","null","6","null","6","null","6","1015.46","1","40.167168","18.174857"],
    [1252,"2024-02-22 03:00:00","13","galatina","3.38","1","94.69","1","0.0","1","null","6","null","6","null","6","1015.12","1","40.167168","18.174857"],
    [1253,"2024-02-22 04:00:00","13","galatina","3.1","1","95.49","1","0.0","1","null","6","null","6","null","6","1014.75","1","40.167168","18.174857"],
    [1254,"2024-02-22 05:00:00","13","galatina","2.78","1","96.21","1","0.0","1","null","6","null","6","null","6","1014.69","1","40.167168","18.174857"],
    [1255,"2024-02-22 06:00:00","13","galatina","2.37","1","96.67","1","0.0","1","null","6","null","6","null","6","1014.76","1","40.167168","18.174857"],
    [1256,"2024-02-22 07:00:00","13","galatina","2.03","1","96.94","1","0.0","1","null","6","null","6","null","6","1014.7","1","40.167168","18.174857"],
    [1257,"2024-02-22 08:00:00","13","galatina","4.45","1","95.57","1","0.0","1","null","6","null","6","null","6","1014.79","1","40.167168","18.174857"],
    [1258,"2024-02-22 09:00:00","13","galatina","9.96","1","85.89","1","0.0","1","null","6","null","6","null","6","1014.63","1","40.167168","18.174857"],
    [1259,"2024-02-22 10:00:00","13","galatina","13.25","1","67.9","1","0.0","1","null","6","null","6","null","6","1014.35","1","40.167168","18.174857"],
    [1260,"2024-02-22 11:00:00","13","galatina","15.61","1","46.4","1","0.0","1","null","6","null","6","null","6","1014.31","1","40.167168","18.174857"],
    [1261,"2024-02-22 12:00:00","13","galatina","17.84","1","41.26","1","0.0","1","null","6","null","6","null","6","1014.03","1","40.167168","18.174857"],
    [1262,"2024-02-22 13:00:00","13","galatina","17.79","1","40.47","1","0.0","1","null","6","null","6","null","6","1013.5","1","40.167168","18.174857"],
    [1263,"2024-02-22 14:00:00","13","galatina","18.19","1","38.09","1","0.0","1","null","6","null","6","null","6","1012.97","1","40.167168","18.174857"],
    [1264,"2024-02-22 15:00:00","13","galatina","18.26","1","37.38","1","0.0","1","null","6","null","6","null","6","1012.51","1","40.167168","18.174857"],
    [1265,"2024-02-22 16:00:00","13","galatina","16.93","1","38.95","1","0.0","1","null","6","null","6","null","6","1012.15","1","40.167168","18.174857"],
    [1266,"2024-02-22 17:00:00","13","galatina","15.29","1","44.3","1","0.0","1","null","6","null","6","null","6","1012.0","1","40.167168","18.174857"],
    [1267,"2024-02-22 18:00:00","13","galatina","12.77","1","57.01","1","0.0","1","null","6","null","6","null","6","1012.09","1","40.167168","18.174857"],
    [1268,"2024-02-22 19:00:00","13","galatina","10.94","1","69.22","1","0.0","1","null","6","null","6","null","6","1012.17","1","40.167168","18.174857"],
    [1269,"2024-02-22 20:00:00","13","galatina","9.95","1","76.82","1","0.0","1","null","6","null","6","null","6","1011.9","1","40.167168","18.174857"],
    [1270,"2024-02-22 21:00:00","13","galatina","9.51","1","83.68","1","0.0","1","null","6","null","6","null","6","1011.74","1","40.167168","18.174857"],
    [1271,"2024-02-22 22:00:00","13","galatina","8.53","1","88.58","1","0.0","1","null","6","null","6","null","6","1011.61","1","40.167168","18.174857"],
    [1272,"2024-02-22 23:00:00","13","galatina","7.95","1","91.65","1","0.0","1","null","6","null","6","null","6","1011.46","1","40.167168","18.174857"],
    [1273,"2024-02-23 00:00:00","13","galatina","7.29","1","94.17","1","0.0","1","null","6","null","6","null","6","1011.11","1","40.167168","18.174857"],
    [1274,"2024-02-23 01:00:00","13","galatina","9.23","1","95.55","1","0.0","1","null","6","null","6","null","6","1010.72","1","40.167168","18.174857"],
    [1275,"2024-02-23 02:00:00","13","galatina","8.42","1","96.08","1","0.2","1","null","6","null","6","null","6","1010.48","1","40.167168","18.174857"],
    [1276,"2024-02-23 03:00:00","13","galatina","7.99","1","96.94","1","0.0","1","null","6","null","6","null","6","1010.04","1","40.167168","18.174857"],
    [1277,"2024-02-23 04:00:00","13","galatina","7.96","1","97.78","1","0.0","1","null","6","null","6","null","6","1009.61","1","40.167168","18.174857"],
    [1278,"2024-02-23 05:00:00","13","galatina","9.25","1","98.4","1","0.0","1","null","6","null","6","null","6","1009.33","1","40.167168","18.174857"],
    [1279,"2024-02-23 06:00:00","13","galatina","10.02","1","96.65","1","0.0","1","null","6","null","6","null","6","1009.27","1","40.167168","18.174857"],
    [1280,"2024-02-23 07:00:00","13","galatina","11.18","1","91.74","1","0.0","1","null","6","null","6","null","6","1009.18","1","40.167168","18.174857"],
    [1281,"2024-02-23 08:00:00","13","galatina","12.85","1","86.82","1","0.0","1","null","6","null","6","null","6","1009.36","1","40.167168","18.174857"],
    [1282,"2024-02-23 09:00:00","13","galatina","13.77","1","82.15","1","0.0","1","null","6","null","6","null","6","1009.22","1","40.167168","18.174857"],
    [1283,"2024-02-23 10:00:00","13","galatina","14.82","1","75.23","1","0.0","1","null","6","null","6","null","6","1009.1","1","40.167168","18.174857"],
    [1284,"2024-02-23 11:00:00","13","galatina","15.78","1","70.3","1","0.0","1","null","6","null","6","null","6","1009.17","1","40.167168","18.174857"],
    [1285,"2024-02-23 12:00:00","13","galatina","16.11","1","68.65","1","0.4","1","null","6","null","6","null","6","1008.96","1","40.167168","18.174857"],
    [1286,"2024-02-23 13:00:00","13","galatina","16.38","1","67.12","1","0.0","1","null","6","null","6","null","6","1008.55","1","40.167168","18.174857"],
    [1287,"2024-02-23 14:00:00","13","galatina","16.12","1","67.86","1","0.0","1","null","6","null","6","null","6","1008.33","1","40.167168","18.174857"],
    [1288,"2024-02-23 15:00:00","13","galatina","15.64","1","72.52","1","0.0","1","null","6","null","6","null","6","1008.12","1","40.167168","18.174857"],
    [1289,"2024-02-23 16:00:00","13","galatina","15.62","1","73.28","1","0.0","1","null","6","null","6","null","6","1008.01","1","40.167168","18.174857"],
    [1290,"2024-02-23 17:00:00","13","galatina","15.19","1","75.31","1","0.0","1","null","6","null","6","null","6","1008.03","1","40.167168","18.174857"],
    [1291,"2024-02-23 18:00:00","13","galatina","14.7","1","78.29","1","0.0","1","null","6","null","6","null","6","1008.13","1","40.167168","18.174857"],
    [1292,"2024-02-23 19:00:00","13","galatina","14.49","1","79.92","1","0.0","1","null","6","null","6","null","6","1008.31","1","40.167168","18.174857"],
    [1293,"2024-02-23 20:00:00","13","galatina","14.54","1","79.67","1","0.0","1","null","6","null","6","null","6","1008.33","1","40.167168","18.174857"],
    [1294,"2024-02-23 21:00:00","13","galatina","14.6","1","80.07","1","0.0","1","null","6","null","6","null","6","1008.41","1","40.167168","18.174857"],
    [1295,"2024-02-23 22:00:00","13","galatina","14.56","1","81.11","1","0.0","1","null","6","null","6","null","6","1008.47","1","40.167168","18.174857"],
    [1296,"2024-02-23 23:00:00","13","galatina","14.51","1","80.96","1","0.0","1","null","6","null","6","null","6","1008.32","1","40.167168","18.174857"],
    [1297,"2024-02-24 00:00:00","13","galatina","14.53","1","80.77","1","0.0","1","null","6","null","6","null","6","1008.46","1","40.167168","18.174857"],
    [1298,"2024-02-24 01:00:00","13","galatina","14.48","1","81.17","1","0.0","1","null","6","null","6","null","6","1008.36","1","40.167168","18.174857"],
    [1299,"2024-02-24 02:00:00","13","galatina","14.46","1","81.22","1","0.0","1","null","6","null","6","null","6","1008.2","1","40.167168","18.174857"],
    [1300,"2024-02-24 03:00:00","13","galatina","14.38","1","80.82","1","0.0","1","null","6","null","6","null","6","1008.05","1","40.167168","18.174857"],
    [1301,"2024-02-24 04:00:00","13","galatina","14.45","1","81.08","1","0.0","1","null","6","null","6","null","6","1007.79","1","40.167168","18.174857"],
    [1302,"2024-02-24 05:00:00","13","galatina","14.6","1","80.24","1","0.0","1","null","6","null","6","null","6","1007.94","1","40.167168","18.174857"],
    [1303,"2024-02-24 06:00:00","13","galatina","14.45","1","82.5","1","0.0","1","null","6","null","6","null","6","1008.06","1","40.167168","18.174857"],
    [1304,"2024-02-24 07:00:00","13","galatina","14.08","1","86.82","1","0.0","1","null","6","null","6","null","6","1008.39","1","40.167168","18.174857"],
    [1305,"2024-02-24 08:00:00","13","galatina","13.86","1","90.12","1","0.6","1","null","6","null","6","null","6","1008.67","1","40.167168","18.174857"],
    [1306,"2024-02-24 09:00:00","13","galatina","14.02","1","90.01","1","0.2","1","null","6","null","6","null","6","1009.03","1","40.167168","18.174857"],
    [1307,"2024-02-24 10:00:00","13","galatina","14.69","1","84.69","1","0.0","1","null","6","null","6","null","6","1009.3","1","40.167168","18.174857"],
    [1308,"2024-02-24 11:00:00","13","galatina","14.82","1","83.35","1","0.0","1","null","6","null","6","null","6","1009.56","1","40.167168","18.174857"],
    [1309,"2024-02-24 12:00:00","13","galatina","14.15","1","89.96","1","1.0","1","null","6","null","6","null","6","1009.6","1","40.167168","18.174857"],
    [1310,"2024-02-24 13:00:00","13","galatina","14.15","1","92.98","1","1.2","1","null","6","null","6","null","6","1009.42","1","40.167168","18.174857"],
    [1311,"2024-02-24 14:00:00","13","galatina","14.26","1","93.57","1","1.2","1","null","6","null","6","null","6","1009.05","1","40.167168","18.174857"],
    [1312,"2024-02-24 15:00:00","13","galatina","14.72","1","90.98","1","0.0","1","null","6","null","6","null","6","1008.91","1","40.167168","18.174857"],
    [1313,"2024-02-24 16:00:00","13","galatina","14.91","1","89.01","1","0.0","1","null","6","null","6","null","6","1008.94","1","40.167168","18.174857"],
    [1314,"2024-02-24 17:00:00","13","galatina","14.76","1","89.47","1","0.0","1","null","6","null","6","null","6","1008.86","1","40.167168","18.174857"],
    [1315,"2024-02-24 18:00:00","13","galatina","14.87","1","88.23","1","0.0","1","null","6","null","6","null","6","1008.9","1","40.167168","18.174857"],
    [1316,"2024-02-24 19:00:00","13","galatina","14.82","1","87.68","1","0.0","1","null","6","null","6","null","6","1008.96","1","40.167168","18.174857"],
    [1317,"2024-02-24 20:00:00","13","galatina","14.57","1","87.97","1","0.0","1","null","6","null","6","null","6","1008.99","1","40.167168","18.174857"],
    [1318,"2024-02-24 21:00:00","13","galatina","14.43","1","88.62","1","0.0","1","null","6","null","6","null","6","1009.28","1","40.167168","18.174857"],
    [1319,"2024-02-24 22:00:00","13","galatina","14.31","1","88.29","1","0.0","1","null","6","null","6","null","6","1009.34","1","40.167168","18.174857"],
    [1320,"2024-02-24 23:00:00","13","galatina","14.26","1","87.64","1","0.0","1","null","6","null","6","null","6","1009.4","1","40.167168","18.174857"],
    [1321,"2024-02-25 00:00:00","13","galatina","14.02","1","88.92","1","0.0","1","null","6","null","6","null","6","1009.37","1","40.167168","18.174857"],
    [1322,"2024-02-25 01:00:00","13","galatina","13.74","1","90.83","1","0.0","1","null","6","null","6","null","6","1009.19","1","40.167168","18.174857"],
    [1323,"2024-02-25 02:00:00","13","galatina","13.69","1","91.67","1","0.0","1","null","6","null","6","null","6","1008.93","1","40.167168","18.174857"],
    [1324,"2024-02-25 03:00:00","13","galatina","13.72","1","92.18","1","0.0","1","null","6","null","6","null","6","1008.45","1","40.167168","18.174857"],
    [1325,"2024-02-25 04:00:00","13","galatina","13.8","1","91.2","1","0.0","1","null","6","null","6","null","6","1008.03","1","40.167168","18.174857"],
    [1326,"2024-02-25 05:00:00","13","galatina","13.9","1","90.77","1","0.0","1","null","6","null","6","null","6","1007.65","1","40.167168","18.174857"],
    [1327,"2024-02-25 06:00:00","13","galatina","13.83","1","90.51","1","0.0","1","null","6","null","6","null","6","1007.55","1","40.167168","18.174857"],
    [1328,"2024-02-25 07:00:00","13","galatina","13.92","1","90.44","1","0.0","1","null","6","null","6","null","6","1007.55","1","40.167168","18.174857"],
    [1329,"2024-02-25 08:00:00","13","galatina","14.83","1","86.87","1","0.0","1","null","6","null","6","null","6","1007.39","1","40.167168","18.174857"],
    [1330,"2024-02-25 09:00:00","13","galatina","15.41","1","86.04","1","0.0","1","null","6","null","6","null","6","1007.14","1","40.167168","18.174857"],
    [1331,"2024-02-25 10:00:00","13","galatina","15.42","1","87.06","1","0.4","1","null","6","null","6","null","6","1006.72","1","40.167168","18.174857"],
    [1332,"2024-02-25 11:00:00","13","galatina","14.6","1","88.39","1","1.0","1","null","6","null","6","null","6","1006.06","1","40.167168","18.174857"],
    [1333,"2024-02-25 12:00:00","13","galatina","14.94","1","79.51","1","0.0","1","null","6","null","6","null","6","1005.63","1","40.167168","18.174857"],
    [1334,"2024-02-25 13:00:00","13","galatina","15.41","1","77.76","1","0.0","1","null","6","null","6","null","6","1004.94","1","40.167168","18.174857"],
    [1335,"2024-02-25 14:00:00","13","galatina","15.41","1","75.94","1","0.0","1","null","6","null","6","null","6","1004.24","1","40.167168","18.174857"],
    [1336,"2024-02-25 15:00:00","13","galatina","15.57","1","70.68","1","0.0","1","null","6","null","6","null","6","1003.78","1","40.167168","18.174857"],
    [1337,"2024-02-25 16:00:00","13","galatina","15.62","1","69.37","1","0.2","1","null","6","null","6","null","6","1003.6","1","40.167168","18.174857"],
    [1338,"2024-02-25 17:00:00","13","galatina","14.12","1","79.3","1","0.6","1","null","6","null","6","null","6","1003.4","1","40.167168","18.174857"],
    [1339,"2024-02-25 18:00:00","13","galatina","13.21","1","85.57","1","0.6","1","null","6","null","6","null","6","1003.47","1","40.167168","18.174857"],
    [1340,"2024-02-25 19:00:00","13","galatina","13.21","1","85.01","1","0.0","1","null","6","null","6","null","6","1003.45","1","40.167168","18.174857"],
    [1341,"2024-02-25 20:00:00","13","galatina","13.27","1","84.8","1","0.0","1","null","6","null","6","null","6","1003.63","1","40.167168","18.174857"],
    [1342,"2024-02-25 21:00:00","13","galatina","13.19","1","86.9","1","0.4","1","null","6","null","6","null","6","1003.86","1","40.167168","18.174857"],
    [1343,"2024-02-25 22:00:00","13","galatina","12.73","1","91.11","1","0.6","1","null","6","null","6","null","6","1004.15","1","40.167168","18.174857"],
    [1344,"2024-02-25 23:00:00","13","galatina","12.47","1","92.82","1","0.0","1","null","6","null","6","null","6","1004.06","1","40.167168","18.174857"],
    [1345,"2024-02-26 00:00:00","13","galatina","12.38","1","94.16","1","0.0","1","null","6","null","6","null","6","1004.0","1","40.167168","18.174857"],
    [1346,"2024-02-26 01:00:00","13","galatina","12.47","1","93.77","1","0.2","1","null","6","null","6","null","6","1003.97","1","40.167168","18.174857"],
    [1347,"2024-02-26 02:00:00","13","galatina","12.57","1","92.95","1","0.0","1","null","6","null","6","null","6","1003.93","1","40.167168","18.174857"],
    [1348,"2024-02-26 03:00:00","13","galatina","11.94","1","94.09","1","0.0","1","null","6","null","6","null","6","1003.72","1","40.167168","18.174857"],
    [1349,"2024-02-26 04:00:00","13","galatina","11.46","1","96.14","1","0.0","1","null","6","null","6","null","6","1003.66","1","40.167168","18.174857"],
    [1350,"2024-02-26 05:00:00","13","galatina","11.16","1","96.97","1","0.0","1","null","6","null","6","null","6","1003.75","1","40.167168","18.174857"],
    [1351,"2024-02-26 06:00:00","13","galatina","10.91","1","97.48","1","0.2","1","null","6","null","6","null","6","1003.91","1","40.167168","18.174857"],
    [1352,"2024-02-26 07:00:00","13","galatina","11.23","1","97.74","1","0.0","1","null","6","null","6","null","6","1003.97","1","40.167168","18.174857"],
    [1353,"2024-02-26 08:00:00","13","galatina","11.5","1","97.68","1","0.0","1","null","6","null","6","null","6","1004.24","1","40.167168","18.174857"],
    [1354,"2024-02-26 09:00:00","13","galatina","12.47","1","96.23","1","0.0","1","null","6","null","6","null","6","1004.62","1","40.167168","18.174857"],
    [1355,"2024-02-26 10:00:00","13","galatina","13.79","1","90.24","1","0.0","1","null","6","null","6","null","6","1004.76","1","40.167168","18.174857"],
    [1356,"2024-02-26 11:00:00","13","galatina","15.53","1","80.87","1","0.2","1","null","6","null","6","null","6","1004.72","1","40.167168","18.174857"],
    [1357,"2024-02-26 12:00:00","13","galatina","16.94","1","72.2","1","0.0","1","null","6","null","6","null","6","1004.75","1","40.167168","18.174857"],
    [1358,"2024-02-26 13:00:00","13","galatina","18.09","1","64.28","1","0.0","1","null","6","null","6","null","6","1004.5","1","40.167168","18.174857"],
    [1359,"2024-02-26 14:00:00","13","galatina","18.32","1","61.79","1","0.0","1","null","6","null","6","null","6","1004.48","1","40.167168","18.174857"],
    [1360,"2024-02-26 15:00:00","13","galatina","18.45","1","61.02","1","0.0","1","null","6","null","6","null","6","1004.42","1","40.167168","18.174857"],
    [1361,"2024-02-26 16:00:00","13","galatina","18.26","1","60.25","1","0.0","1","null","6","null","6","null","6","1004.47","1","40.167168","18.174857"],
    [1362,"2024-02-26 17:00:00","13","galatina","17.67","1","61.44","1","0.0","1","null","6","null","6","null","6","1004.64","1","40.167168","18.174857"],
    [1363,"2024-02-26 18:00:00","13","galatina","14.78","1","69.46","1","0.0","1","null","6","null","6","null","6","1004.83","1","40.167168","18.174857"],
    [1364,"2024-02-26 19:00:00","13","galatina","13.13","1","79.46","1","0.0","1","null","6","null","6","null","6","1005.47","1","40.167168","18.174857"],
    [1365,"2024-02-26 20:00:00","13","galatina","11.96","1","87.05","1","0.0","1","null","6","null","6","null","6","1005.87","1","40.167168","18.174857"],
    [1366,"2024-02-26 21:00:00","13","galatina","10.78","1","92.59","1","0.0","1","null","6","null","6","null","6","1006.22","1","40.167168","18.174857"],
    [1367,"2024-02-26 22:00:00","13","galatina","10.04","1","94.71","1","0.0","1","null","6","null","6","null","6","1006.61","1","40.167168","18.174857"],
    [1368,"2024-02-26 23:00:00","13","galatina","9.51","1","96.08","1","0.0","1","null","6","null","6","null","6","1007.05","1","40.167168","18.174857"],
    [1369,"2024-02-27 00:00:00","13","galatina","9.0","1","96.65","1","0.0","1","null","6","null","6","null","6","1006.99","1","40.167168","18.174857"],
    [1370,"2024-02-27 01:00:00","13","galatina","8.38","1","96.84","1","0.0","1","null","6","null","6","null","6","1007.2","1","40.167168","18.174857"],
    [1371,"2024-02-27 02:00:00","13","galatina","8.05","1","97.17","1","0.0","1","null","6","null","6","null","6","1007.27","1","40.167168","18.174857"],
    [1372,"2024-02-27 03:00:00","13","galatina","8.31","1","97.55","1","0.0","1","null","6","null","6","null","6","1007.38","1","40.167168","18.174857"],
    [1373,"2024-02-27 04:00:00","13","galatina","8.7","1","98.14","1","0.0","1","null","6","null","6","null","6","1007.31","1","40.167168","18.174857"],
    [1374,"2024-02-27 05:00:00","13","galatina","9.34","1","98.5","1","0.0","1","null","6","null","6","null","6","1007.39","1","40.167168","18.174857"],
    [1375,"2024-02-27 06:00:00","13","galatina","9.83","1","98.81","1","0.0","1","null","6","null","6","null","6","1007.75","1","40.167168","18.174857"],
    [1376,"2024-02-27 07:00:00","13","galatina","9.96","1","99.06","1","0.2","1","null","6","null","6","null","6","1007.73","1","40.167168","18.174857"],
    [1377,"2024-02-27 08:00:00","13","galatina","11.47","1","98.94","1","0.0","1","null","6","null","6","null","6","1008.02","1","40.167168","18.174857"],
    [1378,"2024-02-27 09:00:00","13","galatina","13.49","1","94.93","1","0.0","1","null","6","null","6","null","6","1008.13","1","40.167168","18.174857"],
    [1379,"2024-02-27 10:00:00","13","galatina","15.23","1","78.55","1","0.0","1","null","6","null","6","null","6","1008.25","1","40.167168","18.174857"],
    [1380,"2024-02-27 11:00:00","13","galatina","16.78","1","58.83","1","0.0","1","null","6","null","6","null","6","1008.62","1","40.167168","18.174857"],
    [1381,"2024-02-27 12:00:00","13","galatina","17.39","1","55.05","1","0.0","1","null","6","null","6","null","6","1008.88","1","40.167168","18.174857"],
    [1382,"2024-02-27 13:00:00","13","galatina","17.21","1","60.04","1","0.0","1","null","6","null","6","null","6","1008.73","1","40.167168","18.174857"],
    [1383,"2024-02-27 14:00:00","13","galatina","17.04","1","61.44","1","0.0","1","null","6","null","6","null","6","1008.46","1","40.167168","18.174857"],
    [1384,"2024-02-27 15:00:00","13","galatina","16.42","1","65.91","1","0.0","1","null","6","null","6","null","6","1008.42","1","40.167168","18.174857"],
    [1385,"2024-02-27 16:00:00","13","galatina","15.91","1","71.94","1","0.0","1","null","6","null","6","null","6","1008.33","1","40.167168","18.174857"],
    [1386,"2024-02-27 17:00:00","13","galatina","15.05","1","77.88","1","0.0","1","null","6","null","6","null","6","1008.19","1","40.167168","18.174857"],
    [1387,"2024-02-27 18:00:00","13","galatina","14.36","1","83.77","1","0.0","1","null","6","null","6","null","6","1008.36","1","40.167168","18.174857"],
    [1388,"2024-02-27 19:00:00","13","galatina","14.02","1","86.04","1","0.0","1","null","6","null","6","null","6","1008.69","1","40.167168","18.174857"],
    [1389,"2024-02-27 20:00:00","13","galatina","13.9","1","85.18","1","0.0","1","null","6","null","6","null","6","1008.95","1","40.167168","18.174857"],
    [1390,"2024-02-27 21:00:00","13","galatina","13.82","1","83.41","1","0.0","1","null","6","null","6","null","6","1009.19","1","40.167168","18.174857"],
    [1391,"2024-02-27 22:00:00","13","galatina","13.77","1","85.49","1","0.0","1","null","6","null","6","null","6","1009.55","1","40.167168","18.174857"],
    [1392,"2024-02-27 23:00:00","13","galatina","13.55","1","86.75","1","0.0","1","null","6","null","6","null","6","1009.85","1","40.167168","18.174857"],
    [1393,"2024-02-28 00:00:00","13","galatina","13.21","1","89.77","1","0.0","1","null","6","null","6","null","6","1010.01","1","40.167168","18.174857"],
    [1394,"2024-02-28 01:00:00","13","galatina","13.32","1","91.3","1","0.0","1","null","6","null","6","null","6","1009.96","1","40.167168","18.174857"],
    [1395,"2024-02-28 02:00:00","13","galatina","13.49","1","90.97","1","0.0","1","null","6","null","6","null","6","1009.91","1","40.167168","18.174857"],
    [1396,"2024-02-28 03:00:00","13","galatina","13.52","1","90.89","1","0.0","1","null","6","null","6","null","6","1009.89","1","40.167168","18.174857"],
    [1397,"2024-02-28 04:00:00","13","galatina","13.48","1","90.4","1","0.0","1","null","6","null","6","null","6","1009.86","1","40.167168","18.174857"],
    [1398,"2024-02-28 05:00:00","13","galatina","13.43","1","89.65","1","0.0","1","null","6","null","6","null","6","1009.97","1","40.167168","18.174857"],
    [1399,"2024-02-28 06:00:00","13","galatina","13.46","1","88.71","1","0.0","1","null","6","null","6","null","6","1009.91","1","40.167168","18.174857"],
    [1400,"2024-02-28 07:00:00","13","galatina","13.46","1","90.54","1","0.0","1","null","6","null","6","null","6","1009.84","1","40.167168","18.174857"],
    [1401,"2024-02-28 08:00:00","13","galatina","14.3","1","89.75","1","0.0","1","null","6","null","6","null","6","1009.83","1","40.167168","18.174857"],
    [1402,"2024-02-28 09:00:00","13","galatina","15.94","1","79.24","1","0.0","1","null","6","null","6","null","6","1009.7","1","40.167168","18.174857"],
    [1403,"2024-02-28 10:00:00","13","galatina","16.75","1","72.95","1","0.0","1","null","6","null","6","null","6","1009.75","1","40.167168","18.174857"],
    [1404,"2024-02-28 11:00:00","13","galatina","17.74","1","69.01","1","0.0","1","null","6","null","6","null","6","1009.77","1","40.167168","18.174857"],
    [1405,"2024-02-28 12:00:00","13","galatina","18.19","1","64.64","1","0.0","1","null","6","null","6","null","6","1009.66","1","40.167168","18.174857"],
    [1406,"2024-02-28 13:00:00","13","galatina","18.0","1","64.12","1","0.0","1","null","6","null","6","null","6","1009.27","1","40.167168","18.174857"],
    [1407,"2024-02-28 14:00:00","13","galatina","18.33","1","64.22","1","0.0","1","null","6","null","6","null","6","1009.12","1","40.167168","18.174857"],
    [1408,"2024-02-28 15:00:00","13","galatina","18.07","1","63.07","1","0.0","1","null","6","null","6","null","6","1008.98","1","40.167168","18.174857"],
    [1409,"2024-02-28 16:00:00","13","galatina","17.44","1","64.37","1","0.0","1","null","6","null","6","null","6","1008.87","1","40.167168","18.174857"],
    [1410,"2024-02-28 17:00:00","13","galatina","17.06","1","64.97","1","0.0","1","null","6","null","6","null","6","1008.58","1","40.167168","18.174857"],
    [1411,"2024-02-28 18:00:00","13","galatina","16.21","1","68.7","1","0.0","1","null","6","null","6","null","6","1008.51","1","40.167168","18.174857"],
    [1412,"2024-02-28 19:00:00","13","galatina","15.42","1","76.57","1","0.0","1","null","6","null","6","null","6","1008.68","1","40.167168","18.174857"],
    [1413,"2024-02-28 20:00:00","13","galatina","15.24","1","79.35","1","0.0","1","null","6","null","6","null","6","1008.92","1","40.167168","18.174857"],
    [1414,"2024-02-28 21:00:00","13","galatina","15.58","1","77.18","1","0.0","1","null","6","null","6","null","6","1009.16","1","40.167168","18.174857"],
    [1415,"2024-02-28 22:00:00","13","galatina","15.44","1","79.18","1","0.0","1","null","6","null","6","null","6","1009.22","1","40.167168","18.174857"],
    [1416,"2024-02-28 23:00:00","13","galatina","14.98","1","83.63","1","0.0","1","null","6","null","6","null","6","1009.34","1","40.167168","18.174857"],
    [1417,"2024-02-29 00:00:00","13","galatina","14.48","1","86.4","1","0.0","1","null","6","null","6","null","6","1009.14","1","40.167168","18.174857"],
    [1418,"2024-02-29 01:00:00","13","galatina","14.31","1","87.18","1","0.0","1","null","6","null","6","null","6","1009.03","1","40.167168","18.174857"],
    [1419,"2024-02-29 02:00:00","13","galatina","14.3","1","88.41","1","0.0","1","null","6","null","6","null","6","1008.65","1","40.167168","18.174857"],
    [1420,"2024-02-29 03:00:00","13","galatina","14.04","1","89.55","1","0.0","1","null","6","null","6","null","6","1008.28","1","40.167168","18.174857"],
    [1421,"2024-02-29 04:00:00","13","galatina","13.94","1","91.74","1","0.0","1","null","6","null","6","null","6","1007.85","1","40.167168","18.174857"],
    [1422,"2024-02-29 05:00:00","13","galatina","13.92","1","89.94","1","0.0","1","null","6","null","6","null","6","1007.61","1","40.167168","18.174857"],
    [1423,"2024-02-29 06:00:00","13","galatina","13.32","1","90.69","1","0.0","1","null","6","null","6","null","6","1007.33","1","40.167168","18.174857"],
    [1424,"2024-02-29 07:00:00","13","galatina","13.76","1","87.14","1","0.0","1","null","6","null","6","null","6","1006.84","1","40.167168","18.174857"],
    [1425,"2024-02-29 08:00:00","13","galatina","15.11","1","78.1","1","0.0","1","null","6","null","6","null","6","1006.68","1","40.167168","18.174857"],
    [1426,"2024-02-29 09:00:00","13","galatina","16.43","1","73.91","1","0.0","1","null","6","null","6","null","6","1006.81","1","40.167168","18.174857"],
    [1427,"2024-02-29 10:00:00","13","galatina","17.65","1","65.6","1","0.0","1","null","6","null","6","null","6","1006.98","1","40.167168","18.174857"],
    [1428,"2024-02-29 11:00:00","13","galatina","18.79","1","59.03","1","0.0","1","null","6","null","6","null","6","1006.96","1","40.167168","18.174857"],
    [1429,"2024-02-29 12:00:00","13","galatina","18.54","1","58.3","1","0.0","1","null","6","null","6","null","6","1006.74","1","40.167168","18.174857"],
    [1430,"2024-02-29 13:00:00","13","galatina","17.7","1","63.04","1","0.0","1","null","6","null","6","null","6","1006.46","1","40.167168","18.174857"],
    [1431,"2024-02-29 14:00:00","13","galatina","16.89","1","69.31","1","0.0","1","null","6","null","6","null","6","1006.16","1","40.167168","18.174857"],
    [1432,"2024-02-29 15:00:00","13","galatina","15.74","1","77.42","1","0.0","1","null","6","null","6","null","6","1006.07","1","40.167168","18.174857"],
    [1433,"2024-02-29 16:00:00","13","galatina","15.53","1","79.46","1","1.6","1","null","6","null","6","null","6","1005.65","1","40.167168","18.174857"],
    [1434,"2024-02-29 17:00:00","13","galatina","13.82","1","90.92","1","2.4","1","null","6","null","6","null","6","1005.27","1","40.167168","18.174857"],
    [1435,"2024-02-29 18:00:00","13","galatina","12.31","1","94.37","1","11.6","1","null","6","null","6","null","6","1005.38","1","40.167168","18.174857"],
    [1436,"2024-02-29 19:00:00","13","galatina","11.18","1","97.32","1","3.2","1","null","6","null","6","null","6","1005.3","1","40.167168","18.174857"],
    [1437,"2024-02-29 20:00:00","13","galatina","11.17","1","97.97","1","5.6","1","null","6","null","6","null","6","1005.52","1","40.167168","18.174857"],
    [1438,"2024-02-29 21:00:00","13","galatina","10.81","1","97.77","1","2.6","1","null","6","null","6","null","6","1005.24","1","40.167168","18.174857"],
    [1439,"2024-02-29 22:00:00","13","galatina","10.57","1","97.46","1","0.0","1","null","6","null","6","null","6","1004.76","1","40.167168","18.174857"],
    [1440,"2024-02-29 23:00:00","13","galatina","10.37","1","97.16","1","0.0","1","null","6","null","6","null","6","1004.99","1","40.167168","18.174857"],
    [1441,"2024-03-01 00:00:00","13","galatina","10.26","1","97.16","1","0.0","1","null","6","null","6","null","6","1005.11","1","40.167168","18.174857"],
    [1442,"2024-03-01 01:00:00","13","galatina","10.53","1","97.22","1","0.0","1","null","6","null","6","null","6","1004.83","1","40.167168","18.174857"],
    [1443,"2024-03-01 02:00:00","13","galatina","10.66","1","97.12","1","0.0","1","null","6","null","6","null","6","1004.79","1","40.167168","18.174857"],
    [1444,"2024-03-01 03:00:00","13","galatina","10.67","1","96.99","1","0.0","1","null","6","null","6","null","6","1004.76","1","40.167168","18.174857"],
    [1445,"2024-03-01 04:00:00","13","galatina","10.28","1","97.03","1","0.2","1","null","6","null","6","null","6","1004.72","1","40.167168","18.174857"],
    [1446,"2024-03-01 05:00:00","13","galatina","9.7","1","97.08","1","0.0","1","null","6","null","6","null","6","1004.93","1","40.167168","18.174857"],
    [1447,"2024-03-01 06:00:00","13","galatina","9.23","1","97.61","1","0.0","1","null","6","null","6","null","6","1004.97","1","40.167168","18.174857"],
    [1448,"2024-03-01 07:00:00","13","galatina","8.84","1","97.77","1","0.0","1","null","6","null","6","null","6","1005.21","1","40.167168","18.174857"],
    [1449,"2024-03-01 08:00:00","13","galatina","10.01","1","97.51","1","0.0","1","null","6","null","6","null","6","1005.18","1","40.167168","18.174857"],
    [1450,"2024-03-01 09:00:00","13","galatina","12.91","1","91.19","1","0.0","1","null","6","null","6","null","6","1005.26","1","40.167168","18.174857"],
    [1451,"2024-03-01 10:00:00","13","galatina","14.78","1","78.13","1","0.0","1","null","6","null","6","null","6","1005.2","1","40.167168","18.174857"],
    [1452,"2024-03-01 11:00:00","13","galatina","15.92","1","63.35","1","0.0","1","null","6","null","6","null","6","1005.19","1","40.167168","18.174857"],
    [1453,"2024-03-01 12:00:00","13","galatina","17.31","1","56.04","1","0.0","1","null","6","null","6","null","6","1005.24","1","40.167168","18.174857"],
    [1454,"2024-03-01 13:00:00","13","galatina","17.64","1","50.46","1","0.0","1","null","6","null","6","null","6","1005.02","1","40.167168","18.174857"],
    [1455,"2024-03-01 14:00:00","13","galatina","17.23","1","53.62","1","0.0","1","null","6","null","6","null","6","1004.99","1","40.167168","18.174857"],
    [1456,"2024-03-01 15:00:00","13","galatina","16.92","1","54.94","1","0.0","1","null","6","null","6","null","6","1005.04","1","40.167168","18.174857"],
    [1457,"2024-03-01 16:00:00","13","galatina","17.1","1","52.91","1","0.0","1","null","6","null","6","null","6","1005.03","1","40.167168","18.174857"],
    [1458,"2024-03-01 17:00:00","13","galatina","15.97","1","59.72","1","0.0","1","null","6","null","6","null","6","1005.16","1","40.167168","18.174857"],
    [1459,"2024-03-01 18:00:00","13","galatina","14.25","1","70.93","1","0.0","1","null","6","null","6","null","6","1005.41","1","40.167168","18.174857"],
    [1460,"2024-03-01 19:00:00","13","galatina","12.88","1","80.7","1","0.0","1","null","6","null","6","null","6","1005.64","1","40.167168","18.174857"],
    [1461,"2024-03-01 20:00:00","13","galatina","12.06","1","85.34","1","0.0","1","null","6","null","6","null","6","1005.86","1","40.167168","18.174857"],
    [1462,"2024-03-01 21:00:00","13","galatina","11.36","1","87.93","1","0.0","1","null","6","null","6","null","6","1005.93","1","40.167168","18.174857"],
    [1463,"2024-03-01 22:00:00","13","galatina","10.57","1","91.06","1","0.0","1","null","6","null","6","null","6","1005.99","1","40.167168","18.174857"],
    [1464,"2024-03-01 23:00:00","13","galatina","11.03","1","92.12","1","0.0","1","null","6","null","6","null","6","1006.16","1","40.167168","18.174857"],
    [1465,"2024-03-02 00:00:00","13","galatina","11.07","1","93.34","1","0.0","1","null","6","null","6","null","6","1006.06","1","40.167168","18.174857"],
    [1466,"2024-03-02 01:00:00","13","galatina","11.04","1","93.9","1","0.0","1","null","6","null","6","null","6","1006.04","1","40.167168","18.174857"],
    [1467,"2024-03-02 02:00:00","13","galatina","11.2","1","94.39","1","0.0","1","null","6","null","6","null","6","1006.17","1","40.167168","18.174857"],
    [1468,"2024-03-02 03:00:00","13","galatina","11.28","1","94.15","1","0.0","1","null","6","null","6","null","6","1005.98","1","40.167168","18.174857"],
    [1469,"2024-03-02 04:00:00","13","galatina","11.07","1","94.47","1","0.0","1","null","6","null","6","null","6","1005.9","1","40.167168","18.174857"],
    [1470,"2024-03-02 05:00:00","13","galatina","10.73","1","95.32","1","0.0","1","null","6","null","6","null","6","1005.96","1","40.167168","18.174857"],
    [1471,"2024-03-02 06:00:00","13","galatina","10.39","1","95.67","1","0.0","1","null","6","null","6","null","6","1006.21","1","40.167168","18.174857"],
    [1472,"2024-03-02 07:00:00","13","galatina","9.83","1","95.4","1","0.0","1","null","6","null","6","null","6","1006.6","1","40.167168","18.174857"],
    [1473,"2024-03-02 08:00:00","13","galatina","11.57","1","94.06","1","0.0","1","null","6","null","6","null","6","1007.02","1","40.167168","18.174857"],
    [1474,"2024-03-02 09:00:00","13","galatina","14.82","1","80.77","1","0.0","1","null","6","null","6","null","6","1007.24","1","40.167168","18.174857"],
    [1475,"2024-03-02 10:00:00","13","galatina","15.86","1","67.52","1","0.0","1","null","6","null","6","null","6","1007.54","1","40.167168","18.174857"],
    [1476,"2024-03-02 11:00:00","13","galatina","16.17","1","66.61","1","0.0","1","null","6","null","6","null","6","1007.95","1","40.167168","18.174857"],
    [1477,"2024-03-02 12:00:00","13","galatina","18.29","1","56.32","1","0.0","1","null","6","null","6","null","6","1008.02","1","40.167168","18.174857"],
    [1478,"2024-03-02 13:00:00","13","galatina","18.71","1","54.0","1","0.0","1","null","6","null","6","null","6","1007.79","1","40.167168","18.174857"],
    [1479,"2024-03-02 14:00:00","13","galatina","18.72","1","56.45","1","0.0","1","null","6","null","6","null","6","1007.63","1","40.167168","18.174857"],
    [1480,"2024-03-02 15:00:00","13","galatina","18.95","1","54.65","1","0.0","1","null","6","null","6","null","6","1007.78","1","40.167168","18.174857"],
    [1481,"2024-03-02 16:00:00","13","galatina","18.78","1","48.91","1","0.0","1","null","6","null","6","null","6","1007.75","1","40.167168","18.174857"],
    [1482,"2024-03-02 17:00:00","13","galatina","18.15","1","50.45","1","0.0","1","null","6","null","6","null","6","1007.89","1","40.167168","18.174857"],
    [1483,"2024-03-02 18:00:00","13","galatina","15.37","1","65.23","1","0.0","1","null","6","null","6","null","6","1008.2","1","40.167168","18.174857"],
    [1484,"2024-03-02 19:00:00","13","galatina","12.87","1","76.79","1","0.0","1","null","6","null","6","null","6","1008.64","1","40.167168","18.174857"],
    [1485,"2024-03-02 20:00:00","13","galatina","11.24","1","83.53","1","0.0","1","null","6","null","6","null","6","1008.86","1","40.167168","18.174857"],
    [1486,"2024-03-02 21:00:00","13","galatina","10.51","1","87.76","1","0.0","1","null","6","null","6","null","6","1009.06","1","40.167168","18.174857"],
    [1487,"2024-03-02 22:00:00","13","galatina","9.87","1","91.72","1","0.0","1","null","6","null","6","null","6","1009.28","1","40.167168","18.174857"],
    [1488,"2024-03-02 23:00:00","13","galatina","9.37","1","93.62","1","0.0","1","null","6","null","6","null","6","1009.41","1","40.167168","18.174857"],
    [1489,"2024-03-03 00:00:00","13","galatina","9.61","1","94.81","1","0.0","1","null","6","null","6","null","6","1009.54","1","40.167168","18.174857"],
    [1490,"2024-03-03 01:00:00","13","galatina","9.75","1","95.6","1","0.0","1","null","6","null","6","null","6","1009.63","1","40.167168","18.174857"],
    [1491,"2024-03-03 02:00:00","13","galatina","8.96","1","96.32","1","0.0","1","null","6","null","6","null","6","1009.58","1","40.167168","18.174857"],
    [1492,"2024-03-03 03:00:00","13","galatina","8.42","1","97.0","1","0.0","1","null","6","null","6","null","6","1009.26","1","40.167168","18.174857"],
    [1493,"2024-03-03 04:00:00","13","galatina","9.2","1","97.75","1","0.0","1","null","6","null","6","null","6","1009.04","1","40.167168","18.174857"],
    [1494,"2024-03-03 05:00:00","13","galatina","8.77","1","96.62","1","0.0","1","null","6","null","6","null","6","1009.04","1","40.167168","18.174857"],
    [1495,"2024-03-03 06:00:00","13","galatina","8.13","1","97.23","1","0.0","1","null","6","null","6","null","6","1009.06","1","40.167168","18.174857"],
    [1496,"2024-03-03 07:00:00","13","galatina","7.68","1","97.32","1","0.0","1","null","6","null","6","null","6","1009.12","1","40.167168","18.174857"],
    [1497,"2024-03-03 08:00:00","13","galatina","9.87","1","94.68","1","0.0","1","null","6","null","6","null","6","1009.21","1","40.167168","18.174857"],
    [1498,"2024-03-03 09:00:00","13","galatina","14.7","1","72.15","1","0.0","1","null","6","null","6","null","6","1009.1","1","40.167168","18.174857"],
    [1499,"2024-03-03 10:00:00","13","galatina","15.86","1","53.41","1","0.0","1","null","6","null","6","null","6","1009.05","1","40.167168","18.174857"],
    [1500,"2024-03-03 11:00:00","13","galatina","16.59","1","59.13","1","0.0","1","null","6","null","6","null","6","1009.09","1","40.167168","18.174857"],
    [1501,"2024-03-03 12:00:00","13","galatina","17.64","1","58.09","1","0.0","1","null","6","null","6","null","6","1008.92","1","40.167168","18.174857"],
    [1502,"2024-03-03 13:00:00","13","galatina","18.09","1","56.44","1","0.0","1","null","6","null","6","null","6","1008.51","1","40.167168","18.174857"],
    [1503,"2024-03-03 14:00:00","13","galatina","17.99","1","58.67","1","0.0","1","null","6","null","6","null","6","1008.01","1","40.167168","18.174857"],
    [1504,"2024-03-03 15:00:00","13","galatina","18.07","1","53.53","1","0.0","1","null","6","null","6","null","6","1007.67","1","40.167168","18.174857"],
    [1505,"2024-03-03 16:00:00","13","galatina","17.37","1","55.6","1","0.0","1","null","6","null","6","null","6","1007.49","1","40.167168","18.174857"],
    [1506,"2024-03-03 17:00:00","13","galatina","15.97","1","59.64","1","0.0","1","null","6","null","6","null","6","1007.45","1","40.167168","18.174857"],
    [1507,"2024-03-03 18:00:00","13","galatina","13.99","1","74.66","1","0.0","1","null","6","null","6","null","6","1007.49","1","40.167168","18.174857"],
    [1508,"2024-03-03 19:00:00","13","galatina","12.85","1","81.71","1","0.0","1","null","6","null","6","null","6","1007.57","1","40.167168","18.174857"],
    [1509,"2024-03-03 20:00:00","13","galatina","12.07","1","82.88","1","0.0","1","null","6","null","6","null","6","1007.68","1","40.167168","18.174857"],
    [1510,"2024-03-03 21:00:00","13","galatina","11.89","1","82.96","1","0.0","1","null","6","null","6","null","6","1007.6","1","40.167168","18.174857"],
    [1511,"2024-03-03 22:00:00","13","galatina","11.35","1","85.44","1","0.0","1","null","6","null","6","null","6","1007.48","1","40.167168","18.174857"],
    [1512,"2024-03-03 23:00:00","13","galatina","11.89","1","86.01","1","0.0","1","null","6","null","6","null","6","1007.21","1","40.167168","18.174857"],
    [1513,"2024-03-04 00:00:00","13","galatina","12.62","1","85.25","1","0.0","1","null","6","null","6","null","6","1007.12","1","40.167168","18.174857"],
    [1514,"2024-03-04 01:00:00","13","galatina","12.94","1","85.53","1","0.0","1","null","6","null","6","null","6","1006.74","1","40.167168","18.174857"],
    [1515,"2024-03-04 02:00:00","13","galatina","13.33","1","84.29","1","0.0","1","null","6","null","6","null","6","1006.55","1","40.167168","18.174857"],
    [1516,"2024-03-04 03:00:00","13","galatina","13.44","1","82.61","1","0.0","1","null","6","null","6","null","6","1006.18","1","40.167168","18.174857"],
    [1517,"2024-03-04 04:00:00","13","galatina","13.31","1","83.5","1","0.0","1","null","6","null","6","null","6","1005.73","1","40.167168","18.174857"],
    [1518,"2024-03-04 05:00:00","13","galatina","13.16","1","84.77","1","0.0","1","null","6","null","6","null","6","1005.57","1","40.167168","18.174857"],
    [1519,"2024-03-04 06:00:00","13","galatina","13.32","1","84.73","1","0.0","1","null","6","null","6","null","6","1005.51","1","40.167168","18.174857"],
    [1520,"2024-03-04 07:00:00","13","galatina","13.61","1","82.75","1","0.0","1","null","6","null","6","null","6","1005.34","1","40.167168","18.174857"],
    [1521,"2024-03-04 08:00:00","13","galatina","13.95","1","80.16","1","0.0","1","null","6","null","6","null","6","1004.9","1","40.167168","18.174857"],
    [1522,"2024-03-04 09:00:00","13","galatina","14.28","1","81.67","1","0.0","1","null","6","null","6","null","6","1004.54","1","40.167168","18.174857"],
    [1523,"2024-03-04 10:00:00","13","galatina","14.44","1","79.43","1","0.0","1","null","6","null","6","null","6","1004.05","1","40.167168","18.174857"],
    [1524,"2024-03-04 11:00:00","13","galatina","14.11","1","80.1","1","1.4","1","null","6","null","6","null","6","1003.92","1","40.167168","18.174857"],
    [1525,"2024-03-04 12:00:00","13","galatina","9.32","1","91.31","1","11.4","1","null","6","null","6","null","6","1004.07","1","40.167168","18.174857"],
    [1526,"2024-03-04 13:00:00","13","galatina","8.92","1","96.08","1","1.0","1","null","6","null","6","null","6","1003.6","1","40.167168","18.174857"],
    [1527,"2024-03-04 14:00:00","13","galatina","9.58","1","97.07","1","1.8","1","null","6","null","6","null","6","1003.66","1","40.167168","18.174857"],
    [1528,"2024-03-04 15:00:00","13","galatina","9.82","1","97.08","1","1.0","1","null","6","null","6","null","6","1003.5","1","40.167168","18.174857"],
    [1529,"2024-03-04 16:00:00","13","galatina","9.78","1","93.81","1","0.0","1","null","6","null","6","null","6","1003.24","1","40.167168","18.174857"],
    [1530,"2024-03-04 17:00:00","13","galatina","11.91","1","80.64","1","0.0","1","null","6","null","6","null","6","1003.28","1","40.167168","18.174857"],
    [1531,"2024-03-04 18:00:00","13","galatina","11.17","1","78.06","1","0.0","1","null","6","null","6","null","6","1003.49","1","40.167168","18.174857"],
    [1532,"2024-03-04 19:00:00","13","galatina","8.68","1","87.47","1","0.0","1","null","6","null","6","null","6","1003.91","1","40.167168","18.174857"],
    [1533,"2024-03-04 20:00:00","13","galatina","7.43","1","92.85","1","0.0","1","null","6","null","6","null","6","1004.19","1","40.167168","18.174857"],
    [1534,"2024-03-04 21:00:00","13","galatina","6.59","1","94.88","1","0.0","1","null","6","null","6","null","6","1003.97","1","40.167168","18.174857"],
    [1535,"2024-03-04 22:00:00","13","galatina","6.2","1","96.21","1","0.0","1","null","6","null","6","null","6","1003.97","1","40.167168","18.174857"],
    [1536,"2024-03-04 23:00:00","13","galatina","5.5","1","97.19","1","0.0","1","null","6","null","6","null","6","1004.16","1","40.167168","18.174857"],
    [1537,"2024-03-05 00:00:00","13","galatina","5.37","1","97.73","1","0.0","1","null","6","null","6","null","6","1004.31","1","40.167168","18.174857"],
    [1538,"2024-03-05 01:00:00","13","galatina","5.79","1","97.67","1","0.0","1","null","6","null","6","null","6","1004.42","1","40.167168","18.174857"],
    [1539,"2024-03-05 02:00:00","13","galatina","6.94","1","97.72","1","0.0","1","null","6","null","6","null","6","1004.56","1","40.167168","18.174857"],
    [1540,"2024-03-05 03:00:00","13","galatina","8.05","1","97.07","1","0.0","1","null","6","null","6","null","6","1004.62","1","40.167168","18.174857"],
    [1541,"2024-03-05 04:00:00","13","galatina","8.04","1","93.29","1","0.4","1","null","6","null","6","null","6","1004.46","1","40.167168","18.174857"],
    [1542,"2024-03-05 05:00:00","13","galatina","6.95","1","92.44","1","0.0","1","null","6","null","6","null","6","1004.58","1","40.167168","18.174857"],
    [1543,"2024-03-05 06:00:00","13","galatina","6.31","1","94.14","1","0.0","1","null","6","null","6","null","6","1004.87","1","40.167168","18.174857"],
    [1544,"2024-03-05 07:00:00","13","galatina","5.25","1","95.3","1","0.0","1","null","6","null","6","null","6","1005.07","1","40.167168","18.174857"],
    [1545,"2024-03-05 08:00:00","13","galatina","6.08","1","96.64","1","0.0","1","null","6","null","6","null","6","1005.45","1","40.167168","18.174857"],
    [1546,"2024-03-05 09:00:00","13","galatina","9.43","1","88.64","1","0.0","1","null","6","null","6","null","6","1005.85","1","40.167168","18.174857"],
    [1547,"2024-03-05 10:00:00","13","galatina","11.72","1","85.88","1","0.0","1","null","6","null","6","null","6","1006.08","1","40.167168","18.174857"],
    [1548,"2024-03-05 11:00:00","13","galatina","13.85","1","75.24","1","0.0","1","null","6","null","6","null","6","1006.33","1","40.167168","18.174857"],
    [1549,"2024-03-05 12:00:00","13","galatina","14.81","1","65.51","1","0.0","1","null","6","null","6","null","6","1006.64","1","40.167168","18.174857"],
    [1550,"2024-03-05 13:00:00","13","galatina","15.3","1","62.15","1","0.0","1","null","6","null","6","null","6","1006.57","1","40.167168","18.174857"],
    [1551,"2024-03-05 14:00:00","13","galatina","13.14","1","78.66","1","0.6","1","null","6","null","6","null","6","1006.75","1","40.167168","18.174857"],
    [1552,"2024-03-05 15:00:00","13","galatina","12.47","1","80.67","1","0.0","1","null","6","null","6","null","6","1007.03","1","40.167168","18.174857"],
    [1553,"2024-03-05 16:00:00","13","galatina","12.5","1","80.31","1","0.0","1","null","6","null","6","null","6","1007.22","1","40.167168","18.174857"],
    [1554,"2024-03-05 17:00:00","13","galatina","13.41","1","75.45","1","0.0","1","null","6","null","6","null","6","1007.51","1","40.167168","18.174857"],
    [1555,"2024-03-05 18:00:00","13","galatina","12.87","1","74.88","1","0.0","1","null","6","null","6","null","6","1007.99","1","40.167168","18.174857"],
    [1556,"2024-03-05 19:00:00","13","galatina","11.4","1","80.69","1","0.0","1","null","6","null","6","null","6","1008.57","1","40.167168","18.174857"],
    [1557,"2024-03-05 20:00:00","13","galatina","10.41","1","86.21","1","0.0","1","null","6","null","6","null","6","1008.77","1","40.167168","18.174857"],
    [1558,"2024-03-05 21:00:00","13","galatina","10.37","1","87.97","1","0.0","1","null","6","null","6","null","6","1009.05","1","40.167168","18.174857"],
    [1559,"2024-03-05 22:00:00","13","galatina","8.94","1","91.51","1","0.0","1","null","6","null","6","null","6","1009.33","1","40.167168","18.174857"],
    [1560,"2024-03-05 23:00:00","13","galatina","9.62","1","93.73","1","0.0","1","null","6","null","6","null","6","1009.51","1","40.167168","18.174857"],
    [1561,"2024-03-06 00:00:00","13","galatina","9.48","1","93.05","1","0.2","1","null","6","null","6","null","6","1009.69","1","40.167168","18.174857"],
    [1562,"2024-03-06 01:00:00","13","galatina","9.59","1","93.77","1","0.0","1","null","6","null","6","null","6","1009.91","1","40.167168","18.174857"],
    [1563,"2024-03-06 02:00:00","13","galatina","9.05","1","94.33","1","0.0","1","null","6","null","6","null","6","1009.99","1","40.167168","18.174857"],
    [1564,"2024-03-06 03:00:00","13","galatina","7.17","1","95.79","1","0.0","1","null","6","null","6","null","6","1010.09","1","40.167168","18.174857"],
    [1565,"2024-03-06 04:00:00","13","galatina","6.66","1","96.96","1","0.0","1","null","6","null","6","null","6","1010.11","1","40.167168","18.174857"],
    [1566,"2024-03-06 05:00:00","13","galatina","6.22","1","97.65","1","0.0","1","null","6","null","6","null","6","1010.26","1","40.167168","18.174857"],
    [1567,"2024-03-06 06:00:00","13","galatina","5.9","1","97.99","1","0.0","1","null","6","null","6","null","6","1010.41","1","40.167168","18.174857"],
    [1568,"2024-03-06 07:00:00","13","galatina","5.77","1","98.22","1","0.0","1","null","6","null","6","null","6","1010.54","1","40.167168","18.174857"],
    [1569,"2024-03-06 08:00:00","13","galatina","8.0","1","97.3","1","0.0","1","null","6","null","6","null","6","1010.68","1","40.167168","18.174857"],
    [1570,"2024-03-06 09:00:00","13","galatina","12.89","1","92.18","1","0.0","1","null","6","null","6","null","6","1010.73","1","40.167168","18.174857"],
    [1571,"2024-03-06 10:00:00","13","galatina","14.95","1","72.83","1","0.0","1","null","6","null","6","null","6","1010.85","1","40.167168","18.174857"],
    [1572,"2024-03-06 11:00:00","13","galatina","16.0","1","60.53","1","0.0","1","null","6","null","6","null","6","1011.1","1","40.167168","18.174857"],
    [1573,"2024-03-06 12:00:00","13","galatina","17.5","1","52.56","1","0.0","1","null","6","null","6","null","6","1011.22","1","40.167168","18.174857"],
    [1574,"2024-03-06 13:00:00","13","galatina","18.04","1","51.01","1","0.0","1","null","6","null","6","null","6","1010.99","1","40.167168","18.174857"],
    [1575,"2024-03-06 14:00:00","13","galatina","19.29","1","47.24","1","0.0","1","null","6","null","6","null","6","1010.53","1","40.167168","18.174857"],
    [1576,"2024-03-06 15:00:00","13","galatina","19.55","1","46.41","1","0.0","1","null","6","null","6","null","6","1010.26","1","40.167168","18.174857"],
    [1577,"2024-03-06 16:00:00","13","galatina","18.08","1","56.24","1","0.0","1","null","6","null","6","null","6","1010.22","1","40.167168","18.174857"],
    [1578,"2024-03-06 17:00:00","13","galatina","16.92","1","62.67","1","0.0","1","null","6","null","6","null","6","1010.29","1","40.167168","18.174857"],
    [1579,"2024-03-06 18:00:00","13","galatina","15.21","1","64.35","1","0.0","1","null","6","null","6","null","6","1010.45","1","40.167168","18.174857"],
    [1580,"2024-03-06 19:00:00","13","galatina","13.84","1","67.63","1","0.0","1","null","6","null","6","null","6","1010.59","1","40.167168","18.174857"],
    [1581,"2024-03-06 20:00:00","13","galatina","13.15","1","74.55","1","0.0","1","null","6","null","6","null","6","1010.78","1","40.167168","18.174857"],
    [1582,"2024-03-06 21:00:00","13","galatina","13.18","1","67.13","1","0.0","1","null","6","null","6","null","6","1011.01","1","40.167168","18.174857"],
    [1583,"2024-03-06 22:00:00","13","galatina","12.81","1","65.8","1","0.0","1","null","6","null","6","null","6","1011.36","1","40.167168","18.174857"],
    [1584,"2024-03-06 23:00:00","13","galatina","11.76","1","66.16","1","0.0","1","null","6","null","6","null","6","1011.51","1","40.167168","18.174857"],
    [1585,"2024-03-07 00:00:00","13","galatina","12.07","1","56.03","1","0.0","1","null","6","null","6","null","6","1011.46","1","40.167168","18.174857"],
    [1586,"2024-03-07 01:00:00","13","galatina","10.97","1","56.59","1","0.0","1","null","6","null","6","null","6","1011.39","1","40.167168","18.174857"],
    [1587,"2024-03-07 02:00:00","13","galatina","10.71","1","62.03","1","0.0","1","null","6","null","6","null","6","1011.35","1","40.167168","18.174857"],
    [1588,"2024-03-07 03:00:00","13","galatina","10.75","1","65.87","1","0.0","1","null","6","null","6","null","6","1011.34","1","40.167168","18.174857"],
    [1589,"2024-03-07 04:00:00","13","galatina","10.39","1","69.86","1","0.0","1","null","6","null","6","null","6","1011.05","1","40.167168","18.174857"],
    [1590,"2024-03-07 05:00:00","13","galatina","10.42","1","69.64","1","0.0","1","null","6","null","6","null","6","1010.76","1","40.167168","18.174857"],
    [1591,"2024-03-07 06:00:00","13","galatina","10.16","1","74.36","1","0.0","1","null","6","null","6","null","6","1010.68","1","40.167168","18.174857"],
    [1592,"2024-03-07 07:00:00","13","galatina","10.63","1","70.37","1","0.0","1","null","6","null","6","null","6","1010.73","1","40.167168","18.174857"],
    [1593,"2024-03-07 08:00:00","13","galatina","11.31","1","71.64","1","0.2","1","null","6","null","6","null","6","1010.88","1","40.167168","18.174857"],
    [1594,"2024-03-07 09:00:00","13","galatina","12.19","1","71.94","1","0.0","1","null","6","null","6","null","6","1010.99","1","40.167168","18.174857"],
    [1595,"2024-03-07 10:00:00","13","galatina","13.82","1","63.85","1","0.0","1","null","6","null","6","null","6","1011.07","1","40.167168","18.174857"],
    [1596,"2024-03-07 11:00:00","13","galatina","15.01","1","55.83","1","0.0","1","null","6","null","6","null","6","1011.04","1","40.167168","18.174857"],
    [1597,"2024-03-07 12:00:00","13","galatina","16.79","1","52.74","1","0.0","1","null","6","null","6","null","6","1010.76","1","40.167168","18.174857"],
    [1598,"2024-03-07 13:00:00","13","galatina","16.99","1","43.44","1","0.0","1","null","6","null","6","null","6","1010.32","1","40.167168","18.174857"],
    [1599,"2024-03-07 14:00:00","13","galatina","17.48","1","39.57","1","0.0","1","null","6","null","6","null","6","1009.99","1","40.167168","18.174857"],
    [1600,"2024-03-07 15:00:00","13","galatina","17.33","1","40.08","1","0.0","1","null","6","null","6","null","6","1009.79","1","40.167168","18.174857"],
    [1601,"2024-03-07 16:00:00","13","galatina","16.66","1","42.65","1","0.0","1","null","6","null","6","null","6","1009.85","1","40.167168","18.174857"],
    [1602,"2024-03-07 17:00:00","13","galatina","15.45","1","54.42","1","0.0","1","null","6","null","6","null","6","1010.02","1","40.167168","18.174857"],
    [1603,"2024-03-07 18:00:00","13","galatina","11.26","1","71.8","1","0.8","1","null","6","null","6","null","6","1010.37","1","40.167168","18.174857"],
    [1604,"2024-03-07 19:00:00","13","galatina","10.15","1","76.79","1","0.0","1","null","6","null","6","null","6","1010.68","1","40.167168","18.174857"],
    [1605,"2024-03-07 20:00:00","13","galatina","9.63","1","78.88","1","0.0","1","null","6","null","6","null","6","1010.97","1","40.167168","18.174857"],
    [1606,"2024-03-07 21:00:00","13","galatina","9.24","1","83.91","1","0.0","1","null","6","null","6","null","6","1011.15","1","40.167168","18.174857"],
    [1607,"2024-03-07 22:00:00","13","galatina","8.18","1","89.19","1","0.0","1","null","6","null","6","null","6","1011.37","1","40.167168","18.174857"],
    [1608,"2024-03-07 23:00:00","13","galatina","8.03","1","89.21","1","0.0","1","null","6","null","6","null","6","1011.48","1","40.167168","18.174857"],
    [1609,"2024-03-08 00:00:00","13","galatina","7.06","1","90.71","1","0.0","1","null","6","null","6","null","6","1011.38","1","40.167168","18.174857"],
    [1610,"2024-03-08 01:00:00","13","galatina","6.12","1","92.39","1","0.0","1","null","6","null","6","null","6","1011.54","1","40.167168","18.174857"],
    [1611,"2024-03-08 02:00:00","13","galatina","6.03","1","94.54","1","0.0","1","null","6","null","6","null","6","1011.68","1","40.167168","18.174857"],
    [1612,"2024-03-08 03:00:00","13","galatina","5.42","1","94.84","1","0.0","1","null","6","null","6","null","6","1011.45","1","40.167168","18.174857"],
    [1613,"2024-03-08 04:00:00","13","galatina","4.59","1","95.48","1","0.0","1","null","6","null","6","null","6","1011.35","1","40.167168","18.174857"],
    [1614,"2024-03-08 05:00:00","13","galatina","4.65","1","96.18","1","0.2","1","null","6","null","6","null","6","1011.4","1","40.167168","18.174857"],
    [1615,"2024-03-08 06:00:00","13","galatina","4.48","1","96.59","1","0.0","1","null","6","null","6","null","6","1011.5","1","40.167168","18.174857"],
    [1616,"2024-03-08 07:00:00","13","galatina","4.62","1","96.16","1","0.0","1","null","6","null","6","null","6","1011.64","1","40.167168","18.174857"],
    [1617,"2024-03-08 08:00:00","13","galatina","8.75","1","90.91","1","0.0","1","null","6","null","6","null","6","1011.79","1","40.167168","18.174857"],
    [1618,"2024-03-08 09:00:00","13","galatina","13.44","1","68.15","1","0.0","1","null","6","null","6","null","6","1011.7","1","40.167168","18.174857"],
    [1619,"2024-03-08 10:00:00","13","galatina","13.47","1","63.2","1","0.0","1","null","6","null","6","null","6","1011.7","1","40.167168","18.174857"],
    [1620,"2024-03-08 11:00:00","13","galatina","14.64","1","55.65","1","0.0","1","null","6","null","6","null","6","1011.8","1","40.167168","18.174857"],
    [1621,"2024-03-08 12:00:00","13","galatina","16.92","1","48.11","1","0.0","1","null","6","null","6","null","6","1011.86","1","40.167168","18.174857"],
    [1622,"2024-03-08 13:00:00","13","galatina","17.31","1","45.25","1","0.0","1","null","6","null","6","null","6","1011.58","1","40.167168","18.174857"],
    [1623,"2024-03-08 14:00:00","13","galatina","18.03","1","43.87","1","0.0","1","null","6","null","6","null","6","1011.21","1","40.167168","18.174857"],
    [1624,"2024-03-08 15:00:00","13","galatina","17.65","1","45.55","1","0.0","1","null","6","null","6","null","6","1011.1","1","40.167168","18.174857"],
    [1625,"2024-03-08 16:00:00","13","galatina","16.63","1","47.4","1","0.0","1","null","6","null","6","null","6","1011.05","1","40.167168","18.174857"],
    [1626,"2024-03-08 17:00:00","13","galatina","15.02","1","52.86","1","0.0","1","null","6","null","6","null","6","1011.07","1","40.167168","18.174857"],
    [1627,"2024-03-08 18:00:00","13","galatina","13.05","1","60.61","1","0.0","1","null","6","null","6","null","6","1011.27","1","40.167168","18.174857"],
    [1628,"2024-03-08 19:00:00","13","galatina","10.74","1","72.17","1","0.0","1","null","6","null","6","null","6","1011.54","1","40.167168","18.174857"],
    [1629,"2024-03-08 20:00:00","13","galatina","9.71","1","77.71","1","0.0","1","null","6","null","6","null","6","1011.72","1","40.167168","18.174857"],
    [1630,"2024-03-08 21:00:00","13","galatina","9.15","1","80.67","1","0.0","1","null","6","null","6","null","6","1011.77","1","40.167168","18.174857"],
    [1631,"2024-03-08 22:00:00","13","galatina","9.03","1","81.71","1","0.0","1","null","6","null","6","null","6","1011.91","1","40.167168","18.174857"],
    [1632,"2024-03-08 23:00:00","13","galatina","9.16","1","82.48","1","0.0","1","null","6","null","6","null","6","1011.9","1","40.167168","18.174857"],
    [1633,"2024-03-09 00:00:00","13","galatina","8.87","1","83.72","1","0.0","1","null","6","null","6","null","6","1011.65","1","40.167168","18.174857"],
    [1634,"2024-03-09 01:00:00","13","galatina","8.75","1","85.65","1","0.0","1","null","6","null","6","null","6","1011.41","1","40.167168","18.174857"],
    [1635,"2024-03-09 02:00:00","13","galatina","9.17","1","85.88","1","0.0","1","null","6","null","6","null","6","1011.15","1","40.167168","18.174857"],
    [1636,"2024-03-09 03:00:00","13","galatina","9.55","1","87.25","1","0.0","1","null","6","null","6","null","6","1010.93","1","40.167168","18.174857"],
    [1637,"2024-03-09 04:00:00","13","galatina","10.31","1","87.33","1","0.0","1","null","6","null","6","null","6","1010.61","1","40.167168","18.174857"],
    [1638,"2024-03-09 05:00:00","13","galatina","11.21","1","85.97","1","0.2","1","null","6","null","6","null","6","1010.57","1","40.167168","18.174857"],
    [1639,"2024-03-09 06:00:00","13","galatina","11.5","1","87.38","1","0.4","1","null","6","null","6","null","6","1010.56","1","40.167168","18.174857"],
    [1640,"2024-03-09 07:00:00","13","galatina","11.37","1","91.63","1","0.4","1","null","6","null","6","null","6","1010.35","1","40.167168","18.174857"],
    [1641,"2024-03-09 08:00:00","13","galatina","11.74","1","93.39","1","2.2","1","null","6","null","6","null","6","1010.53","1","40.167168","18.174857"],
    [1642,"2024-03-09 09:00:00","13","galatina","12.16","1","95.71","1","0.2","1","null","6","null","6","null","6","1010.6","1","40.167168","18.174857"],
    [1643,"2024-03-09 10:00:00","13","galatina","13.3","1","95.42","1","0.0","1","null","6","null","6","null","6","1010.7","1","40.167168","18.174857"],
    [1644,"2024-03-09 11:00:00","13","galatina","15.1","1","88.94","1","0.0","1","null","6","null","6","null","6","1010.67","1","40.167168","18.174857"],
    [1645,"2024-03-09 12:00:00","13","galatina","15.96","1","79.48","1","0.0","1","null","6","null","6","null","6","1010.56","1","40.167168","18.174857"],
    [1646,"2024-03-09 13:00:00","13","galatina","16.09","1","77.56","1","0.0","1","null","6","null","6","null","6","1010.47","1","40.167168","18.174857"],
    [1647,"2024-03-09 14:00:00","13","galatina","15.61","1","81.59","1","0.0","1","null","6","null","6","null","6","1010.19","1","40.167168","18.174857"],
    [1648,"2024-03-09 15:00:00","13","galatina","16.86","1","74.28","1","0.0","1","null","6","null","6","null","6","1010.07","1","40.167168","18.174857"],
    [1649,"2024-03-09 16:00:00","13","galatina","16.29","1","75.15","1","0.0","1","null","6","null","6","null","6","1009.91","1","40.167168","18.174857"],
    [1650,"2024-03-09 17:00:00","13","galatina","15.62","1","78.02","1","0.0","1","null","6","null","6","null","6","1009.58","1","40.167168","18.174857"],
    [1651,"2024-03-09 18:00:00","13","galatina","14.79","1","81.66","1","0.0","1","null","6","null","6","null","6","1009.75","1","40.167168","18.174857"],
    [1652,"2024-03-09 19:00:00","13","galatina","14.03","1","86.6","1","0.0","1","null","6","null","6","null","6","1010.03","1","40.167168","18.174857"],
    [1653,"2024-03-09 20:00:00","13","galatina","13.87","1","87.57","1","0.0","1","null","6","null","6","null","6","1010.28","1","40.167168","18.174857"],
    [1654,"2024-03-09 21:00:00","13","galatina","13.77","1","87.38","1","0.0","1","null","6","null","6","null","6","1010.48","1","40.167168","18.174857"],
    [1655,"2024-03-09 22:00:00","13","galatina","14.04","1","84.65","1","0.0","1","null","6","null","6","null","6","1010.7","1","40.167168","18.174857"],
    [1656,"2024-03-09 23:00:00","13","galatina","14.06","1","85.85","1","0.0","1","null","6","null","6","null","6","1010.49","1","40.167168","18.174857"],
    [1657,"2024-03-10 00:00:00","13","galatina","13.76","1","86.78","1","0.0","1","null","6","null","6","null","6","1010.32","1","40.167168","18.174857"],
    [1658,"2024-03-10 01:00:00","13","galatina","13.62","1","85.7","1","0.0","1","null","6","null","6","null","6","1010.32","1","40.167168","18.174857"],
    [1659,"2024-03-10 02:00:00","13","galatina","13.77","1","85.36","1","0.0","1","null","6","null","6","null","6","1010.15","1","40.167168","18.174857"],
    [1660,"2024-03-10 03:00:00","13","galatina","13.76","1","84.65","1","0.0","1","null","6","null","6","null","6","1009.88","1","40.167168","18.174857"],
    [1661,"2024-03-10 04:00:00","13","galatina","13.73","1","84.08","1","0.0","1","null","6","null","6","null","6","1009.75","1","40.167168","18.174857"],
    [1662,"2024-03-10 05:00:00","13","galatina","13.6","1","84.85","1","0.0","1","null","6","null","6","null","6","1009.7","1","40.167168","18.174857"],
    [1663,"2024-03-10 06:00:00","13","galatina","13.54","1","84.3","1","0.0","1","null","6","null","6","null","6","1009.79","1","40.167168","18.174857"],
    [1664,"2024-03-10 07:00:00","13","galatina","13.6","1","83.62","1","0.0","1","null","6","null","6","null","6","1009.77","1","40.167168","18.174857"],
    [1665,"2024-03-10 08:00:00","13","galatina","14.26","1","81.31","1","0.0","1","null","6","null","6","null","6","1009.92","1","40.167168","18.174857"],
    [1666,"2024-03-10 09:00:00","13","galatina","15.71","1","75.7","1","0.0","1","null","6","null","6","null","6","1010.09","1","40.167168","18.174857"],
    [1667,"2024-03-10 10:00:00","13","galatina","16.33","1","68.89","1","0.0","1","null","6","null","6","null","6","1010.18","1","40.167168","18.174857"],
    [1668,"2024-03-10 11:00:00","13","galatina","16.85","1","63.84","1","0.0","1","null","6","null","6","null","6","1010.03","1","40.167168","18.174857"],
    [1669,"2024-03-10 12:00:00","13","galatina","17.12","1","62.94","1","0.0","1","null","6","null","6","null","6","1009.91","1","40.167168","18.174857"],
    [1670,"2024-03-10 13:00:00","13","galatina","17.15","1","64.0","1","0.0","1","null","6","null","6","null","6","1009.68","1","40.167168","18.174857"],
    [1671,"2024-03-10 14:00:00","13","galatina","16.26","1","68.92","1","0.0","1","null","6","null","6","null","6","1009.29","1","40.167168","18.174857"],
    [1672,"2024-03-10 15:00:00","13","galatina","16.1","1","72.1","1","0.0","1","null","6","null","6","null","6","1009.03","1","40.167168","18.174857"],
    [1673,"2024-03-10 16:00:00","13","galatina","16.0","1","72.85","1","0.0","1","null","6","null","6","null","6","1008.52","1","40.167168","18.174857"],
    [1674,"2024-03-10 17:00:00","13","galatina","15.33","1","76.63","1","0.0","1","null","6","null","6","null","6","1008.34","1","40.167168","18.174857"],
    [1675,"2024-03-10 18:00:00","13","galatina","14.71","1","79.26","1","0.0","1","null","6","null","6","null","6","1008.24","1","40.167168","18.174857"],
    [1676,"2024-03-10 19:00:00","13","galatina","14.37","1","81.1","1","0.0","1","null","6","null","6","null","6","1008.1","1","40.167168","18.174857"],
    [1677,"2024-03-10 20:00:00","13","galatina","14.35","1","81.65","1","0.0","1","null","6","null","6","null","6","1007.7","1","40.167168","18.174857"],
    [1678,"2024-03-10 21:00:00","13","galatina","14.4","1","81.43","1","0.0","1","null","6","null","6","null","6","1007.59","1","40.167168","18.174857"],
    [1679,"2024-03-10 22:00:00","13","galatina","14.27","1","80.59","1","0.0","1","null","6","null","6","null","6","1007.66","1","40.167168","18.174857"],
    [1680,"2024-03-10 23:00:00","13","galatina","14.31","1","79.88","1","0.0","1","null","6","null","6","null","6","1008.01","1","40.167168","18.174857"],
    [1681,"2024-03-11 00:00:00","13","galatina","14.21","1","80.83","1","0.0","1","null","6","null","6","null","6","1007.5","1","40.167168","18.174857"],
    [1682,"2024-03-11 01:00:00","13","galatina","14.11","1","83.19","1","0.0","1","null","6","null","6","null","6","1006.78","1","40.167168","18.174857"],
    [1683,"2024-03-11 02:00:00","13","galatina","13.99","1","83.61","1","0.0","1","null","6","null","6","null","6","1006.17","1","40.167168","18.174857"],
    [1684,"2024-03-11 03:00:00","13","galatina","13.93","1","83.27","1","0.0","1","null","6","null","6","null","6","1005.69","1","40.167168","18.174857"],
    [1685,"2024-03-11 04:00:00","13","galatina","14.1","1","80.42","1","0.0","1","null","6","null","6","null","6","1005.87","1","40.167168","18.174857"],
    [1686,"2024-03-11 05:00:00","13","galatina","14.29","1","80.43","1","0.0","1","null","6","null","6","null","6","1005.81","1","40.167168","18.174857"],
    [1687,"2024-03-11 06:00:00","13","galatina","14.41","1","81.22","1","0.0","1","null","6","null","6","null","6","1005.46","1","40.167168","18.174857"],
    [1688,"2024-03-11 07:00:00","13","galatina","14.56","1","82.14","1","0.0","1","null","6","null","6","null","6","1004.67","1","40.167168","18.174857"],
    [1689,"2024-03-11 08:00:00","13","galatina","14.79","1","83.14","1","0.0","1","null","6","null","6","null","6","1004.61","1","40.167168","18.174857"],
    [1690,"2024-03-11 09:00:00","13","galatina","14.77","1","84.92","1","0.0","1","null","6","null","6","null","6","1004.5","1","40.167168","18.174857"],
    [1691,"2024-03-11 10:00:00","13","galatina","15.19","1","83.57","1","0.0","1","null","6","null","6","null","6","1004.51","1","40.167168","18.174857"],
    [1692,"2024-03-11 11:00:00","13","galatina","15.1","1","85.43","1","0.0","1","null","6","null","6","null","6","1004.55","1","40.167168","18.174857"],
    [1693,"2024-03-11 12:00:00","13","galatina","15.15","1","88.37","1","3.2","1","null","6","null","6","null","6","1004.63","1","40.167168","18.174857"],
    [1694,"2024-03-11 13:00:00","13","galatina","13.18","1","92.36","1","3.8","1","null","6","null","6","null","6","1004.71","1","40.167168","18.174857"],
    [1695,"2024-03-11 14:00:00","13","galatina","16.63","1","77.46","1","0.0","1","null","6","null","6","null","6","1004.39","1","40.167168","18.174857"],
    [1696,"2024-03-11 15:00:00","13","galatina","18.17","1","62.92","1","0.0","1","null","6","null","6","null","6","1004.51","1","40.167168","18.174857"],
    [1697,"2024-03-11 16:00:00","13","galatina","18.36","1","56.09","1","0.0","1","null","6","null","6","null","6","1004.73","1","40.167168","18.174857"],
    [1698,"2024-03-11 17:00:00","13","galatina","17.87","1","56.4","1","0.0","1","null","6","null","6","null","6","1004.95","1","40.167168","18.174857"],
    [1699,"2024-03-11 18:00:00","13","galatina","15.22","1","66.64","1","0.0","1","null","6","null","6","null","6","1005.36","1","40.167168","18.174857"],
    [1700,"2024-03-11 19:00:00","13","galatina","13.97","1","72.18","1","0.0","1","null","6","null","6","null","6","1005.79","1","40.167168","18.174857"],
    [1701,"2024-03-11 20:00:00","13","galatina","13.77","1","74.33","1","0.0","1","null","6","null","6","null","6","1006.38","1","40.167168","18.174857"],
    [1702,"2024-03-11 21:00:00","13","galatina","13.65","1","70.94","1","0.0","1","null","6","null","6","null","6","1006.65","1","40.167168","18.174857"],
    [1703,"2024-03-11 22:00:00","13","galatina","13.32","1","71.07","1","0.0","1","null","6","null","6","null","6","1006.83","1","40.167168","18.174857"],
    [1704,"2024-03-11 23:00:00","13","galatina","13.2","1","73.22","1","0.0","1","null","6","null","6","null","6","1007.1","1","40.167168","18.174857"],
    [1705,"2024-03-12 00:00:00","13","galatina","12.58","1","76.81","1","0.0","1","null","6","null","6","null","6","1007.03","1","40.167168","18.174857"],
    [1706,"2024-03-12 01:00:00","13","galatina","11.54","1","81.02","1","0.0","1","null","6","null","6","null","6","1006.96","1","40.167168","18.174857"],
    [1707,"2024-03-12 02:00:00","13","galatina","11.66","1","80.97","1","0.0","1","null","6","null","6","null","6","1006.93","1","40.167168","18.174857"],
    [1708,"2024-03-12 03:00:00","13","galatina","12.29","1","72.83","1","0.0","1","null","6","null","6","null","6","1006.81","1","40.167168","18.174857"],
    [1709,"2024-03-12 04:00:00","13","galatina","11.95","1","74.27","1","0.0","1","null","6","null","6","null","6","1006.58","1","40.167168","18.174857"],
    [1710,"2024-03-12 05:00:00","13","galatina","10.88","1","81.26","1","0.0","1","null","6","null","6","null","6","1006.48","1","40.167168","18.174857"],
    [1711,"2024-03-12 06:00:00","13","galatina","10.71","1","79.83","1","0.0","1","null","6","null","6","null","6","1006.16","1","40.167168","18.174857"],
    [1712,"2024-03-12 07:00:00","13","galatina","10.68","1","76.14","1","0.0","1","null","6","null","6","null","6","1006.71","1","40.167168","18.174857"],
    [1713,"2024-03-12 08:00:00","13","galatina","13.64","1","68.72","1","0.0","1","null","6","null","6","null","6","1007.24","1","40.167168","18.174857"],
    [1714,"2024-03-12 09:00:00","13","galatina","14.63","1","64.89","1","0.0","1","null","6","null","6","null","6","1007.3","1","40.167168","18.174857"],
    [1715,"2024-03-12 10:00:00","13","galatina","15.46","1","56.86","1","0.0","1","null","6","null","6","null","6","1007.42","1","40.167168","18.174857"],
    [1716,"2024-03-12 11:00:00","13","galatina","16.27","1","56.14","1","0.0","1","null","6","null","6","null","6","1007.59","1","40.167168","18.174857"],
    [1717,"2024-03-12 12:00:00","13","galatina","17.34","1","50.86","1","0.0","1","null","6","null","6","null","6","1007.78","1","40.167168","18.174857"],
    [1718,"2024-03-12 13:00:00","13","galatina","16.12","1","55.82","1","0.0","1","null","6","null","6","null","6","1007.9","1","40.167168","18.174857"],
    [1719,"2024-03-12 14:00:00","13","galatina","16.54","1","57.1","1","0.0","1","null","6","null","6","null","6","1007.47","1","40.167168","18.174857"],
    [1720,"2024-03-12 15:00:00","13","galatina","17.45","1","53.28","1","0.0","1","null","6","null","6","null","6","1007.26","1","40.167168","18.174857"],
    [1721,"2024-03-12 16:00:00","13","galatina","16.06","1","60.43","1","0.0","1","null","6","null","6","null","6","1007.42","1","40.167168","18.174857"],
    [1722,"2024-03-12 17:00:00","13","galatina","14.43","1","58.87","1","0.0","1","null","6","null","6","null","6","1007.62","1","40.167168","18.174857"],
    [1723,"2024-03-12 18:00:00","13","galatina","13.59","1","64.53","1","0.0","1","null","6","null","6","null","6","1007.72","1","40.167168","18.174857"],
    [1724,"2024-03-12 19:00:00","13","galatina","11.95","1","67.36","1","0.0","1","null","6","null","6","null","6","1007.89","1","40.167168","18.174857"],
    [1725,"2024-03-12 20:00:00","13","galatina","11.21","1","72.93","1","0.0","1","null","6","null","6","null","6","1008.4","1","40.167168","18.174857"],
    [1726,"2024-03-12 21:00:00","13","galatina","10.86","1","75.34","1","0.0","1","null","6","null","6","null","6","1008.84","1","40.167168","18.174857"],
    [1727,"2024-03-12 22:00:00","13","galatina","10.49","1","79.31","1","0.0","1","null","6","null","6","null","6","1008.99","1","40.167168","18.174857"],
    [1728,"2024-03-12 23:00:00","13","galatina","10.32","1","81.01","1","0.0","1","null","6","null","6","null","6","1009.13","1","40.167168","18.174857"],
    [1729,"2024-03-13 00:00:00","13","galatina","9.63","1","83.28","1","0.0","1","null","6","null","6","null","6","1009.26","1","40.167168","18.174857"],
    [1730,"2024-03-13 01:00:00","13","galatina","9.63","1","85.07","1","0.0","1","null","6","null","6","null","6","1009.35","1","40.167168","18.174857"],
    [1731,"2024-03-13 02:00:00","13","galatina","10.0","1","81.77","1","0.0","1","null","6","null","6","null","6","1009.2","1","40.167168","18.174857"],
    [1732,"2024-03-13 03:00:00","13","galatina","9.44","1","81.22","1","0.0","1","null","6","null","6","null","6","1009.06","1","40.167168","18.174857"],
    [1733,"2024-03-13 04:00:00","13","galatina","8.67","1","84.75","1","0.0","1","null","6","null","6","null","6","1008.97","1","40.167168","18.174857"],
    [1734,"2024-03-13 05:00:00","13","galatina","9.13","1","81.04","1","0.0","1","null","6","null","6","null","6","1008.96","1","40.167168","18.174857"],
    [1735,"2024-03-13 06:00:00","13","galatina","8.39","1","83.48","1","0.0","1","null","6","null","6","null","6","1008.98","1","40.167168","18.174857"],
    [1736,"2024-03-13 07:00:00","13","galatina","9.04","1","81.45","1","0.0","1","null","6","null","6","null","6","1009.09","1","40.167168","18.174857"],
    [1737,"2024-03-13 08:00:00","13","galatina","11.02","1","77.75","1","0.0","1","null","6","null","6","null","6","1009.11","1","40.167168","18.174857"],
    [1738,"2024-03-13 09:00:00","13","galatina","13.3","1","71.58","1","0.0","1","null","6","null","6","null","6","1009.16","1","40.167168","18.174857"],
    [1739,"2024-03-13 10:00:00","13","galatina","14.42","1","70.64","1","0.0","1","null","6","null","6","null","6","1009.42","1","40.167168","18.174857"],
    [1740,"2024-03-13 11:00:00","13","galatina","13.69","1","73.52","1","0.6","1","null","6","null","6","null","6","1009.94","1","40.167168","18.174857"],
    [1741,"2024-03-13 12:00:00","13","galatina","12.35","1","83.0","1","0.4","1","null","6","null","6","null","6","1010.35","1","40.167168","18.174857"],
    [1742,"2024-03-13 13:00:00","13","galatina","14.37","1","73.71","1","0.0","1","null","6","null","6","null","6","1010.04","1","40.167168","18.174857"],
    [1743,"2024-03-13 14:00:00","13","galatina","15.9","1","63.56","1","0.0","1","null","6","null","6","null","6","1009.69","1","40.167168","18.174857"],
    [1744,"2024-03-13 15:00:00","13","galatina","16.35","1","60.25","1","0.0","1","null","6","null","6","null","6","1009.63","1","40.167168","18.174857"],
    [1745,"2024-03-13 16:00:00","13","galatina","16.67","1","53.52","1","0.0","1","null","6","null","6","null","6","1009.66","1","40.167168","18.174857"],
    [1746,"2024-03-13 17:00:00","13","galatina","16.22","1","50.89","1","0.0","1","null","6","null","6","null","6","1009.72","1","40.167168","18.174857"],
    [1747,"2024-03-13 18:00:00","13","galatina","13.96","1","61.54","1","0.0","1","null","6","null","6","null","6","1010.02","1","40.167168","18.174857"],
    [1748,"2024-03-13 19:00:00","13","galatina","12.4","1","69.31","1","0.0","1","null","6","null","6","null","6","1010.28","1","40.167168","18.174857"],
    [1749,"2024-03-13 20:00:00","13","galatina","11.93","1","72.36","1","0.0","1","null","6","null","6","null","6","1010.57","1","40.167168","18.174857"],
    [1750,"2024-03-13 21:00:00","13","galatina","11.33","1","76.32","1","0.0","1","null","6","null","6","null","6","1010.8","1","40.167168","18.174857"],
    [1751,"2024-03-13 22:00:00","13","galatina","11.1","1","78.4","1","0.0","1","null","6","null","6","null","6","1011.03","1","40.167168","18.174857"],
    [1752,"2024-03-13 23:00:00","13","galatina","10.95","1","79.22","1","0.0","1","null","6","null","6","null","6","1010.95","1","40.167168","18.174857"],
    [1753,"2024-03-14 00:00:00","13","galatina","9.47","1","84.69","1","0.0","1","null","6","null","6","null","6","1010.96","1","40.167168","18.174857"],
    [1754,"2024-03-14 01:00:00","13","galatina","8.83","1","86.95","1","0.0","1","null","6","null","6","null","6","1011.08","1","40.167168","18.174857"],
    [1755,"2024-03-14 02:00:00","13","galatina","8.33","1","88.54","1","0.0","1","null","6","null","6","null","6","1011.05","1","40.167168","18.174857"],
    [1756,"2024-03-14 03:00:00","13","galatina","8.46","1","90.2","1","0.0","1","null","6","null","6","null","6","1010.81","1","40.167168","18.174857"],
    [1757,"2024-03-14 04:00:00","13","galatina","8.94","1","91.51","1","0.0","1","null","6","null","6","null","6","1010.77","1","40.167168","18.174857"],
    [1758,"2024-03-14 05:00:00","13","galatina","9.32","1","89.85","1","0.0","1","null","6","null","6","null","6","1010.78","1","40.167168","18.174857"],
    [1759,"2024-03-14 06:00:00","13","galatina","9.09","1","88.54","1","0.0","1","null","6","null","6","null","6","1011.09","1","40.167168","18.174857"],
    [1760,"2024-03-14 07:00:00","13","galatina","9.08","1","86.72","1","0.0","1","null","6","null","6","null","6","1011.47","1","40.167168","18.174857"],
    [1761,"2024-03-14 08:00:00","13","galatina","10.84","1","80.28","1","0.0","1","null","6","null","6","null","6","1011.77","1","40.167168","18.174857"],
    [1762,"2024-03-14 09:00:00","13","galatina","13.62","1","73.63","1","0.0","1","null","6","null","6","null","6","1011.76","1","40.167168","18.174857"],
    [1763,"2024-03-14 10:00:00","13","galatina","14.99","1","68.12","1","0.0","1","null","6","null","6","null","6","1011.75","1","40.167168","18.174857"],
    [1764,"2024-03-14 11:00:00","13","galatina","16.58","1","58.03","1","0.0","1","null","6","null","6","null","6","1011.83","1","40.167168","18.174857"],
    [1765,"2024-03-14 12:00:00","13","galatina","17.85","1","45.03","1","0.0","1","null","6","null","6","null","6","1011.81","1","40.167168","18.174857"],
    [1766,"2024-03-14 13:00:00","13","galatina","17.93","1","44.35","1","0.0","1","null","6","null","6","null","6","1011.63","1","40.167168","18.174857"],
    [1767,"2024-03-14 14:00:00","13","galatina","18.18","1","40.78","1","0.0","1","null","6","null","6","null","6","1011.36","1","40.167168","18.174857"],
    [1768,"2024-03-14 15:00:00","13","galatina","18.81","1","39.01","1","0.0","1","null","6","null","6","null","6","1011.34","1","40.167168","18.174857"],
    [1769,"2024-03-14 16:00:00","13","galatina","18.51","1","39.92","1","0.0","1","null","6","null","6","null","6","1011.32","1","40.167168","18.174857"],
    [1770,"2024-03-14 17:00:00","13","galatina","17.67","1","47.1","1","0.0","1","null","6","null","6","null","6","1011.42","1","40.167168","18.174857"],
    [1771,"2024-03-14 18:00:00","13","galatina","15.51","1","53.04","1","0.0","1","null","6","null","6","null","6","1011.55","1","40.167168","18.174857"],
    [1772,"2024-03-14 19:00:00","13","galatina","12.9","1","64.4","1","0.0","1","null","6","null","6","null","6","1011.84","1","40.167168","18.174857"],
    [1773,"2024-03-14 20:00:00","13","galatina","11.52","1","70.51","1","0.0","1","null","6","null","6","null","6","1012.17","1","40.167168","18.174857"],
    [1774,"2024-03-14 21:00:00","13","galatina","10.73","1","75.83","1","0.0","1","null","6","null","6","null","6","1012.41","1","40.167168","18.174857"],
    [1775,"2024-03-14 22:00:00","13","galatina","9.74","1","80.47","1","0.0","1","null","6","null","6","null","6","1012.59","1","40.167168","18.174857"],
    [1776,"2024-03-14 23:00:00","13","galatina","8.19","1","86.59","1","0.0","1","null","6","null","6","null","6","1012.53","1","40.167168","18.174857"],
    [1777,"2024-03-15 00:00:00","13","galatina","7.36","1","90.28","1","0.0","1","null","6","null","6","null","6","1012.47","1","40.167168","18.174857"],
    [1778,"2024-03-15 01:00:00","13","galatina","6.44","1","90.4","1","0.0","1","null","6","null","6","null","6","1012.48","1","40.167168","18.174857"],
    [1779,"2024-03-15 02:00:00","13","galatina","5.74","1","92.33","1","0.0","1","null","6","null","6","null","6","1012.46","1","40.167168","18.174857"],
    [1780,"2024-03-15 03:00:00","13","galatina","5.24","1","94.06","1","0.0","1","null","6","null","6","null","6","1012.28","1","40.167168","18.174857"],
    [1781,"2024-03-15 04:00:00","13","galatina","4.74","1","94.75","1","0.0","1","null","6","null","6","null","6","1012.22","1","40.167168","18.174857"],
    [1782,"2024-03-15 05:00:00","13","galatina","4.33","1","95.28","1","0.0","1","null","6","null","6","null","6","1012.17","1","40.167168","18.174857"],
    [1783,"2024-03-15 06:00:00","13","galatina","3.82","1","95.61","1","0.0","1","null","6","null","6","null","6","1012.22","1","40.167168","18.174857"],
    [1784,"2024-03-15 07:00:00","13","galatina","4.37","1","95.45","1","0.0","1","null","6","null","6","null","6","1012.5","1","40.167168","18.174857"],
    [1785,"2024-03-15 08:00:00","13","galatina","10.33","1","83.02","1","0.0","1","null","6","null","6","null","6","1012.5","1","40.167168","18.174857"],
    [1786,"2024-03-15 09:00:00","13","galatina","15.05","1","54.38","1","0.0","1","null","6","null","6","null","6","1012.42","1","40.167168","18.174857"],
    [1787,"2024-03-15 10:00:00","13","galatina","16.02","1","45.15","1","0.0","1","null","6","null","6","null","6","1012.66","1","40.167168","18.174857"],
    [1788,"2024-03-15 11:00:00","13","galatina","17.28","1","38.86","1","0.0","1","null","6","null","6","null","6","1012.74","1","40.167168","18.174857"],
    [1789,"2024-03-15 12:00:00","13","galatina","19.63","1","32.49","1","0.0","1","null","6","null","6","null","6","1012.65","1","40.167168","18.174857"],
    [1790,"2024-03-15 13:00:00","13","galatina","20.11","1","32.32","1","0.0","1","null","6","null","6","null","6","1012.36","1","40.167168","18.174857"],
    [1791,"2024-03-15 14:00:00","13","galatina","20.75","1","33.25","1","0.0","1","null","6","null","6","null","6","1012.01","1","40.167168","18.174857"],
    [1792,"2024-03-15 15:00:00","13","galatina","20.34","1","38.4","1","0.0","1","null","6","null","6","null","6","1011.88","1","40.167168","18.174857"],
    [1793,"2024-03-15 16:00:00","13","galatina","20.45","1","39.42","1","0.0","1","null","6","null","6","null","6","1011.85","1","40.167168","18.174857"],
    [1794,"2024-03-15 17:00:00","13","galatina","19.68","1","42.34","1","0.0","1","null","6","null","6","null","6","1011.84","1","40.167168","18.174857"],
    [1795,"2024-03-15 18:00:00","13","galatina","17.45","1","45.99","1","0.0","1","null","6","null","6","null","6","1011.95","1","40.167168","18.174857"],
    [1796,"2024-03-15 19:00:00","13","galatina","13.75","1","63.84","1","0.0","1","null","6","null","6","null","6","1012.2","1","40.167168","18.174857"],
    [1797,"2024-03-15 20:00:00","13","galatina","12.96","1","69.12","1","0.0","1","null","6","null","6","null","6","1012.48","1","40.167168","18.174857"],
    [1798,"2024-03-15 21:00:00","13","galatina","12.73","1","73.82","1","0.0","1","null","6","null","6","null","6","1012.7","1","40.167168","18.174857"],
    [1799,"2024-03-15 22:00:00","13","galatina","11.75","1","80.01","1","0.0","1","null","6","null","6","null","6","1012.9","1","40.167168","18.174857"],
    [1800,"2024-03-15 23:00:00","13","galatina","10.43","1","85.41","1","0.0","1","null","6","null","6","null","6","1012.85","1","40.167168","18.174857"],
    [1801,"2024-03-16 00:00:00","13","galatina","9.53","1","89.42","1","0.0","1","null","6","null","6","null","6","1013.0","1","40.167168","18.174857"],
    [1802,"2024-03-16 01:00:00","13","galatina","9.32","1","91.29","1","0.0","1","null","6","null","6","null","6","1013.05","1","40.167168","18.174857"],
    [1803,"2024-03-16 02:00:00","13","galatina","8.69","1","92.43","1","0.0","1","null","6","null","6","null","6","1012.93","1","40.167168","18.174857"],
    [1804,"2024-03-16 03:00:00","13","galatina","8.84","1","93.74","1","0.0","1","null","6","null","6","null","6","1012.77","1","40.167168","18.174857"],
    [1805,"2024-03-16 04:00:00","13","galatina","9.14","1","94.84","1","0.0","1","null","6","null","6","null","6","1012.67","1","40.167168","18.174857"],
    [1806,"2024-03-16 05:00:00","13","galatina","8.77","1","95.69","1","0.0","1","null","6","null","6","null","6","1012.77","1","40.167168","18.174857"],
    [1807,"2024-03-16 06:00:00","13","galatina","7.88","1","96.25","1","0.0","1","null","6","null","6","null","6","1012.85","1","40.167168","18.174857"],
    [1808,"2024-03-16 07:00:00","13","galatina","7.5","1","96.44","1","0.0","1","null","6","null","6","null","6","1012.94","1","40.167168","18.174857"],
    [1809,"2024-03-16 08:00:00","13","galatina","10.85","1","94.58","1","0.0","1","null","6","null","6","null","6","1013.06","1","40.167168","18.174857"],
    [1810,"2024-03-16 09:00:00","13","galatina","15.11","1","72.12","1","0.0","1","null","6","null","6","null","6","1013.07","1","40.167168","18.174857"],
    [1811,"2024-03-16 10:00:00","13","galatina","16.5","1","68.69","1","0.0","1","null","6","null","6","null","6","1013.04","1","40.167168","18.174857"],
    [1812,"2024-03-16 11:00:00","13","galatina","17.9","1","62.23","1","0.0","1","null","6","null","6","null","6","1013.04","1","40.167168","18.174857"],
    [1813,"2024-03-16 12:00:00","13","galatina","18.22","1","61.75","1","0.0","1","null","6","null","6","null","6","1013.04","1","40.167168","18.174857"],
    [1814,"2024-03-16 13:00:00","13","galatina","19.5","1","55.79","1","0.0","1","null","6","null","6","null","6","1012.76","1","40.167168","18.174857"],
    [1815,"2024-03-16 14:00:00","13","galatina","20.42","1","51.87","1","0.0","1","null","6","null","6","null","6","1012.21","1","40.167168","18.174857"],
    [1816,"2024-03-16 15:00:00","13","galatina","19.99","1","51.16","1","0.0","1","null","6","null","6","null","6","1011.85","1","40.167168","18.174857"],
    [1817,"2024-03-16 16:00:00","13","galatina","18.88","1","60.24","1","0.0","1","null","6","null","6","null","6","1011.69","1","40.167168","18.174857"],
    [1818,"2024-03-16 17:00:00","13","galatina","15.61","1","72.41","1","0.0","1","null","6","null","6","null","6","1011.91","1","40.167168","18.174857"],
    [1819,"2024-03-16 18:00:00","13","galatina","14.36","1","81.03","1","0.0","1","null","6","null","6","null","6","1012.2","1","40.167168","18.174857"],
    [1820,"2024-03-16 19:00:00","13","galatina","14.01","1","86.61","1","0.0","1","null","6","null","6","null","6","1012.42","1","40.167168","18.174857"],
    [1821,"2024-03-16 20:00:00","13","galatina","13.74","1","85.75","1","0.0","1","null","6","null","6","null","6","1012.67","1","40.167168","18.174857"],
    [1822,"2024-03-16 21:00:00","13","galatina","13.54","1","85.04","1","0.0","1","null","6","null","6","null","6","1012.96","1","40.167168","18.174857"],
    [1823,"2024-03-16 22:00:00","13","galatina","13.56","1","85.55","1","0.0","1","null","6","null","6","null","6","1013.21","1","40.167168","18.174857"],
    [1824,"2024-03-16 23:00:00","13","galatina","12.68","1","80.51","1","0.0","1","null","6","null","6","null","6","1013.32","1","40.167168","18.174857"],
    [1825,"2024-03-17 00:00:00","13","galatina","12.27","1","80.99","1","0.0","1","null","6","null","6","null","6","1013.12","1","40.167168","18.174857"],
    [1826,"2024-03-17 01:00:00","13","galatina","11.75","1","83.64","1","0.0","1","null","6","null","6","null","6","1013.17","1","40.167168","18.174857"],
    [1827,"2024-03-17 02:00:00","13","galatina","11.2","1","86.01","1","0.0","1","null","6","null","6","null","6","1013.24","1","40.167168","18.174857"],
    [1828,"2024-03-17 03:00:00","13","galatina","11.21","1","86.59","1","0.0","1","null","6","null","6","null","6","1013.14","1","40.167168","18.174857"],
    [1829,"2024-03-17 04:00:00","13","galatina","11.37","1","84.69","1","0.0","1","null","6","null","6","null","6","1012.96","1","40.167168","18.174857"],
    [1830,"2024-03-17 05:00:00","13","galatina","11.4","1","86.55","1","0.0","1","null","6","null","6","null","6","1012.84","1","40.167168","18.174857"],
    [1831,"2024-03-17 06:00:00","13","galatina","11.44","1","90.46","1","0.0","1","null","6","null","6","null","6","1013.18","1","40.167168","18.174857"],
    [1832,"2024-03-17 07:00:00","13","galatina","11.84","1","92.51","1","0.0","1","null","6","null","6","null","6","1013.45","1","40.167168","18.174857"],
    [1833,"2024-03-17 08:00:00","13","galatina","13.24","1","89.57","1","0.0","1","null","6","null","6","null","6","1013.61","1","40.167168","18.174857"],
    [1834,"2024-03-17 09:00:00","13","galatina","14.45","1","85.75","1","0.8","1","null","6","null","6","null","6","1013.9","1","40.167168","18.174857"],
    [1835,"2024-03-17 10:00:00","13","galatina","14.18","1","87.32","1","0.0","1","null","6","null","6","null","6","1013.98","1","40.167168","18.174857"],
    [1836,"2024-03-17 11:00:00","13","galatina","16.4","1","70.99","1","0.0","1","null","6","null","6","null","6","1014.03","1","40.167168","18.174857"],
    [1837,"2024-03-17 12:00:00","13","galatina","17.21","1","67.39","1","0.0","1","null","6","null","6","null","6","1014.08","1","40.167168","18.174857"],
    [1838,"2024-03-17 13:00:00","13","galatina","18.29","1","61.82","1","0.0","1","null","6","null","6","null","6","1014.03","1","40.167168","18.174857"],
    [1839,"2024-03-17 14:00:00","13","galatina","18.64","1","60.55","1","0.0","1","null","6","null","6","null","6","1013.68","1","40.167168","18.174857"],
    [1840,"2024-03-17 15:00:00","13","galatina","18.63","1","59.66","1","0.0","1","null","6","null","6","null","6","1013.18","1","40.167168","18.174857"],
    [1841,"2024-03-17 16:00:00","13","galatina","18.98","1","57.23","1","0.0","1","null","6","null","6","null","6","1012.86","1","40.167168","18.174857"],
    [1842,"2024-03-17 17:00:00","13","galatina","17.93","1","60.27","1","0.0","1","null","6","null","6","null","6","1012.72","1","40.167168","18.174857"],
    [1843,"2024-03-17 18:00:00","13","galatina","16.0","1","67.5","1","0.0","1","null","6","null","6","null","6","1013.06","1","40.167168","18.174857"],
    [1844,"2024-03-17 19:00:00","13","galatina","13.82","1","77.5","1","0.0","1","null","6","null","6","null","6","1013.47","1","40.167168","18.174857"],
    [1845,"2024-03-17 20:00:00","13","galatina","12.84","1","85.12","1","0.0","1","null","6","null","6","null","6","1013.83","1","40.167168","18.174857"],
    [1846,"2024-03-17 21:00:00","13","galatina","12.42","1","89.22","1","0.0","1","null","6","null","6","null","6","1014.03","1","40.167168","18.174857"],
    [1847,"2024-03-17 22:00:00","13","galatina","11.46","1","91.61","1","0.0","1","null","6","null","6","null","6","1013.94","1","40.167168","18.174857"],
    [1848,"2024-03-17 23:00:00","13","galatina","10.61","1","93.91","1","0.0","1","null","6","null","6","null","6","1013.84","1","40.167168","18.174857"],
    [1849,"2024-03-18 00:00:00","13","galatina","10.8","1","95.38","1","0.0","1","null","6","null","6","null","6","1013.73","1","40.167168","18.174857"],
    [1850,"2024-03-18 01:00:00","13","galatina","11.55","1","95.59","1","0.0","1","null","6","null","6","null","6","1013.59","1","40.167168","18.174857"],
    [1851,"2024-03-18 02:00:00","13","galatina","11.33","1","95.61","1","0.0","1","null","6","null","6","null","6","1013.23","1","40.167168","18.174857"],
    [1852,"2024-03-18 03:00:00","13","galatina","10.85","1","96.05","1","0.0","1","null","6","null","6","null","6","1012.88","1","40.167168","18.174857"],
    [1853,"2024-03-18 04:00:00","13","galatina","11.34","1","95.72","1","0.2","1","null","6","null","6","null","6","1012.63","1","40.167168","18.174857"],
    [1854,"2024-03-18 05:00:00","13","galatina","10.37","1","93.79","1","0.0","1","null","6","null","6","null","6","1012.4","1","40.167168","18.174857"],
    [1855,"2024-03-18 06:00:00","13","galatina","8.95","1","94.16","1","0.0","1","null","6","null","6","null","6","1012.32","1","40.167168","18.174857"],
    [1856,"2024-03-18 07:00:00","13","galatina","9.01","1","95.25","1","0.0","1","null","6","null","6","null","6","1012.33","1","40.167168","18.174857"],
    [1857,"2024-03-18 08:00:00","13","galatina","13.5","1","80.97","1","0.0","1","null","6","null","6","null","6","1012.36","1","40.167168","18.174857"],
    [1858,"2024-03-18 09:00:00","13","galatina","16.31","1","67.11","1","0.0","1","null","6","null","6","null","6","1012.03","1","40.167168","18.174857"],
    [1859,"2024-03-18 10:00:00","13","galatina","17.72","1","54.43","1","0.0","1","null","6","null","6","null","6","1011.73","1","40.167168","18.174857"],
    [1860,"2024-03-18 11:00:00","13","galatina","18.87","1","49.43","1","0.0","1","null","6","null","6","null","6","1011.43","1","40.167168","18.174857"],
    [1861,"2024-03-18 12:00:00","13","galatina","20.33","1","47.27","1","0.0","1","null","6","null","6","null","6","1011.14","1","40.167168","18.174857"],
    [1862,"2024-03-18 13:00:00","13","galatina","20.33","1","45.39","1","0.0","1","null","6","null","6","null","6","1010.64","1","40.167168","18.174857"],
    [1863,"2024-03-18 14:00:00","13","galatina","20.94","1","44.53","1","0.0","1","null","6","null","6","null","6","1009.87","1","40.167168","18.174857"],
    [1864,"2024-03-18 15:00:00","13","galatina","20.34","1","49.42","1","0.0","1","null","6","null","6","null","6","1009.42","1","40.167168","18.174857"],
    [1865,"2024-03-18 16:00:00","13","galatina","19.61","1","52.12","1","0.0","1","null","6","null","6","null","6","1009.18","1","40.167168","18.174857"],
    [1866,"2024-03-18 17:00:00","13","galatina","17.85","1","54.8","1","0.0","1","null","6","null","6","null","6","1009.01","1","40.167168","18.174857"],
    [1867,"2024-03-18 18:00:00","13","galatina","16.55","1","58.65","1","0.0","1","null","6","null","6","null","6","1008.83","1","40.167168","18.174857"],
    [1868,"2024-03-18 19:00:00","13","galatina","15.44","1","65.06","1","0.0","1","null","6","null","6","null","6","1008.96","1","40.167168","18.174857"],
    [1869,"2024-03-18 20:00:00","13","galatina","14.86","1","73.04","1","0.0","1","null","6","null","6","null","6","1009.07","1","40.167168","18.174857"],
    [1870,"2024-03-18 21:00:00","13","galatina","14.92","1","82.19","1","0.0","1","null","6","null","6","null","6","1009.24","1","40.167168","18.174857"],
    [1871,"2024-03-18 22:00:00","13","galatina","14.49","1","86.12","1","0.0","1","null","6","null","6","null","6","1009.13","1","40.167168","18.174857"],
    [1872,"2024-03-18 23:00:00","13","galatina","14.31","1","87.48","1","0.0","1","null","6","null","6","null","6","1008.87","1","40.167168","18.174857"],
    [1873,"2024-03-19 00:00:00","13","galatina","13.98","1","90.13","1","0.2","1","null","6","null","6","null","6","1008.38","1","40.167168","18.174857"],
    [1874,"2024-03-19 01:00:00","13","galatina","13.58","1","90.28","1","0.2","1","null","6","null","6","null","6","1008.19","1","40.167168","18.174857"],
    [1875,"2024-03-19 02:00:00","13","galatina","13.11","1","90.54","1","0.8","1","null","6","null","6","null","6","1008.23","1","40.167168","18.174857"],
    [1876,"2024-03-19 03:00:00","13","galatina","12.32","1","92.55","1","0.4","1","null","6","null","6","null","6","1007.78","1","40.167168","18.174857"],
    [1877,"2024-03-19 04:00:00","13","galatina","12.02","1","93.88","1","1.0","1","null","6","null","6","null","6","1007.57","1","40.167168","18.174857"],
    [1878,"2024-03-19 05:00:00","13","galatina","11.72","1","94.83","1","0.2","1","null","6","null","6","null","6","1007.27","1","40.167168","18.174857"],
    [1879,"2024-03-19 06:00:00","13","galatina","11.73","1","95.56","1","0.4","1","null","6","null","6","null","6","1007.23","1","40.167168","18.174857"],
    [1880,"2024-03-19 07:00:00","13","galatina","11.78","1","96.35","1","0.2","1","null","6","null","6","null","6","1007.31","1","40.167168","18.174857"],
    [1881,"2024-03-19 08:00:00","13","galatina","12.13","1","96.47","1","0.2","1","null","6","null","6","null","6","1007.58","1","40.167168","18.174857"],
    [1882,"2024-03-19 09:00:00","13","galatina","13.14","1","94.56","1","0.0","1","null","6","null","6","null","6","1007.82","1","40.167168","18.174857"],
    [1883,"2024-03-19 10:00:00","13","galatina","13.88","1","89.73","1","0.0","1","null","6","null","6","null","6","1007.92","1","40.167168","18.174857"],
    [1884,"2024-03-19 11:00:00","13","galatina","15.11","1","79.98","1","0.0","1","null","6","null","6","null","6","1007.89","1","40.167168","18.174857"],
    [1885,"2024-03-19 12:00:00","13","galatina","15.72","1","73.56","1","0.0","1","null","6","null","6","null","6","1007.96","1","40.167168","18.174857"],
    [1886,"2024-03-19 13:00:00","13","galatina","15.77","1","72.43","1","0.0","1","null","6","null","6","null","6","1008.02","1","40.167168","18.174857"],
    [1887,"2024-03-19 14:00:00","13","galatina","16.39","1","70.28","1","0.0","1","null","6","null","6","null","6","1007.85","1","40.167168","18.174857"],
    [1888,"2024-03-19 15:00:00","13","galatina","15.78","1","70.74","1","0.0","1","null","6","null","6","null","6","1008.07","1","40.167168","18.174857"],
    [1889,"2024-03-19 16:00:00","13","galatina","15.22","1","68.66","1","0.0","1","null","6","null","6","null","6","1008.47","1","40.167168","18.174857"],
    [1890,"2024-03-19 17:00:00","13","galatina","15.22","1","66.68","1","0.0","1","null","6","null","6","null","6","1008.63","1","40.167168","18.174857"],
    [1891,"2024-03-19 18:00:00","13","galatina","14.42","1","70.89","1","0.0","1","null","6","null","6","null","6","1009.04","1","40.167168","18.174857"],
    [1892,"2024-03-19 19:00:00","13","galatina","12.93","1","78.62","1","0.0","1","null","6","null","6","null","6","1009.5","1","40.167168","18.174857"],
    [1893,"2024-03-19 20:00:00","13","galatina","12.32","1","83.24","1","0.0","1","null","6","null","6","null","6","1010.09","1","40.167168","18.174857"],
    [1894,"2024-03-19 21:00:00","13","galatina","11.8","1","86.5","1","0.0","1","null","6","null","6","null","6","1010.45","1","40.167168","18.174857"],
    [1895,"2024-03-19 22:00:00","13","galatina","11.21","1","89.01","1","0.0","1","null","6","null","6","null","6","1010.6","1","40.167168","18.174857"],
    [1896,"2024-03-19 23:00:00","13","galatina","10.76","1","92.03","1","0.0","1","null","6","null","6","null","6","1010.57","1","40.167168","18.174857"],
    [1897,"2024-03-20 00:00:00","13","galatina","11.04","1","89.73","1","0.2","1","null","6","null","6","null","6","1010.51","1","40.167168","18.174857"],
    [1898,"2024-03-20 01:00:00","13","galatina","11.55","1","85.55","1","0.0","1","null","6","null","6","null","6","1010.58","1","40.167168","18.174857"],
    [1899,"2024-03-20 02:00:00","13","galatina","11.3","1","87.06","1","0.0","1","null","6","null","6","null","6","1010.62","1","40.167168","18.174857"],
    [1900,"2024-03-20 03:00:00","13","galatina","10.43","1","87.06","1","0.0","1","null","6","null","6","null","6","1010.6","1","40.167168","18.174857"],
    [1901,"2024-03-20 04:00:00","13","galatina","9.65","1","78.42","1","0.0","1","null","6","null","6","null","6","1010.81","1","40.167168","18.174857"],
    [1902,"2024-03-20 05:00:00","13","galatina","9.36","1","70.61","1","0.0","1","null","6","null","6","null","6","1011.22","1","40.167168","18.174857"],
    [1903,"2024-03-20 06:00:00","13","galatina","8.4","1","70.44","1","0.0","1","null","6","null","6","null","6","1011.59","1","40.167168","18.174857"],
    [1904,"2024-03-20 07:00:00","13","galatina","8.97","1","67.13","1","0.0","1","null","6","null","6","null","6","1012.05","1","40.167168","18.174857"],
    [1905,"2024-03-20 08:00:00","13","galatina","12.32","1","56.78","1","0.0","1","null","6","null","6","null","6","1012.25","1","40.167168","18.174857"],
    [1906,"2024-03-20 09:00:00","13","galatina","14.14","1","50.12","1","0.0","1","null","6","null","6","null","6","1012.46","1","40.167168","18.174857"],
    [1907,"2024-03-20 10:00:00","13","galatina","14.33","1","46.62","1","0.0","1","null","6","null","6","null","6","1012.89","1","40.167168","18.174857"],
    [1908,"2024-03-20 11:00:00","13","galatina","14.94","1","44.37","1","0.0","1","null","6","null","6","null","6","1013.23","1","40.167168","18.174857"],
    [1909,"2024-03-20 12:00:00","13","galatina","15.97","1","40.07","1","0.0","1","null","6","null","6","null","6","1013.54","1","40.167168","18.174857"],
    [1910,"2024-03-20 13:00:00","13","galatina","16.32","1","35.7","1","0.0","1","null","6","null","6","null","6","1013.48","1","40.167168","18.174857"],
    [1911,"2024-03-20 14:00:00","13","galatina","16.69","1","35.01","1","0.0","1","null","6","null","6","null","6","1013.51","1","40.167168","18.174857"],
    [1912,"2024-03-20 15:00:00","13","galatina","16.68","1","34.86","1","0.0","1","null","6","null","6","null","6","1013.66","1","40.167168","18.174857"],
    [1913,"2024-03-20 16:00:00","13","galatina","16.3","1","34.04","1","0.0","1","null","6","null","6","null","6","1013.68","1","40.167168","18.174857"],
    [1914,"2024-03-20 17:00:00","13","galatina","15.66","1","34.66","1","0.0","1","null","6","null","6","null","6","1013.79","1","40.167168","18.174857"],
    [1915,"2024-03-20 18:00:00","13","galatina","14.07","1","44.73","1","0.0","1","null","6","null","6","null","6","1014.13","1","40.167168","18.174857"],
    [1916,"2024-03-20 19:00:00","13","galatina","11.75","1","55.64","1","0.0","1","null","6","null","6","null","6","1014.49","1","40.167168","18.174857"],
    [1917,"2024-03-20 20:00:00","13","galatina","10.83","1","62.43","1","0.0","1","null","6","null","6","null","6","1014.89","1","40.167168","18.174857"],
    [1918,"2024-03-20 21:00:00","13","galatina","10.08","1","66.36","1","0.0","1","null","6","null","6","null","6","1015.18","1","40.167168","18.174857"],
    [1919,"2024-03-20 22:00:00","13","galatina","9.46","1","69.4","1","0.0","1","null","6","null","6","null","6","1015.4","1","40.167168","18.174857"],
    [1920,"2024-03-20 23:00:00","13","galatina","9.28","1","72.74","1","0.0","1","null","6","null","6","null","6","1015.56","1","40.167168","18.174857"],
    [1921,"2024-03-21 00:00:00","13","galatina","9.4","1","73.73","1","0.0","1","null","6","null","6","null","6","1015.68","1","40.167168","18.174857"],
    [1922,"2024-03-21 01:00:00","13","galatina","9.14","1","75.91","1","0.0","1","null","6","null","6","null","6","1015.69","1","40.167168","18.174857"],
    [1923,"2024-03-21 02:00:00","13","galatina","9.04","1","77.96","1","0.0","1","null","6","null","6","null","6","1015.73","1","40.167168","18.174857"],
    [1924,"2024-03-21 03:00:00","13","galatina","7.72","1","82.95","1","0.0","1","null","6","null","6","null","6","1015.63","1","40.167168","18.174857"],
    [1925,"2024-03-21 04:00:00","13","galatina","6.38","1","87.16","1","0.0","1","null","6","null","6","null","6","1015.6","1","40.167168","18.174857"],
    [1926,"2024-03-21 05:00:00","13","galatina","7.64","1","82.5","1","0.0","1","null","6","null","6","null","6","1015.77","1","40.167168","18.174857"],
    [1927,"2024-03-21 06:00:00","13","galatina","8.72","1","75.18","1","0.0","1","null","6","null","6","null","6","1015.91","1","40.167168","18.174857"],
    [1928,"2024-03-21 07:00:00","13","galatina","9.45","1","71.86","1","0.0","1","null","6","null","6","null","6","1015.99","1","40.167168","18.174857"],
    [1929,"2024-03-21 08:00:00","13","galatina","12.05","1","66.4","1","0.0","1","null","6","null","6","null","6","1015.95","1","40.167168","18.174857"],
    [1930,"2024-03-21 09:00:00","13","galatina","13.93","1","63.18","1","0.0","1","null","6","null","6","null","6","1015.89","1","40.167168","18.174857"],
    [1931,"2024-03-21 10:00:00","13","galatina","15.08","1","63.11","1","0.0","1","null","6","null","6","null","6","1016.02","1","40.167168","18.174857"],
    [1932,"2024-03-21 11:00:00","13","galatina","16.29","1","52.84","1","0.0","1","null","6","null","6","null","6","1016.05","1","40.167168","18.174857"],
    [1933,"2024-03-21 12:00:00","13","galatina","18.36","1","36.0","1","0.0","1","null","6","null","6","null","6","1015.78","1","40.167168","18.174857"],
    [1934,"2024-03-21 13:00:00","13","galatina","18.55","1","36.21","1","0.0","1","null","6","null","6","null","6","1015.47","1","40.167168","18.174857"],
    [1935,"2024-03-21 14:00:00","13","galatina","19.53","1","29.87","1","0.0","1","null","6","null","6","null","6","1015.07","1","40.167168","18.174857"],
    [1936,"2024-03-21 15:00:00","13","galatina","20.51","1","28.82","1","0.0","1","null","6","null","6","null","6","1014.42","1","40.167168","18.174857"],
    [1937,"2024-03-21 16:00:00","13","galatina","20.69","1","29.37","1","0.0","1","null","6","null","6","null","6","1013.85","1","40.167168","18.174857"],
    [1938,"2024-03-21 17:00:00","13","galatina","19.54","1","33.5","1","0.0","1","null","6","null","6","null","6","1013.42","1","40.167168","18.174857"],
    [1939,"2024-03-21 18:00:00","13","galatina","16.28","1","41.54","1","0.0","1","null","6","null","6","null","6","1013.43","1","40.167168","18.174857"],
    [1940,"2024-03-21 19:00:00","13","galatina","13.5","1","55.58","1","0.0","1","null","6","null","6","null","6","1013.51","1","40.167168","18.174857"],
    [1941,"2024-03-21 20:00:00","13","galatina","11.72","1","67.18","1","0.0","1","null","6","null","6","null","6","1013.63","1","40.167168","18.174857"],
    [1942,"2024-03-21 21:00:00","13","galatina","10.46","1","71.88","1","0.0","1","null","6","null","6","null","6","1013.63","1","40.167168","18.174857"],
    [1943,"2024-03-21 22:00:00","13","galatina","9.48","1","76.55","1","0.0","1","null","6","null","6","null","6","1013.53","1","40.167168","18.174857"],
    [1944,"2024-03-21 23:00:00","13","galatina","8.75","1","81.9","1","0.0","1","null","6","null","6","null","6","1013.28","1","40.167168","18.174857"],
    [1945,"2024-03-22 00:00:00","13","galatina","8.44","1","85.01","1","0.0","1","null","6","null","6","null","6","1012.98","1","40.167168","18.174857"],
    [1946,"2024-03-22 01:00:00","13","galatina","7.72","1","87.58","1","0.0","1","null","6","null","6","null","6","1012.77","1","40.167168","18.174857"],
    [1947,"2024-03-22 02:00:00","13","galatina","7.22","1","90.16","1","0.0","1","null","6","null","6","null","6","1012.37","1","40.167168","18.174857"],
    [1948,"2024-03-22 03:00:00","13","galatina","6.89","1","90.34","1","0.0","1","null","6","null","6","null","6","1011.87","1","40.167168","18.174857"],
    [1949,"2024-03-22 04:00:00","13","galatina","6.82","1","89.98","1","0.0","1","null","6","null","6","null","6","1011.58","1","40.167168","18.174857"],
    [1950,"2024-03-22 05:00:00","13","galatina","6.88","1","89.56","1","0.0","1","null","6","null","6","null","6","1011.59","1","40.167168","18.174857"],
    [1951,"2024-03-22 06:00:00","13","galatina","7.58","1","88.87","1","0.0","1","null","6","null","6","null","6","1011.55","1","40.167168","18.174857"],
    [1952,"2024-03-22 07:00:00","13","galatina","8.18","1","86.79","1","0.0","1","null","6","null","6","null","6","1011.67","1","40.167168","18.174857"],
    [1953,"2024-03-22 08:00:00","13","galatina","10.64","1","83.24","1","0.0","1","null","6","null","6","null","6","1011.56","1","40.167168","18.174857"],
    [1954,"2024-03-22 09:00:00","13","galatina","13.64","1","73.52","1","0.0","1","null","6","null","6","null","6","1011.65","1","40.167168","18.174857"],
    [1955,"2024-03-22 10:00:00","13","galatina","15.4","1","71.89","1","0.0","1","null","6","null","6","null","6","1011.72","1","40.167168","18.174857"],
    [1956,"2024-03-22 11:00:00","13","galatina","16.92","1","59.67","1","0.0","1","null","6","null","6","null","6","1011.69","1","40.167168","18.174857"],
    [1957,"2024-03-22 12:00:00","13","galatina","16.64","1","61.62","1","0.0","1","null","6","null","6","null","6","1011.54","1","40.167168","18.174857"],
    [1958,"2024-03-22 13:00:00","13","galatina","15.96","1","64.96","1","0.0","1","null","6","null","6","null","6","1011.4","1","40.167168","18.174857"],
    [1959,"2024-03-22 14:00:00","13","galatina","17.45","1","59.86","1","0.0","1","null","6","null","6","null","6","1011.08","1","40.167168","18.174857"],
    [1960,"2024-03-22 15:00:00","13","galatina","17.8","1","59.0","1","0.0","1","null","6","null","6","null","6","1010.73","1","40.167168","18.174857"],
    [1961,"2024-03-22 16:00:00","13","galatina","17.7","1","59.91","1","0.0","1","null","6","null","6","null","6","1010.42","1","40.167168","18.174857"],
    [1962,"2024-03-22 17:00:00","13","galatina","17.31","1","61.09","1","0.0","1","null","6","null","6","null","6","1010.4","1","40.167168","18.174857"],
    [1963,"2024-03-22 18:00:00","13","galatina","16.13","1","62.43","1","0.0","1","null","6","null","6","null","6","1010.43","1","40.167168","18.174857"],
    [1964,"2024-03-22 19:00:00","13","galatina","14.06","1","72.99","1","0.0","1","null","6","null","6","null","6","1010.71","1","40.167168","18.174857"],
    [1965,"2024-03-22 20:00:00","13","galatina","12.98","1","83.75","1","0.0","1","null","6","null","6","null","6","1010.98","1","40.167168","18.174857"],
    [1966,"2024-03-22 21:00:00","13","galatina","12.48","1","89.6","1","0.0","1","null","6","null","6","null","6","1011.08","1","40.167168","18.174857"],
    [1967,"2024-03-22 22:00:00","13","galatina","12.02","1","92.55","1","0.0","1","null","6","null","6","null","6","1011.17","1","40.167168","18.174857"],
    [1968,"2024-03-22 23:00:00","13","galatina","11.64","1","94.32","1","0.0","1","null","6","null","6","null","6","1011.24","1","40.167168","18.174857"],
    [1969,"2024-03-23 00:00:00","13","galatina","11.47","1","95.61","1","0.0","1","null","6","null","6","null","6","1011.29","1","40.167168","18.174857"],
    [1970,"2024-03-23 01:00:00","13","galatina","10.98","1","96.13","1","0.0","1","null","6","null","6","null","6","1011.28","1","40.167168","18.174857"],
    [1971,"2024-03-23 02:00:00","13","galatina","10.4","1","96.76","1","0.0","1","null","6","null","6","null","6","1011.25","1","40.167168","18.174857"],
    [1972,"2024-03-23 03:00:00","13","galatina","11.5","1","97.28","1","0.0","1","null","6","null","6","null","6","1011.18","1","40.167168","18.174857"],
    [1973,"2024-03-23 04:00:00","13","galatina","11.27","1","97.67","1","0.0","1","null","6","null","6","null","6","1011.1","1","40.167168","18.174857"],
    [1974,"2024-03-23 05:00:00","13","galatina","9.73","1","97.69","1","0.0","1","null","6","null","6","null","6","1011.12","1","40.167168","18.174857"],
    [1975,"2024-03-23 06:00:00","13","galatina","9.3","1","98.26","1","0.0","1","null","6","null","6","null","6","1011.1","1","40.167168","18.174857"],
    [1976,"2024-03-23 07:00:00","13","galatina","8.92","1","98.26","1","0.2","1","null","6","null","6","null","6","1011.29","1","40.167168","18.174857"],
    [1977,"2024-03-23 08:00:00","13","galatina","11.12","1","97.68","1","0.0","1","null","6","null","6","null","6","1011.48","1","40.167168","18.174857"],
    [1978,"2024-03-23 09:00:00","13","galatina","14.91","1","94.55","1","0.0","1","null","6","null","6","null","6","1011.42","1","40.167168","18.174857"],
    [1979,"2024-03-23 10:00:00","13","galatina","17.07","1","73.33","1","0.0","1","null","6","null","6","null","6","1011.36","1","40.167168","18.174857"],
    [1980,"2024-03-23 11:00:00","13","galatina","18.52","1","58.41","1","0.0","1","null","6","null","6","null","6","1011.1","1","40.167168","18.174857"],
    [1981,"2024-03-23 12:00:00","13","galatina","19.72","1","53.1","1","0.0","1","null","6","null","6","null","6","1010.86","1","40.167168","18.174857"],
    [1982,"2024-03-23 13:00:00","13","galatina","17.15","1","69.11","1","0.0","1","null","6","null","6","null","6","1010.68","1","40.167168","18.174857"],
    [1983,"2024-03-23 14:00:00","13","galatina","17.63","1","64.65","1","0.0","1","null","6","null","6","null","6","1010.46","1","40.167168","18.174857"],
    [1984,"2024-03-23 15:00:00","13","galatina","19.8","1","51.95","1","0.0","1","null","6","null","6","null","6","1010.05","1","40.167168","18.174857"],
    [1985,"2024-03-23 16:00:00","13","galatina","19.22","1","46.75","1","0.0","1","null","6","null","6","null","6","1009.61","1","40.167168","18.174857"],
    [1986,"2024-03-23 17:00:00","13","galatina","19.0","1","47.35","1","0.0","1","null","6","null","6","null","6","1009.44","1","40.167168","18.174857"],
    [1987,"2024-03-23 18:00:00","13","galatina","16.7","1","57.59","1","0.0","1","null","6","null","6","null","6","1009.35","1","40.167168","18.174857"],
    [1988,"2024-03-23 19:00:00","13","galatina","14.2","1","70.07","1","0.0","1","null","6","null","6","null","6","1009.68","1","40.167168","18.174857"],
    [1989,"2024-03-23 20:00:00","13","galatina","12.61","1","83.13","1","0.0","1","null","6","null","6","null","6","1009.66","1","40.167168","18.174857"],
    [1990,"2024-03-23 21:00:00","13","galatina","12.64","1","87.42","1","0.0","1","null","6","null","6","null","6","1009.65","1","40.167168","18.174857"],
    [1991,"2024-03-23 22:00:00","13","galatina","12.99","1","87.68","1","0.0","1","null","6","null","6","null","6","1009.44","1","40.167168","18.174857"],
    [1992,"2024-03-23 23:00:00","13","galatina","12.85","1","89.54","1","0.0","1","null","6","null","6","null","6","1009.17","1","40.167168","18.174857"],
    [1993,"2024-03-24 00:00:00","13","galatina","12.38","1","91.53","1","0.0","1","null","6","null","6","null","6","1009.0","1","40.167168","18.174857"],
    [1994,"2024-03-24 01:00:00","13","galatina","12.14","1","93.53","1","0.0","1","null","6","null","6","null","6","1008.71","1","40.167168","18.174857"],
    [1995,"2024-03-24 02:00:00","13","galatina","12.0","1","93.64","1","0.0","1","null","6","null","6","null","6","1008.33","1","40.167168","18.174857"],
    [1996,"2024-03-24 03:00:00","13","galatina","12.21","1","94.28","1","0.0","1","null","6","null","6","null","6","1007.96","1","40.167168","18.174857"],
    [1997,"2024-03-24 04:00:00","13","galatina","11.91","1","94.85","1","0.0","1","null","6","null","6","null","6","1007.85","1","40.167168","18.174857"],
    [1998,"2024-03-24 05:00:00","13","galatina","11.12","1","95.76","1","0.0","1","null","6","null","6","null","6","1007.61","1","40.167168","18.174857"],
    [1999,"2024-03-24 06:00:00","13","galatina","10.59","1","96.12","1","0.0","1","null","6","null","6","null","6","1007.47","1","40.167168","18.174857"],
    [2000,"2024-03-24 07:00:00","13","galatina","11.15","1","95.24","1","0.0","1","null","6","null","6","null","6","1007.47","1","40.167168","18.174857"],
    [2001,"2024-03-24 08:00:00","13","galatina","14.98","1","85.96","1","0.0","1","null","6","null","6","null","6","1007.26","1","40.167168","18.174857"],
    [2002,"2024-03-24 09:00:00","13","galatina","18.07","1","70.31","1","0.0","1","null","6","null","6","null","6","1007.08","1","40.167168","18.174857"],
    [2003,"2024-03-24 10:00:00","13","galatina","18.8","1","62.79","1","0.0","1","null","6","null","6","null","6","1006.77","1","40.167168","18.174857"],
    [2004,"2024-03-24 11:00:00","13","galatina","19.54","1","56.29","1","0.0","1","null","6","null","6","null","6","1006.58","1","40.167168","18.174857"],
    [2005,"2024-03-24 12:00:00","13","galatina","19.95","1","46.45","1","0.0","1","null","6","null","6","null","6","1006.67","1","40.167168","18.174857"],
    [2006,"2024-03-24 13:00:00","13","galatina","20.47","1","44.07","1","0.0","1","null","6","null","6","null","6","1006.26","1","40.167168","18.174857"],
    [2007,"2024-03-24 14:00:00","13","galatina","20.64","1","40.95","1","0.0","1","null","6","null","6","null","6","1005.6","1","40.167168","18.174857"],
    [2008,"2024-03-24 15:00:00","13","galatina","21.17","1","38.68","1","0.0","1","null","6","null","6","null","6","1004.82","1","40.167168","18.174857"],
    [2009,"2024-03-24 16:00:00","13","galatina","20.93","1","38.9","1","0.0","1","null","6","null","6","null","6","1004.24","1","40.167168","18.174857"],
    [2010,"2024-03-24 17:00:00","13","galatina","20.03","1","42.27","1","0.0","1","null","6","null","6","null","6","1003.76","1","40.167168","18.174857"],
    [2011,"2024-03-24 18:00:00","13","galatina","18.78","1","48.21","1","0.0","1","null","6","null","6","null","6","1003.54","1","40.167168","18.174857"],
    [2012,"2024-03-24 19:00:00","13","galatina","16.61","1","58.95","1","0.0","1","null","6","null","6","null","6","1003.54","1","40.167168","18.174857"],
    [2013,"2024-03-24 20:00:00","13","galatina","16.07","1","62.07","1","0.0","1","null","6","null","6","null","6","1003.68","1","40.167168","18.174857"],
    [2014,"2024-03-24 21:00:00","13","galatina","16.02","1","62.39","1","0.0","1","null","6","null","6","null","6","1003.65","1","40.167168","18.174857"],
    [2015,"2024-03-24 22:00:00","13","galatina","15.75","1","62.52","1","0.0","1","null","6","null","6","null","6","1003.72","1","40.167168","18.174857"],
    [2016,"2024-03-24 23:00:00","13","galatina","14.9","1","67.06","1","0.0","1","null","6","null","6","null","6","1003.67","1","40.167168","18.174857"],
    [2017,"2024-03-25 00:00:00","13","galatina","13.94","1","71.97","1","0.0","1","null","6","null","6","null","6","1003.79","1","40.167168","18.174857"],
    [2018,"2024-03-25 01:00:00","13","galatina","12.84","1","78.42","1","0.0","1","null","6","null","6","null","6","1003.83","1","40.167168","18.174857"],
    [2019,"2024-03-25 02:00:00","13","galatina","11.31","1","83.84","1","0.0","1","null","6","null","6","null","6","1003.67","1","40.167168","18.174857"],
    [2020,"2024-03-25 03:00:00","13","galatina","10.81","1","88.48","1","0.0","1","null","6","null","6","null","6","1003.29","1","40.167168","18.174857"],
    [2021,"2024-03-25 04:00:00","13","galatina","9.8","1","91.48","1","0.0","1","null","6","null","6","null","6","1003.34","1","40.167168","18.174857"],
    [2022,"2024-03-25 05:00:00","13","galatina","9.41","1","92.62","1","0.0","1","null","6","null","6","null","6","1003.48","1","40.167168","18.174857"],
    [2023,"2024-03-25 06:00:00","13","galatina","8.89","1","94.16","1","0.0","1","null","6","null","6","null","6","1003.74","1","40.167168","18.174857"],
    [2024,"2024-03-25 07:00:00","13","galatina","10.46","1","91.49","1","0.0","1","null","6","null","6","null","6","1004.37","1","40.167168","18.174857"],
    [2025,"2024-03-25 08:00:00","13","galatina","13.64","1","74.95","1","0.0","1","null","6","null","6","null","6","1004.81","1","40.167168","18.174857"],
    [2026,"2024-03-25 09:00:00","13","galatina","15.49","1","61.58","1","0.0","1","null","6","null","6","null","6","1005.03","1","40.167168","18.174857"],
    [2027,"2024-03-25 10:00:00","13","galatina","16.35","1","51.62","1","0.0","1","null","6","null","6","null","6","1005.46","1","40.167168","18.174857"],
    [2028,"2024-03-25 11:00:00","13","galatina","17.27","1","45.63","1","0.0","1","null","6","null","6","null","6","1005.77","1","40.167168","18.174857"],
    [2029,"2024-03-25 12:00:00","13","galatina","18.29","1","40.22","1","0.0","1","null","6","null","6","null","6","1006.0","1","40.167168","18.174857"],
    [2030,"2024-03-25 13:00:00","13","galatina","18.39","1","37.74","1","0.0","1","null","6","null","6","null","6","1006.0","1","40.167168","18.174857"],
    [2031,"2024-03-25 14:00:00","13","galatina","18.84","1","34.71","1","0.0","1","null","6","null","6","null","6","1005.72","1","40.167168","18.174857"],
    [2032,"2024-03-25 15:00:00","13","galatina","19.4","1","35.98","1","0.0","1","null","6","null","6","null","6","1005.68","1","40.167168","18.174857"],
    [2033,"2024-03-25 16:00:00","13","galatina","18.12","1","41.55","1","0.0","1","null","6","null","6","null","6","1005.62","1","40.167168","18.174857"],
    [2034,"2024-03-25 17:00:00","13","galatina","15.43","1","47.08","1","0.0","1","null","6","null","6","null","6","1005.75","1","40.167168","18.174857"],
    [2035,"2024-03-25 18:00:00","13","galatina","13.87","1","54.56","1","0.0","1","null","6","null","6","null","6","1006.26","1","40.167168","18.174857"],
    [2036,"2024-03-25 19:00:00","13","galatina","12.75","1","58.86","1","0.0","1","null","6","null","6","null","6","1006.06","1","40.167168","18.174857"],
    [2037,"2024-03-25 20:00:00","13","galatina","12.64","1","58.38","1","0.0","1","null","6","null","6","null","6","1006.27","1","40.167168","18.174857"],
    [2038,"2024-03-25 21:00:00","13","galatina","12.59","1","59.49","1","0.0","1","null","6","null","6","null","6","1006.75","1","40.167168","18.174857"],
    [2039,"2024-03-25 22:00:00","13","galatina","11.71","1","65.72","1","0.0","1","null","6","null","6","null","6","1006.51","1","40.167168","18.174857"],
    [2040,"2024-03-25 23:00:00","13","galatina","11.4","1","68.52","1","0.0","1","null","6","null","6","null","6","1007.06","1","40.167168","18.174857"],
    [2041,"2024-03-26 00:00:00","13","galatina","11.14","1","69.83","1","0.0","1","null","6","null","6","null","6","1006.87","1","40.167168","18.174857"],
    [2042,"2024-03-26 01:00:00","13","galatina","10.99","1","73.08","1","0.0","1","null","6","null","6","null","6","1006.47","1","40.167168","18.174857"],
    [2043,"2024-03-26 02:00:00","13","galatina","10.79","1","76.24","1","0.0","1","null","6","null","6","null","6","1006.58","1","40.167168","18.174857"],
    [2044,"2024-03-26 03:00:00","13","galatina","10.78","1","77.72","1","0.0","1","null","6","null","6","null","6","1006.1","1","40.167168","18.174857"],
    [2045,"2024-03-26 04:00:00","13","galatina","11.13","1","79.42","1","0.0","1","null","6","null","6","null","6","1005.6","1","40.167168","18.174857"],
    [2046,"2024-03-26 05:00:00","13","galatina","11.36","1","80.86","1","0.0","1","null","6","null","6","null","6","1005.4","1","40.167168","18.174857"],
    [2047,"2024-03-26 06:00:00","13","galatina","11.45","1","77.91","1","0.0","1","null","6","null","6","null","6","1005.11","1","40.167168","18.174857"],
    [2048,"2024-03-26 07:00:00","13","galatina","12.38","1","70.97","1","0.0","1","null","6","null","6","null","6","1004.19","1","40.167168","18.174857"],
    [2049,"2024-03-26 08:00:00","13","galatina","13.68","1","68.99","1","0.0","1","null","6","null","6","null","6","1003.95","1","40.167168","18.174857"],
    [2050,"2024-03-26 09:00:00","13","galatina","14.27","1","73.41","1","0.0","1","null","6","null","6","null","6","1004.26","1","40.167168","18.174857"],
    [2051,"2024-03-26 10:00:00","13","galatina","14.78","1","77.28","1","0.0","1","null","6","null","6","null","6","1003.86","1","40.167168","18.174857"],
    [2052,"2024-03-26 11:00:00","13","galatina","15.71","1","76.4","1","0.0","1","null","6","null","6","null","6","1003.16","1","40.167168","18.174857"],
    [2053,"2024-03-26 12:00:00","13","galatina","15.95","1","76.92","1","0.0","1","null","6","null","6","null","6","1002.59","1","40.167168","18.174857"],
    [2054,"2024-03-26 13:00:00","13","galatina","16.14","1","77.5","1","0.0","1","null","6","null","6","null","6","1001.94","1","40.167168","18.174857"],
    [2055,"2024-03-26 14:00:00","13","galatina","16.41","1","77.74","1","0.0","1","null","6","null","6","null","6","1000.48","1","40.167168","18.174857"],
    [2056,"2024-03-26 15:00:00","13","galatina","16.45","1","82.26","1","0.0","1","null","6","null","6","null","6","999.43","1","40.167168","18.174857"],
    [2057,"2024-03-26 16:00:00","13","galatina","16.54","1","83.85","1","0.0","1","null","6","null","6","null","6","999.01","1","40.167168","18.174857"],
    [2058,"2024-03-26 17:00:00","13","galatina","16.29","1","85.26","1","0.2","1","null","6","null","6","null","6","998.78","1","40.167168","18.174857"],
    [2059,"2024-03-26 18:00:00","13","galatina","15.77","1","87.0","1","0.0","1","null","6","null","6","null","6","998.93","1","40.167168","18.174857"],
    [2060,"2024-03-26 19:00:00","13","galatina","15.69","1","84.82","1","0.0","1","null","6","null","6","null","6","999.43","1","40.167168","18.174857"],
    [2061,"2024-03-26 20:00:00","13","galatina","16.39","1","80.23","1","0.0","1","null","6","null","6","null","6","1000.14","1","40.167168","18.174857"],
    [2062,"2024-03-26 21:00:00","13","galatina","16.53","1","80.35","1","0.0","1","null","6","null","6","null","6","1000.62","1","40.167168","18.174857"],
    [2063,"2024-03-26 22:00:00","13","galatina","16.63","1","80.81","1","0.0","1","null","6","null","6","null","6","1000.62","1","40.167168","18.174857"],
    [2064,"2024-03-26 23:00:00","13","galatina","16.26","1","84.28","1","0.0","1","null","6","null","6","null","6","1000.64","1","40.167168","18.174857"],
    [2065,"2024-03-27 00:00:00","13","galatina","15.62","1","88.76","1","0.0","1","null","6","null","6","null","6","1000.44","1","40.167168","18.174857"],
    [2066,"2024-03-27 01:00:00","13","galatina","15.44","1","91.35","1","0.0","1","null","6","null","6","null","6","1000.52","1","40.167168","18.174857"],
    [2067,"2024-03-27 02:00:00","13","galatina","15.76","1","92.54","1","0.0","1","null","6","null","6","null","6","1000.38","1","40.167168","18.174857"],
    [2068,"2024-03-27 03:00:00","13","galatina","15.7","1","93.22","1","0.0","1","null","6","null","6","null","6","1000.42","1","40.167168","18.174857"],
    [2069,"2024-03-27 04:00:00","13","galatina","15.69","1","93.8","1","0.0","1","null","6","null","6","null","6","1000.37","1","40.167168","18.174857"],
    [2070,"2024-03-27 05:00:00","13","galatina","15.68","1","94.47","1","0.0","1","null","6","null","6","null","6","1000.45","1","40.167168","18.174857"],
    [2071,"2024-03-27 06:00:00","13","galatina","15.67","1","94.81","1","0.0","1","null","6","null","6","null","6","1000.52","1","40.167168","18.174857"],
    [2072,"2024-03-27 07:00:00","13","galatina","15.9","1","93.39","1","0.0","1","null","6","null","6","null","6","1000.38","1","40.167168","18.174857"],
    [2073,"2024-03-27 08:00:00","13","galatina","16.53","1","89.61","1","0.0","1","null","6","null","6","null","6","1000.45","1","40.167168","18.174857"],
    [2074,"2024-03-27 09:00:00","13","galatina","18.09","1","80.55","1","0.0","1","null","6","null","6","null","6","1000.36","1","40.167168","18.174857"],
    [2075,"2024-03-27 10:00:00","13","galatina","19.06","1","76.63","1","0.0","1","null","6","null","6","null","6","1000.09","1","40.167168","18.174857"],
    [2076,"2024-03-27 11:00:00","13","galatina","19.97","1","72.96","1","0.0","1","null","6","null","6","null","6","1000.17","1","40.167168","18.174857"],
    [2077,"2024-03-27 12:00:00","13","galatina","20.9","1","69.3","1","0.0","1","null","6","null","6","null","6","1000.05","1","40.167168","18.174857"],
    [2078,"2024-03-27 13:00:00","13","galatina","20.65","1","68.32","1","0.0","1","null","6","null","6","null","6","999.95","1","40.167168","18.174857"],
    [2079,"2024-03-27 14:00:00","13","galatina","21.2","1","65.38","1","0.0","1","null","6","null","6","null","6","999.32","1","40.167168","18.174857"],
    [2080,"2024-03-27 15:00:00","13","galatina","20.97","1","63.4","1","0.0","1","null","6","null","6","null","6","998.76","1","40.167168","18.174857"],
    [2081,"2024-03-27 16:00:00","13","galatina","19.92","1","66.99","1","0.0","1","null","6","null","6","null","6","998.21","1","40.167168","18.174857"],
    [2082,"2024-03-27 17:00:00","13","galatina","18.39","1","75.55","1","0.0","1","null","6","null","6","null","6","997.62","1","40.167168","18.174857"],
    [2083,"2024-03-27 18:00:00","13","galatina","17.18","1","81.85","1","0.0","1","null","6","null","6","null","6","997.2","1","40.167168","18.174857"],
    [2084,"2024-03-27 19:00:00","13","galatina","16.74","1","83.54","1","0.0","1","null","6","null","6","null","6","997.28","1","40.167168","18.174857"],
    [2085,"2024-03-27 20:00:00","13","galatina","17.0","1","81.92","1","0.0","1","null","6","null","6","null","6","998.7","1","40.167168","18.174857"],
    [2086,"2024-03-27 21:00:00","13","galatina","15.81","1","77.33","1","0.0","1","null","6","null","6","null","6","1000.12","1","40.167168","18.174857"],
    [2087,"2024-03-27 22:00:00","13","galatina","14.93","1","61.79","1","0.0","1","null","6","null","6","null","6","1000.88","1","40.167168","18.174857"],
    [2088,"2024-03-27 23:00:00","13","galatina","14.17","1","65.32","1","0.0","1","null","6","null","6","null","6","1001.62","1","40.167168","18.174857"],
    [2089,"2024-03-28 00:00:00","13","galatina","13.92","1","67.41","1","0.0","1","null","6","null","6","null","6","1002.33","1","40.167168","18.174857"],
    [2090,"2024-03-28 01:00:00","13","galatina","13.34","1","73.75","1","0.0","1","null","6","null","6","null","6","1003.28","1","40.167168","18.174857"],
    [2091,"2024-03-28 02:00:00","13","galatina","12.91","1","74.47","1","0.0","1","null","6","null","6","null","6","1004.0","1","40.167168","18.174857"],
    [2092,"2024-03-28 03:00:00","13","galatina","11.97","1","80.31","1","0.0","1","null","6","null","6","null","6","1004.47","1","40.167168","18.174857"],
    [2093,"2024-03-28 04:00:00","13","galatina","10.91","1","85.45","1","0.0","1","null","6","null","6","null","6","1004.95","1","40.167168","18.174857"],
    [2094,"2024-03-28 05:00:00","13","galatina","9.99","1","87.77","1","0.0","1","null","6","null","6","null","6","1005.71","1","40.167168","18.174857"],
    [2095,"2024-03-28 06:00:00","13","galatina","9.71","1","87.12","1","0.0","1","null","6","null","6","null","6","1006.56","1","40.167168","18.174857"],
    [2096,"2024-03-28 07:00:00","13","galatina","11.65","1","82.61","1","0.0","1","null","6","null","6","null","6","1007.21","1","40.167168","18.174857"],
    [2097,"2024-03-28 08:00:00","13","galatina","16.13","1","68.81","1","0.2","1","null","6","null","6","null","6","1007.53","1","40.167168","18.174857"],
    [2098,"2024-03-28 09:00:00","13","galatina","17.93","1","59.36","1","0.0","1","null","6","null","6","null","6","1007.89","1","40.167168","18.174857"],
    [2099,"2024-03-28 10:00:00","13","galatina","18.31","1","52.19","1","0.0","1","null","6","null","6","null","6","1008.04","1","40.167168","18.174857"],
    [2100,"2024-03-28 11:00:00","13","galatina","18.82","1","49.01","1","0.0","1","null","6","null","6","null","6","1008.58","1","40.167168","18.174857"],
    [2101,"2024-03-28 12:00:00","13","galatina","19.64","1","48.21","1","0.0","1","null","6","null","6","null","6","1009.14","1","40.167168","18.174857"],
    [2102,"2024-03-28 13:00:00","13","galatina","20.02","1","44.66","1","0.0","1","null","6","null","6","null","6","1009.24","1","40.167168","18.174857"],
    [2103,"2024-03-28 14:00:00","13","galatina","21.23","1","39.33","1","0.0","1","null","6","null","6","null","6","1009.15","1","40.167168","18.174857"],
    [2104,"2024-03-28 15:00:00","13","galatina","21.69","1","36.53","1","0.0","1","null","6","null","6","null","6","1009.22","1","40.167168","18.174857"],
    [2105,"2024-03-28 16:00:00","13","galatina","21.45","1","34.81","1","0.0","1","null","6","null","6","null","6","1009.13","1","40.167168","18.174857"],
    [2106,"2024-03-28 17:00:00","13","galatina","20.59","1","37.69","1","0.0","1","null","6","null","6","null","6","1009.34","1","40.167168","18.174857"],
    [2107,"2024-03-28 18:00:00","13","galatina","17.97","1","48.73","1","0.0","1","null","6","null","6","null","6","1009.75","1","40.167168","18.174857"],
    [2108,"2024-03-28 19:00:00","13","galatina","16.09","1","58.34","1","0.0","1","null","6","null","6","null","6","1010.28","1","40.167168","18.174857"],
    [2109,"2024-03-28 20:00:00","13","galatina","14.13","1","68.49","1","0.0","1","null","6","null","6","null","6","1010.81","1","40.167168","18.174857"],
    [2110,"2024-03-28 21:00:00","13","galatina","13.77","1","82.72","1","0.0","1","null","6","null","6","null","6","1011.06","1","40.167168","18.174857"],
    [2111,"2024-03-28 22:00:00","13","galatina","13.34","1","87.01","1","0.0","1","null","6","null","6","null","6","1011.2","1","40.167168","18.174857"],
    [2112,"2024-03-28 23:00:00","13","galatina","12.93","1","89.32","1","0.0","1","null","6","null","6","null","6","1011.3","1","40.167168","18.174857"],
    [2113,"2024-03-29 00:00:00","13","galatina","12.85","1","90.77","1","0.0","1","null","6","null","6","null","6","1011.45","1","40.167168","18.174857"],
    [2114,"2024-03-29 01:00:00","13","galatina","12.66","1","92.37","1","0.0","1","null","6","null","6","null","6","1011.56","1","40.167168","18.174857"],
    [2115,"2024-03-29 02:00:00","13","galatina","12.26","1","93.9","1","0.0","1","null","6","null","6","null","6","1011.46","1","40.167168","18.174857"],
    [2116,"2024-03-29 03:00:00","13","galatina","11.97","1","95.21","1","0.0","1","null","6","null","6","null","6","1011.68","1","40.167168","18.174857"],
    [2117,"2024-03-29 04:00:00","13","galatina","11.69","1","96.11","1","0.0","1","null","6","null","6","null","6","1011.79","1","40.167168","18.174857"],
    [2118,"2024-03-29 05:00:00","13","galatina","11.33","1","96.94","1","0.0","1","null","6","null","6","null","6","1011.79","1","40.167168","18.174857"],
    [2119,"2024-03-29 06:00:00","13","galatina","11.79","1","97.72","1","0.0","1","null","6","null","6","null","6","1011.97","1","40.167168","18.174857"],
    [2120,"2024-03-29 07:00:00","13","galatina","12.72","1","97.91","1","0.2","1","null","6","null","6","null","6","1012.31","1","40.167168","18.174857"],
    [2121,"2024-03-29 08:00:00","13","galatina","15.46","1","93.63","1","0.0","1","null","6","null","6","null","6","1012.3","1","40.167168","18.174857"],
    [2122,"2024-03-29 09:00:00","13","galatina","19.73","1","66.95","1","0.0","1","null","6","null","6","null","6","1012.14","1","40.167168","18.174857"],
    [2123,"2024-03-29 10:00:00","13","galatina","21.67","1","53.9","1","0.0","1","null","6","null","6","null","6","1012.17","1","40.167168","18.174857"],
    [2124,"2024-03-29 11:00:00","13","galatina","22.79","1","42.27","1","0.0","1","null","6","null","6","null","6","1012.09","1","40.167168","18.174857"],
    [2125,"2024-03-29 12:00:00","13","galatina","21.76","1","59.66","1","0.0","1","null","6","null","6","null","6","1012.14","1","40.167168","18.174857"],
    [2126,"2024-03-29 13:00:00","13","galatina","21.93","1","56.97","1","0.0","1","null","6","null","6","null","6","1012.04","1","40.167168","18.174857"],
    [2127,"2024-03-29 14:00:00","13","galatina","22.74","1","49.38","1","0.0","1","null","6","null","6","null","6","1011.67","1","40.167168","18.174857"],
    [2128,"2024-03-29 15:00:00","13","galatina","22.48","1","47.88","1","0.0","1","null","6","null","6","null","6","1011.23","1","40.167168","18.174857"],
    [2129,"2024-03-29 16:00:00","13","galatina","22.33","1","47.18","1","0.0","1","null","6","null","6","null","6","1011.12","1","40.167168","18.174857"],
    [2130,"2024-03-29 17:00:00","13","galatina","21.87","1","44.88","1","0.0","1","null","6","null","6","null","6","1010.72","1","40.167168","18.174857"],
    [2131,"2024-03-29 18:00:00","13","galatina","19.37","1","50.18","1","0.0","1","null","6","null","6","null","6","1010.9","1","40.167168","18.174857"],
    [2132,"2024-03-29 19:00:00","13","galatina","16.77","1","61.03","1","0.0","1","null","6","null","6","null","6","1011.01","1","40.167168","18.174857"],
    [2133,"2024-03-29 20:00:00","13","galatina","14.97","1","74.41","1","0.0","1","null","6","null","6","null","6","1011.04","1","40.167168","18.174857"],
    [2134,"2024-03-29 21:00:00","13","galatina","13.89","1","85.09","1","0.0","1","null","6","null","6","null","6","1011.33","1","40.167168","18.174857"],
    [2135,"2024-03-29 22:00:00","13","galatina","13.26","1","91.79","1","0.0","1","null","6","null","6","null","6","1011.1","1","40.167168","18.174857"],
    [2136,"2024-03-29 23:00:00","13","galatina","12.87","1","94.38","1","0.0","1","null","6","null","6","null","6","1011.19","1","40.167168","18.174857"],
    [2137,"2024-03-30 00:00:00","13","galatina","12.9","1","95.67","1","0.0","1","null","6","null","6","null","6","1011.09","1","40.167168","18.174857"],
    [2138,"2024-03-30 01:00:00","13","galatina","12.57","1","96.5","1","0.0","1","null","6","null","6","null","6","1010.99","1","40.167168","18.174857"],
    [2139,"2024-03-30 02:00:00","13","galatina","12.78","1","97.32","1","0.0","1","null","6","null","6","null","6","1010.9","1","40.167168","18.174857"],
    [2140,"2024-03-30 03:00:00","13","galatina","12.96","1","97.58","1","0.0","1","null","6","null","6","null","6","1010.46","1","40.167168","18.174857"],
    [2141,"2024-03-30 04:00:00","13","galatina","13.08","1","97.42","1","0.0","1","null","6","null","6","null","6","1010.18","1","40.167168","18.174857"],
    [2142,"2024-03-30 05:00:00","13","galatina","12.86","1","96.86","1","0.0","1","null","6","null","6","null","6","1010.2","1","40.167168","18.174857"],
    [2143,"2024-03-30 06:00:00","13","galatina","12.43","1","96.29","1","0.0","1","null","6","null","6","null","6","1010.33","1","40.167168","18.174857"],
    [2144,"2024-03-30 07:00:00","13","galatina","13.32","1","92.79","1","0.0","1","null","6","null","6","null","6","1010.29","1","40.167168","18.174857"],
    [2145,"2024-03-30 08:00:00","13","galatina","15.96","1","80.18","1","0.0","1","null","6","null","6","null","6","1010.3","1","40.167168","18.174857"],
    [2146,"2024-03-30 09:00:00","13","galatina","18.48","1","56.98","1","0.0","1","null","6","null","6","null","6","1010.39","1","40.167168","18.174857"],
    [2147,"2024-03-30 10:00:00","13","galatina","19.68","1","44.57","1","0.0","1","null","6","null","6","null","6","1010.5","1","40.167168","18.174857"],
    [2148,"2024-03-30 11:00:00","13","galatina","20.9","1","37.32","1","0.2","1","null","6","null","6","null","6","1010.43","1","40.167168","18.174857"],
    [2149,"2024-03-30 12:00:00","13","galatina","22.0","1","31.57","1","0.0","1","null","6","null","6","null","6","1010.28","1","40.167168","18.174857"],
    [2150,"2024-03-30 13:00:00","13","galatina","22.1","1","29.56","1","0.0","1","null","6","null","6","null","6","1009.94","1","40.167168","18.174857"],
    [2151,"2024-03-30 14:00:00","13","galatina","22.29","1","27.4","1","0.0","1","null","6","null","6","null","6","1009.5","1","40.167168","18.174857"],
    [2152,"2024-03-30 15:00:00","13","galatina","21.92","1","29.77","1","0.0","1","null","6","null","6","null","6","1009.29","1","40.167168","18.174857"],
    [2153,"2024-03-30 16:00:00","13","galatina","21.05","1","32.3","1","0.0","1","null","6","null","6","null","6","1009.08","1","40.167168","18.174857"],
    [2154,"2024-03-30 17:00:00","13","galatina","19.71","1","35.77","1","0.0","1","null","6","null","6","null","6","1009.15","1","40.167168","18.174857"],
    [2155,"2024-03-30 18:00:00","13","galatina","18.23","1","39.46","1","0.0","1","null","6","null","6","null","6","1009.1","1","40.167168","18.174857"],
    [2156,"2024-03-30 19:00:00","13","galatina","16.82","1","46.59","1","0.0","1","null","6","null","6","null","6","1009.16","1","40.167168","18.174857"],
    [2157,"2024-03-30 20:00:00","13","galatina","16.13","1","53.72","1","0.0","1","null","6","null","6","null","6","1009.35","1","40.167168","18.174857"],
    [2158,"2024-03-30 21:00:00","13","galatina","16.1","1","61.03","1","0.0","1","null","6","null","6","null","6","1009.79","1","40.167168","18.174857"],
    [2159,"2024-03-30 22:00:00","13","galatina","15.63","1","65.5","1","0.0","1","null","6","null","6","null","6","1010.03","1","40.167168","18.174857"],
    [2160,"2024-03-30 23:00:00","13","galatina","16.12","1","64.73","1","0.0","1","null","6","null","6","null","6","1010.0","1","40.167168","18.174857"],
    [2161,"2024-03-31 00:00:00","13","galatina","16.12","1","66.31","1","0.0","1","null","6","null","6","null","6","1010.28","1","40.167168","18.174857"],
    [2162,"2024-03-31 01:00:00","13","galatina","15.92","1","73.61","1","0.0","1","null","6","null","6","null","6","1010.19","1","40.167168","18.174857"],
    [2163,"2024-03-31 03:00:00","13","galatina","15.7","1","76.5","1","0.0","1","null","6","null","6","null","6","1009.93","1","40.167168","18.174857"],
    [2164,"2024-03-31 03:00:00","13","galatina","15.43","1","80.07","1","0.0","1","null","6","null","6","null","6","1009.69","1","40.167168","18.174857"],
    [2165,"2024-03-31 04:00:00","13","galatina","15.44","1","80.98","1","0.0","1","null","6","null","6","null","6","1009.62","1","40.167168","18.174857"],
    [2166,"2024-03-31 05:00:00","13","galatina","15.15","1","86.11","1","0.0","1","null","6","null","6","null","6","1009.63","1","40.167168","18.174857"],
    [2167,"2024-03-31 06:00:00","13","galatina","15.17","1","85.41","1","0.0","1","null","6","null","6","null","6","1009.75","1","40.167168","18.174857"],
    [2168,"2024-03-31 07:00:00","13","galatina","15.44","1","84.04","1","0.0","1","null","6","null","6","null","6","1009.64","1","40.167168","18.174857"],
    [2169,"2024-03-31 08:00:00","13","galatina","16.47","1","81.55","1","0.0","1","null","6","null","6","null","6","1009.74","1","40.167168","18.174857"],
    [2170,"2024-03-31 09:00:00","13","galatina","18.26","1","72.39","1","0.0","1","null","6","null","6","null","6","1010.08","1","40.167168","18.174857"],
    [2171,"2024-03-31 10:00:00","13","galatina","19.4","1","64.59","1","0.0","1","null","6","null","6","null","6","1010.35","1","40.167168","18.174857"],
    [2172,"2024-03-31 11:00:00","13","galatina","20.41","1","59.19","1","0.0","1","null","6","null","6","null","6","1010.34","1","40.167168","18.174857"],
    [2173,"2024-03-31 12:00:00","13","galatina","20.9","1","59.68","1","0.0","1","null","6","null","6","null","6","1010.1","1","40.167168","18.174857"],
    [2174,"2024-03-31 13:00:00","13","galatina","20.53","1","61.08","1","0.0","1","null","6","null","6","null","6","1009.9","1","40.167168","18.174857"],
    [2175,"2024-03-31 14:00:00","13","galatina","21.14","1","55.69","1","0.0","1","null","6","null","6","null","6","1009.46","1","40.167168","18.174857"],
    [2176,"2024-03-31 15:00:00","13","galatina","21.38","1","53.46","1","0.0","1","null","6","null","6","null","6","1009.1","1","40.167168","18.174857"],
    [2177,"2024-03-31 16:00:00","13","galatina","20.62","1","58.58","1","0.0","1","null","6","null","6","null","6","1009.2","1","40.167168","18.174857"],
    [2178,"2024-03-31 17:00:00","13","galatina","19.37","1","65.32","1","0.0","1","null","6","null","6","null","6","1009.38","1","40.167168","18.174857"],
    [2179,"2024-03-31 18:00:00","13","galatina","17.96","1","71.75","1","0.0","1","null","6","null","6","null","6","1009.32","1","40.167168","18.174857"],
    [2180,"2024-03-31 19:00:00","13","galatina","17.03","1","77.16","1","0.0","1","null","6","null","6","null","6","1009.69","1","40.167168","18.174857"],
    [2181,"2024-03-31 20:00:00","13","galatina","16.57","1","80.12","1","0.0","1","null","6","null","6","null","6","1010.38","1","40.167168","18.174857"],
    [2182,"2024-03-31 21:00:00","13","galatina","16.41","1","81.26","1","0.0","1","null","6","null","6","null","6","1010.96","1","40.167168","18.174857"],
    [2183,"2024-03-31 22:00:00","13","galatina","16.43","1","80.83","1","0.0","1","null","6","null","6","null","6","1010.92","1","40.167168","18.174857"],
    [2184,"2024-03-31 23:00:00","13","galatina","16.31","1","80.44","1","0.0","1","null","6","null","6","null","6","1010.9","1","40.167168","18.174857"],
    [2185,"2024-04-01 00:00:00","13","galatina","15.95","1","81.27","1","0.0","1","null","6","null","6","null","6","1010.71","1","40.167168","18.174857"],
    [2186,"2024-04-01 01:00:00","13","galatina","15.75","1","81.33","1","0.0","1","null","6","null","6","null","6","1010.67","1","40.167168","18.174857"],
    [2187,"2024-04-01 02:00:00","13","galatina","15.77","1","81.71","1","0.0","1","null","6","null","6","null","6","1010.46","1","40.167168","18.174857"],
    [2188,"2024-04-01 03:00:00","13","galatina","15.38","1","85.84","1","0.0","1","null","6","null","6","null","6","1010.24","1","40.167168","18.174857"],
    [2189,"2024-04-01 04:00:00","13","galatina","15.18","1","90.42","1","0.0","1","null","6","null","6","null","6","1010.01","1","40.167168","18.174857"],
    [2190,"2024-04-01 05:00:00","13","galatina","15.25","1","89.81","1","0.0","1","null","6","null","6","null","6","1009.94","1","40.167168","18.174857"],
    [2191,"2024-04-01 06:00:00","13","galatina","15.35","1","89.55","1","0.0","1","null","6","null","6","null","6","1009.83","1","40.167168","18.174857"],
    [2192,"2024-04-01 07:00:00","13","galatina","15.98","1","84.95","1","0.0","1","null","6","null","6","null","6","1010.09","1","40.167168","18.174857"],
    [2193,"2024-04-01 08:00:00","13","galatina","17.69","1","77.01","1","0.0","1","null","6","null","6","null","6","1009.92","1","40.167168","18.174857"],
    [2194,"2024-04-01 09:00:00","13","galatina","19.37","1","66.45","1","0.0","1","null","6","null","6","null","6","1009.75","1","40.167168","18.174857"],
    [2195,"2024-04-01 10:00:00","13","galatina","20.58","1","59.3","1","0.0","1","null","6","null","6","null","6","1009.83","1","40.167168","18.174857"],
    [2196,"2024-04-01 11:00:00","13","galatina","21.37","1","54.92","1","0.0","1","null","6","null","6","null","6","1009.61","1","40.167168","18.174857"],
    [2197,"2024-04-01 12:00:00","13","galatina","22.43","1","51.68","1","0.0","1","null","6","null","6","null","6","1009.23","1","40.167168","18.174857"],
    [2198,"2024-04-01 13:00:00","13","galatina","23.11","1","48.32","1","0.0","1","null","6","null","6","null","6","1008.61","1","40.167168","18.174857"],
    [2199,"2024-04-01 14:00:00","13","galatina","22.67","1","52.11","1","0.0","1","null","6","null","6","null","6","1008.09","1","40.167168","18.174857"],
    [2200,"2024-04-01 15:00:00","13","galatina","22.46","1","53.22","1","0.0","1","null","6","null","6","null","6","1007.51","1","40.167168","18.174857"],
    [2201,"2024-04-01 16:00:00","13","galatina","21.8","1","57.36","1","0.0","1","null","6","null","6","null","6","1006.89","1","40.167168","18.174857"],
    [2202,"2024-04-01 17:00:00","13","galatina","20.45","1","63.64","1","0.0","1","null","6","null","6","null","6","1006.52","1","40.167168","18.174857"],
    [2203,"2024-04-01 18:00:00","13","galatina","18.73","1","71.4","1","0.0","1","null","6","null","6","null","6","1006.56","1","40.167168","18.174857"],
    [2204,"2024-04-01 19:00:00","13","galatina","17.17","1","78.82","1","0.0","1","null","6","null","6","null","6","1006.48","1","40.167168","18.174857"],
    [2205,"2024-04-01 20:00:00","13","galatina","16.31","1","84.16","1","0.0","1","null","6","null","6","null","6","1006.07","1","40.167168","18.174857"],
    [2206,"2024-04-01 21:00:00","13","galatina","16.15","1","85.75","1","0.0","1","null","6","null","6","null","6","1006.24","1","40.167168","18.174857"],
    [2207,"2024-04-01 22:00:00","13","galatina","16.15","1","86.17","1","0.0","1","null","6","null","6","null","6","1007.88","1","40.167168","18.174857"],
    [2208,"2024-04-01 23:00:00","13","galatina","16.01","1","88.46","1","0.0","1","null","6","null","6","null","6","1008.65","1","40.167168","18.174857"],
    [2209,"2024-04-02 00:00:00","13","galatina","15.85","1","85.07","1","0.0","1","null","6","null","6","null","6","1009.09","1","40.167168","18.174857"],
    [2210,"2024-04-02 01:00:00","13","galatina","15.97","1","82.35","1","0.0","1","null","6","null","6","null","6","1009.6","1","40.167168","18.174857"],
    [2211,"2024-04-02 02:00:00","13","galatina","15.33","1","84.63","1","0.0","1","null","6","null","6","null","6","1009.65","1","40.167168","18.174857"],
    [2212,"2024-04-02 03:00:00","13","galatina","14.05","1","86.62","1","0.0","1","null","6","null","6","null","6","1009.77","1","40.167168","18.174857"],
    [2213,"2024-04-02 04:00:00","13","galatina","13.78","1","85.84","1","0.0","1","null","6","null","6","null","6","1010.04","1","40.167168","18.174857"],
    [2214,"2024-04-02 05:00:00","13","galatina","13.94","1","80.99","1","0.0","1","null","6","null","6","null","6","1010.54","1","40.167168","18.174857"],
    [2215,"2024-04-02 06:00:00","13","galatina","13.3","1","84.42","1","0.0","1","null","6","null","6","null","6","1011.04","1","40.167168","18.174857"],
    [2216,"2024-04-02 07:00:00","13","galatina","14.03","1","82.46","1","0.0","1","null","6","null","6","null","6","1011.21","1","40.167168","18.174857"],
    [2217,"2024-04-02 08:00:00","13","galatina","15.69","1","71.29","1","0.0","1","null","6","null","6","null","6","1011.29","1","40.167168","18.174857"],
    [2218,"2024-04-02 09:00:00","13","galatina","17.16","1","62.59","1","0.0","1","null","6","null","6","null","6","1011.56","1","40.167168","18.174857"],
    [2219,"2024-04-02 10:00:00","13","galatina","18.12","1","53.67","1","0.0","1","null","6","null","6","null","6","1011.82","1","40.167168","18.174857"],
    [2220,"2024-04-02 11:00:00","13","galatina","19.86","1","44.34","1","0.0","1","null","6","null","6","null","6","1011.71","1","40.167168","18.174857"],
    [2221,"2024-04-02 12:00:00","13","galatina","21.21","1","36.2","1","0.0","1","null","6","null","6","null","6","1011.29","1","40.167168","18.174857"],
    [2222,"2024-04-02 13:00:00","13","galatina","21.04","1","33.07","1","0.0","1","null","6","null","6","null","6","1011.02","1","40.167168","18.174857"],
    [2223,"2024-04-02 14:00:00","13","galatina","21.89","1","30.8","1","0.0","1","null","6","null","6","null","6","1010.64","1","40.167168","18.174857"],
    [2224,"2024-04-02 15:00:00","13","galatina","22.69","1","31.43","1","0.0","1","null","6","null","6","null","6","1010.37","1","40.167168","18.174857"],
    [2225,"2024-04-02 16:00:00","13","galatina","21.18","1","38.87","1","0.0","1","null","6","null","6","null","6","1010.45","1","40.167168","18.174857"],
    [2226,"2024-04-02 17:00:00","13","galatina","18.86","1","43.32","1","0.0","1","null","6","null","6","null","6","1010.68","1","40.167168","18.174857"],
    [2227,"2024-04-02 18:00:00","13","galatina","17.74","1","48.94","1","0.0","1","null","6","null","6","null","6","1011.1","1","40.167168","18.174857"],
    [2228,"2024-04-02 19:00:00","13","galatina","15.5","1","56.96","1","0.0","1","null","6","null","6","null","6","1011.49","1","40.167168","18.174857"],
    [2229,"2024-04-02 20:00:00","13","galatina","13.99","1","62.46","1","0.0","1","null","6","null","6","null","6","1012.03","1","40.167168","18.174857"],
    [2230,"2024-04-02 21:00:00","13","galatina","13.17","1","65.16","1","0.0","1","null","6","null","6","null","6","1012.24","1","40.167168","18.174857"],
    [2231,"2024-04-02 22:00:00","13","galatina","12.1","1","69.16","1","0.0","1","null","6","null","6","null","6","1012.34","1","40.167168","18.174857"],
    [2232,"2024-04-02 23:00:00","13","galatina","11.19","1","73.69","1","0.0","1","null","6","null","6","null","6","1012.57","1","40.167168","18.174857"],
    [2233,"2024-04-03 00:00:00","13","galatina","10.31","1","78.36","1","0.0","1","null","6","null","6","null","6","1012.65","1","40.167168","18.174857"],
    [2234,"2024-04-03 01:00:00","13","galatina","11.21","1","70.3","1","0.0","1","null","6","null","6","null","6","1012.75","1","40.167168","18.174857"],
    [2235,"2024-04-03 02:00:00","13","galatina","9.49","1","77.55","1","0.0","1","null","6","null","6","null","6","1012.52","1","40.167168","18.174857"],
    [2236,"2024-04-03 03:00:00","13","galatina","8.56","1","82.16","1","0.0","1","null","6","null","6","null","6","1012.41","1","40.167168","18.174857"],
    [2237,"2024-04-03 04:00:00","13","galatina","8.69","1","80.2","1","0.0","1","null","6","null","6","null","6","1012.34","1","40.167168","18.174857"],
    [2238,"2024-04-03 05:00:00","13","galatina","10.54","1","72.06","1","0.0","1","null","6","null","6","null","6","1012.23","1","40.167168","18.174857"],
    [2239,"2024-04-03 06:00:00","13","galatina","9.11","1","77.87","1","0.0","1","null","6","null","6","null","6","1012.11","1","40.167168","18.174857"],
    [2240,"2024-04-03 07:00:00","13","galatina","9.6","1","81.17","1","0.0","1","null","6","null","6","null","6","1012.34","1","40.167168","18.174857"],
    [2241,"2024-04-03 08:00:00","13","galatina","15.81","1","72.44","1","0.0","1","null","6","null","6","null","6","1012.31","1","40.167168","18.174857"],
    [2242,"2024-04-03 09:00:00","13","galatina","18.68","1","62.11","1","0.0","1","null","6","null","6","null","6","1012.1","1","40.167168","18.174857"],
    [2243,"2024-04-03 10:00:00","13","galatina","19.75","1","42.76","1","0.0","1","null","6","null","6","null","6","1012.06","1","40.167168","18.174857"],
    [2244,"2024-04-03 11:00:00","13","galatina","21.35","1","30.98","1","0.0","1","null","6","null","6","null","6","1011.99","1","40.167168","18.174857"],
    [2245,"2024-04-03 12:00:00","13","galatina","22.73","1","25.06","1","0.0","1","null","6","null","6","null","6","1011.76","1","40.167168","18.174857"],
    [2246,"2024-04-03 13:00:00","13","galatina","22.7","1","34.89","1","0.0","1","null","6","null","6","null","6","1011.48","1","40.167168","18.174857"],
    [2247,"2024-04-03 14:00:00","13","galatina","22.5","1","30.89","1","0.0","1","null","6","null","6","null","6","1011.23","1","40.167168","18.174857"],
    [2248,"2024-04-03 15:00:00","13","galatina","22.13","1","25.8","1","0.0","1","null","6","null","6","null","6","1011.15","1","40.167168","18.174857"],
    [2249,"2024-04-03 16:00:00","13","galatina","22.14","1","25.63","1","0.0","1","null","6","null","6","null","6","1010.98","1","40.167168","18.174857"],
    [2250,"2024-04-03 17:00:00","13","galatina","21.94","1","29.55","1","0.0","1","null","6","null","6","null","6","1010.91","1","40.167168","18.174857"],
    [2251,"2024-04-03 18:00:00","13","galatina","18.84","1","38.16","1","0.0","1","null","6","null","6","null","6","1011.0","1","40.167168","18.174857"],
    [2252,"2024-04-03 19:00:00","13","galatina","16.95","1","42.08","1","0.0","1","null","6","null","6","null","6","1011.32","1","40.167168","18.174857"],
    [2253,"2024-04-03 20:00:00","13","galatina","15.17","1","48.11","1","0.0","1","null","6","null","6","null","6","1011.95","1","40.167168","18.174857"],
    [2254,"2024-04-03 21:00:00","13","galatina","13.56","1","57.34","1","0.0","1","null","6","null","6","null","6","1012.32","1","40.167168","18.174857"],
    [2255,"2024-04-03 22:00:00","13","galatina","12.42","1","64.65","1","0.0","1","null","6","null","6","null","6","1012.3","1","40.167168","18.174857"],
    [2256,"2024-04-03 23:00:00","13","galatina","11.05","1","70.37","1","0.0","1","null","6","null","6","null","6","1012.57","1","40.167168","18.174857"],
    [2257,"2024-04-04 00:00:00","13","galatina","10.34","1","73.97","1","0.0","1","null","6","null","6","null","6","1012.66","1","40.167168","18.174857"],
    [2258,"2024-04-04 01:00:00","13","galatina","9.6","1","77.62","1","0.0","1","null","6","null","6","null","6","1012.62","1","40.167168","18.174857"],
    [2259,"2024-04-04 02:00:00","13","galatina","9.27","1","80.71","1","0.0","1","null","6","null","6","null","6","1012.4","1","40.167168","18.174857"],
    [2260,"2024-04-04 03:00:00","13","galatina","10.17","1","87.82","1","0.0","1","null","6","null","6","null","6","1012.42","1","40.167168","18.174857"],
    [2261,"2024-04-04 04:00:00","13","galatina","11.71","1","91.21","1","0.0","1","null","6","null","6","null","6","1012.47","1","40.167168","18.174857"],
    [2262,"2024-04-04 05:00:00","13","galatina","12.31","1","78.06","1","0.0","1","null","6","null","6","null","6","1012.52","1","40.167168","18.174857"],
    [2263,"2024-04-04 06:00:00","13","galatina","12.48","1","64.67","1","0.0","1","null","6","null","6","null","6","1012.59","1","40.167168","18.174857"],
    [2264,"2024-04-04 07:00:00","13","galatina","14.33","1","54.71","1","0.0","1","null","6","null","6","null","6","1012.93","1","40.167168","18.174857"],
    [2265,"2024-04-04 08:00:00","13","galatina","16.93","1","47.84","1","0.0","1","null","6","null","6","null","6","1013.03","1","40.167168","18.174857"],
    [2266,"2024-04-04 09:00:00","13","galatina","17.99","1","47.08","1","0.0","1","null","6","null","6","null","6","1013.08","1","40.167168","18.174857"],
    [2267,"2024-04-04 10:00:00","13","galatina","19.33","1","46.72","1","0.0","1","null","6","null","6","null","6","1013.16","1","40.167168","18.174857"],
    [2268,"2024-04-04 11:00:00","13","galatina","20.55","1","43.36","1","0.0","1","null","6","null","6","null","6","1013.18","1","40.167168","18.174857"],
    [2269,"2024-04-04 12:00:00","13","galatina","22.17","1","38.88","1","0.0","1","null","6","null","6","null","6","1013.13","1","40.167168","18.174857"],
    [2270,"2024-04-04 13:00:00","13","galatina","22.44","1","36.1","1","0.0","1","null","6","null","6","null","6","1012.97","1","40.167168","18.174857"],
    [2271,"2024-04-04 14:00:00","13","galatina","22.55","1","33.25","1","0.0","1","null","6","null","6","null","6","1012.65","1","40.167168","18.174857"],
    [2272,"2024-04-04 15:00:00","13","galatina","23.25","1","36.38","1","0.0","1","null","6","null","6","null","6","1012.42","1","40.167168","18.174857"],
    [2273,"2024-04-04 16:00:00","13","galatina","23.07","1","35.74","1","0.0","1","null","6","null","6","null","6","1012.42","1","40.167168","18.174857"],
    [2274,"2024-04-04 17:00:00","13","galatina","21.73","1","40.37","1","0.0","1","null","6","null","6","null","6","1012.66","1","40.167168","18.174857"],
    [2275,"2024-04-04 18:00:00","13","galatina","19.03","1","48.94","1","0.0","1","null","6","null","6","null","6","1012.96","1","40.167168","18.174857"],
    [2276,"2024-04-04 19:00:00","13","galatina","16.19","1","62.82","1","0.0","1","null","6","null","6","null","6","1013.42","1","40.167168","18.174857"],
    [2277,"2024-04-04 20:00:00","13","galatina","14.66","1","74.3","1","0.0","1","null","6","null","6","null","6","1014.15","1","40.167168","18.174857"],
    [2278,"2024-04-04 21:00:00","13","galatina","13.35","1","80.71","1","0.0","1","null","6","null","6","null","6","1014.43","1","40.167168","18.174857"],
    [2279,"2024-04-04 22:00:00","13","galatina","12.78","1","84.16","1","0.0","1","null","6","null","6","null","6","1014.69","1","40.167168","18.174857"],
    [2280,"2024-04-04 23:00:00","13","galatina","13.09","1","87.48","1","0.0","1","null","6","null","6","null","6","1014.85","1","40.167168","18.174857"],
    [2281,"2024-04-05 00:00:00","13","galatina","12.38","1","86.28","1","0.0","1","null","6","null","6","null","6","1015.09","1","40.167168","18.174857"],
    [2282,"2024-04-05 01:00:00","13","galatina","11.97","1","84.87","1","0.0","1","null","6","null","6","null","6","1014.95","1","40.167168","18.174857"],
    [2283,"2024-04-05 02:00:00","13","galatina","10.46","1","84.89","1","0.0","1","null","6","null","6","null","6","1014.77","1","40.167168","18.174857"],
    [2284,"2024-04-05 03:00:00","13","galatina","9.4","1","88.86","1","0.0","1","null","6","null","6","null","6","1014.81","1","40.167168","18.174857"],
    [2285,"2024-04-05 04:00:00","13","galatina","8.54","1","88.79","1","0.0","1","null","6","null","6","null","6","1015.06","1","40.167168","18.174857"],
    [2286,"2024-04-05 05:00:00","13","galatina","7.86","1","89.71","1","0.0","1","null","6","null","6","null","6","1015.25","1","40.167168","18.174857"],
    [2287,"2024-04-05 06:00:00","13","galatina","7.3","1","91.42","1","0.0","1","null","6","null","6","null","6","1015.43","1","40.167168","18.174857"],
    [2288,"2024-04-05 07:00:00","13","galatina","10.57","1","85.4","1","0.0","1","null","6","null","6","null","6","1015.62","1","40.167168","18.174857"],
    [2289,"2024-04-05 08:00:00","13","galatina","17.81","1","56.29","1","0.0","1","null","6","null","6","null","6","1015.65","1","40.167168","18.174857"],
    [2290,"2024-04-05 09:00:00","13","galatina","20.83","1","37.82","1","0.0","1","null","6","null","6","null","6","1015.58","1","40.167168","18.174857"],
    [2291,"2024-04-05 10:00:00","13","galatina","21.37","1","36.37","1","0.0","1","null","6","null","6","null","6","1015.6","1","40.167168","18.174857"],
    [2292,"2024-04-05 11:00:00","13","galatina","21.99","1","36.95","1","0.0","1","null","6","null","6","null","6","1015.54","1","40.167168","18.174857"],
    [2293,"2024-04-05 12:00:00","13","galatina","23.34","1","34.3","1","0.0","1","null","6","null","6","null","6","1015.58","1","40.167168","18.174857"],
    [2294,"2024-04-05 13:00:00","13","galatina","23.38","1","34.45","1","0.0","1","null","6","null","6","null","6","1015.32","1","40.167168","18.174857"],
    [2295,"2024-04-05 14:00:00","13","galatina","24.15","1","31.52","1","0.0","1","null","6","null","6","null","6","1015.06","1","40.167168","18.174857"],
    [2296,"2024-04-05 15:00:00","13","galatina","24.48","1","29.0","1","0.0","1","null","6","null","6","null","6","1014.74","1","40.167168","18.174857"],
    [2297,"2024-04-05 16:00:00","13","galatina","23.7","1","30.42","1","0.0","1","null","6","null","6","null","6","1014.65","1","40.167168","18.174857"],
    [2298,"2024-04-05 17:00:00","13","galatina","22.23","1","32.42","1","0.0","1","null","6","null","6","null","6","1014.8","1","40.167168","18.174857"],
    [2299,"2024-04-05 18:00:00","13","galatina","20.23","1","35.42","1","0.0","1","null","6","null","6","null","6","1014.98","1","40.167168","18.174857"],
    [2300,"2024-04-05 19:00:00","13","galatina","17.28","1","43.8","1","0.0","1","null","6","null","6","null","6","1015.26","1","40.167168","18.174857"],
    [2301,"2024-04-05 20:00:00","13","galatina","15.7","1","53.34","1","0.0","1","null","6","null","6","null","6","1015.71","1","40.167168","18.174857"],
    [2302,"2024-04-05 21:00:00","13","galatina","15.31","1","56.17","1","0.0","1","null","6","null","6","null","6","1015.97","1","40.167168","18.174857"],
    [2303,"2024-04-05 22:00:00","13","galatina","14.86","1","62.03","1","0.0","1","null","6","null","6","null","6","1016.17","1","40.167168","18.174857"],
    [2304,"2024-04-05 23:00:00","13","galatina","13.14","1","69.26","1","0.0","1","null","6","null","6","null","6","1016.28","1","40.167168","18.174857"],
    [2305,"2024-04-06 00:00:00","13","galatina","10.78","1","77.64","1","0.0","1","null","6","null","6","null","6","1016.1","1","40.167168","18.174857"],
    [2306,"2024-04-06 01:00:00","13","galatina","10.19","1","79.77","1","0.0","1","null","6","null","6","null","6","1016.05","1","40.167168","18.174857"],
    [2307,"2024-04-06 02:00:00","13","galatina","9.72","1","81.55","1","0.0","1","null","6","null","6","null","6","1016.07","1","40.167168","18.174857"],
    [2308,"2024-04-06 03:00:00","13","galatina","8.91","1","83.2","1","0.0","1","null","6","null","6","null","6","1016.01","1","40.167168","18.174857"],
    [2309,"2024-04-06 04:00:00","13","galatina","8.39","1","85.04","1","0.0","1","null","6","null","6","null","6","1015.84","1","40.167168","18.174857"],
    [2310,"2024-04-06 05:00:00","13","galatina","8.54","1","85.12","1","0.0","1","null","6","null","6","null","6","1015.81","1","40.167168","18.174857"],
    [2311,"2024-04-06 06:00:00","13","galatina","8.24","1","85.56","1","0.0","1","null","6","null","6","null","6","1015.94","1","40.167168","18.174857"],
    [2312,"2024-04-06 07:00:00","13","galatina","11.85","1","76.52","1","0.0","1","null","6","null","6","null","6","1016.17","1","40.167168","18.174857"],
    [2313,"2024-04-06 08:00:00","13","galatina","18.55","1","54.19","1","0.0","1","null","6","null","6","null","6","1015.97","1","40.167168","18.174857"],
    [2314,"2024-04-06 09:00:00","13","galatina","20.94","1","42.96","1","0.0","1","null","6","null","6","null","6","1015.92","1","40.167168","18.174857"],
    [2315,"2024-04-06 10:00:00","13","galatina","21.87","1","39.35","1","0.0","1","null","6","null","6","null","6","1015.78","1","40.167168","18.174857"],
    [2316,"2024-04-06 11:00:00","13","galatina","22.58","1","35.71","1","0.0","1","null","6","null","6","null","6","1015.59","1","40.167168","18.174857"],
    [2317,"2024-04-06 12:00:00","13","galatina","23.77","1","33.96","1","0.0","1","null","6","null","6","null","6","1015.44","1","40.167168","18.174857"],
    [2318,"2024-04-06 13:00:00","13","galatina","23.7","1","33.88","1","0.0","1","null","6","null","6","null","6","1015.14","1","40.167168","18.174857"],
    [2319,"2024-04-06 14:00:00","13","galatina","24.31","1","33.46","1","0.0","1","null","6","null","6","null","6","1014.56","1","40.167168","18.174857"],
    [2320,"2024-04-06 15:00:00","13","galatina","25.0","1","32.01","1","0.0","1","null","6","null","6","null","6","1014.14","1","40.167168","18.174857"],
    [2321,"2024-04-06 16:00:00","13","galatina","24.31","1","32.74","1","0.0","1","null","6","null","6","null","6","1013.9","1","40.167168","18.174857"],
    [2322,"2024-04-06 17:00:00","13","galatina","23.26","1","34.54","1","0.0","1","null","6","null","6","null","6","1013.84","1","40.167168","18.174857"],
    [2323,"2024-04-06 18:00:00","13","galatina","22.05","1","36.14","1","0.0","1","null","6","null","6","null","6","1013.9","1","40.167168","18.174857"],
    [2324,"2024-04-06 19:00:00","13","galatina","18.99","1","41.61","1","0.0","1","null","6","null","6","null","6","1014.18","1","40.167168","18.174857"],
    [2325,"2024-04-06 20:00:00","13","galatina","17.51","1","45.4","1","0.0","1","null","6","null","6","null","6","1014.61","1","40.167168","18.174857"],
    [2326,"2024-04-06 21:00:00","13","galatina","17.14","1","47.34","1","0.0","1","null","6","null","6","null","6","1014.98","1","40.167168","18.174857"],
    [2327,"2024-04-06 22:00:00","13","galatina","16.53","1","50.08","1","0.0","1","null","6","null","6","null","6","1015.06","1","40.167168","18.174857"],
    [2328,"2024-04-06 23:00:00","13","galatina","15.7","1","52.84","1","0.0","1","null","6","null","6","null","6","1015.03","1","40.167168","18.174857"],
    [2329,"2024-04-07 00:00:00","13","galatina","15.28","1","53.45","1","0.0","1","null","6","null","6","null","6","1014.76","1","40.167168","18.174857"],
    [2330,"2024-04-07 01:00:00","13","galatina","13.74","1","59.6","1","0.0","1","null","6","null","6","null","6","1014.56","1","40.167168","18.174857"],
    [2331,"2024-04-07 02:00:00","13","galatina","13.69","1","58.82","1","0.0","1","null","6","null","6","null","6","1014.31","1","40.167168","18.174857"],
    [2332,"2024-04-07 03:00:00","13","galatina","13.97","1","56.45","1","0.0","1","null","6","null","6","null","6","1014.02","1","40.167168","18.174857"],
    [2333,"2024-04-07 04:00:00","13","galatina","13.6","1","58.07","1","0.0","1","null","6","null","6","null","6","1013.72","1","40.167168","18.174857"],
    [2334,"2024-04-07 05:00:00","13","galatina","13.57","1","58.44","1","0.0","1","null","6","null","6","null","6","1013.56","1","40.167168","18.174857"],
    [2335,"2024-04-07 06:00:00","13","galatina","13.64","1","58.21","1","0.0","1","null","6","null","6","null","6","1013.62","1","40.167168","18.174857"],
    [2336,"2024-04-07 07:00:00","13","galatina","15.07","1","56.05","1","0.0","1","null","6","null","6","null","6","1013.7","1","40.167168","18.174857"],
    [2337,"2024-04-07 08:00:00","13","galatina","17.36","1","53.52","1","0.0","1","null","6","null","6","null","6","1013.4","1","40.167168","18.174857"],
    [2338,"2024-04-07 09:00:00","13","galatina","20.42","1","48.12","1","0.0","1","null","6","null","6","null","6","1013.22","1","40.167168","18.174857"],
    [2339,"2024-04-07 10:00:00","13","galatina","21.84","1","44.49","1","0.0","1","null","6","null","6","null","6","1012.96","1","40.167168","18.174857"],
    [2340,"2024-04-07 11:00:00","13","galatina","22.7","1","41.08","1","0.0","1","null","6","null","6","null","6","1012.72","1","40.167168","18.174857"],
    [2341,"2024-04-07 12:00:00","13","galatina","23.82","1","37.74","1","0.0","1","null","6","null","6","null","6","1012.39","1","40.167168","18.174857"],
    [2342,"2024-04-07 13:00:00","13","galatina","24.25","1","37.57","1","0.0","1","null","6","null","6","null","6","1011.96","1","40.167168","18.174857"],
    [2343,"2024-04-07 14:00:00","13","galatina","24.34","1","39.4","1","0.0","1","null","6","null","6","null","6","1011.45","1","40.167168","18.174857"],
    [2344,"2024-04-07 15:00:00","13","galatina","24.64","1","40.17","1","0.0","1","null","6","null","6","null","6","1011.01","1","40.167168","18.174857"],
    [2345,"2024-04-07 16:00:00","13","galatina","24.1","1","38.41","1","0.0","1","null","6","null","6","null","6","1010.71","1","40.167168","18.174857"],
    [2346,"2024-04-07 17:00:00","13","galatina","23.19","1","39.06","1","0.0","1","null","6","null","6","null","6","1010.67","1","40.167168","18.174857"],
    [2347,"2024-04-07 18:00:00","13","galatina","21.49","1","40.91","1","0.0","1","null","6","null","6","null","6","1010.58","1","40.167168","18.174857"],
    [2348,"2024-04-07 19:00:00","13","galatina","19.28","1","46.32","1","0.0","1","null","6","null","6","null","6","1010.68","1","40.167168","18.174857"],
    [2349,"2024-04-07 20:00:00","13","galatina","17.97","1","50.55","1","0.0","1","null","6","null","6","null","6","1011.22","1","40.167168","18.174857"],
    [2350,"2024-04-07 21:00:00","13","galatina","17.12","1","55.79","1","0.0","1","null","6","null","6","null","6","1011.7","1","40.167168","18.174857"],
    [2351,"2024-04-07 22:00:00","13","galatina","16.18","1","64.88","1","0.0","1","null","6","null","6","null","6","1011.96","1","40.167168","18.174857"],
    [2352,"2024-04-07 23:00:00","13","galatina","15.8","1","67.94","1","0.0","1","null","6","null","6","null","6","1012.19","1","40.167168","18.174857"],
    [2353,"2024-04-08 00:00:00","13","galatina","15.36","1","76.16","1","0.0","1","null","6","null","6","null","6","1012.25","1","40.167168","18.174857"],
    [2354,"2024-04-08 01:00:00","13","galatina","15.23","1","80.53","1","0.0","1","null","6","null","6","null","6","1012.1","1","40.167168","18.174857"],
    [2355,"2024-04-08 02:00:00","13","galatina","14.99","1","82.96","1","0.0","1","null","6","null","6","null","6","1012.06","1","40.167168","18.174857"],
    [2356,"2024-04-08 03:00:00","13","galatina","14.36","1","86.09","1","0.0","1","null","6","null","6","null","6","1012.34","1","40.167168","18.174857"],
    [2357,"2024-04-08 04:00:00","13","galatina","13.34","1","89.48","1","0.0","1","null","6","null","6","null","6","1012.48","1","40.167168","18.174857"],
    [2358,"2024-04-08 05:00:00","13","galatina","12.7","1","91.05","1","0.0","1","null","6","null","6","null","6","1012.6","1","40.167168","18.174857"],
    [2359,"2024-04-08 06:00:00","13","galatina","11.84","1","92.6","1","0.0","1","null","6","null","6","null","6","1012.76","1","40.167168","18.174857"],
    [2360,"2024-04-08 07:00:00","13","galatina","13.61","1","89.97","1","0.0","1","null","6","null","6","null","6","1013.1","1","40.167168","18.174857"],
    [2361,"2024-04-08 08:00:00","13","galatina","18.89","1","73.72","1","0.0","1","null","6","null","6","null","6","1012.94","1","40.167168","18.174857"],
    [2362,"2024-04-08 09:00:00","13","galatina","21.56","1","63.81","1","0.0","1","null","6","null","6","null","6","1012.81","1","40.167168","18.174857"],
    [2363,"2024-04-08 10:00:00","13","galatina","23.57","1","44.67","1","0.0","1","null","6","null","6","null","6","1012.74","1","40.167168","18.174857"],
    [2364,"2024-04-08 11:00:00","13","galatina","24.45","1","38.68","1","0.0","1","null","6","null","6","null","6","1012.56","1","40.167168","18.174857"],
    [2365,"2024-04-08 12:00:00","13","galatina","25.7","1","34.04","1","0.0","1","null","6","null","6","null","6","1012.35","1","40.167168","18.174857"],
    [2366,"2024-04-08 13:00:00","13","galatina","25.9","1","32.53","1","0.0","1","null","6","null","6","null","6","1012.02","1","40.167168","18.174857"],
    [2367,"2024-04-08 14:00:00","13","galatina","26.18","1","31.59","1","0.0","1","null","6","null","6","null","6","1011.75","1","40.167168","18.174857"],
    [2368,"2024-04-08 15:00:00","13","galatina","26.45","1","31.27","1","0.0","1","null","6","null","6","null","6","1011.39","1","40.167168","18.174857"],
    [2369,"2024-04-08 16:00:00","13","galatina","26.59","1","30.19","1","0.0","1","null","6","null","6","null","6","1011.24","1","40.167168","18.174857"],
    [2370,"2024-04-08 17:00:00","13","galatina","25.59","1","30.8","1","0.0","1","null","6","null","6","null","6","1011.03","1","40.167168","18.174857"],
    [2371,"2024-04-08 18:00:00","13","galatina","22.43","1","37.87","1","0.0","1","null","6","null","6","null","6","1011.11","1","40.167168","18.174857"],
    [2372,"2024-04-08 19:00:00","13","galatina","19.2","1","47.9","1","0.0","1","null","6","null","6","null","6","1011.35","1","40.167168","18.174857"],
    [2373,"2024-04-08 20:00:00","13","galatina","16.92","1","57.48","1","0.0","1","null","6","null","6","null","6","1011.8","1","40.167168","18.174857"],
    [2374,"2024-04-08 21:00:00","13","galatina","15.31","1","65.02","1","0.0","1","null","6","null","6","null","6","1012.27","1","40.167168","18.174857"],
    [2375,"2024-04-08 22:00:00","13","galatina","14.73","1","68.8","1","0.0","1","null","6","null","6","null","6","1012.64","1","40.167168","18.174857"],
    [2376,"2024-04-08 23:00:00","13","galatina","14.25","1","71.44","1","0.0","1","null","6","null","6","null","6","1012.81","1","40.167168","18.174857"],
    [2377,"2024-04-09 00:00:00","13","galatina","14.04","1","74.76","1","0.0","1","null","6","null","6","null","6","1012.64","1","40.167168","18.174857"],
    [2378,"2024-04-09 01:00:00","13","galatina","13.23","1","77.87","1","0.0","1","null","6","null","6","null","6","1012.45","1","40.167168","18.174857"],
    [2379,"2024-04-09 02:00:00","13","galatina","12.65","1","81.51","1","0.0","1","null","6","null","6","null","6","1012.27","1","40.167168","18.174857"],
    [2380,"2024-04-09 03:00:00","13","galatina","11.85","1","83.67","1","0.0","1","null","6","null","6","null","6","1012.08","1","40.167168","18.174857"],
    [2381,"2024-04-09 04:00:00","13","galatina","11.49","1","84.74","1","0.0","1","null","6","null","6","null","6","1011.94","1","40.167168","18.174857"],
    [2382,"2024-04-09 05:00:00","13","galatina","10.7","1","86.43","1","0.0","1","null","6","null","6","null","6","1012.05","1","40.167168","18.174857"],
    [2383,"2024-04-09 06:00:00","13","galatina","10.29","1","87.35","1","0.0","1","null","6","null","6","null","6","1012.16","1","40.167168","18.174857"],
    [2384,"2024-04-09 07:00:00","13","galatina","13.24","1","78.41","1","0.0","1","null","6","null","6","null","6","1012.27","1","40.167168","18.174857"],
    [2385,"2024-04-09 08:00:00","13","galatina","19.15","1","60.34","1","0.0","1","null","6","null","6","null","6","1012.0","1","40.167168","18.174857"],
    [2386,"2024-04-09 09:00:00","13","galatina","22.31","1","39.51","1","0.0","1","null","6","null","6","null","6","1011.72","1","40.167168","18.174857"],
    [2387,"2024-04-09 10:00:00","13","galatina","23.52","1","32.93","1","0.0","1","null","6","null","6","null","6","1011.49","1","40.167168","18.174857"],
    [2388,"2024-04-09 11:00:00","13","galatina","24.8","1","28.0","1","0.0","1","null","6","null","6","null","6","1011.34","1","40.167168","18.174857"],
    [2389,"2024-04-09 12:00:00","13","galatina","25.67","1","23.73","1","0.0","1","null","6","null","6","null","6","1011.27","1","40.167168","18.174857"],
    [2390,"2024-04-09 13:00:00","13","galatina","25.71","1","23.43","1","0.0","1","null","6","null","6","null","6","1011.01","1","40.167168","18.174857"],
    [2391,"2024-04-09 14:00:00","13","galatina","26.02","1","24.73","1","0.0","1","null","6","null","6","null","6","1010.58","1","40.167168","18.174857"],
    [2392,"2024-04-09 15:00:00","13","galatina","25.63","1","25.08","1","0.0","1","null","6","null","6","null","6","1010.39","1","40.167168","18.174857"],
    [2393,"2024-04-09 16:00:00","13","galatina","24.54","1","28.53","1","0.0","1","null","6","null","6","null","6","1010.2","1","40.167168","18.174857"],
    [2394,"2024-04-09 17:00:00","13","galatina","23.47","1","31.52","1","0.0","1","null","6","null","6","null","6","1010.0","1","40.167168","18.174857"],
    [2395,"2024-04-09 18:00:00","13","galatina","21.54","1","33.13","1","0.0","1","null","6","null","6","null","6","1010.06","1","40.167168","18.174857"],
    [2396,"2024-04-09 19:00:00","13","galatina","18.74","1","41.61","1","0.0","1","null","6","null","6","null","6","1010.25","1","40.167168","18.174857"],
    [2397,"2024-04-09 20:00:00","13","galatina","17.21","1","52.62","1","0.0","1","null","6","null","6","null","6","1010.65","1","40.167168","18.174857"],
    [2398,"2024-04-09 21:00:00","13","galatina","16.68","1","54.47","1","0.0","1","null","6","null","6","null","6","1011.0","1","40.167168","18.174857"],
    [2399,"2024-04-09 22:00:00","13","galatina","16.0","1","61.79","1","0.0","1","null","6","null","6","null","6","1011.01","1","40.167168","18.174857"],
    [2400,"2024-04-09 23:00:00","13","galatina","14.67","1","71.07","1","0.0","1","null","6","null","6","null","6","1010.96","1","40.167168","18.174857"],
    [2401,"2024-04-10 00:00:00","13","galatina","13.51","1","78.85","1","0.0","1","null","6","null","6","null","6","1010.85","1","40.167168","18.174857"],
    [2402,"2024-04-10 01:00:00","13","galatina","12.2","1","84.8","1","0.0","1","null","6","null","6","null","6","1010.63","1","40.167168","18.174857"],
    [2403,"2024-04-10 02:00:00","13","galatina","12.06","1","91.29","1","0.0","1","null","6","null","6","null","6","1010.29","1","40.167168","18.174857"],
    [2404,"2024-04-10 03:00:00","13","galatina","12.42","1","94.37","1","0.0","1","null","6","null","6","null","6","1010.25","1","40.167168","18.174857"],
    [2405,"2024-04-10 04:00:00","13","galatina","13.82","1","94.93","1","0.0","1","null","6","null","6","null","6","1010.18","1","40.167168","18.174857"],
    [2406,"2024-04-10 05:00:00","13","galatina","14.53","1","91.87","1","0.0","1","null","6","null","6","null","6","1009.94","1","40.167168","18.174857"],
    [2407,"2024-04-10 06:00:00","13","galatina","14.11","1","92.94","1","0.0","1","null","6","null","6","null","6","1009.88","1","40.167168","18.174857"],
    [2408,"2024-04-10 07:00:00","13","galatina","15.67","1","89.18","1","0.0","1","null","6","null","6","null","6","1010.12","1","40.167168","18.174857"],
    [2409,"2024-04-10 08:00:00","13","galatina","18.3","1","77.87","1","0.0","1","null","6","null","6","null","6","1009.89","1","40.167168","18.174857"],
    [2410,"2024-04-10 09:00:00","13","galatina","19.75","1","70.99","1","0.0","1","null","6","null","6","null","6","1010.0","1","40.167168","18.174857"],
    [2411,"2024-04-10 10:00:00","13","galatina","20.88","1","65.21","1","0.0","1","null","6","null","6","null","6","1010.35","1","40.167168","18.174857"],
    [2412,"2024-04-10 11:00:00","13","galatina","22.49","1","55.77","1","0.0","1","null","6","null","6","null","6","1010.29","1","40.167168","18.174857"],
    [2413,"2024-04-10 12:00:00","13","galatina","24.04","1","47.18","1","0.0","1","null","6","null","6","null","6","1010.02","1","40.167168","18.174857"],
    [2414,"2024-04-10 13:00:00","13","galatina","24.25","1","42.84","1","0.0","1","null","6","null","6","null","6","1009.95","1","40.167168","18.174857"],
    [2415,"2024-04-10 14:00:00","13","galatina","24.58","1","45.35","1","0.0","1","null","6","null","6","null","6","1009.84","1","40.167168","18.174857"],
    [2416,"2024-04-10 15:00:00","13","galatina","24.53","1","45.28","1","0.0","1","null","6","null","6","null","6","1009.73","1","40.167168","18.174857"],
    [2417,"2024-04-10 16:00:00","13","galatina","23.42","1","52.27","1","0.0","1","null","6","null","6","null","6","1009.83","1","40.167168","18.174857"],
    [2418,"2024-04-10 17:00:00","13","galatina","22.25","1","56.73","1","0.0","1","null","6","null","6","null","6","1010.08","1","40.167168","18.174857"],
    [2419,"2024-04-10 18:00:00","13","galatina","20.63","1","61.11","1","0.0","1","null","6","null","6","null","6","1010.46","1","40.167168","18.174857"],
    [2420,"2024-04-10 19:00:00","13","galatina","18.94","1","66.48","1","0.0","1","null","6","null","6","null","6","1011.04","1","40.167168","18.174857"],
    [2421,"2024-04-10 20:00:00","13","galatina","17.56","1","74.15","1","0.0","1","null","6","null","6","null","6","1011.89","1","40.167168","18.174857"],
    [2422,"2024-04-10 21:00:00","13","galatina","17.04","1","76.06","1","0.0","1","null","6","null","6","null","6","1012.45","1","40.167168","18.174857"],
    [2423,"2024-04-10 22:00:00","13","galatina","17.46","1","67.42","1","0.0","1","null","6","null","6","null","6","1012.72","1","40.167168","18.174857"],
    [2424,"2024-04-10 23:00:00","13","galatina","16.87","1","66.04","1","0.0","1","null","6","null","6","null","6","1012.97","1","40.167168","18.174857"],
    [2425,"2024-04-11 00:00:00","13","galatina","16.16","1","65.84","1","0.0","1","null","6","null","6","null","6","1013.25","1","40.167168","18.174857"],
    [2426,"2024-04-11 01:00:00","13","galatina","15.73","1","68.07","1","0.0","1","null","6","null","6","null","6","1013.31","1","40.167168","18.174857"],
    [2427,"2024-04-11 02:00:00","13","galatina","15.05","1","73.34","1","0.0","1","null","6","null","6","null","6","1013.26","1","40.167168","18.174857"],
    [2428,"2024-04-11 03:00:00","13","galatina","14.44","1","72.03","1","0.0","1","null","6","null","6","null","6","1013.17","1","40.167168","18.174857"],
    [2429,"2024-04-11 04:00:00","13","galatina","14.17","1","69.6","1","0.0","1","null","6","null","6","null","6","1012.98","1","40.167168","18.174857"],
    [2430,"2024-04-11 05:00:00","13","galatina","13.62","1","75.75","1","0.0","1","null","6","null","6","null","6","1013.1","1","40.167168","18.174857"],
    [2431,"2024-04-11 06:00:00","13","galatina","13.8","1","75.08","1","0.0","1","null","6","null","6","null","6","1013.56","1","40.167168","18.174857"],
    [2432,"2024-04-11 07:00:00","13","galatina","14.57","1","73.42","1","0.0","1","null","6","null","6","null","6","1013.88","1","40.167168","18.174857"],
    [2433,"2024-04-11 08:00:00","13","galatina","16.72","1","77.46","1","0.0","1","null","6","null","6","null","6","1013.86","1","40.167168","18.174857"],
    [2434,"2024-04-11 09:00:00","13","galatina","18.67","1","73.08","1","0.0","1","null","6","null","6","null","6","1014.09","1","40.167168","18.174857"],
    [2435,"2024-04-11 10:00:00","13","galatina","20.15","1","65.09","1","0.0","1","null","6","null","6","null","6","1014.4","1","40.167168","18.174857"],
    [2436,"2024-04-11 11:00:00","13","galatina","20.28","1","61.83","1","0.0","1","null","6","null","6","null","6","1014.42","1","40.167168","18.174857"],
    [2437,"2024-04-11 12:00:00","13","galatina","20.31","1","61.33","1","0.0","1","null","6","null","6","null","6","1014.6","1","40.167168","18.174857"],
    [2438,"2024-04-11 13:00:00","13","galatina","20.66","1","60.12","1","0.0","1","null","6","null","6","null","6","1014.43","1","40.167168","18.174857"],
    [2439,"2024-04-11 14:00:00","13","galatina","20.72","1","60.48","1","0.0","1","null","6","null","6","null","6","1014.33","1","40.167168","18.174857"],
    [2440,"2024-04-11 15:00:00","13","galatina","20.72","1","59.99","1","0.0","1","null","6","null","6","null","6","1014.22","1","40.167168","18.174857"],
    [2441,"2024-04-11 16:00:00","13","galatina","21.54","1","56.42","1","0.0","1","null","6","null","6","null","6","1014.1","1","40.167168","18.174857"],
    [2442,"2024-04-11 17:00:00","13","galatina","20.4","1","57.7","1","0.0","1","null","6","null","6","null","6","1014.19","1","40.167168","18.174857"],
    [2443,"2024-04-11 18:00:00","13","galatina","19.24","1","62.26","1","0.0","1","null","6","null","6","null","6","1014.38","1","40.167168","18.174857"],
    [2444,"2024-04-11 19:00:00","13","galatina","17.69","1","68.56","1","0.0","1","null","6","null","6","null","6","1014.72","1","40.167168","18.174857"],
    [2445,"2024-04-11 20:00:00","13","galatina","16.49","1","74.57","1","0.0","1","null","6","null","6","null","6","1015.35","1","40.167168","18.174857"],
    [2446,"2024-04-11 21:00:00","13","galatina","16.1","1","79.34","1","0.0","1","null","6","null","6","null","6","1015.89","1","40.167168","18.174857"],
    [2447,"2024-04-11 22:00:00","13","galatina","15.81","1","80.59","1","0.0","1","null","6","null","6","null","6","1016.11","1","40.167168","18.174857"],
    [2448,"2024-04-11 23:00:00","13","galatina","15.62","1","81.99","1","0.0","1","null","6","null","6","null","6","1016.38","1","40.167168","18.174857"],
    [2449,"2024-04-12 00:00:00","13","galatina","15.43","1","81.21","1","0.0","1","null","6","null","6","null","6","1016.55","1","40.167168","18.174857"],
    [2450,"2024-04-12 01:00:00","13","galatina","15.25","1","80.98","1","0.0","1","null","6","null","6","null","6","1016.53","1","40.167168","18.174857"],
    [2451,"2024-04-12 02:00:00","13","galatina","15.22","1","77.68","1","0.0","1","null","6","null","6","null","6","1016.26","1","40.167168","18.174857"],
    [2452,"2024-04-12 03:00:00","13","galatina","15.06","1","74.27","1","0.0","1","null","6","null","6","null","6","1016.22","1","40.167168","18.174857"],
    [2453,"2024-04-12 04:00:00","13","galatina","14.78","1","73.74","1","0.0","1","null","6","null","6","null","6","1016.32","1","40.167168","18.174857"],
    [2454,"2024-04-12 05:00:00","13","galatina","14.8","1","74.91","1","0.0","1","null","6","null","6","null","6","1016.26","1","40.167168","18.174857"],
    [2455,"2024-04-12 06:00:00","13","galatina","14.74","1","77.95","1","0.0","1","null","6","null","6","null","6","1016.3","1","40.167168","18.174857"],
    [2456,"2024-04-12 07:00:00","13","galatina","16.24","1","75.17","1","0.0","1","null","6","null","6","null","6","1016.41","1","40.167168","18.174857"],
    [2457,"2024-04-12 08:00:00","13","galatina","18.73","1","68.77","1","0.0","1","null","6","null","6","null","6","1016.35","1","40.167168","18.174857"],
    [2458,"2024-04-12 09:00:00","13","galatina","20.5","1","63.69","1","0.0","1","null","6","null","6","null","6","1016.29","1","40.167168","18.174857"],
    [2459,"2024-04-12 10:00:00","13","galatina","21.79","1","58.2","1","0.0","1","null","6","null","6","null","6","1016.22","1","40.167168","18.174857"],
    [2460,"2024-04-12 11:00:00","13","galatina","22.82","1","53.15","1","0.0","1","null","6","null","6","null","6","1016.15","1","40.167168","18.174857"],
    [2461,"2024-04-12 12:00:00","13","galatina","24.07","1","47.35","1","0.0","1","null","6","null","6","null","6","1015.93","1","40.167168","18.174857"],
    [2462,"2024-04-12 13:00:00","13","galatina","24.47","1","44.57","1","0.0","1","null","6","null","6","null","6","1015.74","1","40.167168","18.174857"],
    [2463,"2024-04-12 14:00:00","13","galatina","25.23","1","40.62","1","0.0","1","null","6","null","6","null","6","1015.25","1","40.167168","18.174857"],
    [2464,"2024-04-12 15:00:00","13","galatina","25.26","1","39.01","1","0.0","1","null","6","null","6","null","6","1014.93","1","40.167168","18.174857"],
    [2465,"2024-04-12 16:00:00","13","galatina","24.89","1","38.02","1","0.0","1","null","6","null","6","null","6","1014.78","1","40.167168","18.174857"],
    [2466,"2024-04-12 17:00:00","13","galatina","23.98","1","39.6","1","0.0","1","null","6","null","6","null","6","1014.73","1","40.167168","18.174857"],
    [2467,"2024-04-12 18:00:00","13","galatina","22.32","1","44.05","1","0.0","1","null","6","null","6","null","6","1014.84","1","40.167168","18.174857"],
    [2468,"2024-04-12 19:00:00","13","galatina","19.93","1","51.08","1","0.0","1","null","6","null","6","null","6","1014.97","1","40.167168","18.174857"],
    [2469,"2024-04-12 20:00:00","13","galatina","18.49","1","57.0","1","0.0","1","null","6","null","6","null","6","1015.41","1","40.167168","18.174857"],
    [2470,"2024-04-12 21:00:00","13","galatina","17.54","1","61.89","1","0.0","1","null","6","null","6","null","6","1015.89","1","40.167168","18.174857"],
    [2471,"2024-04-12 22:00:00","13","galatina","16.71","1","69.48","1","0.0","1","null","6","null","6","null","6","1016.33","1","40.167168","18.174857"],
    [2472,"2024-04-12 23:00:00","13","galatina","15.51","1","75.99","1","0.0","1","null","6","null","6","null","6","1016.76","1","40.167168","18.174857"],
    [2473,"2024-04-13 00:00:00","13","galatina","15.15","1","77.2","1","0.0","1","null","6","null","6","null","6","1016.83","1","40.167168","18.174857"],
    [2474,"2024-04-13 01:00:00","13","galatina","15.58","1","73.82","1","0.0","1","null","6","null","6","null","6","1016.74","1","40.167168","18.174857"],
    [2475,"2024-04-13 02:00:00","13","galatina","15.35","1","73.87","1","0.0","1","null","6","null","6","null","6","1016.56","1","40.167168","18.174857"],
    [2476,"2024-04-13 03:00:00","13","galatina","15.19","1","72.52","1","0.0","1","null","6","null","6","null","6","1016.42","1","40.167168","18.174857"],
    [2477,"2024-04-13 04:00:00","13","galatina","14.46","1","74.79","1","0.0","1","null","6","null","6","null","6","1016.31","1","40.167168","18.174857"],
    [2478,"2024-04-13 05:00:00","13","galatina","14.77","1","70.31","1","0.0","1","null","6","null","6","null","6","1016.32","1","40.167168","18.174857"],
    [2479,"2024-04-13 06:00:00","13","galatina","14.4","1","71.4","1","0.0","1","null","6","null","6","null","6","1016.53","1","40.167168","18.174857"],
    [2480,"2024-04-13 07:00:00","13","galatina","17.47","1","61.7","1","0.0","1","null","6","null","6","null","6","1016.84","1","40.167168","18.174857"],
    [2481,"2024-04-13 08:00:00","13","galatina","20.5","1","52.17","1","0.0","1","null","6","null","6","null","6","1016.79","1","40.167168","18.174857"],
    [2482,"2024-04-13 09:00:00","13","galatina","21.99","1","49.59","1","0.0","1","null","6","null","6","null","6","1016.61","1","40.167168","18.174857"],
    [2483,"2024-04-13 10:00:00","13","galatina","22.91","1","49.96","1","0.0","1","null","6","null","6","null","6","1016.45","1","40.167168","18.174857"],
    [2484,"2024-04-13 11:00:00","13","galatina","23.69","1","49.0","1","0.0","1","null","6","null","6","null","6","1016.26","1","40.167168","18.174857"],
    [2485,"2024-04-13 12:00:00","13","galatina","24.84","1","46.64","1","0.0","1","null","6","null","6","null","6","1016.05","1","40.167168","18.174857"],
    [2486,"2024-04-13 13:00:00","13","galatina","25.42","1","44.78","1","0.0","1","null","6","null","6","null","6","1015.76","1","40.167168","18.174857"],
    [2487,"2024-04-13 14:00:00","13","galatina","26.09","1","43.62","1","0.0","1","null","6","null","6","null","6","1015.4","1","40.167168","18.174857"],
    [2488,"2024-04-13 15:00:00","13","galatina","26.42","1","43.68","1","0.0","1","null","6","null","6","null","6","1015.04","1","40.167168","18.174857"],
    [2489,"2024-04-13 16:00:00","13","galatina","25.88","1","44.29","1","0.0","1","null","6","null","6","null","6","1014.9","1","40.167168","18.174857"],
    [2490,"2024-04-13 17:00:00","13","galatina","24.76","1","47.25","1","0.0","1","null","6","null","6","null","6","1014.78","1","40.167168","18.174857"],
    [2491,"2024-04-13 18:00:00","13","galatina","23.25","1","47.96","1","0.0","1","null","6","null","6","null","6","1014.67","1","40.167168","18.174857"],
    [2492,"2024-04-13 19:00:00","13","galatina","20.7","1","57.12","1","0.0","1","null","6","null","6","null","6","1014.93","1","40.167168","18.174857"],
    [2493,"2024-04-13 20:00:00","13","galatina","18.74","1","62.04","1","0.0","1","null","6","null","6","null","6","1015.32","1","40.167168","18.174857"],
    [2494,"2024-04-13 21:00:00","13","galatina","17.47","1","69.08","1","0.0","1","null","6","null","6","null","6","1015.7","1","40.167168","18.174857"],
    [2495,"2024-04-13 22:00:00","13","galatina","16.24","1","75.05","1","0.0","1","null","6","null","6","null","6","1016.18","1","40.167168","18.174857"],
    [2496,"2024-04-13 23:00:00","13","galatina","15.79","1","77.79","1","0.0","1","null","6","null","6","null","6","1016.27","1","40.167168","18.174857"],
    [2497,"2024-04-14 00:00:00","13","galatina","15.23","1","80.87","1","0.0","1","null","6","null","6","null","6","1016.22","1","40.167168","18.174857"],
    [2498,"2024-04-14 01:00:00","13","galatina","13.67","1","84.82","1","0.0","1","null","6","null","6","null","6","1016.12","1","40.167168","18.174857"],
    [2499,"2024-04-14 02:00:00","13","galatina","12.86","1","86.43","1","0.0","1","null","6","null","6","null","6","1016.06","1","40.167168","18.174857"],
    [2500,"2024-04-14 03:00:00","13","galatina","15.3","1","71.9","1","0.0","1","null","6","null","6","null","6","1015.92","1","40.167168","18.174857"],
    [2501,"2024-04-14 04:00:00","13","galatina","14.65","1","71.56","1","0.0","1","null","6","null","6","null","6","1015.8","1","40.167168","18.174857"],
    [2502,"2024-04-14 05:00:00","13","galatina","14.77","1","69.45","1","0.0","1","null","6","null","6","null","6","1015.83","1","40.167168","18.174857"],
    [2503,"2024-04-14 06:00:00","13","galatina","15.49","1","64.48","1","0.0","1","null","6","null","6","null","6","1015.96","1","40.167168","18.174857"],
    [2504,"2024-04-14 07:00:00","13","galatina","17.47","1","57.76","1","0.0","1","null","6","null","6","null","6","1016.14","1","40.167168","18.174857"],
    [2505,"2024-04-14 08:00:00","13","galatina","20.26","1","52.22","1","0.0","1","null","6","null","6","null","6","1015.9","1","40.167168","18.174857"],
    [2506,"2024-04-14 09:00:00","13","galatina","22.72","1","45.2","1","0.0","1","null","6","null","6","null","6","1015.69","1","40.167168","18.174857"],
    [2507,"2024-04-14 10:00:00","13","galatina","24.48","1","39.95","1","0.0","1","null","6","null","6","null","6","1015.72","1","40.167168","18.174857"],
    [2508,"2024-04-14 11:00:00","13","galatina","25.5","1","38.01","1","0.0","1","null","6","null","6","null","6","1015.53","1","40.167168","18.174857"],
    [2509,"2024-04-14 12:00:00","13","galatina","26.43","1","35.98","1","0.0","1","null","6","null","6","null","6","1015.27","1","40.167168","18.174857"],
    [2510,"2024-04-14 13:00:00","13","galatina","27.2","1","34.35","1","0.0","1","null","6","null","6","null","6","1015.0","1","40.167168","18.174857"],
    [2511,"2024-04-14 14:00:00","13","galatina","28.29","1","32.36","1","0.0","1","null","6","null","6","null","6","1014.54","1","40.167168","18.174857"],
    [2512,"2024-04-14 15:00:00","13","galatina","29.09","1","31.08","1","0.0","1","null","6","null","6","null","6","1013.94","1","40.167168","18.174857"],
    [2513,"2024-04-14 16:00:00","13","galatina","28.88","1","30.44","1","0.0","1","null","6","null","6","null","6","1013.72","1","40.167168","18.174857"],
    [2514,"2024-04-14 17:00:00","13","galatina","27.39","1","31.89","1","0.0","1","null","6","null","6","null","6","1013.59","1","40.167168","18.174857"],
    [2515,"2024-04-14 18:00:00","13","galatina","25.41","1","36.23","1","0.0","1","null","6","null","6","null","6","1013.59","1","40.167168","18.174857"],
    [2516,"2024-04-14 19:00:00","13","galatina","22.2","1","43.17","1","0.0","1","null","6","null","6","null","6","1013.56","1","40.167168","18.174857"],
    [2517,"2024-04-14 20:00:00","13","galatina","20.0","1","51.97","1","0.0","1","null","6","null","6","null","6","1013.92","1","40.167168","18.174857"],
    [2518,"2024-04-14 21:00:00","13","galatina","18.07","1","60.46","1","0.0","1","null","6","null","6","null","6","1014.35","1","40.167168","18.174857"],
    [2519,"2024-04-14 22:00:00","13","galatina","16.78","1","62.63","1","0.0","1","null","6","null","6","null","6","1014.64","1","40.167168","18.174857"],
    [2520,"2024-04-14 23:00:00","13","galatina","15.71","1","66.44","1","0.0","1","null","6","null","6","null","6","1014.67","1","40.167168","18.174857"],
    [2521,"2024-04-15 00:00:00","13","galatina","14.44","1","72.1","1","0.0","1","null","6","null","6","null","6","1014.36","1","40.167168","18.174857"],
    [2522,"2024-04-15 01:00:00","13","galatina","14.0","1","74.82","1","0.0","1","null","6","null","6","null","6","1014.05","1","40.167168","18.174857"],
    [2523,"2024-04-15 02:00:00","13","galatina","13.73","1","79.53","1","0.0","1","null","6","null","6","null","6","1013.91","1","40.167168","18.174857"],
    [2524,"2024-04-15 03:00:00","13","galatina","12.61","1","84.71","1","0.0","1","null","6","null","6","null","6","1013.69","1","40.167168","18.174857"],
    [2525,"2024-04-15 04:00:00","13","galatina","12.29","1","85.78","1","0.0","1","null","6","null","6","null","6","1013.27","1","40.167168","18.174857"],
    [2526,"2024-04-15 05:00:00","13","galatina","12.31","1","84.69","1","0.0","1","null","6","null","6","null","6","1013.15","1","40.167168","18.174857"],
    [2527,"2024-04-15 06:00:00","13","galatina","12.46","1","82.82","1","0.0","1","null","6","null","6","null","6","1013.05","1","40.167168","18.174857"],
    [2528,"2024-04-15 07:00:00","13","galatina","16.33","1","69.33","1","0.0","1","null","6","null","6","null","6","1013.04","1","40.167168","18.174857"],
    [2529,"2024-04-15 08:00:00","13","galatina","20.27","1","58.58","1","0.0","1","null","6","null","6","null","6","1012.83","1","40.167168","18.174857"],
    [2530,"2024-04-15 09:00:00","13","galatina","25.47","1","40.68","1","0.0","1","null","6","null","6","null","6","1012.62","1","40.167168","18.174857"],
    [2531,"2024-04-15 10:00:00","13","galatina","27.93","1","34.33","1","0.0","1","null","6","null","6","null","6","1012.24","1","40.167168","18.174857"],
    [2532,"2024-04-15 11:00:00","13","galatina","28.85","1","29.21","1","0.0","1","null","6","null","6","null","6","1012.02","1","40.167168","18.174857"],
    [2533,"2024-04-15 12:00:00","13","galatina","29.07","1","26.12","1","0.0","1","null","6","null","6","null","6","1011.56","1","40.167168","18.174857"],
    [2534,"2024-04-15 13:00:00","13","galatina","29.18","1","24.29","1","0.0","1","null","6","null","6","null","6","1010.81","1","40.167168","18.174857"],
    [2535,"2024-04-15 14:00:00","13","galatina","29.4","1","23.54","1","0.0","1","null","6","null","6","null","6","1010.28","1","40.167168","18.174857"],
    [2536,"2024-04-15 15:00:00","13","galatina","27.51","1","28.67","1","0.0","1","null","6","null","6","null","6","1009.85","1","40.167168","18.174857"],
    [2537,"2024-04-15 16:00:00","13","galatina","25.75","1","27.71","1","0.0","1","null","6","null","6","null","6","1009.58","1","40.167168","18.174857"],
    [2538,"2024-04-15 17:00:00","13","galatina","25.17","1","26.91","1","0.0","1","null","6","null","6","null","6","1009.22","1","40.167168","18.174857"],
    [2539,"2024-04-15 18:00:00","13","galatina","22.99","1","29.61","1","0.0","1","null","6","null","6","null","6","1009.23","1","40.167168","18.174857"],
    [2540,"2024-04-15 19:00:00","13","galatina","21.11","1","35.06","1","0.0","1","null","6","null","6","null","6","1009.32","1","40.167168","18.174857"],
    [2541,"2024-04-15 20:00:00","13","galatina","20.13","1","40.17","1","0.0","1","null","6","null","6","null","6","1009.48","1","40.167168","18.174857"],
    [2542,"2024-04-15 21:00:00","13","galatina","20.7","1","33.54","1","0.0","1","null","6","null","6","null","6","1009.38","1","40.167168","18.174857"],
    [2543,"2024-04-15 22:00:00","13","galatina","20.07","1","44.68","1","0.0","1","null","6","null","6","null","6","1009.19","1","40.167168","18.174857"],
    [2544,"2024-04-15 23:00:00","13","galatina","19.37","1","56.21","1","0.0","1","null","6","null","6","null","6","1008.8","1","40.167168","18.174857"],
    [2545,"2024-04-16 00:00:00","13","galatina","19.0","1","65.24","1","0.0","1","null","6","null","6","null","6","1008.46","1","40.167168","18.174857"],
    [2546,"2024-04-16 01:00:00","13","galatina","18.85","1","67.99","1","0.0","1","null","6","null","6","null","6","1007.94","1","40.167168","18.174857"],
    [2547,"2024-04-16 02:00:00","13","galatina","18.74","1","66.78","1","0.0","1","null","6","null","6","null","6","1007.4","1","40.167168","18.174857"],
    [2548,"2024-04-16 03:00:00","13","galatina","18.47","1","68.81","1","0.0","1","null","6","null","6","null","6","1006.86","1","40.167168","18.174857"],
    [2549,"2024-04-16 04:00:00","13","galatina","18.4","1","74.67","1","0.0","1","null","6","null","6","null","6","1006.63","1","40.167168","18.174857"],
    [2550,"2024-04-16 05:00:00","13","galatina","18.16","1","77.43","1","0.0","1","null","6","null","6","null","6","1006.1","1","40.167168","18.174857"],
    [2551,"2024-04-16 06:00:00","13","galatina","18.12","1","72.92","1","0.0","1","null","6","null","6","null","6","1005.96","1","40.167168","18.174857"],
    [2552,"2024-04-16 07:00:00","13","galatina","18.78","1","66.15","1","0.0","1","null","6","null","6","null","6","1005.79","1","40.167168","18.174857"],
    [2553,"2024-04-16 08:00:00","13","galatina","20.23","1","57.17","1","0.0","1","null","6","null","6","null","6","1005.53","1","40.167168","18.174857"],
    [2554,"2024-04-16 09:00:00","13","galatina","21.22","1","52.23","1","0.0","1","null","6","null","6","null","6","1005.09","1","40.167168","18.174857"],
    [2555,"2024-04-16 10:00:00","13","galatina","21.08","1","57.73","1","0.0","1","null","6","null","6","null","6","1005.19","1","40.167168","18.174857"],
    [2556,"2024-04-16 11:00:00","13","galatina","21.68","1","55.49","1","0.0","1","null","6","null","6","null","6","1005.22","1","40.167168","18.174857"],
    [2557,"2024-04-16 12:00:00","13","galatina","21.38","1","56.09","1","0.0","1","null","6","null","6","null","6","1005.24","1","40.167168","18.174857"],
    [2558,"2024-04-16 13:00:00","13","galatina","19.32","1","70.79","1","0.0","1","null","6","null","6","null","6","1005.22","1","40.167168","18.174857"],
    [2559,"2024-04-16 14:00:00","13","galatina","18.67","1","73.5","1","0.0","1","null","6","null","6","null","6","1004.88","1","40.167168","18.174857"],
    [2560,"2024-04-16 15:00:00","13","galatina","18.94","1","73.63","1","0.2","1","null","6","null","6","null","6","1003.78","1","40.167168","18.174857"],
    [2561,"2024-04-16 16:00:00","13","galatina","19.87","1","66.04","1","0.0","1","null","6","null","6","null","6","1003.72","1","40.167168","18.174857"],
    [2562,"2024-04-16 17:00:00","13","galatina","19.2","1","68.31","1","0.2","1","null","6","null","6","null","6","1003.74","1","40.167168","18.174857"],
    [2563,"2024-04-16 18:00:00","13","galatina","17.54","1","79.05","1","0.2","1","null","6","null","6","null","6","1003.52","1","40.167168","18.174857"],
    [2564,"2024-04-16 19:00:00","13","galatina","17.05","1","83.59","1","0.0","1","null","6","null","6","null","6","1003.0","1","40.167168","18.174857"],
    [2565,"2024-04-16 20:00:00","13","galatina","16.56","1","87.18","1","0.0","1","null","6","null","6","null","6","1003.04","1","40.167168","18.174857"],
    [2566,"2024-04-16 21:00:00","13","galatina","16.44","1","84.21","1","0.0","1","null","6","null","6","null","6","1002.91","1","40.167168","18.174857"],
    [2567,"2024-04-16 22:00:00","13","galatina","16.52","1","80.54","1","0.0","1","null","6","null","6","null","6","1002.57","1","40.167168","18.174857"],
    [2568,"2024-04-16 23:00:00","13","galatina","16.55","1","81.81","1","0.0","1","null","6","null","6","null","6","1002.03","1","40.167168","18.174857"],
    [2569,"2024-04-17 00:00:00","13","galatina","16.64","1","78.04","1","0.0","1","null","6","null","6","null","6","1001.61","1","40.167168","18.174857"],
    [2570,"2024-04-17 01:00:00","13","galatina","16.56","1","78.09","1","0.0","1","null","6","null","6","null","6","1001.18","1","40.167168","18.174857"],
    [2571,"2024-04-17 02:00:00","13","galatina","16.11","1","84.01","1","0.0","1","null","6","null","6","null","6","1000.61","1","40.167168","18.174857"],
    [2572,"2024-04-17 03:00:00","13","galatina","15.78","1","85.61","1","0.0","1","null","6","null","6","null","6","999.99","1","40.167168","18.174857"],
    [2573,"2024-04-17 04:00:00","13","galatina","15.94","1","85.36","1","0.0","1","null","6","null","6","null","6","999.74","1","40.167168","18.174857"],
    [2574,"2024-04-17 05:00:00","13","galatina","16.03","1","88.81","1","0.0","1","null","6","null","6","null","6","999.32","1","40.167168","18.174857"],
    [2575,"2024-04-17 06:00:00","13","galatina","15.9","1","90.63","1","0.0","1","null","6","null","6","null","6","999.4","1","40.167168","18.174857"],
    [2576,"2024-04-17 07:00:00","13","galatina","16.12","1","91.36","1","0.0","1","null","6","null","6","null","6","999.56","1","40.167168","18.174857"],
    [2577,"2024-04-17 08:00:00","13","galatina","17.39","1","85.1","1","0.0","1","null","6","null","6","null","6","999.58","1","40.167168","18.174857"],
    [2578,"2024-04-17 09:00:00","13","galatina","19.82","1","64.77","1","0.2","1","null","6","null","6","null","6","999.43","1","40.167168","18.174857"],
    [2579,"2024-04-17 10:00:00","13","galatina","20.4","1","60.66","1","0.0","1","null","6","null","6","null","6","999.24","1","40.167168","18.174857"],
    [2580,"2024-04-17 11:00:00","13","galatina","19.45","1","59.49","1","0.0","1","null","6","null","6","null","6","999.53","1","40.167168","18.174857"],
    [2581,"2024-04-17 12:00:00","13","galatina","20.72","1","50.78","1","0.0","1","null","6","null","6","null","6","999.37","1","40.167168","18.174857"],
    [2582,"2024-04-17 13:00:00","13","galatina","21.38","1","43.33","1","0.0","1","null","6","null","6","null","6","999.19","1","40.167168","18.174857"],
    [2583,"2024-04-17 14:00:00","13","galatina","21.55","1","47.69","1","0.0","1","null","6","null","6","null","6","999.28","1","40.167168","18.174857"],
    [2584,"2024-04-17 15:00:00","13","galatina","18.92","1","58.74","1","0.0","1","null","6","null","6","null","6","999.45","1","40.167168","18.174857"],
    [2585,"2024-04-17 16:00:00","13","galatina","17.19","1","64.12","1","0.0","1","null","6","null","6","null","6","999.78","1","40.167168","18.174857"],
    [2586,"2024-04-17 17:00:00","13","galatina","16.79","1","63.37","1","0.0","1","null","6","null","6","null","6","1000.22","1","40.167168","18.174857"],
    [2587,"2024-04-17 18:00:00","13","galatina","14.92","1","75.14","1","2.2","1","null","6","null","6","null","6","1000.78","1","40.167168","18.174857"],
    [2588,"2024-04-17 19:00:00","13","galatina","13.06","1","92.37","1","2.6","1","null","6","null","6","null","6","1001.4","1","40.167168","18.174857"],
    [2589,"2024-04-17 20:00:00","13","galatina","12.15","1","93.58","1","2.0","1","null","6","null","6","null","6","1002.19","1","40.167168","18.174857"],
    [2590,"2024-04-17 21:00:00","13","galatina","11.61","1","92.93","1","0.0","1","null","6","null","6","null","6","1002.56","1","40.167168","18.174857"],
    [2591,"2024-04-17 22:00:00","13","galatina","11.83","1","91.96","1","0.0","1","null","6","null","6","null","6","1002.8","1","40.167168","18.174857"],
    [2592,"2024-04-17 23:00:00","13","galatina","11.71","1","89.91","1","0.0","1","null","6","null","6","null","6","1002.87","1","40.167168","18.174857"],
    [2593,"2024-04-18 00:00:00","13","galatina","11.02","1","84.46","1","0.0","1","null","6","null","6","null","6","1002.77","1","40.167168","18.174857"],
    [2594,"2024-04-18 01:00:00","13","galatina","10.67","1","81.56","1","0.0","1","null","6","null","6","null","6","1003.09","1","40.167168","18.174857"],
    [2595,"2024-04-18 02:00:00","13","galatina","10.33","1","81.03","1","0.0","1","null","6","null","6","null","6","1003.16","1","40.167168","18.174857"],
    [2596,"2024-04-18 03:00:00","13","galatina","9.99","1","81.24","1","0.0","1","null","6","null","6","null","6","1003.2","1","40.167168","18.174857"],
    [2597,"2024-04-18 04:00:00","13","galatina","9.05","1","84.29","1","0.0","1","null","6","null","6","null","6","1003.23","1","40.167168","18.174857"],
    [2598,"2024-04-18 05:00:00","13","galatina","7.98","1","89.92","1","0.0","1","null","6","null","6","null","6","1003.25","1","40.167168","18.174857"],
    [2599,"2024-04-18 06:00:00","13","galatina","7.91","1","92.0","1","0.0","1","null","6","null","6","null","6","1003.61","1","40.167168","18.174857"],
    [2600,"2024-04-18 07:00:00","13","galatina","11.78","1","81.89","1","0.0","1","null","6","null","6","null","6","1003.97","1","40.167168","18.174857"],
    [2601,"2024-04-18 08:00:00","13","galatina","15.13","1","65.3","1","0.0","1","null","6","null","6","null","6","1003.94","1","40.167168","18.174857"],
    [2602,"2024-04-18 09:00:00","13","galatina","17.75","1","51.2","1","0.2","1","null","6","null","6","null","6","1003.88","1","40.167168","18.174857"],
    [2603,"2024-04-18 10:00:00","13","galatina","17.94","1","45.66","1","0.0","1","null","6","null","6","null","6","1004.09","1","40.167168","18.174857"],
    [2604,"2024-04-18 11:00:00","13","galatina","16.72","1","48.9","1","0.0","1","null","6","null","6","null","6","1004.53","1","40.167168","18.174857"],
    [2605,"2024-04-18 12:00:00","13","galatina","16.61","1","52.3","1","0.0","1","null","6","null","6","null","6","1004.74","1","40.167168","18.174857"],
    [2606,"2024-04-18 13:00:00","13","galatina","17.03","1","49.23","1","0.0","1","null","6","null","6","null","6","1004.78","1","40.167168","18.174857"],
    [2607,"2024-04-18 14:00:00","13","galatina","17.06","1","49.11","1","0.0","1","null","6","null","6","null","6","1004.66","1","40.167168","18.174857"],
    [2608,"2024-04-18 15:00:00","13","galatina","17.15","1","46.57","1","0.0","1","null","6","null","6","null","6","1004.7","1","40.167168","18.174857"],
    [2609,"2024-04-18 16:00:00","13","galatina","16.76","1","48.05","1","0.0","1","null","6","null","6","null","6","1004.84","1","40.167168","18.174857"],
    [2610,"2024-04-18 17:00:00","13","galatina","14.9","1","61.6","1","0.0","1","null","6","null","6","null","6","1005.17","1","40.167168","18.174857"],
    [2611,"2024-04-18 18:00:00","13","galatina","12.96","1","66.5","1","0.0","1","null","6","null","6","null","6","1005.48","1","40.167168","18.174857"],
    [2612,"2024-04-18 19:00:00","13","galatina","12.19","1","68.42","1","0.0","1","null","6","null","6","null","6","1005.83","1","40.167168","18.174857"],
    [2613,"2024-04-18 20:00:00","13","galatina","11.69","1","74.83","1","0.4","1","null","6","null","6","null","6","1006.4","1","40.167168","18.174857"],
    [2614,"2024-04-18 21:00:00","13","galatina","10.75","1","85.28","1","1.2","1","null","6","null","6","null","6","1006.55","1","40.167168","18.174857"],
    [2615,"2024-04-18 22:00:00","13","galatina","9.87","1","89.73","1","0.0","1","null","6","null","6","null","6","1006.48","1","40.167168","18.174857"],
    [2616,"2024-04-18 23:00:00","13","galatina","9.09","1","92.58","1","0.0","1","null","6","null","6","null","6","1006.56","1","40.167168","18.174857"],
    [2617,"2024-04-19 00:00:00","13","galatina","8.65","1","94.29","1","0.0","1","null","6","null","6","null","6","1006.61","1","40.167168","18.174857"],
    [2618,"2024-04-19 01:00:00","13","galatina","8.21","1","95.18","1","0.0","1","null","6","null","6","null","6","1006.48","1","40.167168","18.174857"],
    [2619,"2024-04-19 02:00:00","13","galatina","7.49","1","95.85","1","0.2","1","null","6","null","6","null","6","1006.08","1","40.167168","18.174857"],
    [2620,"2024-04-19 03:00:00","13","galatina","7.44","1","96.74","1","0.0","1","null","6","null","6","null","6","1006.08","1","40.167168","18.174857"],
    [2621,"2024-04-19 04:00:00","13","galatina","7.8","1","96.61","1","0.0","1","null","6","null","6","null","6","1005.91","1","40.167168","18.174857"],
    [2622,"2024-04-19 05:00:00","13","galatina","8.28","1","96.58","1","0.0","1","null","6","null","6","null","6","1005.57","1","40.167168","18.174857"],
    [2623,"2024-04-19 06:00:00","13","galatina","8.7","1","96.57","1","0.0","1","null","6","null","6","null","6","1005.44","1","40.167168","18.174857"],
    [2624,"2024-04-19 07:00:00","13","galatina","9.92","1","94.41","1","0.0","1","null","6","null","6","null","6","1005.3","1","40.167168","18.174857"],
    [2625,"2024-04-19 08:00:00","13","galatina","11.0","1","86.74","1","0.0","1","null","6","null","6","null","6","1005.03","1","40.167168","18.174857"],
    [2626,"2024-04-19 09:00:00","13","galatina","10.01","1","89.83","1","7.8","1","null","6","null","6","null","6","1005.32","1","40.167168","18.174857"],
    [2627,"2024-04-19 10:00:00","13","galatina","9.82","1","94.59","1","1.0","1","null","6","null","6","null","6","1005.31","1","40.167168","18.174857"],
    [2628,"2024-04-19 11:00:00","13","galatina","11.17","1","87.94","1","0.0","1","null","6","null","6","null","6","1005.04","1","40.167168","18.174857"],
    [2629,"2024-04-19 12:00:00","13","galatina","11.28","1","82.92","1","0.2","1","null","6","null","6","null","6","1004.9","1","40.167168","18.174857"],
    [2630,"2024-04-19 13:00:00","13","galatina","11.97","1","84.28","1","0.0","1","null","6","null","6","null","6","1004.49","1","40.167168","18.174857"],
    [2631,"2024-04-19 14:00:00","13","galatina","12.04","1","83.06","1","0.0","1","null","6","null","6","null","6","1003.95","1","40.167168","18.174857"],
    [2632,"2024-04-19 15:00:00","13","galatina","11.92","1","81.91","1","0.0","1","null","6","null","6","null","6","1003.73","1","40.167168","18.174857"],
    [2633,"2024-04-19 16:00:00","13","galatina","11.72","1","79.04","1","0.0","1","null","6","null","6","null","6","1003.75","1","40.167168","18.174857"],
    [2634,"2024-04-19 17:00:00","13","galatina","11.66","1","80.72","1","0.4","1","null","6","null","6","null","6","1003.9","1","40.167168","18.174857"],
    [2635,"2024-04-19 18:00:00","13","galatina","11.67","1","78.28","1","0.0","1","null","6","null","6","null","6","1004.16","1","40.167168","18.174857"],
    [2636,"2024-04-19 19:00:00","13","galatina","11.7","1","77.9","1","0.0","1","null","6","null","6","null","6","1004.43","1","40.167168","18.174857"],
    [2637,"2024-04-19 20:00:00","13","galatina","11.88","1","76.18","1","0.0","1","null","6","null","6","null","6","1004.75","1","40.167168","18.174857"],
    [2638,"2024-04-19 21:00:00","13","galatina","12.65","1","62.82","1","0.0","1","null","6","null","6","null","6","1005.32","1","40.167168","18.174857"],
    [2639,"2024-04-19 22:00:00","13","galatina","11.95","1","64.03","1","0.0","1","null","6","null","6","null","6","1005.73","1","40.167168","18.174857"],
    [2640,"2024-04-19 23:00:00","13","galatina","10.76","1","68.63","1","0.0","1","null","6","null","6","null","6","1006.01","1","40.167168","18.174857"],
    [2641,"2024-04-20 00:00:00","13","galatina","10.25","1","69.87","1","0.0","1","null","6","null","6","null","6","1006.24","1","40.167168","18.174857"],
    [2642,"2024-04-20 01:00:00","13","galatina","9.34","1","74.04","1","0.0","1","null","6","null","6","null","6","1006.17","1","40.167168","18.174857"],
    [2643,"2024-04-20 02:00:00","13","galatina","9.9","1","70.91","1","0.0","1","null","6","null","6","null","6","1005.91","1","40.167168","18.174857"],
    [2644,"2024-04-20 03:00:00","13","galatina","9.1","1","74.09","1","0.0","1","null","6","null","6","null","6","1005.99","1","40.167168","18.174857"],
    [2645,"2024-04-20 04:00:00","13","galatina","8.21","1","75.47","1","0.0","1","null","6","null","6","null","6","1005.88","1","40.167168","18.174857"],
    [2646,"2024-04-20 05:00:00","13","galatina","6.91","1","78.47","1","0.0","1","null","6","null","6","null","6","1005.97","1","40.167168","18.174857"],
    [2647,"2024-04-20 06:00:00","13","galatina","7.73","1","72.83","1","0.0","1","null","6","null","6","null","6","1006.14","1","40.167168","18.174857"],
    [2648,"2024-04-20 07:00:00","13","galatina","10.57","1","64.67","1","0.0","1","null","6","null","6","null","6","1006.26","1","40.167168","18.174857"],
    [2649,"2024-04-20 08:00:00","13","galatina","13.67","1","50.74","1","0.0","1","null","6","null","6","null","6","1006.09","1","40.167168","18.174857"],
    [2650,"2024-04-20 09:00:00","13","galatina","15.76","1","46.29","1","0.0","1","null","6","null","6","null","6","1005.92","1","40.167168","18.174857"],
    [2651,"2024-04-20 10:00:00","13","galatina","17.42","1","30.03","1","0.0","1","null","6","null","6","null","6","1006.02","1","40.167168","18.174857"],
    [2652,"2024-04-20 11:00:00","13","galatina","17.9","1","29.07","1","0.0","1","null","6","null","6","null","6","1006.26","1","40.167168","18.174857"],
    [2653,"2024-04-20 12:00:00","13","galatina","18.57","1","35.43","1","0.0","1","null","6","null","6","null","6","1006.36","1","40.167168","18.174857"],
    [2654,"2024-04-20 13:00:00","13","galatina","19.03","1","34.7","1","0.0","1","null","6","null","6","null","6","1006.12","1","40.167168","18.174857"],
    [2655,"2024-04-20 14:00:00","13","galatina","19.29","1","27.77","1","0.0","1","null","6","null","6","null","6","1005.98","1","40.167168","18.174857"],
    [2656,"2024-04-20 15:00:00","13","galatina","20.15","1","25.48","1","0.0","1","null","6","null","6","null","6","1005.73","1","40.167168","18.174857"],
    [2657,"2024-04-20 16:00:00","13","galatina","20.47","1","28.58","1","0.0","1","null","6","null","6","null","6","1005.43","1","40.167168","18.174857"],
    [2658,"2024-04-20 17:00:00","13","galatina","18.43","1","42.43","1","0.0","1","null","6","null","6","null","6","1005.35","1","40.167168","18.174857"],
    [2659,"2024-04-20 18:00:00","13","galatina","17.05","1","46.1","1","0.0","1","null","6","null","6","null","6","1005.41","1","40.167168","18.174857"],
    [2660,"2024-04-20 19:00:00","13","galatina","15.84","1","54.31","1","0.0","1","null","6","null","6","null","6","1005.51","1","40.167168","18.174857"],
    [2661,"2024-04-20 20:00:00","13","galatina","15.31","1","59.97","1","0.0","1","null","6","null","6","null","6","1005.83","1","40.167168","18.174857"],
    [2662,"2024-04-20 21:00:00","13","galatina","14.87","1","63.24","1","0.0","1","null","6","null","6","null","6","1005.97","1","40.167168","18.174857"],
    [2663,"2024-04-20 22:00:00","13","galatina","14.06","1","67.58","1","0.0","1","null","6","null","6","null","6","1005.89","1","40.167168","18.174857"],
    [2664,"2024-04-20 23:00:00","13","galatina","12.86","1","71.79","1","0.0","1","null","6","null","6","null","6","1005.69","1","40.167168","18.174857"],
    [2665,"2024-04-21 00:00:00","13","galatina","11.8","1","76.0","1","0.0","1","null","6","null","6","null","6","1005.51","1","40.167168","18.174857"],
    [2666,"2024-04-21 01:00:00","13","galatina","10.26","1","82.92","1","0.0","1","null","6","null","6","null","6","1005.2","1","40.167168","18.174857"],
    [2667,"2024-04-21 02:00:00","13","galatina","9.75","1","85.79","1","0.0","1","null","6","null","6","null","6","1004.81","1","40.167168","18.174857"],
    [2668,"2024-04-21 03:00:00","13","galatina","9.29","1","86.66","1","0.0","1","null","6","null","6","null","6","1004.47","1","40.167168","18.174857"],
    [2669,"2024-04-21 04:00:00","13","galatina","9.14","1","89.1","1","0.0","1","null","6","null","6","null","6","1004.16","1","40.167168","18.174857"],
    [2670,"2024-04-21 05:00:00","13","galatina","10.06","1","90.82","1","0.0","1","null","6","null","6","null","6","1004.02","1","40.167168","18.174857"],
    [2671,"2024-04-21 06:00:00","13","galatina","11.79","1","88.02","1","2.0","1","null","6","null","6","null","6","1004.13","1","40.167168","18.174857"],
    [2672,"2024-04-21 07:00:00","13","galatina","10.92","1","87.98","1","0.8","1","null","6","null","6","null","6","1004.46","1","40.167168","18.174857"],
    [2673,"2024-04-21 08:00:00","13","galatina","10.5","1","88.48","1","3.4","1","null","6","null","6","null","6","1004.86","1","40.167168","18.174857"],
    [2674,"2024-04-21 09:00:00","13","galatina","11.24","1","89.99","1","1.2","1","null","6","null","6","null","6","1004.58","1","40.167168","18.174857"],
    [2675,"2024-04-21 10:00:00","13","galatina","13.84","1","83.19","1","0.0","1","null","6","null","6","null","6","1004.77","1","40.167168","18.174857"],
    [2676,"2024-04-21 11:00:00","13","galatina","15.98","1","68.53","1","0.0","1","null","6","null","6","null","6","1005.02","1","40.167168","18.174857"],
    [2677,"2024-04-21 12:00:00","13","galatina","17.15","1","54.79","1","0.0","1","null","6","null","6","null","6","1005.21","1","40.167168","18.174857"],
    [2678,"2024-04-21 13:00:00","13","galatina","17.73","1","45.43","1","0.0","1","null","6","null","6","null","6","1005.53","1","40.167168","18.174857"],
    [2679,"2024-04-21 14:00:00","13","galatina","18.08","1","44.69","1","0.0","1","null","6","null","6","null","6","1005.7","1","40.167168","18.174857"],
    [2680,"2024-04-21 15:00:00","13","galatina","17.6","1","47.58","1","0.0","1","null","6","null","6","null","6","1006.08","1","40.167168","18.174857"],
    [2681,"2024-04-21 16:00:00","13","galatina","17.03","1","48.55","1","0.0","1","null","6","null","6","null","6","1006.6","1","40.167168","18.174857"],
    [2682,"2024-04-21 17:00:00","13","galatina","16.12","1","47.55","1","0.0","1","null","6","null","6","null","6","1007.03","1","40.167168","18.174857"],
    [2683,"2024-04-21 18:00:00","13","galatina","14.84","1","51.22","1","0.0","1","null","6","null","6","null","6","1007.49","1","40.167168","18.174857"],
    [2684,"2024-04-21 19:00:00","13","galatina","13.07","1","56.03","1","0.0","1","null","6","null","6","null","6","1008.24","1","40.167168","18.174857"],
    [2685,"2024-04-21 20:00:00","13","galatina","12.04","1","62.7","1","0.0","1","null","6","null","6","null","6","1009.02","1","40.167168","18.174857"],
    [2686,"2024-04-21 21:00:00","13","galatina","11.12","1","68.09","1","0.0","1","null","6","null","6","null","6","1009.52","1","40.167168","18.174857"],
    [2687,"2024-04-21 22:00:00","13","galatina","9.71","1","76.01","1","0.0","1","null","6","null","6","null","6","1009.89","1","40.167168","18.174857"],
    [2688,"2024-04-21 23:00:00","13","galatina","8.53","1","83.48","1","0.0","1","null","6","null","6","null","6","1010.05","1","40.167168","18.174857"],
    [2689,"2024-04-22 00:00:00","13","galatina","7.57","1","87.18","1","0.0","1","null","6","null","6","null","6","1010.23","1","40.167168","18.174857"],
    [2690,"2024-04-22 01:00:00","13","galatina","7.11","1","89.57","1","0.0","1","null","6","null","6","null","6","1010.16","1","40.167168","18.174857"],
    [2691,"2024-04-22 02:00:00","13","galatina","6.88","1","90.62","1","0.0","1","null","6","null","6","null","6","1009.91","1","40.167168","18.174857"],
    [2692,"2024-04-22 03:00:00","13","galatina","6.33","1","91.71","1","0.0","1","null","6","null","6","null","6","1009.67","1","40.167168","18.174857"],
    [2693,"2024-04-22 04:00:00","13","galatina","6.1","1","92.52","1","0.0","1","null","6","null","6","null","6","1009.38","1","40.167168","18.174857"],
    [2694,"2024-04-22 05:00:00","13","galatina","6.34","1","93.04","1","0.0","1","null","6","null","6","null","6","1009.13","1","40.167168","18.174857"],
    [2695,"2024-04-22 06:00:00","13","galatina","6.95","1","92.06","1","0.0","1","null","6","null","6","null","6","1009.01","1","40.167168","18.174857"],
    [2696,"2024-04-22 07:00:00","13","galatina","10.77","1","82.14","1","0.0","1","null","6","null","6","null","6","1009.01","1","40.167168","18.174857"],
    [2697,"2024-04-22 08:00:00","13","galatina","14.73","1","67.12","1","0.0","1","null","6","null","6","null","6","1008.74","1","40.167168","18.174857"],
    [2698,"2024-04-22 09:00:00","13","galatina","16.72","1","56.92","1","0.0","1","null","6","null","6","null","6","1008.38","1","40.167168","18.174857"],
    [2699,"2024-04-22 10:00:00","13","galatina","18.05","1","49.14","1","0.0","1","null","6","null","6","null","6","1008.37","1","40.167168","18.174857"],
    [2700,"2024-04-22 11:00:00","13","galatina","18.98","1","44.94","1","0.0","1","null","6","null","6","null","6","1008.4","1","40.167168","18.174857"],
    [2701,"2024-04-22 12:00:00","13","galatina","19.88","1","41.4","1","0.0","1","null","6","null","6","null","6","1008.28","1","40.167168","18.174857"],
    [2702,"2024-04-22 13:00:00","13","galatina","20.6","1","41.82","1","0.0","1","null","6","null","6","null","6","1008.01","1","40.167168","18.174857"],
    [2703,"2024-04-22 14:00:00","13","galatina","20.66","1","44.16","1","0.0","1","null","6","null","6","null","6","1007.65","1","40.167168","18.174857"],
    [2704,"2024-04-22 15:00:00","13","galatina","20.54","1","44.28","1","0.0","1","null","6","null","6","null","6","1007.33","1","40.167168","18.174857"],
    [2705,"2024-04-22 16:00:00","13","galatina","21.35","1","42.95","1","0.0","1","null","6","null","6","null","6","1007.02","1","40.167168","18.174857"],
    [2706,"2024-04-22 17:00:00","13","galatina","21.19","1","40.63","1","0.0","1","null","6","null","6","null","6","1006.7","1","40.167168","18.174857"],
    [2707,"2024-04-22 18:00:00","13","galatina","18.28","1","51.35","1","0.0","1","null","6","null","6","null","6","1006.68","1","40.167168","18.174857"],
    [2708,"2024-04-22 19:00:00","13","galatina","16.05","1","53.43","1","0.0","1","null","6","null","6","null","6","1006.78","1","40.167168","18.174857"],
    [2709,"2024-04-22 20:00:00","13","galatina","15.33","1","61.22","1","0.0","1","null","6","null","6","null","6","1006.91","1","40.167168","18.174857"],
    [2710,"2024-04-22 21:00:00","13","galatina","15.08","1","70.14","1","0.0","1","null","6","null","6","null","6","1006.75","1","40.167168","18.174857"],
    [2711,"2024-04-22 22:00:00","13","galatina","14.91","1","72.79","1","0.0","1","null","6","null","6","null","6","1006.54","1","40.167168","18.174857"],
    [2712,"2024-04-22 23:00:00","13","galatina","14.94","1","71.62","1","0.0","1","null","6","null","6","null","6","1006.14","1","40.167168","18.174857"],
    [2713,"2024-04-23 00:00:00","13","galatina","15.08","1","69.97","1","0.0","1","null","6","null","6","null","6","1005.85","1","40.167168","18.174857"],
    [2714,"2024-04-23 01:00:00","13","galatina","15.23","1","74.46","1","0.0","1","null","6","null","6","null","6","1005.58","1","40.167168","18.174857"],
    [2715,"2024-04-23 02:00:00","13","galatina","15.19","1","78.69","1","0.0","1","null","6","null","6","null","6","1005.23","1","40.167168","18.174857"],
    [2716,"2024-04-23 03:00:00","13","galatina","15.21","1","82.14","1","0.0","1","null","6","null","6","null","6","1004.86","1","40.167168","18.174857"],
    [2717,"2024-04-23 04:00:00","13","galatina","14.85","1","85.79","1","0.0","1","null","6","null","6","null","6","1004.32","1","40.167168","18.174857"],
    [2718,"2024-04-23 05:00:00","13","galatina","14.58","1","87.49","1","1.0","1","null","6","null","6","null","6","1003.92","1","40.167168","18.174857"],
    [2719,"2024-04-23 06:00:00","13","galatina","14.36","1","91.89","1","0.8","1","null","6","null","6","null","6","1003.21","1","40.167168","18.174857"],
    [2720,"2024-04-23 07:00:00","13","galatina","14.38","1","93.84","1","0.0","1","null","6","null","6","null","6","1002.9","1","40.167168","18.174857"],
    [2721,"2024-04-23 08:00:00","13","galatina","14.43","1","93.94","1","0.0","1","null","6","null","6","null","6","1002.74","1","40.167168","18.174857"],
    [2722,"2024-04-23 09:00:00","13","galatina","14.61","1","89.31","1","0.0","1","null","6","null","6","null","6","1002.43","1","40.167168","18.174857"],
    [2723,"2024-04-23 10:00:00","13","galatina","15.06","1","84.35","1","0.0","1","null","6","null","6","null","6","1002.5","1","40.167168","18.174857"],
    [2724,"2024-04-23 11:00:00","13","galatina","15.09","1","84.61","1","0.0","1","null","6","null","6","null","6","1002.43","1","40.167168","18.174857"],
    [2725,"2024-04-23 12:00:00","13","galatina","14.58","1","87.75","1","0.0","1","null","6","null","6","null","6","1002.2","1","40.167168","18.174857"],
    [2726,"2024-04-23 13:00:00","13","galatina","14.08","1","89.77","1","0.0","1","null","6","null","6","null","6","1002.2","1","40.167168","18.174857"],
    [2727,"2024-04-23 14:00:00","13","galatina","13.52","1","93.09","1","0.2","1","null","6","null","6","null","6","1002.33","1","40.167168","18.174857"],
    [2728,"2024-04-23 15:00:00","13","galatina","13.72","1","94.09","1","0.0","1","null","6","null","6","null","6","1002.08","1","40.167168","18.174857"],
    [2729,"2024-04-23 16:00:00","13","galatina","14.4","1","92.31","1","0.0","1","null","6","null","6","null","6","1002.11","1","40.167168","18.174857"],
    [2730,"2024-04-23 17:00:00","13","galatina","16.27","1","78.91","1","0.0","1","null","6","null","6","null","6","1002.22","1","40.167168","18.174857"],
    [2731,"2024-04-23 18:00:00","13","galatina","17.12","1","69.81","1","0.0","1","null","6","null","6","null","6","1002.74","1","40.167168","18.174857"],
    [2732,"2024-04-23 19:00:00","13","galatina","14.79","1","78.28","1","0.0","1","null","6","null","6","null","6","1003.35","1","40.167168","18.174857"],
    [2733,"2024-04-23 20:00:00","13","galatina","13.21","1","86.85","1","0.0","1","null","6","null","6","null","6","1003.96","1","40.167168","18.174857"],
    [2734,"2024-04-23 21:00:00","13","galatina","12.33","1","91.06","1","0.0","1","null","6","null","6","null","6","1004.42","1","40.167168","18.174857"],
    [2735,"2024-04-23 22:00:00","13","galatina","11.88","1","92.72","1","0.0","1","null","6","null","6","null","6","1004.64","1","40.167168","18.174857"],
    [2736,"2024-04-23 23:00:00","13","galatina","12.11","1","88.93","1","0.0","1","null","6","null","6","null","6","1004.9","1","40.167168","18.174857"],
    [2737,"2024-04-24 00:00:00","13","galatina","12.28","1","79.33","1","0.0","1","null","6","null","6","null","6","1005.27","1","40.167168","18.174857"],
    [2738,"2024-04-24 01:00:00","13","galatina","12.27","1","68.57","1","0.0","1","null","6","null","6","null","6","1005.65","1","40.167168","18.174857"],
    [2739,"2024-04-24 02:00:00","13","galatina","11.53","1","61.56","1","0.0","1","null","6","null","6","null","6","1005.83","1","40.167168","18.174857"],
    [2740,"2024-04-24 03:00:00","13","galatina","10.8","1","62.43","1","0.0","1","null","6","null","6","null","6","1005.92","1","40.167168","18.174857"],
    [2741,"2024-04-24 04:00:00","13","galatina","9.56","1","68.83","1","0.0","1","null","6","null","6","null","6","1005.93","1","40.167168","18.174857"],
    [2742,"2024-04-24 05:00:00","13","galatina","8.62","1","75.34","1","0.0","1","null","6","null","6","null","6","1005.93","1","40.167168","18.174857"],
    [2743,"2024-04-24 06:00:00","13","galatina","8.47","1","79.65","1","0.0","1","null","6","null","6","null","6","1006.15","1","40.167168","18.174857"],
    [2744,"2024-04-24 07:00:00","13","galatina","11.78","1","71.14","1","0.0","1","null","6","null","6","null","6","1005.96","1","40.167168","18.174857"],
    [2745,"2024-04-24 08:00:00","13","galatina","16.95","1","47.62","1","0.0","1","null","6","null","6","null","6","1005.6","1","40.167168","18.174857"],
    [2746,"2024-04-24 09:00:00","13","galatina","17.78","1","46.83","1","0.0","1","null","6","null","6","null","6","1005.44","1","40.167168","18.174857"],
    [2747,"2024-04-24 10:00:00","13","galatina","18.59","1","42.14","1","0.0","1","null","6","null","6","null","6","1005.36","1","40.167168","18.174857"],
    [2748,"2024-04-24 11:00:00","13","galatina","19.39","1","34.96","1","0.0","1","null","6","null","6","null","6","1005.26","1","40.167168","18.174857"],
    [2749,"2024-04-24 12:00:00","13","galatina","20.11","1","30.47","1","0.0","1","null","6","null","6","null","6","1005.05","1","40.167168","18.174857"],
    [2750,"2024-04-24 13:00:00","13","galatina","20.75","1","28.57","1","0.0","1","null","6","null","6","null","6","1004.72","1","40.167168","18.174857"],
    [2751,"2024-04-24 14:00:00","13","galatina","19.04","1","38.24","1","0.0","1","null","6","null","6","null","6","1004.61","1","40.167168","18.174857"],
    [2752,"2024-04-24 15:00:00","13","galatina","18.0","1","39.84","1","0.0","1","null","6","null","6","null","6","1004.36","1","40.167168","18.174857"],
    [2753,"2024-04-24 16:00:00","13","galatina","17.35","1","47.56","1","0.0","1","null","6","null","6","null","6","1004.15","1","40.167168","18.174857"],
    [2754,"2024-04-24 17:00:00","13","galatina","16.95","1","53.8","1","0.0","1","null","6","null","6","null","6","1004.21","1","40.167168","18.174857"],
    [2755,"2024-04-24 18:00:00","13","galatina","16.07","1","55.69","1","0.0","1","null","6","null","6","null","6","1004.26","1","40.167168","18.174857"],
    [2756,"2024-04-24 19:00:00","13","galatina","13.52","1","76.14","1","0.0","1","null","6","null","6","null","6","1004.55","1","40.167168","18.174857"],
    [2757,"2024-04-24 20:00:00","13","galatina","12.95","1","71.71","1","0.0","1","null","6","null","6","null","6","1004.68","1","40.167168","18.174857"],
    [2758,"2024-04-24 21:00:00","13","galatina","12.86","1","68.83","1","0.0","1","null","6","null","6","null","6","1004.69","1","40.167168","18.174857"],
    [2759,"2024-04-24 22:00:00","13","galatina","12.17","1","80.11","1","0.2","1","null","6","null","6","null","6","1004.6","1","40.167168","18.174857"],
    [2760,"2024-04-24 23:00:00","13","galatina","11.77","1","85.01","1","0.0","1","null","6","null","6","null","6","1004.41","1","40.167168","18.174857"],
    [2761,"2024-04-25 00:00:00","13","galatina","11.9","1","83.47","1","0.0","1","null","6","null","6","null","6","1004.13","1","40.167168","18.174857"],
    [2762,"2024-04-25 01:00:00","13","galatina","12.41","1","72.68","1","0.2","1","null","6","null","6","null","6","1003.87","1","40.167168","18.174857"],
    [2763,"2024-04-25 02:00:00","13","galatina","11.91","1","76.86","1","0.8","1","null","6","null","6","null","6","1003.84","1","40.167168","18.174857"],
    [2764,"2024-04-25 03:00:00","13","galatina","11.55","1","80.11","1","0.0","1","null","6","null","6","null","6","1003.61","1","40.167168","18.174857"],
    [2765,"2024-04-25 04:00:00","13","galatina","11.49","1","79.7","1","0.0","1","null","6","null","6","null","6","1003.66","1","40.167168","18.174857"],
    [2766,"2024-04-25 05:00:00","13","galatina","10.96","1","74.07","1","0.0","1","null","6","null","6","null","6","1003.79","1","40.167168","18.174857"],
    [2767,"2024-04-25 06:00:00","13","galatina","11.08","1","65.24","1","0.0","1","null","6","null","6","null","6","1004.12","1","40.167168","18.174857"],
    [2768,"2024-04-25 07:00:00","13","galatina","12.23","1","57.52","1","0.0","1","null","6","null","6","null","6","1004.4","1","40.167168","18.174857"],
    [2769,"2024-04-25 08:00:00","13","galatina","14.01","1","51.25","1","0.0","1","null","6","null","6","null","6","1004.52","1","40.167168","18.174857"],
    [2770,"2024-04-25 09:00:00","13","galatina","15.58","1","45.14","1","0.0","1","null","6","null","6","null","6","1004.54","1","40.167168","18.174857"],
    [2771,"2024-04-25 10:00:00","13","galatina","17.11","1","37.79","1","0.0","1","null","6","null","6","null","6","1004.64","1","40.167168","18.174857"],
    [2772,"2024-04-25 11:00:00","13","galatina","17.85","1","37.7","1","0.0","1","null","6","null","6","null","6","1004.67","1","40.167168","18.174857"],
    [2773,"2024-04-25 12:00:00","13","galatina","18.85","1","33.76","1","0.0","1","null","6","null","6","null","6","1004.8","1","40.167168","18.174857"],
    [2774,"2024-04-25 13:00:00","13","galatina","18.74","1","32.25","1","0.0","1","null","6","null","6","null","6","1004.89","1","40.167168","18.174857"],
    [2775,"2024-04-25 14:00:00","13","galatina","18.8","1","31.87","1","0.0","1","null","6","null","6","null","6","1004.92","1","40.167168","18.174857"],
    [2776,"2024-04-25 15:00:00","13","galatina","19.59","1","31.84","1","0.0","1","null","6","null","6","null","6","1004.75","1","40.167168","18.174857"],
    [2777,"2024-04-25 16:00:00","13","galatina","19.63","1","35.24","1","0.0","1","null","6","null","6","null","6","1004.87","1","40.167168","18.174857"],
    [2778,"2024-04-25 17:00:00","13","galatina","19.37","1","37.07","1","0.0","1","null","6","null","6","null","6","1005.1","1","40.167168","18.174857"],
    [2779,"2024-04-25 18:00:00","13","galatina","17.41","1","45.95","1","0.0","1","null","6","null","6","null","6","1005.35","1","40.167168","18.174857"],
    [2780,"2024-04-25 19:00:00","13","galatina","14.72","1","56.64","1","0.0","1","null","6","null","6","null","6","1005.88","1","40.167168","18.174857"],
    [2781,"2024-04-25 20:00:00","13","galatina","13.43","1","66.04","1","0.0","1","null","6","null","6","null","6","1006.47","1","40.167168","18.174857"],
    [2782,"2024-04-25 21:00:00","13","galatina","12.76","1","70.32","1","0.0","1","null","6","null","6","null","6","1007.03","1","40.167168","18.174857"],
    [2783,"2024-04-25 22:00:00","13","galatina","11.98","1","76.92","1","0.0","1","null","6","null","6","null","6","1007.26","1","40.167168","18.174857"],
    [2784,"2024-04-25 23:00:00","13","galatina","11.19","1","81.44","1","0.0","1","null","6","null","6","null","6","1007.39","1","40.167168","18.174857"],
    [2785,"2024-04-26 00:00:00","13","galatina","10.51","1","83.98","1","0.0","1","null","6","null","6","null","6","1007.52","1","40.167168","18.174857"],
    [2786,"2024-04-26 01:00:00","13","galatina","9.98","1","86.15","1","0.0","1","null","6","null","6","null","6","1007.48","1","40.167168","18.174857"],
    [2787,"2024-04-26 02:00:00","13","galatina","9.58","1","86.9","1","0.0","1","null","6","null","6","null","6","1007.4","1","40.167168","18.174857"],
    [2788,"2024-04-26 03:00:00","13","galatina","9.38","1","88.53","1","0.0","1","null","6","null","6","null","6","1007.57","1","40.167168","18.174857"],
    [2789,"2024-04-26 04:00:00","13","galatina","8.74","1","90.46","1","0.0","1","null","6","null","6","null","6","1007.69","1","40.167168","18.174857"],
    [2790,"2024-04-26 05:00:00","13","galatina","8.36","1","92.3","1","0.0","1","null","6","null","6","null","6","1007.78","1","40.167168","18.174857"],
    [2791,"2024-04-26 06:00:00","13","galatina","8.9","1","92.55","1","0.0","1","null","6","null","6","null","6","1008.16","1","40.167168","18.174857"],
    [2792,"2024-04-26 07:00:00","13","galatina","12.86","1","80.41","1","0.0","1","null","6","null","6","null","6","1008.32","1","40.167168","18.174857"],
    [2793,"2024-04-26 08:00:00","13","galatina","16.37","1","61.5","1","0.0","1","null","6","null","6","null","6","1008.22","1","40.167168","18.174857"],
    [2794,"2024-04-26 09:00:00","13","galatina","18.85","1","51.67","1","0.0","1","null","6","null","6","null","6","1008.14","1","40.167168","18.174857"],
    [2795,"2024-04-26 10:00:00","13","galatina","20.32","1","42.67","1","0.0","1","null","6","null","6","null","6","1008.19","1","40.167168","18.174857"],
    [2796,"2024-04-26 11:00:00","13","galatina","21.17","1","37.16","1","0.0","1","null","6","null","6","null","6","1008.27","1","40.167168","18.174857"],
    [2797,"2024-04-26 12:00:00","13","galatina","20.18","1","40.62","1","0.0","1","null","6","null","6","null","6","1008.34","1","40.167168","18.174857"],
    [2798,"2024-04-26 13:00:00","13","galatina","20.6","1","37.19","1","0.0","1","null","6","null","6","null","6","1008.44","1","40.167168","18.174857"],
    [2799,"2024-04-26 14:00:00","13","galatina","21.28","1","34.44","1","0.0","1","null","6","null","6","null","6","1008.52","1","40.167168","18.174857"],
    [2800,"2024-04-26 15:00:00","13","galatina","20.93","1","35.87","1","0.0","1","null","6","null","6","null","6","1008.5","1","40.167168","18.174857"],
    [2801,"2024-04-26 16:00:00","13","galatina","20.92","1","37.64","1","0.0","1","null","6","null","6","null","6","1008.45","1","40.167168","18.174857"],
    [2802,"2024-04-26 17:00:00","13","galatina","20.05","1","41.01","1","0.0","1","null","6","null","6","null","6","1008.47","1","40.167168","18.174857"],
    [2803,"2024-04-26 18:00:00","13","galatina","18.13","1","46.34","1","0.0","1","null","6","null","6","null","6","1008.66","1","40.167168","18.174857"],
    [2804,"2024-04-26 19:00:00","13","galatina","16.1","1","57.61","1","0.0","1","null","6","null","6","null","6","1009.08","1","40.167168","18.174857"],
    [2805,"2024-04-26 20:00:00","13","galatina","14.87","1","65.39","1","0.0","1","null","6","null","6","null","6","1009.73","1","40.167168","18.174857"],
    [2806,"2024-04-26 21:00:00","13","galatina","14.17","1","68.84","1","0.0","1","null","6","null","6","null","6","1010.06","1","40.167168","18.174857"],
    [2807,"2024-04-26 22:00:00","13","galatina","13.88","1","70.69","1","0.0","1","null","6","null","6","null","6","1010.12","1","40.167168","18.174857"],
    [2808,"2024-04-26 23:00:00","13","galatina","13.42","1","74.15","1","0.0","1","null","6","null","6","null","6","1010.26","1","40.167168","18.174857"],
    [2809,"2024-04-27 00:00:00","13","galatina","13.08","1","76.53","1","0.0","1","null","6","null","6","null","6","1010.28","1","40.167168","18.174857"],
    [2810,"2024-04-27 01:00:00","13","galatina","12.75","1","78.74","1","0.0","1","null","6","null","6","null","6","1010.05","1","40.167168","18.174857"],
    [2811,"2024-04-27 02:00:00","13","galatina","12.29","1","80.77","1","0.0","1","null","6","null","6","null","6","1009.82","1","40.167168","18.174857"],
    [2812,"2024-04-27 03:00:00","13","galatina","11.76","1","82.98","1","0.0","1","null","6","null","6","null","6","1009.87","1","40.167168","18.174857"],
    [2813,"2024-04-27 04:00:00","13","galatina","11.14","1","85.43","1","0.0","1","null","6","null","6","null","6","1009.69","1","40.167168","18.174857"],
    [2814,"2024-04-27 05:00:00","13","galatina","10.59","1","86.55","1","0.0","1","null","6","null","6","null","6","1010.06","1","40.167168","18.174857"],
    [2815,"2024-04-27 06:00:00","13","galatina","10.87","1","87.82","1","0.0","1","null","6","null","6","null","6","1010.61","1","40.167168","18.174857"],
    [2816,"2024-04-27 07:00:00","13","galatina","15.12","1","74.83","1","0.0","1","null","6","null","6","null","6","1010.94","1","40.167168","18.174857"],
    [2817,"2024-04-27 08:00:00","13","galatina","18.89","1","60.47","1","0.0","1","null","6","null","6","null","6","1010.88","1","40.167168","18.174857"],
    [2818,"2024-04-27 09:00:00","13","galatina","20.38","1","48.93","1","0.0","1","null","6","null","6","null","6","1010.74","1","40.167168","18.174857"],
    [2819,"2024-04-27 10:00:00","13","galatina","21.37","1","41.45","1","0.0","1","null","6","null","6","null","6","1010.63","1","40.167168","18.174857"],
    [2820,"2024-04-27 11:00:00","13","galatina","22.23","1","38.31","1","0.0","1","null","6","null","6","null","6","1010.64","1","40.167168","18.174857"],
    [2821,"2024-04-27 12:00:00","13","galatina","22.57","1","37.6","1","0.0","1","null","6","null","6","null","6","1010.5","1","40.167168","18.174857"],
    [2822,"2024-04-27 13:00:00","13","galatina","22.52","1","44.62","1","0.0","1","null","6","null","6","null","6","1010.29","1","40.167168","18.174857"],
    [2823,"2024-04-27 14:00:00","13","galatina","22.34","1","48.32","1","0.0","1","null","6","null","6","null","6","1010.26","1","40.167168","18.174857"],
    [2824,"2024-04-27 15:00:00","13","galatina","22.93","1","46.21","1","0.0","1","null","6","null","6","null","6","1010.25","1","40.167168","18.174857"],
    [2825,"2024-04-27 16:00:00","13","galatina","21.98","1","46.7","1","0.0","1","null","6","null","6","null","6","1010.23","1","40.167168","18.174857"],
    [2826,"2024-04-27 17:00:00","13","galatina","22.23","1","44.23","1","0.0","1","null","6","null","6","null","6","1010.36","1","40.167168","18.174857"],
    [2827,"2024-04-27 18:00:00","13","galatina","20.84","1","45.14","1","0.0","1","null","6","null","6","null","6","1010.47","1","40.167168","18.174857"],
    [2828,"2024-04-27 19:00:00","13","galatina","18.17","1","49.27","1","0.0","1","null","6","null","6","null","6","1010.79","1","40.167168","18.174857"],
    [2829,"2024-04-27 20:00:00","13","galatina","16.3","1","57.26","1","0.0","1","null","6","null","6","null","6","1011.29","1","40.167168","18.174857"],
    [2830,"2024-04-27 21:00:00","13","galatina","14.95","1","65.57","1","0.0","1","null","6","null","6","null","6","1012.03","1","40.167168","18.174857"],
    [2831,"2024-04-27 22:00:00","13","galatina","13.39","1","72.32","1","0.0","1","null","6","null","6","null","6","1012.37","1","40.167168","18.174857"],
    [2832,"2024-04-27 23:00:00","13","galatina","12.34","1","78.35","1","0.0","1","null","6","null","6","null","6","1012.45","1","40.167168","18.174857"],
    [2833,"2024-04-28 00:00:00","13","galatina","11.85","1","80.81","1","0.0","1","null","6","null","6","null","6","1012.49","1","40.167168","18.174857"],
    [2834,"2024-04-28 01:00:00","13","galatina","11.2","1","84.04","1","0.0","1","null","6","null","6","null","6","1012.34","1","40.167168","18.174857"],
    [2835,"2024-04-28 02:00:00","13","galatina","11.64","1","85.56","1","0.0","1","null","6","null","6","null","6","1012.17","1","40.167168","18.174857"],
    [2836,"2024-04-28 03:00:00","13","galatina","12.21","1","86.87","1","0.0","1","null","6","null","6","null","6","1012.26","1","40.167168","18.174857"],
    [2837,"2024-04-28 04:00:00","13","galatina","11.3","1","88.93","1","0.0","1","null","6","null","6","null","6","1012.28","1","40.167168","18.174857"],
    [2838,"2024-04-28 05:00:00","13","galatina","11.25","1","92.02","1","0.0","1","null","6","null","6","null","6","1012.19","1","40.167168","18.174857"],
    [2839,"2024-04-28 06:00:00","13","galatina","11.68","1","92.25","1","0.0","1","null","6","null","6","null","6","1012.49","1","40.167168","18.174857"],
    [2840,"2024-04-28 07:00:00","13","galatina","15.75","1","84.3","1","0.0","1","null","6","null","6","null","6","1012.65","1","40.167168","18.174857"],
    [2841,"2024-04-28 08:00:00","13","galatina","18.57","1","71.05","1","0.0","1","null","6","null","6","null","6","1012.5","1","40.167168","18.174857"],
    [2842,"2024-04-28 09:00:00","13","galatina","20.98","1","56.84","1","0.0","1","null","6","null","6","null","6","1012.38","1","40.167168","18.174857"],
    [2843,"2024-04-28 10:00:00","13","galatina","22.41","1","47.49","1","0.0","1","null","6","null","6","null","6","1012.33","1","40.167168","18.174857"],
    [2844,"2024-04-28 11:00:00","13","galatina","23.67","1","44.81","1","0.0","1","null","6","null","6","null","6","1012.28","1","40.167168","18.174857"],
    [2845,"2024-04-28 12:00:00","13","galatina","24.49","1","42.65","1","0.0","1","null","6","null","6","null","6","1012.07","1","40.167168","18.174857"],
    [2846,"2024-04-28 13:00:00","13","galatina","24.97","1","41.01","1","0.0","1","null","6","null","6","null","6","1011.8","1","40.167168","18.174857"],
    [2847,"2024-04-28 14:00:00","13","galatina","26.27","1","36.89","1","0.0","1","null","6","null","6","null","6","1011.45","1","40.167168","18.174857"],
    [2848,"2024-04-28 15:00:00","13","galatina","26.08","1","37.06","1","0.0","1","null","6","null","6","null","6","1011.11","1","40.167168","18.174857"],
    [2849,"2024-04-28 16:00:00","13","galatina","27.15","1","34.33","1","0.0","1","null","6","null","6","null","6","1010.92","1","40.167168","18.174857"],
    [2850,"2024-04-28 17:00:00","13","galatina","26.6","1","34.88","1","0.0","1","null","6","null","6","null","6","1010.92","1","40.167168","18.174857"],
    [2851,"2024-04-28 18:00:00","13","galatina","24.76","1","38.7","1","0.0","1","null","6","null","6","null","6","1010.99","1","40.167168","18.174857"],
    [2852,"2024-04-28 19:00:00","13","galatina","21.04","1","48.31","1","0.0","1","null","6","null","6","null","6","1010.97","1","40.167168","18.174857"],
    [2853,"2024-04-28 20:00:00","13","galatina","18.38","1","59.8","1","0.0","1","null","6","null","6","null","6","1011.49","1","40.167168","18.174857"],
    [2854,"2024-04-28 21:00:00","13","galatina","16.74","1","68.46","1","0.0","1","null","6","null","6","null","6","1012.23","1","40.167168","18.174857"],
    [2855,"2024-04-28 22:00:00","13","galatina","15.89","1","74.37","1","0.0","1","null","6","null","6","null","6","1012.46","1","40.167168","18.174857"],
    [2856,"2024-04-28 23:00:00","13","galatina","15.21","1","79.55","1","0.0","1","null","6","null","6","null","6","1012.59","1","40.167168","18.174857"],
    [2857,"2024-04-29 00:00:00","13","galatina","14.71","1","84.0","1","0.0","1","null","6","null","6","null","6","1012.64","1","40.167168","18.174857"],
    [2858,"2024-04-29 01:00:00","13","galatina","14.55","1","86.1","1","0.0","1","null","6","null","6","null","6","1012.5","1","40.167168","18.174857"],
    [2859,"2024-04-29 02:00:00","13","galatina","12.96","1","88.43","1","0.0","1","null","6","null","6","null","6","1012.36","1","40.167168","18.174857"],
    [2860,"2024-04-29 03:00:00","13","galatina","12.44","1","90.37","1","0.0","1","null","6","null","6","null","6","1012.36","1","40.167168","18.174857"],
    [2861,"2024-04-29 04:00:00","13","galatina","11.69","1","91.04","1","0.0","1","null","6","null","6","null","6","1012.41","1","40.167168","18.174857"],
    [2862,"2024-04-29 05:00:00","13","galatina","11.33","1","91.86","1","0.0","1","null","6","null","6","null","6","1012.41","1","40.167168","18.174857"],
    [2863,"2024-04-29 06:00:00","13","galatina","12.15","1","91.12","1","0.0","1","null","6","null","6","null","6","1012.62","1","40.167168","18.174857"],
    [2864,"2024-04-29 07:00:00","13","galatina","16.83","1","80.74","1","0.0","1","null","6","null","6","null","6","1012.72","1","40.167168","18.174857"],
    [2865,"2024-04-29 08:00:00","13","galatina","20.61","1","67.84","1","0.0","1","null","6","null","6","null","6","1012.46","1","40.167168","18.174857"],
    [2866,"2024-04-29 09:00:00","13","galatina","23.06","1","55.75","1","0.0","1","null","6","null","6","null","6","1012.22","1","40.167168","18.174857"],
    [2867,"2024-04-29 10:00:00","13","galatina","25.66","1","44.4","1","0.0","1","null","6","null","6","null","6","1012.2","1","40.167168","18.174857"],
    [2868,"2024-04-29 11:00:00","13","galatina","26.56","1","42.28","1","0.0","1","null","6","null","6","null","6","1012.17","1","40.167168","18.174857"],
    [2869,"2024-04-29 12:00:00","13","galatina","26.61","1","41.62","1","0.0","1","null","6","null","6","null","6","1012.05","1","40.167168","18.174857"],
    [2870,"2024-04-29 13:00:00","13","galatina","26.9","1","39.7","1","0.0","1","null","6","null","6","null","6","1011.79","1","40.167168","18.174857"],
    [2871,"2024-04-29 14:00:00","13","galatina","27.08","1","36.8","1","0.0","1","null","6","null","6","null","6","1011.49","1","40.167168","18.174857"],
    [2872,"2024-04-29 15:00:00","13","galatina","27.65","1","31.39","1","0.0","1","null","6","null","6","null","6","1011.35","1","40.167168","18.174857"],
    [2873,"2024-04-29 16:00:00","13","galatina","27.88","1","27.96","1","0.0","1","null","6","null","6","null","6","1011.3","1","40.167168","18.174857"],
    [2874,"2024-04-29 17:00:00","13","galatina","27.21","1","27.59","1","0.0","1","null","6","null","6","null","6","1011.35","1","40.167168","18.174857"],
    [2875,"2024-04-29 18:00:00","13","galatina","24.94","1","26.64","1","0.0","1","null","6","null","6","null","6","1011.32","1","40.167168","18.174857"],
    [2876,"2024-04-29 19:00:00","13","galatina","21.87","1","31.66","1","0.0","1","null","6","null","6","null","6","1011.41","1","40.167168","18.174857"],
    [2877,"2024-04-29 20:00:00","13","galatina","19.61","1","50.33","1","0.0","1","null","6","null","6","null","6","1011.98","1","40.167168","18.174857"],
    [2878,"2024-04-29 21:00:00","13","galatina","17.97","1","65.74","1","0.0","1","null","6","null","6","null","6","1012.65","1","40.167168","18.174857"],
    [2879,"2024-04-29 22:00:00","13","galatina","16.96","1","75.19","1","0.0","1","null","6","null","6","null","6","1012.9","1","40.167168","18.174857"],
    [2880,"2024-04-29 23:00:00","13","galatina","16.43","1","80.56","1","0.0","1","null","6","null","6","null","6","1013.24","1","40.167168","18.174857"],
    [2881,"2024-04-30 00:00:00","13","galatina","14.89","1","80.81","1","0.0","1","null","6","null","6","null","6","1013.36","1","40.167168","18.174857"],
    [2882,"2024-04-30 01:00:00","13","galatina","14.56","1","87.25","1","0.0","1","null","6","null","6","null","6","1012.92","1","40.167168","18.174857"],
    [2883,"2024-04-30 02:00:00","13","galatina","13.44","1","89.77","1","0.0","1","null","6","null","6","null","6","1012.8","1","40.167168","18.174857"],
    [2884,"2024-04-30 03:00:00","13","galatina","12.63","1","91.66","1","0.0","1","null","6","null","6","null","6","1012.59","1","40.167168","18.174857"],
    [2885,"2024-04-30 04:00:00","13","galatina","12.96","1","93.39","1","0.0","1","null","6","null","6","null","6","1012.3","1","40.167168","18.174857"],
    [2886,"2024-04-30 05:00:00","13","galatina","13.26","1","93.03","1","0.0","1","null","6","null","6","null","6","1012.22","1","40.167168","18.174857"],
    [2887,"2024-04-30 06:00:00","13","galatina","14.3","1","84.21","1","0.0","1","null","6","null","6","null","6","1012.32","1","40.167168","18.174857"],
    [2888,"2024-04-30 07:00:00","13","galatina","17.65","1","71.95","1","0.0","1","null","6","null","6","null","6","1012.28","1","40.167168","18.174857"],
    [2889,"2024-04-30 08:00:00","13","galatina","20.75","1","63.46","1","0.0","1","null","6","null","6","null","6","1011.96","1","40.167168","18.174857"],
    [2890,"2024-04-30 09:00:00","13","galatina","23.26","1","50.49","1","0.0","1","null","6","null","6","null","6","1011.78","1","40.167168","18.174857"],
    [2891,"2024-04-30 10:00:00","13","galatina","25.36","1","41.45","1","0.0","1","null","6","null","6","null","6","1011.42","1","40.167168","18.174857"],
    [2892,"2024-04-30 11:00:00","13","galatina","26.89","1","33.74","1","0.0","1","null","6","null","6","null","6","1011.14","1","40.167168","18.174857"],
    [2893,"2024-04-30 12:00:00","13","galatina","28.09","1","31.38","1","0.0","1","null","6","null","6","null","6","1010.84","1","40.167168","18.174857"],
    [2894,"2024-04-30 13:00:00","13","galatina","28.02","1","37.86","1","0.0","1","null","6","null","6","null","6","1010.25","1","40.167168","18.174857"],
    [2895,"2024-04-30 14:00:00","13","galatina","27.79","1","40.82","1","0.0","1","null","6","null","6","null","6","1009.97","1","40.167168","18.174857"],
    [2896,"2024-04-30 15:00:00","13","galatina","26.53","1","38.31","1","0.0","1","null","6","null","6","null","6","1009.61","1","40.167168","18.174857"],
    [2897,"2024-04-30 16:00:00","13","galatina","27.83","1","34.38","1","0.0","1","null","6","null","6","null","6","1009.45","1","40.167168","18.174857"],
    [2898,"2024-04-30 17:00:00","13","galatina","26.43","1","38.15","1","0.0","1","null","6","null","6","null","6","1009.35","1","40.167168","18.174857"],
    [2899,"2024-04-30 18:00:00","13","galatina","23.49","1","46.33","1","0.0","1","null","6","null","6","null","6","1009.11","1","40.167168","18.174857"],
    [2900,"2024-04-30 19:00:00","13","galatina","21.43","1","52.75","1","0.0","1","null","6","null","6","null","6","1009.08","1","40.167168","18.174857"],
    [2901,"2024-04-30 20:00:00","13","galatina","20.07","1","56.96","1","0.0","1","null","6","null","6","null","6","1009.49","1","40.167168","18.174857"],
    [2902,"2024-04-30 21:00:00","13","galatina","19.08","1","57.05","1","0.0","1","null","6","null","6","null","6","1009.78","1","40.167168","18.174857"],
    [2903,"2024-04-30 22:00:00","13","galatina","18.23","1","56.46","1","0.0","1","null","6","null","6","null","6","1009.85","1","40.167168","18.174857"],
    [2904,"2024-04-30 23:00:00","13","galatina","17.37","1","57.21","1","0.0","1","null","6","null","6","null","6","1009.91","1","40.167168","18.174857"],
    [2905,"2024-05-01 00:00:00","13","galatina","16.76","1","61.45","1","0.0","1","null","6","null","6","null","6","1009.84","1","40.167168","18.174857"],
    [2906,"2024-05-01 01:00:00","13","galatina","16.73","1","62.97","1","0.0","1","null","6","null","6","null","6","1009.39","1","40.167168","18.174857"],
    [2907,"2024-05-01 02:00:00","13","galatina","16.72","1","79.52","1","0.0","1","null","6","null","6","null","6","1009.13","1","40.167168","18.174857"],
    [2908,"2024-05-01 03:00:00","13","galatina","16.72","1","87.4","1","0.0","1","null","6","null","6","null","6","1009.16","1","40.167168","18.174857"],
    [2909,"2024-05-01 04:00:00","13","galatina","16.69","1","85.38","1","0.0","1","null","6","null","6","null","6","1008.86","1","40.167168","18.174857"],
    [2910,"2024-05-01 05:00:00","13","galatina","16.72","1","82.93","1","0.0","1","null","6","null","6","null","6","1008.64","1","40.167168","18.174857"],
    [2911,"2024-05-01 06:00:00","13","galatina","16.93","1","80.83","1","0.0","1","null","6","null","6","null","6","1008.78","1","40.167168","18.174857"],
    [2912,"2024-05-01 07:00:00","13","galatina","17.72","1","76.98","1","0.0","1","null","6","null","6","null","6","1008.99","1","40.167168","18.174857"],
    [2913,"2024-05-01 08:00:00","13","galatina","19.32","1","67.18","1","0.0","1","null","6","null","6","null","6","1009.0","1","40.167168","18.174857"],
    [2914,"2024-05-01 09:00:00","13","galatina","22.39","1","45.71","1","0.0","1","null","6","null","6","null","6","1008.41","1","40.167168","18.174857"],
    [2915,"2024-05-01 10:00:00","13","galatina","24.09","1","36.01","1","0.0","1","null","6","null","6","null","6","1007.75","1","40.167168","18.174857"],
    [2916,"2024-05-01 11:00:00","13","galatina","24.79","1","33.7","1","0.0","1","null","6","null","6","null","6","1007.62","1","40.167168","18.174857"],
    [2917,"2024-05-01 12:00:00","13","galatina","24.3","1","37.73","1","0.0","1","null","6","null","6","null","6","1007.86","1","40.167168","18.174857"],
    [2918,"2024-05-01 13:00:00","13","galatina","23.83","1","44.55","1","0.0","1","null","6","null","6","null","6","1007.63","1","40.167168","18.174857"],
    [2919,"2024-05-01 14:00:00","13","galatina","23.54","1","48.49","1","0.0","1","null","6","null","6","null","6","1007.38","1","40.167168","18.174857"],
    [2920,"2024-05-01 15:00:00","13","galatina","23.05","1","53.97","1","0.0","1","null","6","null","6","null","6","1007.1","1","40.167168","18.174857"],
    [2921,"2024-05-01 16:00:00","13","galatina","22.8","1","53.53","1","0.0","1","null","6","null","6","null","6","1006.57","1","40.167168","18.174857"],
    [2922,"2024-05-01 17:00:00","13","galatina","21.62","1","59.96","1","0.0","1","null","6","null","6","null","6","1006.76","1","40.167168","18.174857"],
    [2923,"2024-05-01 18:00:00","13","galatina","19.75","1","71.9","1","0.0","1","null","6","null","6","null","6","1007.19","1","40.167168","18.174857"],
    [2924,"2024-05-01 19:00:00","13","galatina","18.86","1","81.59","1","0.0","1","null","6","null","6","null","6","1007.11","1","40.167168","18.174857"],
    [2925,"2024-05-01 20:00:00","13","galatina","18.06","1","88.87","1","0.2","1","null","6","null","6","null","6","1007.62","1","40.167168","18.174857"],
    [2926,"2024-05-01 21:00:00","13","galatina","17.53","1","93.73","1","7.6","1","null","6","null","6","null","6","1008.15","1","40.167168","18.174857"],
    [2927,"2024-05-01 22:00:00","13","galatina","17.44","1","95.7","1","0.4","1","null","6","null","6","null","6","1008.51","1","40.167168","18.174857"],
    [2928,"2024-05-01 23:00:00","13","galatina","17.33","1","95.71","1","0.0","1","null","6","null","6","null","6","1008.43","1","40.167168","18.174857"],
    [2929,"2024-05-02 00:00:00","13","galatina","17.28","1","95.63","1","0.2","1","null","6","null","6","null","6","1008.4","1","40.167168","18.174857"],
    [2930,"2024-05-02 01:00:00","13","galatina","17.39","1","95.63","1","0.2","1","null","6","null","6","null","6","1008.35","1","40.167168","18.174857"],
    [2931,"2024-05-02 02:00:00","13","galatina","17.35","1","96.18","1","0.8","1","null","6","null","6","null","6","1008.03","1","40.167168","18.174857"],
    [2932,"2024-05-02 03:00:00","13","galatina","17.06","1","96.6","1","1.0","1","null","6","null","6","null","6","1007.85","1","40.167168","18.174857"],
    [2933,"2024-05-02 04:00:00","13","galatina","17.04","1","97.12","1","0.0","1","null","6","null","6","null","6","1007.65","1","40.167168","18.174857"],
    [2934,"2024-05-02 05:00:00","13","galatina","16.68","1","97.72","1","0.0","1","null","6","null","6","null","6","1007.37","1","40.167168","18.174857"],
    [2935,"2024-05-02 06:00:00","13","galatina","16.58","1","97.88","1","0.0","1","null","6","null","6","null","6","1008.23","1","40.167168","18.174857"],
    [2936,"2024-05-02 07:00:00","13","galatina","16.97","1","97.7","1","0.0","1","null","6","null","6","null","6","1008.23","1","40.167168","18.174857"],
    [2937,"2024-05-02 08:00:00","13","galatina","17.47","1","94.65","1","0.0","1","null","6","null","6","null","6","1008.04","1","40.167168","18.174857"],
    [2938,"2024-05-02 09:00:00","13","galatina","20.35","1","70.67","1","0.0","1","null","6","null","6","null","6","1007.68","1","40.167168","18.174857"],
    [2939,"2024-05-02 10:00:00","13","galatina","22.59","1","53.98","1","0.0","1","null","6","null","6","null","6","1007.52","1","40.167168","18.174857"],
    [2940,"2024-05-02 11:00:00","13","galatina","22.96","1","49.27","1","0.0","1","null","6","null","6","null","6","1007.57","1","40.167168","18.174857"],
    [2941,"2024-05-02 12:00:00","13","galatina","23.01","1","46.94","1","0.0","1","null","6","null","6","null","6","1007.36","1","40.167168","18.174857"],
    [2942,"2024-05-02 13:00:00","13","galatina","23.24","1","43.5","1","0.0","1","null","6","null","6","null","6","1007.31","1","40.167168","18.174857"],
    [2943,"2024-05-02 14:00:00","13","galatina","23.43","1","40.7","1","0.0","1","null","6","null","6","null","6","1007.1","1","40.167168","18.174857"],
    [2944,"2024-05-02 15:00:00","13","galatina","24.47","1","38.75","1","0.0","1","null","6","null","6","null","6","1006.93","1","40.167168","18.174857"],
    [2945,"2024-05-02 16:00:00","13","galatina","24.21","1","41.1","1","0.0","1","null","6","null","6","null","6","1006.64","1","40.167168","18.174857"],
    [2946,"2024-05-02 17:00:00","13","galatina","23.28","1","44.88","1","0.0","1","null","6","null","6","null","6","1006.53","1","40.167168","18.174857"],
    [2947,"2024-05-02 18:00:00","13","galatina","21.41","1","52.41","1","0.0","1","null","6","null","6","null","6","1006.63","1","40.167168","18.174857"],
    [2948,"2024-05-02 19:00:00","13","galatina","19.21","1","63.82","1","0.0","1","null","6","null","6","null","6","1007.12","1","40.167168","18.174857"],
    [2949,"2024-05-02 20:00:00","13","galatina","18.86","1","64.73","1","0.0","1","null","6","null","6","null","6","1007.85","1","40.167168","18.174857"],
    [2950,"2024-05-02 21:00:00","13","galatina","17.17","1","71.6","1","0.0","1","null","6","null","6","null","6","1008.73","1","40.167168","18.174857"],
    [2951,"2024-05-02 22:00:00","13","galatina","15.79","1","80.81","1","0.0","1","null","6","null","6","null","6","1008.49","1","40.167168","18.174857"],
    [2952,"2024-05-02 23:00:00","13","galatina","15.39","1","84.93","1","0.0","1","null","6","null","6","null","6","1008.52","1","40.167168","18.174857"],
    [2953,"2024-05-03 00:00:00","13","galatina","15.3","1","81.52","1","0.0","1","null","6","null","6","null","6","1008.59","1","40.167168","18.174857"],
    [2954,"2024-05-03 01:00:00","13","galatina","14.68","1","72.72","1","0.0","1","null","6","null","6","null","6","1008.47","1","40.167168","18.174857"],
    [2955,"2024-05-03 02:00:00","13","galatina","13.93","1","73.98","1","0.0","1","null","6","null","6","null","6","1008.23","1","40.167168","18.174857"],
    [2956,"2024-05-03 03:00:00","13","galatina","13.39","1","75.66","1","0.0","1","null","6","null","6","null","6","1008.19","1","40.167168","18.174857"],
    [2957,"2024-05-03 04:00:00","13","galatina","12.68","1","77.4","1","0.0","1","null","6","null","6","null","6","1008.06","1","40.167168","18.174857"],
    [2958,"2024-05-03 05:00:00","13","galatina","12.67","1","79.38","1","0.0","1","null","6","null","6","null","6","1007.81","1","40.167168","18.174857"],
    [2959,"2024-05-03 06:00:00","13","galatina","13.16","1","77.75","1","0.0","1","null","6","null","6","null","6","1007.79","1","40.167168","18.174857"],
    [2960,"2024-05-03 07:00:00","13","galatina","17.05","1","66.21","1","0.0","1","null","6","null","6","null","6","1007.8","1","40.167168","18.174857"],
    [2961,"2024-05-03 08:00:00","13","galatina","18.97","1","48.44","1","0.0","1","null","6","null","6","null","6","1007.77","1","40.167168","18.174857"],
    [2962,"2024-05-03 09:00:00","13","galatina","19.81","1","40.9","1","0.0","1","null","6","null","6","null","6","1007.8","1","40.167168","18.174857"],
    [2963,"2024-05-03 10:00:00","13","galatina","20.16","1","37.44","1","0.0","1","null","6","null","6","null","6","1007.9","1","40.167168","18.174857"],
    [2964,"2024-05-03 11:00:00","13","galatina","20.75","1","36.17","1","0.0","1","null","6","null","6","null","6","1007.86","1","40.167168","18.174857"],
    [2965,"2024-05-03 12:00:00","13","galatina","21.38","1","33.43","1","0.0","1","null","6","null","6","null","6","1007.71","1","40.167168","18.174857"],
    [2966,"2024-05-03 13:00:00","13","galatina","21.61","1","32.91","1","0.0","1","null","6","null","6","null","6","1007.54","1","40.167168","18.174857"],
    [2967,"2024-05-03 14:00:00","13","galatina","21.49","1","32.63","1","0.0","1","null","6","null","6","null","6","1007.45","1","40.167168","18.174857"],
    [2968,"2024-05-03 15:00:00","13","galatina","20.29","1","40.76","1","0.0","1","null","6","null","6","null","6","1007.34","1","40.167168","18.174857"],
    [2969,"2024-05-03 16:00:00","13","galatina","21.28","1","40.63","1","0.0","1","null","6","null","6","null","6","1007.14","1","40.167168","18.174857"],
    [2970,"2024-05-03 17:00:00","13","galatina","21.18","1","43.43","1","0.0","1","null","6","null","6","null","6","1007.2","1","40.167168","18.174857"],
    [2971,"2024-05-03 18:00:00","13","galatina","19.05","1","51.95","1","0.0","1","null","6","null","6","null","6","1007.28","1","40.167168","18.174857"],
    [2972,"2024-05-03 19:00:00","13","galatina","17.56","1","56.8","1","0.0","1","null","6","null","6","null","6","1007.76","1","40.167168","18.174857"],
    [2973,"2024-05-03 20:00:00","13","galatina","14.53","1","76.62","1","0.0","1","null","6","null","6","null","6","1008.37","1","40.167168","18.174857"],
    [2974,"2024-05-03 21:00:00","13","galatina","13.92","1","78.32","1","0.0","1","null","6","null","6","null","6","1008.54","1","40.167168","18.174857"],
    [2975,"2024-05-03 22:00:00","13","galatina","13.94","1","79.4","1","0.6","1","null","6","null","6","null","6","1008.55","1","40.167168","18.174857"],
    [2976,"2024-05-03 23:00:00","13","galatina","13.38","1","86.12","1","0.0","1","null","6","null","6","null","6","1008.35","1","40.167168","18.174857"],
    [2977,"2024-05-04 00:00:00","13","galatina","12.88","1","88.38","1","0.0","1","null","6","null","6","null","6","1008.1","1","40.167168","18.174857"],
    [2978,"2024-05-04 01:00:00","13","galatina","12.82","1","85.47","1","0.0","1","null","6","null","6","null","6","1007.89","1","40.167168","18.174857"],
    [2979,"2024-05-04 02:00:00","13","galatina","14.02","1","69.42","1","0.0","1","null","6","null","6","null","6","1007.62","1","40.167168","18.174857"],
    [2980,"2024-05-04 03:00:00","13","galatina","13.34","1","70.78","1","0.0","1","null","6","null","6","null","6","1007.53","1","40.167168","18.174857"],
    [2981,"2024-05-04 04:00:00","13","galatina","12.26","1","75.8","1","0.0","1","null","6","null","6","null","6","1007.43","1","40.167168","18.174857"],
    [2982,"2024-05-04 05:00:00","13","galatina","11.82","1","77.4","1","0.0","1","null","6","null","6","null","6","1007.71","1","40.167168","18.174857"],
    [2983,"2024-05-04 06:00:00","13","galatina","12.46","1","76.05","1","0.0","1","null","6","null","6","null","6","1008.0","1","40.167168","18.174857"],
    [2984,"2024-05-04 07:00:00","13","galatina","14.91","1","68.82","1","0.0","1","null","6","null","6","null","6","1007.97","1","40.167168","18.174857"],
    [2985,"2024-05-04 08:00:00","13","galatina","17.1","1","59.99","1","0.0","1","null","6","null","6","null","6","1007.81","1","40.167168","18.174857"],
    [2986,"2024-05-04 09:00:00","13","galatina","18.61","1","49.28","1","0.0","1","null","6","null","6","null","6","1007.84","1","40.167168","18.174857"],
    [2987,"2024-05-04 10:00:00","13","galatina","19.46","1","45.94","1","0.0","1","null","6","null","6","null","6","1007.82","1","40.167168","18.174857"],
    [2988,"2024-05-04 11:00:00","13","galatina","20.12","1","41.63","1","0.0","1","null","6","null","6","null","6","1007.81","1","40.167168","18.174857"],
    [2989,"2024-05-04 12:00:00","13","galatina","20.34","1","43.73","1","0.0","1","null","6","null","6","null","6","1007.87","1","40.167168","18.174857"],
    [2990,"2024-05-04 13:00:00","13","galatina","20.52","1","42.26","1","0.0","1","null","6","null","6","null","6","1007.86","1","40.167168","18.174857"],
    [2991,"2024-05-04 14:00:00","13","galatina","21.23","1","40.42","1","0.0","1","null","6","null","6","null","6","1007.88","1","40.167168","18.174857"],
    [2992,"2024-05-04 15:00:00","13","galatina","21.49","1","38.88","1","0.0","1","null","6","null","6","null","6","1007.84","1","40.167168","18.174857"],
    [2993,"2024-05-04 16:00:00","13","galatina","21.36","1","42.97","1","0.0","1","null","6","null","6","null","6","1007.84","1","40.167168","18.174857"],
    [2994,"2024-05-04 17:00:00","13","galatina","20.59","1","49.33","1","0.0","1","null","6","null","6","null","6","1008.13","1","40.167168","18.174857"],
    [2995,"2024-05-04 18:00:00","13","galatina","19.42","1","49.95","1","0.0","1","null","6","null","6","null","6","1008.32","1","40.167168","18.174857"],
    [2996,"2024-05-04 19:00:00","13","galatina","17.82","1","57.04","1","0.0","1","null","6","null","6","null","6","1008.76","1","40.167168","18.174857"],
    [2997,"2024-05-04 20:00:00","13","galatina","16.57","1","65.94","1","0.0","1","null","6","null","6","null","6","1009.21","1","40.167168","18.174857"],
    [2998,"2024-05-04 21:00:00","13","galatina","15.6","1","76.38","1","0.0","1","null","6","null","6","null","6","1009.82","1","40.167168","18.174857"],
    [2999,"2024-05-04 22:00:00","13","galatina","15.06","1","83.37","1","0.0","1","null","6","null","6","null","6","1010.23","1","40.167168","18.174857"],
    [3000,"2024-05-04 23:00:00","13","galatina","14.69","1","87.38","1","0.0","1","null","6","null","6","null","6","1010.54","1","40.167168","18.174857"],
    [3001,"2024-05-05 00:00:00","13","galatina","14.58","1","88.73","1","0.0","1","null","6","null","6","null","6","1010.52","1","40.167168","18.174857"],
    [3002,"2024-05-05 01:00:00","13","galatina","14.37","1","90.44","1","0.0","1","null","6","null","6","null","6","1010.39","1","40.167168","18.174857"],
    [3003,"2024-05-05 02:00:00","13","galatina","14.03","1","92.14","1","0.0","1","null","6","null","6","null","6","1010.35","1","40.167168","18.174857"],
    [3004,"2024-05-05 03:00:00","13","galatina","13.79","1","93.5","1","0.0","1","null","6","null","6","null","6","1010.36","1","40.167168","18.174857"],
    [3005,"2024-05-05 04:00:00","13","galatina","13.58","1","94.21","1","0.0","1","null","6","null","6","null","6","1010.28","1","40.167168","18.174857"],
    [3006,"2024-05-05 05:00:00","13","galatina","13.28","1","94.14","1","0.0","1","null","6","null","6","null","6","1010.51","1","40.167168","18.174857"],
    [3007,"2024-05-05 06:00:00","13","galatina","13.87","1","91.76","1","0.0","1","null","6","null","6","null","6","1010.84","1","40.167168","18.174857"],
    [3008,"2024-05-05 07:00:00","13","galatina","16.06","1","83.27","1","0.0","1","null","6","null","6","null","6","1010.92","1","40.167168","18.174857"],
    [3009,"2024-05-05 08:00:00","13","galatina","18.56","1","72.3","1","0.0","1","null","6","null","6","null","6","1010.84","1","40.167168","18.174857"],
    [3010,"2024-05-05 09:00:00","13","galatina","20.55","1","62.44","1","0.0","1","null","6","null","6","null","6","1010.73","1","40.167168","18.174857"],
    [3011,"2024-05-05 10:00:00","13","galatina","21.88","1","56.87","1","0.0","1","null","6","null","6","null","6","1010.66","1","40.167168","18.174857"],
    [3012,"2024-05-05 11:00:00","13","galatina","22.8","1","53.71","1","0.0","1","null","6","null","6","null","6","1010.52","1","40.167168","18.174857"],
    [3013,"2024-05-05 12:00:00","13","galatina","23.41","1","50.92","1","0.0","1","null","6","null","6","null","6","1010.26","1","40.167168","18.174857"],
    [3014,"2024-05-05 13:00:00","13","galatina","23.92","1","47.45","1","0.0","1","null","6","null","6","null","6","1010.08","1","40.167168","18.174857"],
    [3015,"2024-05-05 14:00:00","13","galatina","24.99","1","42.42","1","0.0","1","null","6","null","6","null","6","1009.88","1","40.167168","18.174857"],
    [3016,"2024-05-05 15:00:00","13","galatina","25.59","1","40.06","1","0.0","1","null","6","null","6","null","6","1009.63","1","40.167168","18.174857"],
    [3017,"2024-05-05 16:00:00","13","galatina","24.93","1","39.78","1","0.0","1","null","6","null","6","null","6","1009.31","1","40.167168","18.174857"],
    [3018,"2024-05-05 17:00:00","13","galatina","23.98","1","45.2","1","0.0","1","null","6","null","6","null","6","1009.21","1","40.167168","18.174857"],
    [3019,"2024-05-05 18:00:00","13","galatina","24.31","1","46.31","1","0.0","1","null","6","null","6","null","6","1009.21","1","40.167168","18.174857"],
    [3020,"2024-05-05 19:00:00","13","galatina","20.61","1","59.35","1","0.0","1","null","6","null","6","null","6","1009.49","1","40.167168","18.174857"],
    [3021,"2024-05-05 20:00:00","13","galatina","18.26","1","67.06","1","0.0","1","null","6","null","6","null","6","1009.91","1","40.167168","18.174857"],
    [3022,"2024-05-05 21:00:00","13","galatina","16.88","1","66.88","1","0.0","1","null","6","null","6","null","6","1010.47","1","40.167168","18.174857"],
    [3023,"2024-05-05 22:00:00","13","galatina","16.02","1","70.72","1","0.0","1","null","6","null","6","null","6","1010.86","1","40.167168","18.174857"],
    [3024,"2024-05-05 23:00:00","13","galatina","15.15","1","77.73","1","0.0","1","null","6","null","6","null","6","1011.02","1","40.167168","18.174857"],
    [3025,"2024-05-06 00:00:00","13","galatina","14.35","1","83.47","1","0.0","1","null","6","null","6","null","6","1010.89","1","40.167168","18.174857"],
    [3026,"2024-05-06 01:00:00","13","galatina","13.76","1","86.02","1","0.0","1","null","6","null","6","null","6","1010.53","1","40.167168","18.174857"],
    [3027,"2024-05-06 02:00:00","13","galatina","12.95","1","89.16","1","0.0","1","null","6","null","6","null","6","1010.5","1","40.167168","18.174857"],
    [3028,"2024-05-06 03:00:00","13","galatina","12.75","1","90.24","1","0.0","1","null","6","null","6","null","6","1010.54","1","40.167168","18.174857"],
    [3029,"2024-05-06 04:00:00","13","galatina","12.45","1","91.7","1","0.0","1","null","6","null","6","null","6","1010.42","1","40.167168","18.174857"],
    [3030,"2024-05-06 05:00:00","13","galatina","12.13","1","93.16","1","0.0","1","null","6","null","6","null","6","1010.46","1","40.167168","18.174857"],
    [3031,"2024-05-06 06:00:00","13","galatina","13.09","1","91.17","1","0.0","1","null","6","null","6","null","6","1010.58","1","40.167168","18.174857"],
    [3032,"2024-05-06 07:00:00","13","galatina","17.31","1","76.91","1","0.0","1","null","6","null","6","null","6","1010.52","1","40.167168","18.174857"],
    [3033,"2024-05-06 08:00:00","13","galatina","21.26","1","55.51","1","0.0","1","null","6","null","6","null","6","1010.42","1","40.167168","18.174857"],
    [3034,"2024-05-06 09:00:00","13","galatina","22.93","1","43.46","1","0.0","1","null","6","null","6","null","6","1010.34","1","40.167168","18.174857"],
    [3035,"2024-05-06 10:00:00","13","galatina","23.99","1","36.1","1","0.0","1","null","6","null","6","null","6","1010.12","1","40.167168","18.174857"],
    [3036,"2024-05-06 11:00:00","13","galatina","24.47","1","34.04","1","0.0","1","null","6","null","6","null","6","1010.06","1","40.167168","18.174857"],
    [3037,"2024-05-06 12:00:00","13","galatina","24.53","1","38.01","1","0.0","1","null","6","null","6","null","6","1010.0","1","40.167168","18.174857"],
    [3038,"2024-05-06 13:00:00","13","galatina","24.14","1","38.19","1","0.0","1","null","6","null","6","null","6","1009.87","1","40.167168","18.174857"],
    [3039,"2024-05-06 14:00:00","13","galatina","24.39","1","39.03","1","0.0","1","null","6","null","6","null","6","1009.49","1","40.167168","18.174857"],
    [3040,"2024-05-06 15:00:00","13","galatina","24.37","1","41.05","1","0.0","1","null","6","null","6","null","6","1009.21","1","40.167168","18.174857"],
    [3041,"2024-05-06 16:00:00","13","galatina","23.45","1","41.96","1","0.0","1","null","6","null","6","null","6","1009.2","1","40.167168","18.174857"],
    [3042,"2024-05-06 17:00:00","13","galatina","22.15","1","43.58","1","0.0","1","null","6","null","6","null","6","1009.42","1","40.167168","18.174857"],
    [3043,"2024-05-06 18:00:00","13","galatina","20.88","1","50.5","1","0.0","1","null","6","null","6","null","6","1009.55","1","40.167168","18.174857"],
    [3044,"2024-05-06 19:00:00","13","galatina","19.52","1","57.28","1","0.0","1","null","6","null","6","null","6","1009.78","1","40.167168","18.174857"],
    [3045,"2024-05-06 20:00:00","13","galatina","17.73","1","70.04","1","0.0","1","null","6","null","6","null","6","1009.93","1","40.167168","18.174857"],
    [3046,"2024-05-06 21:00:00","13","galatina","16.38","1","83.62","1","0.0","1","null","6","null","6","null","6","1010.53","1","40.167168","18.174857"],
    [3047,"2024-05-06 22:00:00","13","galatina","15.52","1","89.01","1","0.0","1","null","6","null","6","null","6","1010.62","1","40.167168","18.174857"],
    [3048,"2024-05-06 23:00:00","13","galatina","14.72","1","91.13","1","0.0","1","null","6","null","6","null","6","1010.7","1","40.167168","18.174857"],
    [3049,"2024-05-07 00:00:00","13","galatina","14.21","1","92.14","1","0.0","1","null","6","null","6","null","6","1010.69","1","40.167168","18.174857"],
    [3050,"2024-05-07 01:00:00","13","galatina","13.84","1","93.64","1","0.0","1","null","6","null","6","null","6","1010.47","1","40.167168","18.174857"],
    [3051,"2024-05-07 02:00:00","13","galatina","13.69","1","94.71","1","0.0","1","null","6","null","6","null","6","1010.26","1","40.167168","18.174857"],
    [3052,"2024-05-07 03:00:00","13","galatina","13.44","1","95.32","1","0.0","1","null","6","null","6","null","6","1009.93","1","40.167168","18.174857"],
    [3053,"2024-05-07 04:00:00","13","galatina","13.24","1","95.93","1","0.0","1","null","6","null","6","null","6","1009.87","1","40.167168","18.174857"],
    [3054,"2024-05-07 05:00:00","13","galatina","14.0","1","96.0","1","0.2","1","null","6","null","6","null","6","1009.79","1","40.167168","18.174857"],
    [3055,"2024-05-07 06:00:00","13","galatina","15.37","1","93.08","1","0.0","1","null","6","null","6","null","6","1009.86","1","40.167168","18.174857"],
    [3056,"2024-05-07 07:00:00","13","galatina","17.54","1","83.26","1","0.0","1","null","6","null","6","null","6","1009.85","1","40.167168","18.174857"],
    [3057,"2024-05-07 08:00:00","13","galatina","19.02","1","74.28","1","0.0","1","null","6","null","6","null","6","1009.8","1","40.167168","18.174857"],
    [3058,"2024-05-07 09:00:00","13","galatina","20.49","1","67.88","1","0.0","1","null","6","null","6","null","6","1009.79","1","40.167168","18.174857"],
    [3059,"2024-05-07 10:00:00","13","galatina","21.1","1","64.86","1","0.0","1","null","6","null","6","null","6","1009.82","1","40.167168","18.174857"],
    [3060,"2024-05-07 11:00:00","13","galatina","21.87","1","62.41","1","0.0","1","null","6","null","6","null","6","1009.95","1","40.167168","18.174857"],
    [3061,"2024-05-07 12:00:00","13","galatina","22.29","1","61.12","1","0.0","1","null","6","null","6","null","6","1009.63","1","40.167168","18.174857"],
    [3062,"2024-05-07 13:00:00","13","galatina","22.71","1","58.27","1","0.0","1","null","6","null","6","null","6","1009.15","1","40.167168","18.174857"],
    [3063,"2024-05-07 14:00:00","13","galatina","23.41","1","55.22","1","0.0","1","null","6","null","6","null","6","1009.03","1","40.167168","18.174857"],
    [3064,"2024-05-07 15:00:00","13","galatina","22.75","1","57.79","1","0.0","1","null","6","null","6","null","6","1008.61","1","40.167168","18.174857"],
    [3065,"2024-05-07 16:00:00","13","galatina","22.09","1","60.51","1","0.0","1","null","6","null","6","null","6","1008.5","1","40.167168","18.174857"],
    [3066,"2024-05-07 17:00:00","13","galatina","20.98","1","62.77","1","0.0","1","null","6","null","6","null","6","1008.63","1","40.167168","18.174857"],
    [3067,"2024-05-07 18:00:00","13","galatina","19.57","1","68.45","1","0.0","1","null","6","null","6","null","6","1008.97","1","40.167168","18.174857"],
    [3068,"2024-05-07 19:00:00","13","galatina","18.57","1","74.3","1","0.0","1","null","6","null","6","null","6","1009.04","1","40.167168","18.174857"],
    [3069,"2024-05-07 20:00:00","13","galatina","17.73","1","81.59","1","0.0","1","null","6","null","6","null","6","1009.11","1","40.167168","18.174857"],
    [3070,"2024-05-07 21:00:00","13","galatina","17.2","1","86.21","1","0.0","1","null","6","null","6","null","6","1009.31","1","40.167168","18.174857"],
    [3071,"2024-05-07 22:00:00","13","galatina","17.01","1","88.82","1","0.0","1","null","6","null","6","null","6","1009.52","1","40.167168","18.174857"],
    [3072,"2024-05-07 23:00:00","13","galatina","17.15","1","89.26","1","0.0","1","null","6","null","6","null","6","1009.78","1","40.167168","18.174857"],
    [3073,"2024-05-08 00:00:00","13","galatina","17.29","1","88.12","1","0.0","1","null","6","null","6","null","6","1010.02","1","40.167168","18.174857"],
    [3074,"2024-05-08 01:00:00","13","galatina","17.23","1","89.2","1","0.0","1","null","6","null","6","null","6","1009.72","1","40.167168","18.174857"],
    [3075,"2024-05-08 02:00:00","13","galatina","17.03","1","91.16","1","0.0","1","null","6","null","6","null","6","1009.26","1","40.167168","18.174857"],
    [3076,"2024-05-08 03:00:00","13","galatina","16.67","1","92.59","1","0.0","1","null","6","null","6","null","6","1009.06","1","40.167168","18.174857"],
    [3077,"2024-05-08 04:00:00","13","galatina","16.17","1","93.83","1","0.0","1","null","6","null","6","null","6","1008.85","1","40.167168","18.174857"],
    [3078,"2024-05-08 05:00:00","13","galatina","15.65","1","94.63","1","0.0","1","null","6","null","6","null","6","1008.85","1","40.167168","18.174857"],
    [3079,"2024-05-08 06:00:00","13","galatina","15.61","1","95.4","1","0.0","1","null","6","null","6","null","6","1009.01","1","40.167168","18.174857"],
    [3080,"2024-05-08 07:00:00","13","galatina","18.14","1","91.44","1","0.0","1","null","6","null","6","null","6","1008.84","1","40.167168","18.174857"],
    [3081,"2024-05-08 08:00:00","13","galatina","21.16","1","74.44","1","0.0","1","null","6","null","6","null","6","1008.75","1","40.167168","18.174857"],
    [3082,"2024-05-08 09:00:00","13","galatina","22.8","1","64.98","1","0.0","1","null","6","null","6","null","6","1008.69","1","40.167168","18.174857"],
    [3083,"2024-05-08 10:00:00","13","galatina","23.9","1","59.24","1","0.0","1","null","6","null","6","null","6","1008.65","1","40.167168","18.174857"],
    [3084,"2024-05-08 11:00:00","13","galatina","25.57","1","52.46","1","0.0","1","null","6","null","6","null","6","1008.33","1","40.167168","18.174857"],
    [3085,"2024-05-08 12:00:00","13","galatina","26.59","1","46.1","1","0.0","1","null","6","null","6","null","6","1007.77","1","40.167168","18.174857"],
    [3086,"2024-05-08 13:00:00","13","galatina","27.68","1","43.49","1","0.0","1","null","6","null","6","null","6","1007.17","1","40.167168","18.174857"],
    [3087,"2024-05-08 14:00:00","13","galatina","27.22","1","42.86","1","0.0","1","null","6","null","6","null","6","1006.76","1","40.167168","18.174857"],
    [3088,"2024-05-08 15:00:00","13","galatina","26.6","1","41.59","1","0.0","1","null","6","null","6","null","6","1006.43","1","40.167168","18.174857"],
    [3089,"2024-05-08 16:00:00","13","galatina","25.3","1","46.37","1","0.0","1","null","6","null","6","null","6","1006.47","1","40.167168","18.174857"],
    [3090,"2024-05-08 17:00:00","13","galatina","23.47","1","54.8","1","0.0","1","null","6","null","6","null","6","1006.72","1","40.167168","18.174857"],
    [3091,"2024-05-08 18:00:00","13","galatina","21.76","1","63.02","1","0.0","1","null","6","null","6","null","6","1006.89","1","40.167168","18.174857"],
    [3092,"2024-05-08 19:00:00","13","galatina","20.0","1","68.36","1","0.0","1","null","6","null","6","null","6","1007.11","1","40.167168","18.174857"],
    [3093,"2024-05-08 20:00:00","13","galatina","19.01","1","70.81","1","0.0","1","null","6","null","6","null","6","1007.38","1","40.167168","18.174857"],
    [3094,"2024-05-08 21:00:00","13","galatina","18.18","1","79.74","1","0.0","1","null","6","null","6","null","6","1007.95","1","40.167168","18.174857"],
    [3095,"2024-05-08 22:00:00","13","galatina","17.64","1","86.21","1","0.0","1","null","6","null","6","null","6","1008.31","1","40.167168","18.174857"],
    [3096,"2024-05-08 23:00:00","13","galatina","17.58","1","88.66","1","0.0","1","null","6","null","6","null","6","1008.36","1","40.167168","18.174857"],
    [3097,"2024-05-09 00:00:00","13","galatina","17.64","1","87.08","1","0.0","1","null","6","null","6","null","6","1008.14","1","40.167168","18.174857"],
    [3098,"2024-05-09 01:00:00","13","galatina","17.54","1","87.22","1","0.0","1","null","6","null","6","null","6","1007.79","1","40.167168","18.174857"],
    [3099,"2024-05-09 02:00:00","13","galatina","17.44","1","88.85","1","0.0","1","null","6","null","6","null","6","1007.41","1","40.167168","18.174857"],
    [3100,"2024-05-09 03:00:00","13","galatina","17.25","1","91.5","1","0.0","1","null","6","null","6","null","6","1007.42","1","40.167168","18.174857"],
    [3101,"2024-05-09 04:00:00","13","galatina","17.27","1","92.33","1","0.0","1","null","6","null","6","null","6","1007.49","1","40.167168","18.174857"],
    [3102,"2024-05-09 05:00:00","13","galatina","17.19","1","91.88","1","0.0","1","null","6","null","6","null","6","1007.46","1","40.167168","18.174857"],
    [3103,"2024-05-09 06:00:00","13","galatina","17.28","1","90.36","1","0.0","1","null","6","null","6","null","6","1007.89","1","40.167168","18.174857"],
    [3104,"2024-05-09 07:00:00","13","galatina","17.44","1","90.48","1","0.2","1","null","6","null","6","null","6","1007.81","1","40.167168","18.174857"],
    [3105,"2024-05-09 08:00:00","13","galatina","17.98","1","89.09","1","0.0","1","null","6","null","6","null","6","1007.86","1","40.167168","18.174857"],
    [3106,"2024-05-09 09:00:00","13","galatina","18.46","1","84.51","1","0.0","1","null","6","null","6","null","6","1007.75","1","40.167168","18.174857"],
    [3107,"2024-05-09 10:00:00","13","galatina","18.7","1","83.58","1","2.4","1","null","6","null","6","null","6","1008.39","1","40.167168","18.174857"],
    [3108,"2024-05-09 11:00:00","13","galatina","18.3","1","90.95","1","1.8","1","null","6","null","6","null","6","1007.99","1","40.167168","18.174857"],
    [3109,"2024-05-09 12:00:00","13","galatina","20.58","1","78.66","1","0.0","1","null","6","null","6","null","6","1007.61","1","40.167168","18.174857"],
    [3110,"2024-05-09 13:00:00","13","galatina","22.3","1","65.39","1","0.0","1","null","6","null","6","null","6","1007.2","1","40.167168","18.174857"],
    [3111,"2024-05-09 14:00:00","13","galatina","23.98","1","54.7","1","0.0","1","null","6","null","6","null","6","1006.61","1","40.167168","18.174857"],
    [3112,"2024-05-09 15:00:00","13","galatina","24.25","1","52.37","1","0.0","1","null","6","null","6","null","6","1006.05","1","40.167168","18.174857"],
    [3113,"2024-05-09 16:00:00","13","galatina","23.65","1","56.47","1","0.2","1","null","6","null","6","null","6","1005.73","1","40.167168","18.174857"],
    [3114,"2024-05-09 17:00:00","13","galatina","21.91","1","63.89","1","0.0","1","null","6","null","6","null","6","1005.71","1","40.167168","18.174857"],
    [3115,"2024-05-09 18:00:00","13","galatina","20.93","1","67.86","1","0.0","1","null","6","null","6","null","6","1006.03","1","40.167168","18.174857"],
    [3116,"2024-05-09 19:00:00","13","galatina","19.86","1","71.54","1","0.0","1","null","6","null","6","null","6","1006.8","1","40.167168","18.174857"],
    [3117,"2024-05-09 20:00:00","13","galatina","19.1","1","75.96","1","0.0","1","null","6","null","6","null","6","1007.56","1","40.167168","18.174857"],
    [3118,"2024-05-09 21:00:00","13","galatina","18.27","1","86.32","1","0.6","1","null","6","null","6","null","6","1008.16","1","40.167168","18.174857"],
    [3119,"2024-05-09 22:00:00","13","galatina","17.86","1","91.06","1","0.0","1","null","6","null","6","null","6","1008.07","1","40.167168","18.174857"],
    [3120,"2024-05-09 23:00:00","13","galatina","17.57","1","92.42","1","0.0","1","null","6","null","6","null","6","1008.18","1","40.167168","18.174857"],
    [3121,"2024-05-10 00:00:00","13","galatina","17.35","1","93.5","1","0.0","1","null","6","null","6","null","6","1008.23","1","40.167168","18.174857"],
    [3122,"2024-05-10 01:00:00","13","galatina","17.02","1","93.63","1","0.0","1","null","6","null","6","null","6","1008.12","1","40.167168","18.174857"],
    [3123,"2024-05-10 02:00:00","13","galatina","16.65","1","94.59","1","0.0","1","null","6","null","6","null","6","1007.83","1","40.167168","18.174857"],
    [3124,"2024-05-10 03:00:00","13","galatina","17.02","1","90.97","1","0.0","1","null","6","null","6","null","6","1007.71","1","40.167168","18.174857"],
    [3125,"2024-05-10 04:00:00","13","galatina","17.07","1","92.67","1","0.0","1","null","6","null","6","null","6","1007.47","1","40.167168","18.174857"],
    [3126,"2024-05-10 05:00:00","13","galatina","16.92","1","91.69","1","0.0","1","null","6","null","6","null","6","1007.37","1","40.167168","18.174857"],
    [3127,"2024-05-10 06:00:00","13","galatina","17.06","1","91.14","1","0.0","1","null","6","null","6","null","6","1007.59","1","40.167168","18.174857"],
    [3128,"2024-05-10 07:00:00","13","galatina","18.55","1","87.31","1","0.0","1","null","6","null","6","null","6","1007.69","1","40.167168","18.174857"],
    [3129,"2024-05-10 08:00:00","13","galatina","21.76","1","65.0","1","0.0","1","null","6","null","6","null","6","1007.49","1","40.167168","18.174857"],
    [3130,"2024-05-10 09:00:00","13","galatina","23.37","1","50.5","1","0.0","1","null","6","null","6","null","6","1007.34","1","40.167168","18.174857"],
    [3131,"2024-05-10 10:00:00","13","galatina","23.67","1","48.18","1","0.0","1","null","6","null","6","null","6","1007.36","1","40.167168","18.174857"],
    [3132,"2024-05-10 11:00:00","13","galatina","23.98","1","45.7","1","0.0","1","null","6","null","6","null","6","1007.41","1","40.167168","18.174857"],
    [3133,"2024-05-10 12:00:00","13","galatina","23.72","1","42.23","1","0.0","1","null","6","null","6","null","6","1007.52","1","40.167168","18.174857"],
    [3134,"2024-05-10 13:00:00","13","galatina","24.09","1","41.71","1","0.0","1","null","6","null","6","null","6","1007.46","1","40.167168","18.174857"],
    [3135,"2024-05-10 14:00:00","13","galatina","24.93","1","37.14","1","0.0","1","null","6","null","6","null","6","1007.08","1","40.167168","18.174857"],
    [3136,"2024-05-10 15:00:00","13","galatina","25.38","1","35.19","1","0.0","1","null","6","null","6","null","6","1006.75","1","40.167168","18.174857"],
    [3137,"2024-05-10 16:00:00","13","galatina","24.93","1","37.08","1","0.0","1","null","6","null","6","null","6","1006.84","1","40.167168","18.174857"],
    [3138,"2024-05-10 17:00:00","13","galatina","23.55","1","42.08","1","0.0","1","null","6","null","6","null","6","1007.01","1","40.167168","18.174857"],
    [3139,"2024-05-10 18:00:00","13","galatina","21.56","1","49.42","1","0.0","1","null","6","null","6","null","6","1007.07","1","40.167168","18.174857"],
    [3140,"2024-05-10 19:00:00","13","galatina","20.51","1","50.08","1","0.0","1","null","6","null","6","null","6","1007.27","1","40.167168","18.174857"],
    [3141,"2024-05-10 20:00:00","13","galatina","19.25","1","59.65","1","0.0","1","null","6","null","6","null","6","1007.77","1","40.167168","18.174857"],
    [3142,"2024-05-10 21:00:00","13","galatina","18.68","1","68.41","1","0.0","1","null","6","null","6","null","6","1008.31","1","40.167168","18.174857"],
    [3143,"2024-05-10 22:00:00","13","galatina","17.95","1","75.78","1","0.0","1","null","6","null","6","null","6","1008.55","1","40.167168","18.174857"],
    [3144,"2024-05-10 23:00:00","13","galatina","17.22","1","81.51","1","0.0","1","null","6","null","6","null","6","1008.68","1","40.167168","18.174857"],
    [3145,"2024-05-11 00:00:00","13","galatina","16.75","1","85.33","1","0.0","1","null","6","null","6","null","6","1008.65","1","40.167168","18.174857"],
    [3146,"2024-05-11 01:00:00","13","galatina","16.53","1","85.87","1","0.0","1","null","6","null","6","null","6","1008.46","1","40.167168","18.174857"],
    [3147,"2024-05-11 02:00:00","13","galatina","16.28","1","84.86","1","0.0","1","null","6","null","6","null","6","1008.37","1","40.167168","18.174857"],
    [3148,"2024-05-11 03:00:00","13","galatina","16.05","1","84.81","1","0.0","1","null","6","null","6","null","6","1008.3","1","40.167168","18.174857"],
    [3149,"2024-05-11 04:00:00","13","galatina","15.92","1","87.3","1","0.0","1","null","6","null","6","null","6","1008.15","1","40.167168","18.174857"],
    [3150,"2024-05-11 05:00:00","13","galatina","15.6","1","88.05","1","0.0","1","null","6","null","6","null","6","1008.14","1","40.167168","18.174857"],
    [3151,"2024-05-11 06:00:00","13","galatina","16.86","1","78.91","1","0.0","1","null","6","null","6","null","6","1008.42","1","40.167168","18.174857"],
    [3152,"2024-05-11 07:00:00","13","galatina","18.86","1","68.24","1","0.0","1","null","6","null","6","null","6","1008.52","1","40.167168","18.174857"],
    [3153,"2024-05-11 08:00:00","13","galatina","19.71","1","62.33","1","0.0","1","null","6","null","6","null","6","1008.53","1","40.167168","18.174857"],
    [3154,"2024-05-11 09:00:00","13","galatina","22.03","1","53.9","1","0.0","1","null","6","null","6","null","6","1008.56","1","40.167168","18.174857"],
    [3155,"2024-05-11 10:00:00","13","galatina","23.27","1","47.55","1","0.0","1","null","6","null","6","null","6","1008.67","1","40.167168","18.174857"],
    [3156,"2024-05-11 11:00:00","13","galatina","23.51","1","42.39","1","0.0","1","null","6","null","6","null","6","1008.81","1","40.167168","18.174857"],
    [3157,"2024-05-11 12:00:00","13","galatina","23.54","1","38.88","1","0.0","1","null","6","null","6","null","6","1008.95","1","40.167168","18.174857"],
    [3158,"2024-05-11 13:00:00","13","galatina","24.2","1","39.18","1","0.0","1","null","6","null","6","null","6","1008.96","1","40.167168","18.174857"],
    [3159,"2024-05-11 14:00:00","13","galatina","24.12","1","38.09","1","0.0","1","null","6","null","6","null","6","1009.05","1","40.167168","18.174857"],
    [3160,"2024-05-11 15:00:00","13","galatina","23.5","1","32.84","1","0.0","1","null","6","null","6","null","6","1009.17","1","40.167168","18.174857"],
    [3161,"2024-05-11 16:00:00","13","galatina","23.17","1","33.21","1","0.0","1","null","6","null","6","null","6","1009.26","1","40.167168","18.174857"],
    [3162,"2024-05-11 17:00:00","13","galatina","23.38","1","33.7","1","0.0","1","null","6","null","6","null","6","1009.32","1","40.167168","18.174857"],
    [3163,"2024-05-11 18:00:00","13","galatina","22.12","1","35.07","1","0.0","1","null","6","null","6","null","6","1009.51","1","40.167168","18.174857"],
    [3164,"2024-05-11 19:00:00","13","galatina","19.96","1","46.27","1","0.0","1","null","6","null","6","null","6","1009.91","1","40.167168","18.174857"],
    [3165,"2024-05-11 20:00:00","13","galatina","18.36","1","55.38","1","0.0","1","null","6","null","6","null","6","1010.47","1","40.167168","18.174857"],
    [3166,"2024-05-11 21:00:00","13","galatina","17.49","1","58.35","1","0.0","1","null","6","null","6","null","6","1011.09","1","40.167168","18.174857"],
    [3167,"2024-05-11 22:00:00","13","galatina","16.93","1","65.18","1","0.0","1","null","6","null","6","null","6","1011.58","1","40.167168","18.174857"],
    [3168,"2024-05-11 23:00:00","13","galatina","16.92","1","73.19","1","0.0","1","null","6","null","6","null","6","1011.73","1","40.167168","18.174857"],
    [3169,"2024-05-12 00:00:00","13","galatina","16.25","1","77.29","1","0.0","1","null","6","null","6","null","6","1011.66","1","40.167168","18.174857"],
    [3170,"2024-05-12 01:00:00","13","galatina","14.88","1","80.67","1","0.0","1","null","6","null","6","null","6","1011.51","1","40.167168","18.174857"],
    [3171,"2024-05-12 02:00:00","13","galatina","12.51","1","85.43","1","0.0","1","null","6","null","6","null","6","1011.34","1","40.167168","18.174857"],
    [3172,"2024-05-12 03:00:00","13","galatina","11.85","1","88.13","1","0.0","1","null","6","null","6","null","6","1011.5","1","40.167168","18.174857"],
    [3173,"2024-05-12 04:00:00","13","galatina","11.51","1","90.11","1","0.0","1","null","6","null","6","null","6","1011.5","1","40.167168","18.174857"],
    [3174,"2024-05-12 05:00:00","13","galatina","11.93","1","91.98","1","0.0","1","null","6","null","6","null","6","1011.64","1","40.167168","18.174857"],
    [3175,"2024-05-12 06:00:00","13","galatina","14.24","1","88.91","1","0.0","1","null","6","null","6","null","6","1011.83","1","40.167168","18.174857"],
    [3176,"2024-05-12 07:00:00","13","galatina","18.45","1","65.24","1","0.0","1","null","6","null","6","null","6","1011.66","1","40.167168","18.174857"],
    [3177,"2024-05-12 08:00:00","13","galatina","20.94","1","56.75","1","0.0","1","null","6","null","6","null","6","1011.41","1","40.167168","18.174857"],
    [3178,"2024-05-12 09:00:00","13","galatina","22.86","1","45.52","1","0.0","1","null","6","null","6","null","6","1011.15","1","40.167168","18.174857"],
    [3179,"2024-05-12 10:00:00","13","galatina","24.33","1","40.73","1","0.0","1","null","6","null","6","null","6","1010.99","1","40.167168","18.174857"],
    [3180,"2024-05-12 11:00:00","13","galatina","24.35","1","39.34","1","0.0","1","null","6","null","6","null","6","1011.11","1","40.167168","18.174857"],
    [3181,"2024-05-12 12:00:00","13","galatina","25.09","1","35.11","1","0.0","1","null","6","null","6","null","6","1011.07","1","40.167168","18.174857"],
    [3182,"2024-05-12 13:00:00","13","galatina","25.78","1","32.58","1","0.0","1","null","6","null","6","null","6","1010.78","1","40.167168","18.174857"],
    [3183,"2024-05-12 14:00:00","13","galatina","26.86","1","30.16","1","0.0","1","null","6","null","6","null","6","1010.44","1","40.167168","18.174857"],
    [3184,"2024-05-12 15:00:00","13","galatina","25.64","1","36.42","1","0.0","1","null","6","null","6","null","6","1010.16","1","40.167168","18.174857"],
    [3185,"2024-05-12 16:00:00","13","galatina","24.9","1","37.18","1","0.0","1","null","6","null","6","null","6","1010.19","1","40.167168","18.174857"],
    [3186,"2024-05-12 17:00:00","13","galatina","26.18","1","36.06","1","0.0","1","null","6","null","6","null","6","1009.99","1","40.167168","18.174857"],
    [3187,"2024-05-12 18:00:00","13","galatina","24.87","1","34.51","1","0.0","1","null","6","null","6","null","6","1009.89","1","40.167168","18.174857"],
    [3188,"2024-05-12 19:00:00","13","galatina","21.94","1","39.23","1","0.0","1","null","6","null","6","null","6","1010.18","1","40.167168","18.174857"],
    [3189,"2024-05-12 20:00:00","13","galatina","19.48","1","49.99","1","0.0","1","null","6","null","6","null","6","1010.67","1","40.167168","18.174857"],
    [3190,"2024-05-12 21:00:00","13","galatina","18.1","1","62.44","1","0.0","1","null","6","null","6","null","6","1011.27","1","40.167168","18.174857"],
    [3191,"2024-05-12 22:00:00","13","galatina","16.9","1","71.32","1","0.0","1","null","6","null","6","null","6","1011.49","1","40.167168","18.174857"],
    [3192,"2024-05-12 23:00:00","13","galatina","15.92","1","75.78","1","0.0","1","null","6","null","6","null","6","1011.55","1","40.167168","18.174857"],
    [3193,"2024-05-13 00:00:00","13","galatina","14.91","1","78.98","1","0.0","1","null","6","null","6","null","6","1011.47","1","40.167168","18.174857"],
    [3194,"2024-05-13 01:00:00","13","galatina","14.19","1","79.48","1","0.0","1","null","6","null","6","null","6","1011.19","1","40.167168","18.174857"],
    [3195,"2024-05-13 02:00:00","13","galatina","13.41","1","80.88","1","0.0","1","null","6","null","6","null","6","1011.0","1","40.167168","18.174857"],
    [3196,"2024-05-13 03:00:00","13","galatina","12.88","1","81.81","1","0.0","1","null","6","null","6","null","6","1010.94","1","40.167168","18.174857"],
    [3197,"2024-05-13 04:00:00","13","galatina","12.52","1","83.8","1","0.0","1","null","6","null","6","null","6","1010.82","1","40.167168","18.174857"],
    [3198,"2024-05-13 05:00:00","13","galatina","11.97","1","85.78","1","0.0","1","null","6","null","6","null","6","1010.82","1","40.167168","18.174857"],
    [3199,"2024-05-13 06:00:00","13","galatina","13.63","1","82.29","1","0.0","1","null","6","null","6","null","6","1011.04","1","40.167168","18.174857"],
    [3200,"2024-05-13 07:00:00","13","galatina","18.22","1","71.72","1","0.0","1","null","6","null","6","null","6","1011.02","1","40.167168","18.174857"],
    [3201,"2024-05-13 08:00:00","13","galatina","23.28","1","50.39","1","0.0","1","null","6","null","6","null","6","1010.72","1","40.167168","18.174857"],
    [3202,"2024-05-13 09:00:00","13","galatina","25.4","1","36.44","1","0.0","1","null","6","null","6","null","6","1010.35","1","40.167168","18.174857"],
    [3203,"2024-05-13 10:00:00","13","galatina","26.23","1","33.83","1","0.0","1","null","6","null","6","null","6","1010.09","1","40.167168","18.174857"],
    [3204,"2024-05-13 11:00:00","13","galatina","27.35","1","29.32","1","0.0","1","null","6","null","6","null","6","1009.73","1","40.167168","18.174857"],
    [3205,"2024-05-13 12:00:00","13","galatina","27.4","1","32.83","1","0.0","1","null","6","null","6","null","6","1009.39","1","40.167168","18.174857"],
    [3206,"2024-05-13 13:00:00","13","galatina","23.56","1","53.96","1","0.6","1","null","6","null","6","null","6","1009.31","1","40.167168","18.174857"],
    [3207,"2024-05-13 14:00:00","13","galatina","22.26","1","61.66","1","0.0","1","null","6","null","6","null","6","1009.41","1","40.167168","18.174857"],
    [3208,"2024-05-13 15:00:00","13","galatina","25.33","1","44.64","1","0.0","1","null","6","null","6","null","6","1008.88","1","40.167168","18.174857"],
    [3209,"2024-05-13 16:00:00","13","galatina","27.17","1","34.02","1","0.0","1","null","6","null","6","null","6","1008.38","1","40.167168","18.174857"],
    [3210,"2024-05-13 17:00:00","13","galatina","24.88","1","35.41","1","0.0","1","null","6","null","6","null","6","1008.12","1","40.167168","18.174857"],
    [3211,"2024-05-13 18:00:00","13","galatina","23.97","1","39.38","1","0.0","1","null","6","null","6","null","6","1007.9","1","40.167168","18.174857"],
    [3212,"2024-05-13 19:00:00","13","galatina","21.61","1","55.1","1","0.0","1","null","6","null","6","null","6","1008.21","1","40.167168","18.174857"],
    [3213,"2024-05-13 20:00:00","13","galatina","19.2","1","69.55","1","0.0","1","null","6","null","6","null","6","1008.46","1","40.167168","18.174857"],
    [3214,"2024-05-13 21:00:00","13","galatina","17.72","1","74.66","1","0.0","1","null","6","null","6","null","6","1008.7","1","40.167168","18.174857"],
    [3215,"2024-05-13 22:00:00","13","galatina","16.8","1","86.01","1","0.0","1","null","6","null","6","null","6","1008.8","1","40.167168","18.174857"],
    [3216,"2024-05-13 23:00:00","13","galatina","16.13","1","89.98","1","0.0","1","null","6","null","6","null","6","1008.86","1","40.167168","18.174857"],
    [3217,"2024-05-14 00:00:00","13","galatina","15.91","1","92.51","1","0.0","1","null","6","null","6","null","6","1008.58","1","40.167168","18.174857"],
    [3218,"2024-05-14 01:00:00","13","galatina","16.2","1","93.52","1","0.0","1","null","6","null","6","null","6","1008.6","1","40.167168","18.174857"],
    [3219,"2024-05-14 02:00:00","13","galatina","16.5","1","93.68","1","0.0","1","null","6","null","6","null","6","1008.22","1","40.167168","18.174857"],
    [3220,"2024-05-14 03:00:00","13","galatina","16.63","1","93.46","1","0.0","1","null","6","null","6","null","6","1007.83","1","40.167168","18.174857"],
    [3221,"2024-05-14 04:00:00","13","galatina","16.73","1","92.57","1","0.0","1","null","6","null","6","null","6","1007.62","1","40.167168","18.174857"],
    [3222,"2024-05-14 05:00:00","13","galatina","16.59","1","92.47","1","0.0","1","null","6","null","6","null","6","1007.53","1","40.167168","18.174857"],
    [3223,"2024-05-14 06:00:00","13","galatina","16.84","1","92.05","1","0.0","1","null","6","null","6","null","6","1007.63","1","40.167168","18.174857"],
    [3224,"2024-05-14 07:00:00","13","galatina","17.82","1","87.21","1","0.0","1","null","6","null","6","null","6","1007.73","1","40.167168","18.174857"],
    [3225,"2024-05-14 08:00:00","13","galatina","19.7","1","74.97","1","0.0","1","null","6","null","6","null","6","1007.73","1","40.167168","18.174857"],
    [3226,"2024-05-14 09:00:00","13","galatina","19.6","1","73.8","1","0.0","1","null","6","null","6","null","6","1007.86","1","40.167168","18.174857"],
    [3227,"2024-05-14 10:00:00","13","galatina","20.83","1","67.97","1","0.0","1","null","6","null","6","null","6","1007.81","1","40.167168","18.174857"],
    [3228,"2024-05-14 11:00:00","13","galatina","20.8","1","67.26","1","0.0","1","null","6","null","6","null","6","1007.71","1","40.167168","18.174857"],
    [3229,"2024-05-14 12:00:00","13","galatina","22.53","1","60.68","1","0.0","1","null","6","null","6","null","6","1007.47","1","40.167168","18.174857"],
    [3230,"2024-05-14 13:00:00","13","galatina","23.07","1","56.44","1","0.0","1","null","6","null","6","null","6","1007.09","1","40.167168","18.174857"],
    [3231,"2024-05-14 14:00:00","13","galatina","22.59","1","58.25","1","0.0","1","null","6","null","6","null","6","1006.82","1","40.167168","18.174857"],
    [3232,"2024-05-14 15:00:00","13","galatina","21.26","1","65.08","1","0.0","1","null","6","null","6","null","6","1006.79","1","40.167168","18.174857"],
    [3233,"2024-05-14 16:00:00","13","galatina","20.84","1","67.18","1","0.0","1","null","6","null","6","null","6","1006.64","1","40.167168","18.174857"],
    [3234,"2024-05-14 17:00:00","13","galatina","20.33","1","69.13","1","0.0","1","null","6","null","6","null","6","1006.75","1","40.167168","18.174857"],
    [3235,"2024-05-14 18:00:00","13","galatina","19.77","1","69.22","1","0.0","1","null","6","null","6","null","6","1006.86","1","40.167168","18.174857"],
    [3236,"2024-05-14 19:00:00","13","galatina","18.78","1","73.79","1","0.0","1","null","6","null","6","null","6","1007.14","1","40.167168","18.174857"],
    [3237,"2024-05-14 20:00:00","13","galatina","17.98","1","78.95","1","0.0","1","null","6","null","6","null","6","1007.52","1","40.167168","18.174857"],
    [3238,"2024-05-14 21:00:00","13","galatina","17.55","1","81.35","1","0.0","1","null","6","null","6","null","6","1008.0","1","40.167168","18.174857"],
    [3239,"2024-05-14 22:00:00","13","galatina","17.13","1","82.73","1","0.0","1","null","6","null","6","null","6","1008.41","1","40.167168","18.174857"],
    [3240,"2024-05-14 23:00:00","13","galatina","17.17","1","81.65","1","0.0","1","null","6","null","6","null","6","1008.39","1","40.167168","18.174857"],
    [3241,"2024-05-15 00:00:00","13","galatina","17.92","1","78.48","1","0.0","1","null","6","null","6","null","6","1008.17","1","40.167168","18.174857"],
    [3242,"2024-05-15 01:00:00","13","galatina","18.1","1","79.86","1","0.0","1","null","6","null","6","null","6","1007.87","1","40.167168","18.174857"],
    [3243,"2024-05-15 02:00:00","13","galatina","17.87","1","81.35","1","0.0","1","null","6","null","6","null","6","1007.58","1","40.167168","18.174857"],
    [3244,"2024-05-15 03:00:00","13","galatina","17.94","1","79.94","1","0.0","1","null","6","null","6","null","6","1007.48","1","40.167168","18.174857"],
    [3245,"2024-05-15 04:00:00","13","galatina","17.83","1","80.96","1","0.0","1","null","6","null","6","null","6","1007.35","1","40.167168","18.174857"],
    [3246,"2024-05-15 05:00:00","13","galatina","17.87","1","81.61","1","0.0","1","null","6","null","6","null","6","1007.22","1","40.167168","18.174857"],
    [3247,"2024-05-15 06:00:00","13","galatina","17.87","1","81.84","1","0.0","1","null","6","null","6","null","6","1007.44","1","40.167168","18.174857"],
    [3248,"2024-05-15 07:00:00","13","galatina","18.61","1","78.74","1","0.0","1","null","6","null","6","null","6","1007.59","1","40.167168","18.174857"],
    [3249,"2024-05-15 08:00:00","13","galatina","18.93","1","75.4","1","0.0","1","null","6","null","6","null","6","1007.82","1","40.167168","18.174857"],
    [3250,"2024-05-15 09:00:00","13","galatina","19.41","1","73.74","1","0.0","1","null","6","null","6","null","6","1007.98","1","40.167168","18.174857"],
    [3251,"2024-05-15 10:00:00","13","galatina","20.54","1","67.97","1","0.0","1","null","6","null","6","null","6","1007.93","1","40.167168","18.174857"],
    [3252,"2024-05-15 11:00:00","13","galatina","20.9","1","67.17","1","0.0","1","null","6","null","6","null","6","1007.99","1","40.167168","18.174857"],
    [3253,"2024-05-15 12:00:00","13","galatina","21.19","1","65.0","1","0.0","1","null","6","null","6","null","6","1007.9","1","40.167168","18.174857"],
    [3254,"2024-05-15 13:00:00","13","galatina","21.85","1","61.33","1","0.0","1","null","6","null","6","null","6","1007.73","1","40.167168","18.174857"],
    [3255,"2024-05-15 14:00:00","13","galatina","21.71","1","61.75","1","0.0","1","null","6","null","6","null","6","1007.61","1","40.167168","18.174857"],
    [3256,"2024-05-15 15:00:00","13","galatina","22.2","1","58.65","1","0.0","1","null","6","null","6","null","6","1007.24","1","40.167168","18.174857"],
    [3257,"2024-05-15 16:00:00","13","galatina","20.7","1","66.56","1","0.0","1","null","6","null","6","null","6","1007.21","1","40.167168","18.174857"],
    [3258,"2024-05-15 17:00:00","13","galatina","20.34","1","68.41","1","0.0","1","null","6","null","6","null","6","1007.29","1","40.167168","18.174857"],
    [3259,"2024-05-15 18:00:00","13","galatina","20.06","1","69.49","1","0.0","1","null","6","null","6","null","6","1007.12","1","40.167168","18.174857"],
    [3260,"2024-05-15 19:00:00","13","galatina","19.37","1","71.31","1","0.0","1","null","6","null","6","null","6","1007.36","1","40.167168","18.174857"],
    [3261,"2024-05-15 20:00:00","13","galatina","18.4","1","76.53","1","0.0","1","null","6","null","6","null","6","1007.02","1","40.167168","18.174857"],
    [3262,"2024-05-15 21:00:00","13","galatina","18.0","1","79.46","1","0.0","1","null","6","null","6","null","6","1007.45","1","40.167168","18.174857"],
    [3263,"2024-05-15 22:00:00","13","galatina","17.98","1","80.95","1","0.0","1","null","6","null","6","null","6","1008.25","1","40.167168","18.174857"],
    [3264,"2024-05-15 23:00:00","13","galatina","18.13","1","83.8","1","0.0","1","null","6","null","6","null","6","1008.0","1","40.167168","18.174857"],
    [3265,"2024-05-16 00:00:00","13","galatina","17.73","1","91.23","1","1.2","1","null","6","null","6","null","6","1007.68","1","40.167168","18.174857"],
    [3266,"2024-05-16 01:00:00","13","galatina","17.84","1","91.31","1","0.0","1","null","6","null","6","null","6","1007.6","1","40.167168","18.174857"],
    [3267,"2024-05-16 02:00:00","13","galatina","18.16","1","89.71","1","0.0","1","null","6","null","6","null","6","1007.6","1","40.167168","18.174857"],
    [3268,"2024-05-16 03:00:00","13","galatina","18.45","1","88.36","1","0.0","1","null","6","null","6","null","6","1007.01","1","40.167168","18.174857"],
    [3269,"2024-05-16 04:00:00","13","galatina","18.59","1","85.78","1","0.0","1","null","6","null","6","null","6","1007.27","1","40.167168","18.174857"],
    [3270,"2024-05-16 05:00:00","13","galatina","18.63","1","84.15","1","0.0","1","null","6","null","6","null","6","1007.06","1","40.167168","18.174857"],
    [3271,"2024-05-16 06:00:00","13","galatina","18.63","1","81.09","1","0.0","1","null","6","null","6","null","6","1006.59","1","40.167168","18.174857"],
    [3272,"2024-05-16 07:00:00","13","galatina","19.24","1","74.18","1","0.0","1","null","6","null","6","null","6","1006.78","1","40.167168","18.174857"],
    [3273,"2024-05-16 08:00:00","13","galatina","19.89","1","71.07","1","0.0","1","null","6","null","6","null","6","1006.67","1","40.167168","18.174857"],
    [3274,"2024-05-16 09:00:00","13","galatina","20.34","1","68.28","1","0.0","1","null","6","null","6","null","6","1006.25","1","40.167168","18.174857"],
    [3275,"2024-05-16 10:00:00","13","galatina","21.18","1","65.6","1","0.0","1","null","6","null","6","null","6","1005.35","1","40.167168","18.174857"],
    [3276,"2024-05-16 11:00:00","13","galatina","23.09","1","53.68","1","0.0","1","null","6","null","6","null","6","1004.22","1","40.167168","18.174857"],
    [3277,"2024-05-16 12:00:00","13","galatina","25.22","1","43.83","1","0.0","1","null","6","null","6","null","6","1004.8","1","40.167168","18.174857"],
    [3278,"2024-05-16 13:00:00","13","galatina","25.15","1","45.72","1","0.0","1","null","6","null","6","null","6","1005.13","1","40.167168","18.174857"],
    [3279,"2024-05-16 14:00:00","13","galatina","24.43","1","48.04","1","0.0","1","null","6","null","6","null","6","1004.88","1","40.167168","18.174857"],
    [3280,"2024-05-16 15:00:00","13","galatina","24.61","1","46.91","1","0.0","1","null","6","null","6","null","6","1004.24","1","40.167168","18.174857"],
    [3281,"2024-05-16 16:00:00","13","galatina","24.33","1","46.8","1","0.0","1","null","6","null","6","null","6","1003.94","1","40.167168","18.174857"],
    [3282,"2024-05-16 17:00:00","13","galatina","23.35","1","52.15","1","0.0","1","null","6","null","6","null","6","1003.43","1","40.167168","18.174857"],
    [3283,"2024-05-16 18:00:00","13","galatina","21.92","1","61.97","1","0.0","1","null","6","null","6","null","6","1003.96","1","40.167168","18.174857"],
    [3284,"2024-05-16 19:00:00","13","galatina","20.81","1","68.56","1","0.0","1","null","6","null","6","null","6","1004.53","1","40.167168","18.174857"],
    [3285,"2024-05-16 20:00:00","13","galatina","19.9","1","74.23","1","0.0","1","null","6","null","6","null","6","1004.92","1","40.167168","18.174857"],
    [3286,"2024-05-16 21:00:00","13","galatina","19.49","1","77.44","1","0.0","1","null","6","null","6","null","6","1005.35","1","40.167168","18.174857"],
    [3287,"2024-05-16 22:00:00","13","galatina","19.34","1","79.15","1","0.0","1","null","6","null","6","null","6","1005.66","1","40.167168","18.174857"],
    [3288,"2024-05-16 23:00:00","13","galatina","19.1","1","80.98","1","0.0","1","null","6","null","6","null","6","1005.84","1","40.167168","18.174857"],
    [3289,"2024-05-17 00:00:00","13","galatina","18.84","1","82.96","1","0.0","1","null","6","null","6","null","6","1006.09","1","40.167168","18.174857"],
    [3290,"2024-05-17 01:00:00","13","galatina","18.75","1","82.95","1","0.0","1","null","6","null","6","null","6","1006.14","1","40.167168","18.174857"],
    [3291,"2024-05-17 02:00:00","13","galatina","18.81","1","80.93","1","0.0","1","null","6","null","6","null","6","1006.09","1","40.167168","18.174857"],
    [3292,"2024-05-17 03:00:00","13","galatina","18.48","1","83.69","1","0.0","1","null","6","null","6","null","6","1006.38","1","40.167168","18.174857"],
    [3293,"2024-05-17 04:00:00","13","galatina","18.34","1","86.27","1","0.0","1","null","6","null","6","null","6","1006.41","1","40.167168","18.174857"],
    [3294,"2024-05-17 05:00:00","13","galatina","18.22","1","87.92","1","0.0","1","null","6","null","6","null","6","1006.65","1","40.167168","18.174857"],
    [3295,"2024-05-17 06:00:00","13","galatina","18.53","1","87.3","1","0.0","1","null","6","null","6","null","6","1006.64","1","40.167168","18.174857"],
    [3296,"2024-05-17 07:00:00","13","galatina","20.27","1","80.69","1","0.0","1","null","6","null","6","null","6","1006.96","1","40.167168","18.174857"],
    [3297,"2024-05-17 08:00:00","13","galatina","22.17","1","73.21","1","0.0","1","null","6","null","6","null","6","1006.96","1","40.167168","18.174857"],
    [3298,"2024-05-17 09:00:00","13","galatina","25.09","1","62.87","1","0.0","1","null","6","null","6","null","6","1007.12","1","40.167168","18.174857"],
    [3299,"2024-05-17 10:00:00","13","galatina","26.64","1","57.75","1","0.0","1","null","6","null","6","null","6","1007.06","1","40.167168","18.174857"],
    [3300,"2024-05-17 11:00:00","13","galatina","27.27","1","54.9","1","0.0","1","null","6","null","6","null","6","1006.91","1","40.167168","18.174857"],
    [3301,"2024-05-17 12:00:00","13","galatina","28.71","1","47.73","1","0.0","1","null","6","null","6","null","6","1006.66","1","40.167168","18.174857"],
    [3302,"2024-05-17 13:00:00","13","galatina","29.56","1","42.59","1","0.0","1","null","6","null","6","null","6","1006.34","1","40.167168","18.174857"],
    [3303,"2024-05-17 14:00:00","13","galatina","29.23","1","50.52","1","0.0","1","null","6","null","6","null","6","1006.33","1","40.167168","18.174857"],
    [3304,"2024-05-17 15:00:00","13","galatina","28.06","1","54.53","1","0.0","1","null","6","null","6","null","6","1006.54","1","40.167168","18.174857"],
    [3305,"2024-05-17 16:00:00","13","galatina","27.85","1","55.22","1","0.0","1","null","6","null","6","null","6","1006.71","1","40.167168","18.174857"],
    [3306,"2024-05-17 17:00:00","13","galatina","27.68","1","55.12","1","0.0","1","null","6","null","6","null","6","1006.57","1","40.167168","18.174857"],
    [3307,"2024-05-17 18:00:00","13","galatina","25.95","1","60.62","1","0.0","1","null","6","null","6","null","6","1006.78","1","40.167168","18.174857"],
    [3308,"2024-05-17 19:00:00","13","galatina","22.03","1","75.65","1","0.0","1","null","6","null","6","null","6","1007.33","1","40.167168","18.174857"],
    [3309,"2024-05-17 20:00:00","13","galatina","20.04","1","82.65","1","0.0","1","null","6","null","6","null","6","1008.02","1","40.167168","18.174857"],
    [3310,"2024-05-17 21:00:00","13","galatina","19.29","1","85.07","1","0.0","1","null","6","null","6","null","6","1008.65","1","40.167168","18.174857"],
    [3311,"2024-05-17 22:00:00","13","galatina","18.53","1","88.42","1","0.0","1","null","6","null","6","null","6","1008.85","1","40.167168","18.174857"],
    [3312,"2024-05-17 23:00:00","13","galatina","18.26","1","92.19","1","0.0","1","null","6","null","6","null","6","1009.19","1","40.167168","18.174857"],
    [3313,"2024-05-18 00:00:00","13","galatina","18.01","1","94.19","1","0.0","1","null","6","null","6","null","6","1009.14","1","40.167168","18.174857"],
    [3314,"2024-05-18 01:00:00","13","galatina","17.75","1","94.72","1","0.0","1","null","6","null","6","null","6","1008.95","1","40.167168","18.174857"],
    [3315,"2024-05-18 02:00:00","13","galatina","17.88","1","93.97","1","0.0","1","null","6","null","6","null","6","1008.78","1","40.167168","18.174857"],
    [3316,"2024-05-18 03:00:00","13","galatina","17.84","1","92.9","1","0.0","1","null","6","null","6","null","6","1008.67","1","40.167168","18.174857"],
    [3317,"2024-05-18 04:00:00","13","galatina","17.53","1","93.86","1","0.0","1","null","6","null","6","null","6","1008.6","1","40.167168","18.174857"],
    [3318,"2024-05-18 05:00:00","13","galatina","17.35","1","94.91","1","0.0","1","null","6","null","6","null","6","1008.73","1","40.167168","18.174857"],
    [3319,"2024-05-18 06:00:00","13","galatina","17.6","1","95.16","1","0.0","1","null","6","null","6","null","6","1008.92","1","40.167168","18.174857"],
    [3320,"2024-05-18 07:00:00","13","galatina","19.2","1","89.84","1","0.0","1","null","6","null","6","null","6","1009.17","1","40.167168","18.174857"],
    [3321,"2024-05-18 08:00:00","13","galatina","21.48","1","79.81","1","0.0","1","null","6","null","6","null","6","1009.09","1","40.167168","18.174857"],
    [3322,"2024-05-18 09:00:00","13","galatina","23.58","1","70.34","1","0.0","1","null","6","null","6","null","6","1008.98","1","40.167168","18.174857"],
    [3323,"2024-05-18 10:00:00","13","galatina","25.49","1","60.22","1","0.0","1","null","6","null","6","null","6","1008.52","1","40.167168","18.174857"],
    [3324,"2024-05-18 11:00:00","13","galatina","26.98","1","50.1","1","0.0","1","null","6","null","6","null","6","1008.28","1","40.167168","18.174857"],
    [3325,"2024-05-18 12:00:00","13","galatina","28.29","1","48.01","1","0.0","1","null","6","null","6","null","6","1007.93","1","40.167168","18.174857"],
    [3326,"2024-05-18 13:00:00","13","galatina","28.73","1","51.07","1","0.0","1","null","6","null","6","null","6","1007.38","1","40.167168","18.174857"],
    [3327,"2024-05-18 14:00:00","13","galatina","28.99","1","51.05","1","0.0","1","null","6","null","6","null","6","1006.98","1","40.167168","18.174857"],
    [3328,"2024-05-18 15:00:00","13","galatina","28.8","1","47.56","1","0.0","1","null","6","null","6","null","6","1006.64","1","40.167168","18.174857"],
    [3329,"2024-05-18 16:00:00","13","galatina","25.93","1","57.0","1","0.0","1","null","6","null","6","null","6","1006.82","1","40.167168","18.174857"],
    [3330,"2024-05-18 17:00:00","13","galatina","21.21","1","82.88","1","3.8","1","null","6","null","6","null","6","1007.22","1","40.167168","18.174857"],
    [3331,"2024-05-18 18:00:00","13","galatina","20.25","1","93.91","1","1.6","1","null","6","null","6","null","6","1007.04","1","40.167168","18.174857"],
    [3332,"2024-05-18 19:00:00","13","galatina","20.23","1","93.76","1","0.2","1","null","6","null","6","null","6","1007.88","1","40.167168","18.174857"],
    [3333,"2024-05-18 20:00:00","13","galatina","20.09","1","94.18","1","0.4","1","null","6","null","6","null","6","1008.66","1","40.167168","18.174857"],
    [3334,"2024-05-18 21:00:00","13","galatina","19.19","1","94.94","1","5.2","1","null","6","null","6","null","6","1009.07","1","40.167168","18.174857"],
    [3335,"2024-05-18 22:00:00","13","galatina","18.89","1","96.06","1","0.2","1","null","6","null","6","null","6","1008.78","1","40.167168","18.174857"],
    [3336,"2024-05-18 23:00:00","13","galatina","18.94","1","96.58","1","0.2","1","null","6","null","6","null","6","1008.08","1","40.167168","18.174857"],
    [3337,"2024-05-19 00:00:00","13","galatina","18.95","1","96.97","1","0.0","1","null","6","null","6","null","6","1007.81","1","40.167168","18.174857"],
    [3338,"2024-05-19 01:00:00","13","galatina","18.9","1","97.35","1","0.0","1","null","6","null","6","null","6","1007.59","1","40.167168","18.174857"],
    [3339,"2024-05-19 02:00:00","13","galatina","18.7","1","97.56","1","0.0","1","null","6","null","6","null","6","1007.48","1","40.167168","18.174857"],
    [3340,"2024-05-19 03:00:00","13","galatina","18.48","1","97.82","1","0.0","1","null","6","null","6","null","6","1007.05","1","40.167168","18.174857"],
    [3341,"2024-05-19 04:00:00","13","galatina","18.26","1","98.09","1","0.0","1","null","6","null","6","null","6","1006.96","1","40.167168","18.174857"],
    [3342,"2024-05-19 05:00:00","13","galatina","17.99","1","98.45","1","0.0","1","null","6","null","6","null","6","1007.25","1","40.167168","18.174857"],
    [3343,"2024-05-19 06:00:00","13","galatina","17.99","1","98.86","1","0.0","1","null","6","null","6","null","6","1007.57","1","40.167168","18.174857"],
    [3344,"2024-05-19 07:00:00","13","galatina","18.17","1","98.9","1","0.0","1","null","6","null","6","null","6","1007.95","1","40.167168","18.174857"],
    [3345,"2024-05-19 08:00:00","13","galatina","18.5","1","98.78","1","0.0","1","null","6","null","6","null","6","1008.25","1","40.167168","18.174857"],
    [3346,"2024-05-19 09:00:00","13","galatina","19.07","1","98.24","1","0.0","1","null","6","null","6","null","6","1008.37","1","40.167168","18.174857"],
    [3347,"2024-05-19 10:00:00","13","galatina","19.76","1","96.23","1","0.0","1","null","6","null","6","null","6","1008.41","1","40.167168","18.174857"],
    [3348,"2024-05-19 11:00:00","13","galatina","22.81","1","81.08","1","0.0","1","null","6","null","6","null","6","1008.08","1","40.167168","18.174857"],
    [3349,"2024-05-19 12:00:00","13","galatina","24.59","1","69.59","1","0.0","1","null","6","null","6","null","6","1007.53","1","40.167168","18.174857"],
    [3350,"2024-05-19 13:00:00","13","galatina","26.26","1","62.02","1","0.0","1","null","6","null","6","null","6","1006.93","1","40.167168","18.174857"],
    [3351,"2024-05-19 14:00:00","13","galatina","27.76","1","54.81","1","0.0","1","null","6","null","6","null","6","1006.68","1","40.167168","18.174857"],
    [3352,"2024-05-19 15:00:00","13","galatina","29.14","1","51.83","1","0.0","1","null","6","null","6","null","6","1006.3","1","40.167168","18.174857"],
    [3353,"2024-05-19 16:00:00","13","galatina","28.07","1","57.46","1","0.0","1","null","6","null","6","null","6","1006.31","1","40.167168","18.174857"],
    [3354,"2024-05-19 17:00:00","13","galatina","25.99","1","60.93","1","0.0","1","null","6","null","6","null","6","1006.22","1","40.167168","18.174857"],
    [3355,"2024-05-19 18:00:00","13","galatina","24.36","1","63.53","1","0.0","1","null","6","null","6","null","6","1005.67","1","40.167168","18.174857"],
    [3356,"2024-05-19 19:00:00","13","galatina","23.16","1","67.81","1","0.0","1","null","6","null","6","null","6","1005.45","1","40.167168","18.174857"],
    [3357,"2024-05-19 20:00:00","13","galatina","22.57","1","71.43","1","0.0","1","null","6","null","6","null","6","1005.44","1","40.167168","18.174857"],
    [3358,"2024-05-19 21:00:00","13","galatina","22.26","1","74.07","1","0.0","1","null","6","null","6","null","6","1005.98","1","40.167168","18.174857"],
    [3359,"2024-05-19 22:00:00","13","galatina","21.54","1","78.92","1","0.0","1","null","6","null","6","null","6","1006.26","1","40.167168","18.174857"],
    [3360,"2024-05-19 23:00:00","13","galatina","20.71","1","83.82","1","0.0","1","null","6","null","6","null","6","1006.68","1","40.167168","18.174857"],
    [3361,"2024-05-20 00:00:00","13","galatina","20.0","1","88.12","1","0.0","1","null","6","null","6","null","6","1006.91","1","40.167168","18.174857"],
    [3362,"2024-05-20 01:00:00","13","galatina","19.12","1","93.95","1","0.0","1","null","6","null","6","null","6","1006.86","1","40.167168","18.174857"],
    [3363,"2024-05-20 02:00:00","13","galatina","18.8","1","96.47","1","0.0","1","null","6","null","6","null","6","1006.72","1","40.167168","18.174857"],
    [3364,"2024-05-20 03:00:00","13","galatina","18.48","1","97.51","1","0.0","1","null","6","null","6","null","6","1006.7","1","40.167168","18.174857"],
    [3365,"2024-05-20 04:00:00","13","galatina","18.38","1","98.37","1","0.0","1","null","6","null","6","null","6","1006.78","1","40.167168","18.174857"],
    [3366,"2024-05-20 05:00:00","13","galatina","18.4","1","98.82","1","0.0","1","null","6","null","6","null","6","1006.92","1","40.167168","18.174857"],
    [3367,"2024-05-20 06:00:00","13","galatina","18.45","1","99.15","1","0.0","1","null","6","null","6","null","6","1007.19","1","40.167168","18.174857"],
    [3368,"2024-05-20 07:00:00","13","galatina","19.56","1","98.26","1","0.0","1","null","6","null","6","null","6","1007.29","1","40.167168","18.174857"],
    [3369,"2024-05-20 08:00:00","13","galatina","22.56","1","84.57","1","0.0","1","null","6","null","6","null","6","1007.23","1","40.167168","18.174857"],
    [3370,"2024-05-20 09:00:00","13","galatina","25.53","1","62.08","1","0.0","1","null","6","null","6","null","6","1006.77","1","40.167168","18.174857"],
    [3371,"2024-05-20 10:00:00","13","galatina","27.12","1","54.77","1","0.0","1","null","6","null","6","null","6","1006.09","1","40.167168","18.174857"],
    [3372,"2024-05-20 11:00:00","13","galatina","28.34","1","49.67","1","0.0","1","null","6","null","6","null","6","1005.97","1","40.167168","18.174857"],
    [3373,"2024-05-20 12:00:00","13","galatina","29.05","1","47.32","1","0.0","1","null","6","null","6","null","6","1005.93","1","40.167168","18.174857"],
    [3374,"2024-05-20 13:00:00","13","galatina","29.33","1","52.68","1","0.0","1","null","6","null","6","null","6","1005.72","1","40.167168","18.174857"],
    [3375,"2024-05-20 14:00:00","13","galatina","30.61","1","47.66","1","0.0","1","null","6","null","6","null","6","1005.45","1","40.167168","18.174857"],
    [3376,"2024-05-20 15:00:00","13","galatina","29.76","1","49.11","1","0.0","1","null","6","null","6","null","6","1005.04","1","40.167168","18.174857"],
    [3377,"2024-05-20 16:00:00","13","galatina","29.28","1","49.05","1","0.0","1","null","6","null","6","null","6","1004.79","1","40.167168","18.174857"],
    [3378,"2024-05-20 17:00:00","13","galatina","28.81","1","45.89","1","0.0","1","null","6","null","6","null","6","1004.61","1","40.167168","18.174857"],
    [3379,"2024-05-20 18:00:00","13","galatina","27.53","1","46.44","1","0.0","1","null","6","null","6","null","6","1004.65","1","40.167168","18.174857"],
    [3380,"2024-05-20 19:00:00","13","galatina","26.01","1","48.81","1","0.0","1","null","6","null","6","null","6","1004.79","1","40.167168","18.174857"],
    [3381,"2024-05-20 20:00:00","13","galatina","24.19","1","53.37","1","0.0","1","null","6","null","6","null","6","1004.8","1","40.167168","18.174857"],
    [3382,"2024-05-20 21:00:00","13","galatina","22.75","1","58.95","1","0.0","1","null","6","null","6","null","6","1005.08","1","40.167168","18.174857"],
    [3383,"2024-05-20 22:00:00","13","galatina","21.72","1","63.65","1","0.0","1","null","6","null","6","null","6","1005.05","1","40.167168","18.174857"],
    [3384,"2024-05-20 23:00:00","13","galatina","20.84","1","69.35","1","0.0","1","null","6","null","6","null","6","1005.04","1","40.167168","18.174857"],
    [3385,"2024-05-21 00:00:00","13","galatina","20.07","1","85.34","1","0.0","1","null","6","null","6","null","6","1005.3","1","40.167168","18.174857"],
    [3386,"2024-05-21 01:00:00","13","galatina","19.81","1","90.97","1","0.0","1","null","6","null","6","null","6","1005.09","1","40.167168","18.174857"],
    [3387,"2024-05-21 02:00:00","13","galatina","19.53","1","90.17","1","0.0","1","null","6","null","6","null","6","1004.88","1","40.167168","18.174857"],
    [3388,"2024-05-21 03:00:00","13","galatina","19.31","1","88.72","1","0.0","1","null","6","null","6","null","6","1004.77","1","40.167168","18.174857"],
    [3389,"2024-05-21 04:00:00","13","galatina","19.11","1","85.05","1","0.0","1","null","6","null","6","null","6","1004.79","1","40.167168","18.174857"],
    [3390,"2024-05-21 05:00:00","13","galatina","19.0","1","85.29","1","0.0","1","null","6","null","6","null","6","1004.66","1","40.167168","18.174857"],
    [3391,"2024-05-21 06:00:00","13","galatina","19.85","1","85.43","1","0.0","1","null","6","null","6","null","6","1004.51","1","40.167168","18.174857"],
    [3392,"2024-05-21 07:00:00","13","galatina","21.38","1","80.95","1","0.0","1","null","6","null","6","null","6","1004.87","1","40.167168","18.174857"],
    [3393,"2024-05-21 08:00:00","13","galatina","22.3","1","75.5","1","0.0","1","null","6","null","6","null","6","1005.1","1","40.167168","18.174857"],
    [3394,"2024-05-21 09:00:00","13","galatina","23.84","1","68.86","1","0.0","1","null","6","null","6","null","6","1004.98","1","40.167168","18.174857"],
    [3395,"2024-05-21 10:00:00","13","galatina","25.63","1","60.67","1","0.0","1","null","6","null","6","null","6","1004.97","1","40.167168","18.174857"],
    [3396,"2024-05-21 11:00:00","13","galatina","27.59","1","51.48","1","0.0","1","null","6","null","6","null","6","1005.2","1","40.167168","18.174857"],
    [3397,"2024-05-21 12:00:00","13","galatina","27.59","1","50.75","1","0.0","1","null","6","null","6","null","6","1005.25","1","40.167168","18.174857"],
    [3398,"2024-05-21 13:00:00","13","galatina","28.02","1","48.46","1","0.0","1","null","6","null","6","null","6","1005.12","1","40.167168","18.174857"],
    [3399,"2024-05-21 14:00:00","13","galatina","27.68","1","48.52","1","0.0","1","null","6","null","6","null","6","1005.13","1","40.167168","18.174857"],
    [3400,"2024-05-21 15:00:00","13","galatina","27.78","1","46.84","1","0.0","1","null","6","null","6","null","6","1005.1","1","40.167168","18.174857"],
    [3401,"2024-05-21 16:00:00","13","galatina","27.59","1","46.81","1","0.0","1","null","6","null","6","null","6","1005.17","1","40.167168","18.174857"],
    [3402,"2024-05-21 17:00:00","13","galatina","26.68","1","50.69","1","0.0","1","null","6","null","6","null","6","1005.33","1","40.167168","18.174857"],
    [3403,"2024-05-21 18:00:00","13","galatina","25.26","1","53.14","1","0.0","1","null","6","null","6","null","6","1005.41","1","40.167168","18.174857"],
    [3404,"2024-05-21 19:00:00","13","galatina","23.35","1","57.34","1","0.0","1","null","6","null","6","null","6","1005.52","1","40.167168","18.174857"],
    [3405,"2024-05-21 20:00:00","13","galatina","21.91","1","63.65","1","0.0","1","null","6","null","6","null","6","1006.08","1","40.167168","18.174857"],
    [3406,"2024-05-21 21:00:00","13","galatina","21.21","1","66.18","1","0.0","1","null","6","null","6","null","6","1006.62","1","40.167168","18.174857"],
    [3407,"2024-05-21 22:00:00","13","galatina","20.8","1","66.99","1","0.0","1","null","6","null","6","null","6","1007.12","1","40.167168","18.174857"],
    [3408,"2024-05-21 23:00:00","13","galatina","20.67","1","65.07","1","0.0","1","null","6","null","6","null","6","1007.52","1","40.167168","18.174857"],
    [3409,"2024-05-22 00:00:00","13","galatina","20.33","1","66.17","1","0.0","1","null","6","null","6","null","6","1007.73","1","40.167168","18.174857"],
    [3410,"2024-05-22 01:00:00","13","galatina","20.11","1","66.57","1","0.0","1","null","6","null","6","null","6","1007.67","1","40.167168","18.174857"],
    [3411,"2024-05-22 02:00:00","13","galatina","19.57","1","66.8","1","0.0","1","null","6","null","6","null","6","1007.84","1","40.167168","18.174857"],
    [3412,"2024-05-22 03:00:00","13","galatina","19.22","1","67.25","1","0.0","1","null","6","null","6","null","6","1007.91","1","40.167168","18.174857"],
    [3413,"2024-05-22 04:00:00","13","galatina","18.85","1","67.5","1","0.0","1","null","6","null","6","null","6","1008.07","1","40.167168","18.174857"],
    [3414,"2024-05-22 05:00:00","13","galatina","18.42","1","68.51","1","0.0","1","null","6","null","6","null","6","1008.2","1","40.167168","18.174857"],
    [3415,"2024-05-22 06:00:00","13","galatina","18.84","1","67.27","1","0.0","1","null","6","null","6","null","6","1008.61","1","40.167168","18.174857"],
    [3416,"2024-05-22 07:00:00","13","galatina","21.27","1","55.31","1","0.0","1","null","6","null","6","null","6","1008.71","1","40.167168","18.174857"],
    [3417,"2024-05-22 08:00:00","13","galatina","23.4","1","43.39","1","0.0","1","null","6","null","6","null","6","1008.5","1","40.167168","18.174857"],
    [3418,"2024-05-22 09:00:00","13","galatina","24.42","1","38.72","1","0.0","1","null","6","null","6","null","6","1008.25","1","40.167168","18.174857"],
    [3419,"2024-05-22 10:00:00","13","galatina","25.28","1","36.93","1","0.0","1","null","6","null","6","null","6","1008.16","1","40.167168","18.174857"],
    [3420,"2024-05-22 11:00:00","13","galatina","25.79","1","37.1","1","0.0","1","null","6","null","6","null","6","1008.34","1","40.167168","18.174857"],
    [3421,"2024-05-22 12:00:00","13","galatina","26.23","1","33.8","1","0.0","1","null","6","null","6","null","6","1008.25","1","40.167168","18.174857"],
    [3422,"2024-05-22 13:00:00","13","galatina","26.75","1","33.04","1","0.0","1","null","6","null","6","null","6","1008.26","1","40.167168","18.174857"],
    [3423,"2024-05-22 14:00:00","13","galatina","27.6","1","32.11","1","0.0","1","null","6","null","6","null","6","1008.2","1","40.167168","18.174857"],
    [3424,"2024-05-22 15:00:00","13","galatina","27.98","1","31.29","1","0.0","1","null","6","null","6","null","6","1008.04","1","40.167168","18.174857"],
    [3425,"2024-05-22 16:00:00","13","galatina","28.18","1","34.53","1","0.0","1","null","6","null","6","null","6","1008.13","1","40.167168","18.174857"],
    [3426,"2024-05-22 17:00:00","13","galatina","26.76","1","42.12","1","0.0","1","null","6","null","6","null","6","1008.17","1","40.167168","18.174857"],
    [3427,"2024-05-22 18:00:00","13","galatina","25.68","1","45.2","1","0.0","1","null","6","null","6","null","6","1008.03","1","40.167168","18.174857"],
    [3428,"2024-05-22 19:00:00","13","galatina","23.57","1","52.07","1","0.0","1","null","6","null","6","null","6","1008.34","1","40.167168","18.174857"],
    [3429,"2024-05-22 20:00:00","13","galatina","22.09","1","57.51","1","0.0","1","null","6","null","6","null","6","1008.69","1","40.167168","18.174857"],
    [3430,"2024-05-22 21:00:00","13","galatina","20.88","1","62.7","1","0.0","1","null","6","null","6","null","6","1009.23","1","40.167168","18.174857"],
    [3431,"2024-05-22 22:00:00","13","galatina","20.3","1","61.13","1","0.0","1","null","6","null","6","null","6","1009.6","1","40.167168","18.174857"],
    [3432,"2024-05-22 23:00:00","13","galatina","20.12","1","56.76","1","0.0","1","null","6","null","6","null","6","1010.11","1","40.167168","18.174857"],
    [3433,"2024-05-23 00:00:00","13","galatina","18.77","1","59.47","1","0.0","1","null","6","null","6","null","6","1010.08","1","40.167168","18.174857"],
    [3434,"2024-05-23 01:00:00","13","galatina","17.96","1","70.83","1","0.0","1","null","6","null","6","null","6","1010.16","1","40.167168","18.174857"],
    [3435,"2024-05-23 02:00:00","13","galatina","18.04","1","75.61","1","0.0","1","null","6","null","6","null","6","1010.06","1","40.167168","18.174857"],
    [3436,"2024-05-23 03:00:00","13","galatina","18.06","1","67.09","1","0.0","1","null","6","null","6","null","6","1010.05","1","40.167168","18.174857"],
    [3437,"2024-05-23 04:00:00","13","galatina","17.75","1","61.67","1","0.0","1","null","6","null","6","null","6","1010.17","1","40.167168","18.174857"],
    [3438,"2024-05-23 05:00:00","13","galatina","17.59","1","59.36","1","0.0","1","null","6","null","6","null","6","1010.34","1","40.167168","18.174857"],
    [3439,"2024-05-23 06:00:00","13","galatina","18.56","1","57.68","1","0.0","1","null","6","null","6","null","6","1010.53","1","40.167168","18.174857"],
    [3440,"2024-05-23 07:00:00","13","galatina","20.65","1","52.04","1","0.0","1","null","6","null","6","null","6","1010.56","1","40.167168","18.174857"],
    [3441,"2024-05-23 08:00:00","13","galatina","22.77","1","48.8","1","0.0","1","null","6","null","6","null","6","1010.36","1","40.167168","18.174857"],
    [3442,"2024-05-23 09:00:00","13","galatina","24.28","1","46.01","1","0.0","1","null","6","null","6","null","6","1009.97","1","40.167168","18.174857"],
    [3443,"2024-05-23 10:00:00","13","galatina","25.63","1","42.76","1","0.0","1","null","6","null","6","null","6","1009.8","1","40.167168","18.174857"],
    [3444,"2024-05-23 11:00:00","13","galatina","26.54","1","40.15","1","0.0","1","null","6","null","6","null","6","1009.92","1","40.167168","18.174857"],
    [3445,"2024-05-23 12:00:00","13","galatina","26.71","1","37.03","1","0.0","1","null","6","null","6","null","6","1009.97","1","40.167168","18.174857"],
    [3446,"2024-05-23 13:00:00","13","galatina","26.41","1","37.05","1","0.0","1","null","6","null","6","null","6","1010.06","1","40.167168","18.174857"],
    [3447,"2024-05-23 14:00:00","13","galatina","27.05","1","35.48","1","0.0","1","null","6","null","6","null","6","1010.05","1","40.167168","18.174857"],
    [3448,"2024-05-23 15:00:00","13","galatina","27.37","1","34.49","1","0.0","1","null","6","null","6","null","6","1010.08","1","40.167168","18.174857"],
    [3449,"2024-05-23 16:00:00","13","galatina","27.57","1","32.81","1","0.0","1","null","6","null","6","null","6","1009.78","1","40.167168","18.174857"],
    [3450,"2024-05-23 17:00:00","13","galatina","26.94","1","32.42","1","0.0","1","null","6","null","6","null","6","1009.78","1","40.167168","18.174857"],
    [3451,"2024-05-23 18:00:00","13","galatina","25.94","1","32.2","1","0.0","1","null","6","null","6","null","6","1009.88","1","40.167168","18.174857"],
    [3452,"2024-05-23 19:00:00","13","galatina","23.75","1","35.58","1","0.0","1","null","6","null","6","null","6","1010.42","1","40.167168","18.174857"],
    [3453,"2024-05-23 20:00:00","13","galatina","21.92","1","41.94","1","0.0","1","null","6","null","6","null","6","1011.02","1","40.167168","18.174857"],
    [3454,"2024-05-23 21:00:00","13","galatina","20.46","1","55.54","1","0.0","1","null","6","null","6","null","6","1011.47","1","40.167168","18.174857"],
    [3455,"2024-05-23 22:00:00","13","galatina","19.03","1","63.95","1","0.0","1","null","6","null","6","null","6","1011.88","1","40.167168","18.174857"],
    [3456,"2024-05-23 23:00:00","13","galatina","18.1","1","70.8","1","0.0","1","null","6","null","6","null","6","1011.9","1","40.167168","18.174857"],
    [3457,"2024-05-24 00:00:00","13","galatina","17.43","1","74.68","1","0.0","1","null","6","null","6","null","6","1011.82","1","40.167168","18.174857"],
    [3458,"2024-05-24 01:00:00","13","galatina","16.61","1","77.16","1","0.0","1","null","6","null","6","null","6","1011.75","1","40.167168","18.174857"],
    [3459,"2024-05-24 02:00:00","13","galatina","16.27","1","79.47","1","0.0","1","null","6","null","6","null","6","1011.48","1","40.167168","18.174857"],
    [3460,"2024-05-24 03:00:00","13","galatina","15.72","1","81.11","1","0.0","1","null","6","null","6","null","6","1011.41","1","40.167168","18.174857"],
    [3461,"2024-05-24 04:00:00","13","galatina","15.58","1","79.12","1","0.0","1","null","6","null","6","null","6","1011.42","1","40.167168","18.174857"],
    [3462,"2024-05-24 05:00:00","13","galatina","15.41","1","80.15","1","0.0","1","null","6","null","6","null","6","1011.5","1","40.167168","18.174857"],
    [3463,"2024-05-24 06:00:00","13","galatina","17.72","1","69.71","1","0.0","1","null","6","null","6","null","6","1011.62","1","40.167168","18.174857"],
    [3464,"2024-05-24 07:00:00","13","galatina","22.51","1","48.25","1","0.0","1","null","6","null","6","null","6","1011.67","1","40.167168","18.174857"],
    [3465,"2024-05-24 08:00:00","13","galatina","25.45","1","36.13","1","0.0","1","null","6","null","6","null","6","1011.4","1","40.167168","18.174857"],
    [3466,"2024-05-24 09:00:00","13","galatina","26.81","1","34.12","1","0.0","1","null","6","null","6","null","6","1011.07","1","40.167168","18.174857"],
    [3467,"2024-05-24 10:00:00","13","galatina","27.71","1","33.33","1","0.0","1","null","6","null","6","null","6","1010.96","1","40.167168","18.174857"],
    [3468,"2024-05-24 11:00:00","13","galatina","27.91","1","35.11","1","0.0","1","null","6","null","6","null","6","1011.05","1","40.167168","18.174857"],
    [3469,"2024-05-24 12:00:00","13","galatina","25.63","1","45.84","1","0.0","1","null","6","null","6","null","6","1011.14","1","40.167168","18.174857"],
    [3470,"2024-05-24 13:00:00","13","galatina","26.72","1","40.94","1","0.0","1","null","6","null","6","null","6","1011.16","1","40.167168","18.174857"],
    [3471,"2024-05-24 14:00:00","13","galatina","27.18","1","38.24","1","0.0","1","null","6","null","6","null","6","1010.92","1","40.167168","18.174857"],
    [3472,"2024-05-24 15:00:00","13","galatina","27.43","1","35.48","1","0.0","1","null","6","null","6","null","6","1010.68","1","40.167168","18.174857"],
    [3473,"2024-05-24 16:00:00","13","galatina","26.84","1","34.13","1","0.0","1","null","6","null","6","null","6","1010.52","1","40.167168","18.174857"],
    [3474,"2024-05-24 17:00:00","13","galatina","26.08","1","34.48","1","0.0","1","null","6","null","6","null","6","1010.52","1","40.167168","18.174857"],
    [3475,"2024-05-24 18:00:00","13","galatina","26.1","1","34.39","1","0.0","1","null","6","null","6","null","6","1010.45","1","40.167168","18.174857"],
    [3476,"2024-05-24 19:00:00","13","galatina","24.08","1","35.08","1","0.0","1","null","6","null","6","null","6","1010.62","1","40.167168","18.174857"],
    [3477,"2024-05-24 20:00:00","13","galatina","22.06","1","54.6","1","0.0","1","null","6","null","6","null","6","1010.85","1","40.167168","18.174857"],
    [3478,"2024-05-24 21:00:00","13","galatina","20.42","1","69.29","1","0.0","1","null","6","null","6","null","6","1011.25","1","40.167168","18.174857"],
    [3479,"2024-05-24 22:00:00","13","galatina","19.24","1","74.7","1","0.0","1","null","6","null","6","null","6","1011.48","1","40.167168","18.174857"],
    [3480,"2024-05-24 23:00:00","13","galatina","19.17","1","75.01","1","0.0","1","null","6","null","6","null","6","1011.46","1","40.167168","18.174857"],
    [3481,"2024-05-25 00:00:00","13","galatina","18.31","1","79.71","1","0.0","1","null","6","null","6","null","6","1011.34","1","40.167168","18.174857"],
    [3482,"2024-05-25 01:00:00","13","galatina","17.97","1","81.82","1","0.0","1","null","6","null","6","null","6","1011.23","1","40.167168","18.174857"],
    [3483,"2024-05-25 02:00:00","13","galatina","18.0","1","73.15","1","0.0","1","null","6","null","6","null","6","1011.07","1","40.167168","18.174857"],
    [3484,"2024-05-25 03:00:00","13","galatina","17.62","1","79.36","1","0.0","1","null","6","null","6","null","6","1010.79","1","40.167168","18.174857"],
    [3485,"2024-05-25 04:00:00","13","galatina","17.74","1","80.21","1","0.0","1","null","6","null","6","null","6","1010.55","1","40.167168","18.174857"],
    [3486,"2024-05-25 05:00:00","13","galatina","17.01","1","85.06","1","0.0","1","null","6","null","6","null","6","1010.4","1","40.167168","18.174857"],
    [3487,"2024-05-25 06:00:00","13","galatina","18.4","1","81.27","1","0.0","1","null","6","null","6","null","6","1010.42","1","40.167168","18.174857"],
    [3488,"2024-05-25 07:00:00","13","galatina","20.89","1","72.33","1","0.0","1","null","6","null","6","null","6","1010.12","1","40.167168","18.174857"],
    [3489,"2024-05-25 08:00:00","13","galatina","23.03","1","57.11","1","0.0","1","null","6","null","6","null","6","1009.72","1","40.167168","18.174857"],
    [3490,"2024-05-25 09:00:00","13","galatina","24.41","1","51.05","1","0.0","1","null","6","null","6","null","6","1009.33","1","40.167168","18.174857"],
    [3491,"2024-05-25 10:00:00","13","galatina","26.33","1","40.58","1","0.0","1","null","6","null","6","null","6","1008.96","1","40.167168","18.174857"],
    [3492,"2024-05-25 11:00:00","13","galatina","27.18","1","36.39","1","0.0","1","null","6","null","6","null","6","1008.62","1","40.167168","18.174857"],
    [3493,"2024-05-25 12:00:00","13","galatina","27.69","1","34.66","1","0.0","1","null","6","null","6","null","6","1008.36","1","40.167168","18.174857"],
    [3494,"2024-05-25 13:00:00","13","galatina","27.87","1","34.69","1","0.0","1","null","6","null","6","null","6","1008.14","1","40.167168","18.174857"],
    [3495,"2024-05-25 14:00:00","13","galatina","26.39","1","40.46","1","0.0","1","null","6","null","6","null","6","1008.13","1","40.167168","18.174857"],
    [3496,"2024-05-25 15:00:00","13","galatina","25.89","1","41.61","1","0.0","1","null","6","null","6","null","6","1007.91","1","40.167168","18.174857"],
    [3497,"2024-05-25 16:00:00","13","galatina","25.14","1","39.08","1","0.0","1","null","6","null","6","null","6","1007.59","1","40.167168","18.174857"],
    [3498,"2024-05-25 17:00:00","13","galatina","24.26","1","43.08","1","0.0","1","null","6","null","6","null","6","1007.55","1","40.167168","18.174857"],
    [3499,"2024-05-25 18:00:00","13","galatina","23.41","1","49.8","1","0.0","1","null","6","null","6","null","6","1007.82","1","40.167168","18.174857"],
    [3500,"2024-05-25 19:00:00","13","galatina","22.04","1","54.39","1","0.0","1","null","6","null","6","null","6","1008.26","1","40.167168","18.174857"],
    [3501,"2024-05-25 20:00:00","13","galatina","21.18","1","53.14","1","0.0","1","null","6","null","6","null","6","1008.74","1","40.167168","18.174857"],
    [3502,"2024-05-25 21:00:00","13","galatina","20.37","1","63.66","1","0.0","1","null","6","null","6","null","6","1009.17","1","40.167168","18.174857"],
    [3503,"2024-05-25 22:00:00","13","galatina","19.98","1","68.04","1","0.0","1","null","6","null","6","null","6","1009.49","1","40.167168","18.174857"],
    [3504,"2024-05-25 23:00:00","13","galatina","18.16","1","72.57","1","0.4","1","null","6","null","6","null","6","1009.78","1","40.167168","18.174857"],
    [3505,"2024-05-26 00:00:00","13","galatina","17.66","1","69.74","1","0.0","1","null","6","null","6","null","6","1009.65","1","40.167168","18.174857"],
    [3506,"2024-05-26 01:00:00","13","galatina","17.49","1","74.47","1","0.0","1","null","6","null","6","null","6","1009.61","1","40.167168","18.174857"],
    [3507,"2024-05-26 02:00:00","13","galatina","17.37","1","76.22","1","0.0","1","null","6","null","6","null","6","1009.64","1","40.167168","18.174857"],
    [3508,"2024-05-26 03:00:00","13","galatina","17.04","1","76.01","1","0.0","1","null","6","null","6","null","6","1009.34","1","40.167168","18.174857"],
    [3509,"2024-05-26 04:00:00","13","galatina","17.13","1","73.82","1","0.0","1","null","6","null","6","null","6","1009.24","1","40.167168","18.174857"],
    [3510,"2024-05-26 05:00:00","13","galatina","17.08","1","74.12","1","0.0","1","null","6","null","6","null","6","1009.19","1","40.167168","18.174857"],
    [3511,"2024-05-26 06:00:00","13","galatina","17.29","1","76.79","1","0.0","1","null","6","null","6","null","6","1009.27","1","40.167168","18.174857"],
    [3512,"2024-05-26 07:00:00","13","galatina","18.37","1","73.72","1","0.0","1","null","6","null","6","null","6","1009.34","1","40.167168","18.174857"],
    [3513,"2024-05-26 08:00:00","13","galatina","19.75","1","70.98","1","0.0","1","null","6","null","6","null","6","1009.6","1","40.167168","18.174857"],
    [3514,"2024-05-26 09:00:00","13","galatina","21.73","1","61.66","1","0.0","1","null","6","null","6","null","6","1009.57","1","40.167168","18.174857"],
    [3515,"2024-05-26 10:00:00","13","galatina","23.44","1","53.05","1","0.0","1","null","6","null","6","null","6","1009.49","1","40.167168","18.174857"],
    [3516,"2024-05-26 11:00:00","13","galatina","23.62","1","50.72","1","0.0","1","null","6","null","6","null","6","1009.41","1","40.167168","18.174857"],
    [3517,"2024-05-26 12:00:00","13","galatina","24.6","1","46.1","1","0.0","1","null","6","null","6","null","6","1009.33","1","40.167168","18.174857"],
    [3518,"2024-05-26 13:00:00","13","galatina","22.97","1","58.03","1","0.0","1","null","6","null","6","null","6","1009.46","1","40.167168","18.174857"],
    [3519,"2024-05-26 14:00:00","13","galatina","22.8","1","56.8","1","0.0","1","null","6","null","6","null","6","1009.58","1","40.167168","18.174857"],
    [3520,"2024-05-26 15:00:00","13","galatina","23.27","1","56.02","1","0.0","1","null","6","null","6","null","6","1009.53","1","40.167168","18.174857"],
    [3521,"2024-05-26 16:00:00","13","galatina","24.75","1","48.72","1","0.0","1","null","6","null","6","null","6","1009.26","1","40.167168","18.174857"],
    [3522,"2024-05-26 17:00:00","13","galatina","24.48","1","52.06","1","0.0","1","null","6","null","6","null","6","1009.19","1","40.167168","18.174857"],
    [3523,"2024-05-26 18:00:00","13","galatina","23.28","1","55.84","1","0.0","1","null","6","null","6","null","6","1009.35","1","40.167168","18.174857"],
    [3524,"2024-05-26 19:00:00","13","galatina","21.64","1","58.8","1","0.0","1","null","6","null","6","null","6","1009.71","1","40.167168","18.174857"],
    [3525,"2024-05-26 20:00:00","13","galatina","19.77","1","70.46","1","0.0","1","null","6","null","6","null","6","1010.25","1","40.167168","18.174857"],
    [3526,"2024-05-26 21:00:00","13","galatina","18.94","1","75.63","1","0.0","1","null","6","null","6","null","6","1010.95","1","40.167168","18.174857"],
    [3527,"2024-05-26 22:00:00","13","galatina","18.47","1","78.83","1","0.0","1","null","6","null","6","null","6","1011.35","1","40.167168","18.174857"],
    [3528,"2024-05-26 23:00:00","13","galatina","17.96","1","81.08","1","0.0","1","null","6","null","6","null","6","1011.39","1","40.167168","18.174857"],
    [3529,"2024-05-27 00:00:00","13","galatina","17.6","1","82.71","1","0.0","1","null","6","null","6","null","6","1011.34","1","40.167168","18.174857"],
    [3530,"2024-05-27 01:00:00","13","galatina","17.12","1","84.35","1","0.0","1","null","6","null","6","null","6","1011.48","1","40.167168","18.174857"],
    [3531,"2024-05-27 02:00:00","13","galatina","16.68","1","86.03","1","0.0","1","null","6","null","6","null","6","1011.34","1","40.167168","18.174857"],
    [3532,"2024-05-27 03:00:00","13","galatina","16.23","1","87.51","1","0.0","1","null","6","null","6","null","6","1011.22","1","40.167168","18.174857"],
    [3533,"2024-05-27 04:00:00","13","galatina","15.94","1","88.93","1","0.0","1","null","6","null","6","null","6","1011.13","1","40.167168","18.174857"],
    [3534,"2024-05-27 05:00:00","13","galatina","15.68","1","89.46","1","0.0","1","null","6","null","6","null","6","1011.23","1","40.167168","18.174857"],
    [3535,"2024-05-27 06:00:00","13","galatina","17.57","1","82.75","1","0.0","1","null","6","null","6","null","6","1011.33","1","40.167168","18.174857"],
    [3536,"2024-05-27 07:00:00","13","galatina","19.88","1","75.64","1","0.0","1","null","6","null","6","null","6","1011.31","1","40.167168","18.174857"],
    [3537,"2024-05-27 08:00:00","13","galatina","22.59","1","64.15","1","0.0","1","null","6","null","6","null","6","1011.22","1","40.167168","18.174857"],
    [3538,"2024-05-27 09:00:00","13","galatina","23.24","1","58.4","1","0.0","1","null","6","null","6","null","6","1010.93","1","40.167168","18.174857"],
    [3539,"2024-05-27 10:00:00","13","galatina","22.94","1","56.12","1","0.0","1","null","6","null","6","null","6","1010.79","1","40.167168","18.174857"],
    [3540,"2024-05-27 11:00:00","13","galatina","24.13","1","52.11","1","0.0","1","null","6","null","6","null","6","1010.84","1","40.167168","18.174857"],
    [3541,"2024-05-27 12:00:00","13","galatina","24.08","1","52.08","1","0.0","1","null","6","null","6","null","6","1010.72","1","40.167168","18.174857"],
    [3542,"2024-05-27 13:00:00","13","galatina","24.44","1","50.51","1","0.0","1","null","6","null","6","null","6","1010.63","1","40.167168","18.174857"],
    [3543,"2024-05-27 14:00:00","13","galatina","21.76","1","63.84","1","0.0","1","null","6","null","6","null","6","1010.62","1","40.167168","18.174857"],
    [3544,"2024-05-27 15:00:00","13","galatina","24.48","1","52.29","1","0.0","1","null","6","null","6","null","6","1010.36","1","40.167168","18.174857"],
    [3545,"2024-05-27 16:00:00","13","galatina","25.84","1","44.34","1","0.0","1","null","6","null","6","null","6","1009.83","1","40.167168","18.174857"],
    [3546,"2024-05-27 17:00:00","13","galatina","23.44","1","58.02","1","0.0","1","null","6","null","6","null","6","1009.69","1","40.167168","18.174857"],
    [3547,"2024-05-27 18:00:00","13","galatina","24.28","1","50.88","1","0.0","1","null","6","null","6","null","6","1009.77","1","40.167168","18.174857"],
    [3548,"2024-05-27 19:00:00","13","galatina","22.54","1","59.81","1","0.0","1","null","6","null","6","null","6","1010.07","1","40.167168","18.174857"],
    [3549,"2024-05-27 20:00:00","13","galatina","20.45","1","67.88","1","0.0","1","null","6","null","6","null","6","1010.38","1","40.167168","18.174857"],
    [3550,"2024-05-27 21:00:00","13","galatina","19.24","1","73.41","1","0.0","1","null","6","null","6","null","6","1010.78","1","40.167168","18.174857"],
    [3551,"2024-05-27 22:00:00","13","galatina","18.37","1","78.61","1","0.0","1","null","6","null","6","null","6","1010.96","1","40.167168","18.174857"],
    [3552,"2024-05-27 23:00:00","13","galatina","17.0","1","83.99","1","0.0","1","null","6","null","6","null","6","1010.93","1","40.167168","18.174857"],
    [3553,"2024-05-28 00:00:00","13","galatina","16.15","1","86.73","1","0.0","1","null","6","null","6","null","6","1010.82","1","40.167168","18.174857"],
    [3554,"2024-05-28 01:00:00","13","galatina","15.37","1","88.26","1","0.0","1","null","6","null","6","null","6","1010.55","1","40.167168","18.174857"],
    [3555,"2024-05-28 02:00:00","13","galatina","14.63","1","90.93","1","0.0","1","null","6","null","6","null","6","1010.29","1","40.167168","18.174857"],
    [3556,"2024-05-28 03:00:00","13","galatina","14.36","1","90.96","1","0.0","1","null","6","null","6","null","6","1010.04","1","40.167168","18.174857"],
    [3557,"2024-05-28 04:00:00","13","galatina","13.97","1","90.84","1","0.0","1","null","6","null","6","null","6","1009.9","1","40.167168","18.174857"],
    [3558,"2024-05-28 05:00:00","13","galatina","14.02","1","91.01","1","0.0","1","null","6","null","6","null","6","1009.88","1","40.167168","18.174857"],
    [3559,"2024-05-28 06:00:00","13","galatina","16.37","1","86.24","1","0.0","1","null","6","null","6","null","6","1009.87","1","40.167168","18.174857"],
    [3560,"2024-05-28 07:00:00","13","galatina","21.86","1","61.5","1","0.0","1","null","6","null","6","null","6","1009.75","1","40.167168","18.174857"],
    [3561,"2024-05-28 08:00:00","13","galatina","23.91","1","52.58","1","0.0","1","null","6","null","6","null","6","1009.5","1","40.167168","18.174857"],
    [3562,"2024-05-28 09:00:00","13","galatina","25.0","1","49.76","1","0.0","1","null","6","null","6","null","6","1009.26","1","40.167168","18.174857"],
    [3563,"2024-05-28 10:00:00","13","galatina","24.57","1","51.05","1","0.0","1","null","6","null","6","null","6","1009.11","1","40.167168","18.174857"],
    [3564,"2024-05-28 11:00:00","13","galatina","24.92","1","54.29","1","0.0","1","null","6","null","6","null","6","1008.96","1","40.167168","18.174857"],
    [3565,"2024-05-28 12:00:00","13","galatina","24.32","1","53.95","1","0.0","1","null","6","null","6","null","6","1009.05","1","40.167168","18.174857"],
    [3566,"2024-05-28 13:00:00","13","galatina","22.01","1","55.96","1","0.0","1","null","6","null","6","null","6","1009.17","1","40.167168","18.174857"],
    [3567,"2024-05-28 14:00:00","13","galatina","23.05","1","55.12","1","0.0","1","null","6","null","6","null","6","1008.65","1","40.167168","18.174857"],
    [3568,"2024-05-28 15:00:00","13","galatina","26.39","1","44.96","1","0.0","1","null","6","null","6","null","6","1007.9","1","40.167168","18.174857"],
    [3569,"2024-05-28 16:00:00","13","galatina","26.89","1","40.83","1","0.0","1","null","6","null","6","null","6","1007.65","1","40.167168","18.174857"],
    [3570,"2024-05-28 17:00:00","13","galatina","25.35","1","44.93","1","0.0","1","null","6","null","6","null","6","1007.91","1","40.167168","18.174857"],
    [3571,"2024-05-28 18:00:00","13","galatina","23.47","1","48.51","1","0.0","1","null","6","null","6","null","6","1008.13","1","40.167168","18.174857"],
    [3572,"2024-05-28 19:00:00","13","galatina","22.03","1","55.24","1","0.0","1","null","6","null","6","null","6","1008.36","1","40.167168","18.174857"],
    [3573,"2024-05-28 20:00:00","13","galatina","20.71","1","63.91","1","0.0","1","null","6","null","6","null","6","1008.42","1","40.167168","18.174857"],
    [3574,"2024-05-28 21:00:00","13","galatina","19.19","1","71.45","1","0.0","1","null","6","null","6","null","6","1008.68","1","40.167168","18.174857"],
    [3575,"2024-05-28 22:00:00","13","galatina","18.35","1","76.71","1","0.0","1","null","6","null","6","null","6","1008.93","1","40.167168","18.174857"],
    [3576,"2024-05-28 23:00:00","13","galatina","17.7","1","81.42","1","0.0","1","null","6","null","6","null","6","1009.06","1","40.167168","18.174857"],
    [3577,"2024-05-29 00:00:00","13","galatina","17.03","1","83.86","1","0.0","1","null","6","null","6","null","6","1009.21","1","40.167168","18.174857"],
    [3578,"2024-05-29 01:00:00","13","galatina","16.31","1","86.75","1","0.0","1","null","6","null","6","null","6","1009.18","1","40.167168","18.174857"],
    [3579,"2024-05-29 02:00:00","13","galatina","15.91","1","88.63","1","0.0","1","null","6","null","6","null","6","1009.03","1","40.167168","18.174857"],
    [3580,"2024-05-29 03:00:00","13","galatina","15.51","1","90.49","1","0.0","1","null","6","null","6","null","6","1008.79","1","40.167168","18.174857"],
    [3581,"2024-05-29 04:00:00","13","galatina","15.38","1","91.6","1","0.0","1","null","6","null","6","null","6","1008.67","1","40.167168","18.174857"],
    [3582,"2024-05-29 05:00:00","13","galatina","15.32","1","92.66","1","0.0","1","null","6","null","6","null","6","1008.48","1","40.167168","18.174857"],
    [3583,"2024-05-29 06:00:00","13","galatina","16.37","1","91.47","1","0.0","1","null","6","null","6","null","6","1008.55","1","40.167168","18.174857"],
    [3584,"2024-05-29 07:00:00","13","galatina","21.21","1","74.59","1","0.0","1","null","6","null","6","null","6","1008.57","1","40.167168","18.174857"],
    [3585,"2024-05-29 08:00:00","13","galatina","24.18","1","62.05","1","0.0","1","null","6","null","6","null","6","1008.27","1","40.167168","18.174857"],
    [3586,"2024-05-29 09:00:00","13","galatina","24.28","1","59.64","1","0.0","1","null","6","null","6","null","6","1008.01","1","40.167168","18.174857"],
    [3587,"2024-05-29 10:00:00","13","galatina","25.93","1","53.0","1","0.0","1","null","6","null","6","null","6","1007.65","1","40.167168","18.174857"],
    [3588,"2024-05-29 11:00:00","13","galatina","24.1","1","59.91","1","0.0","1","null","6","null","6","null","6","1007.66","1","40.167168","18.174857"],
    [3589,"2024-05-29 12:00:00","13","galatina","19.2","1","78.38","1","2.2","1","null","6","null","6","null","6","1007.78","1","40.167168","18.174857"],
    [3590,"2024-05-29 13:00:00","13","galatina","17.8","1","82.03","1","1.2","1","null","6","null","6","null","6","1008.06","1","40.167168","18.174857"],
    [3591,"2024-05-29 14:00:00","13","galatina","16.96","1","88.84","1","0.2","1","null","6","null","6","null","6","1008.04","1","40.167168","18.174857"],
    [3592,"2024-05-29 15:00:00","13","galatina","20.35","1","72.55","1","0.0","1","null","6","null","6","null","6","1007.44","1","40.167168","18.174857"],
    [3593,"2024-05-29 16:00:00","13","galatina","23.98","1","57.21","1","0.0","1","null","6","null","6","null","6","1007.07","1","40.167168","18.174857"],
    [3594,"2024-05-29 17:00:00","13","galatina","24.86","1","53.49","1","0.0","1","null","6","null","6","null","6","1006.88","1","40.167168","18.174857"],
    [3595,"2024-05-29 18:00:00","13","galatina","25.1","1","49.88","1","0.2","1","null","6","null","6","null","6","1006.83","1","40.167168","18.174857"],
    [3596,"2024-05-29 19:00:00","13","galatina","22.08","1","59.83","1","0.0","1","null","6","null","6","null","6","1006.94","1","40.167168","18.174857"],
    [3597,"2024-05-29 20:00:00","13","galatina","20.2","1","70.94","1","0.0","1","null","6","null","6","null","6","1007.1","1","40.167168","18.174857"],
    [3598,"2024-05-29 21:00:00","13","galatina","19.01","1","77.32","1","0.0","1","null","6","null","6","null","6","1007.51","1","40.167168","18.174857"],
    [3599,"2024-05-29 22:00:00","13","galatina","17.83","1","84.66","1","0.0","1","null","6","null","6","null","6","1007.73","1","40.167168","18.174857"],
    [3600,"2024-05-29 23:00:00","13","galatina","16.86","1","89.98","1","0.0","1","null","6","null","6","null","6","1007.64","1","40.167168","18.174857"],
    [3601,"2024-05-30 00:00:00","13","galatina","16.41","1","92.32","1","0.0","1","null","6","null","6","null","6","1007.72","1","40.167168","18.174857"],
    [3602,"2024-05-30 01:00:00","13","galatina","15.9","1","94.18","1","0.0","1","null","6","null","6","null","6","1007.53","1","40.167168","18.174857"],
    [3603,"2024-05-30 02:00:00","13","galatina","15.43","1","95.36","1","0.0","1","null","6","null","6","null","6","1007.24","1","40.167168","18.174857"],
    [3604,"2024-05-30 03:00:00","13","galatina","15.02","1","96.04","1","0.0","1","null","6","null","6","null","6","1006.97","1","40.167168","18.174857"],
    [3605,"2024-05-30 04:00:00","13","galatina","14.69","1","96.54","1","0.0","1","null","6","null","6","null","6","1006.81","1","40.167168","18.174857"],
    [3606,"2024-05-30 05:00:00","13","galatina","14.27","1","96.85","1","0.0","1","null","6","null","6","null","6","1006.86","1","40.167168","18.174857"],
    [3607,"2024-05-30 06:00:00","13","galatina","16.34","1","94.78","1","0.0","1","null","6","null","6","null","6","1006.91","1","40.167168","18.174857"],
    [3608,"2024-05-30 07:00:00","13","galatina","20.04","1","82.88","1","0.0","1","null","6","null","6","null","6","1006.71","1","40.167168","18.174857"],
    [3609,"2024-05-30 08:00:00","13","galatina","23.88","1","63.65","1","0.0","1","null","6","null","6","null","6","1006.49","1","40.167168","18.174857"],
    [3610,"2024-05-30 09:00:00","13","galatina","25.29","1","53.01","1","0.0","1","null","6","null","6","null","6","1006.27","1","40.167168","18.174857"],
    [3611,"2024-05-30 10:00:00","13","galatina","26.24","1","46.45","1","0.0","1","null","6","null","6","null","6","1006.1","1","40.167168","18.174857"],
    [3612,"2024-05-30 11:00:00","13","galatina","26.37","1","45.19","1","0.0","1","null","6","null","6","null","6","1005.85","1","40.167168","18.174857"],
    [3613,"2024-05-30 12:00:00","13","galatina","24.2","1","61.46","1","0.6","1","null","6","null","6","null","6","1005.71","1","40.167168","18.174857"],
    [3614,"2024-05-30 13:00:00","13","galatina","23.87","1","64.46","1","0.0","1","null","6","null","6","null","6","1005.52","1","40.167168","18.174857"],
    [3615,"2024-05-30 14:00:00","13","galatina","26.43","1","46.2","1","0.0","1","null","6","null","6","null","6","1005.46","1","40.167168","18.174857"],
    [3616,"2024-05-30 15:00:00","13","galatina","26.29","1","47.04","1","0.0","1","null","6","null","6","null","6","1005.23","1","40.167168","18.174857"],
    [3617,"2024-05-30 16:00:00","13","galatina","25.91","1","47.28","1","0.0","1","null","6","null","6","null","6","1005.11","1","40.167168","18.174857"],
    [3618,"2024-05-30 17:00:00","13","galatina","25.12","1","52.0","1","0.0","1","null","6","null","6","null","6","1004.96","1","40.167168","18.174857"],
    [3619,"2024-05-30 18:00:00","13","galatina","23.81","1","55.06","1","0.0","1","null","6","null","6","null","6","1004.94","1","40.167168","18.174857"],
    [3620,"2024-05-30 19:00:00","13","galatina","22.3","1","59.88","1","0.0","1","null","6","null","6","null","6","1005.25","1","40.167168","18.174857"],
    [3621,"2024-05-30 20:00:00","13","galatina","20.79","1","75.56","1","0.0","1","null","6","null","6","null","6","1005.42","1","40.167168","18.174857"],
    [3622,"2024-05-30 21:00:00","13","galatina","20.04","1","84.64","1","0.0","1","null","6","null","6","null","6","1005.9","1","40.167168","18.174857"],
    [3623,"2024-05-30 22:00:00","13","galatina","19.69","1","87.05","1","0.0","1","null","6","null","6","null","6","1006.11","1","40.167168","18.174857"],
    [3624,"2024-05-30 23:00:00","13","galatina","19.49","1","89.33","1","0.0","1","null","6","null","6","null","6","1006.01","1","40.167168","18.174857"],
    [3625,"2024-05-31 00:00:00","13","galatina","19.73","1","88.54","1","0.0","1","null","6","null","6","null","6","1006.01","1","40.167168","18.174857"],
    [3626,"2024-05-31 01:00:00","13","galatina","19.49","1","88.68","1","0.0","1","null","6","null","6","null","6","1006.01","1","40.167168","18.174857"],
    [3627,"2024-05-31 02:00:00","13","galatina","19.19","1","89.55","1","0.0","1","null","6","null","6","null","6","1005.89","1","40.167168","18.174857"],
    [3628,"2024-05-31 03:00:00","13","galatina","19.01","1","89.5","1","0.0","1","null","6","null","6","null","6","1005.82","1","40.167168","18.174857"],
    [3629,"2024-05-31 04:00:00","13","galatina","18.95","1","89.52","1","0.0","1","null","6","null","6","null","6","1005.88","1","40.167168","18.174857"],
    [3630,"2024-05-31 05:00:00","13","galatina","19.09","1","89.44","1","0.0","1","null","6","null","6","null","6","1006.13","1","40.167168","18.174857"],
    [3631,"2024-05-31 06:00:00","13","galatina","19.6","1","86.27","1","0.0","1","null","6","null","6","null","6","1006.27","1","40.167168","18.174857"],
    [3632,"2024-05-31 07:00:00","13","galatina","20.58","1","79.98","1","0.0","1","null","6","null","6","null","6","1006.44","1","40.167168","18.174857"],
    [3633,"2024-05-31 08:00:00","13","galatina","21.9","1","72.03","1","0.0","1","null","6","null","6","null","6","1006.68","1","40.167168","18.174857"],
    [3634,"2024-05-31 09:00:00","13","galatina","22.84","1","65.09","1","0.0","1","null","6","null","6","null","6","1006.52","1","40.167168","18.174857"],
    [3635,"2024-05-31 10:00:00","13","galatina","23.08","1","65.22","1","0.0","1","null","6","null","6","null","6","1006.68","1","40.167168","18.174857"],
    [3636,"2024-05-31 11:00:00","13","galatina","24.75","1","59.01","1","0.0","1","null","6","null","6","null","6","1006.92","1","40.167168","18.174857"],
    [3637,"2024-05-31 12:00:00","13","galatina","25.05","1","56.69","1","0.0","1","null","6","null","6","null","6","1006.65","1","40.167168","18.174857"],
    [3638,"2024-05-31 13:00:00","13","galatina","24.86","1","58.85","1","0.0","1","null","6","null","6","null","6","1006.64","1","40.167168","18.174857"],
    [3639,"2024-05-31 14:00:00","13","galatina","25.2","1","58.66","1","0.0","1","null","6","null","6","null","6","1006.74","1","40.167168","18.174857"],
    [3640,"2024-05-31 15:00:00","13","galatina","25.26","1","58.73","1","0.0","1","null","6","null","6","null","6","1006.59","1","40.167168","18.174857"],
    [3641,"2024-05-31 16:00:00","13","galatina","25.21","1","57.63","1","0.0","1","null","6","null","6","null","6","1006.67","1","40.167168","18.174857"],
    [3642,"2024-05-31 17:00:00","13","galatina","24.44","1","57.72","1","0.0","1","null","6","null","6","null","6","1006.72","1","40.167168","18.174857"],
    [3643,"2024-05-31 18:00:00","13","galatina","22.92","1","64.93","1","0.0","1","null","6","null","6","null","6","1006.82","1","40.167168","18.174857"],
    [3644,"2024-05-31 19:00:00","13","galatina","21.92","1","73.61","1","0.0","1","null","6","null","6","null","6","1007.33","1","40.167168","18.174857"],
    [3645,"2024-05-31 20:00:00","13","galatina","21.37","1","77.35","1","0.0","1","null","6","null","6","null","6","1007.48","1","40.167168","18.174857"],
    [3646,"2024-05-31 21:00:00","13","galatina","20.95","1","80.16","1","0.0","1","null","6","null","6","null","6","1007.76","1","40.167168","18.174857"],
    [3647,"2024-05-31 22:00:00","13","galatina","20.68","1","81.9","1","0.0","1","null","6","null","6","null","6","1008.19","1","40.167168","18.174857"],
    [3648,"2024-05-31 23:00:00","13","galatina","null","6","null","6","0.0","1","null","6","null","6","null","6","null","6","40.167168","18.174857\t"]
]}
